<?xml version="1.0" encoding="UTF-8" standalone="no" ?>
<gpx xmlns="http://www.topografix.com/GPX/1/1" xmlns:xsi="http://www.w3.org/2001/XMLSchema-instance" xsi:schemaLocation="http://www.topografix.com/GPX/1/1 http://www.topografix.com/GPX/1/1/gpx.xsd" version="1.1" creator="VisuGPX - https://www.visugpx.com">
  <metadata>
    <name>couchey 11.12.2012</name>
    <desc><![CDATA[rando couchey du 11]]></desc>
  </metadata>
  <trk>
    <name><![CDATA[Couchey]]></name>
    <cmt><![CDATA[Allan]]></cmt>
    <trkseg>
      <trkpt lat="47.26003" lon="4.979">
        <ele>294</ele>
        <time>2012-12-11T12:30:55.1Z</time>
      </trkpt>
      <trkpt lat="47.26002" lon="4.979">
        <ele>295</ele>
        <time>2012-12-11T12:30:57.1Z</time>
      </trkpt>
      <trkpt lat="47.26002" lon="4.97898">
        <ele>295</ele>
        <time>2012-12-11T12:30:59.1Z</time>
      </trkpt>
      <trkpt lat="47.26002" lon="4.97896">
        <ele>294</ele>
        <time>2012-12-11T12:31:01.1Z</time>
      </trkpt>
      <trkpt lat="47.26003" lon="4.97894">
        <ele>294</ele>
        <time>2012-12-11T12:31:03.1Z</time>
      </trkpt>
      <trkpt lat="47.26004" lon="4.97892">
        <ele>294</ele>
        <time>2012-12-11T12:31:05.1Z</time>
      </trkpt>
      <trkpt lat="47.26006" lon="4.97889">
        <ele>294</ele>
        <time>2012-12-11T12:31:07.1Z</time>
      </trkpt>
      <trkpt lat="47.26006" lon="4.97887">
        <ele>295</ele>
        <time>2012-12-11T12:31:09.1Z</time>
      </trkpt>
      <trkpt lat="47.26007" lon="4.97886">
        <ele>295</ele>
        <time>2012-12-11T12:31:11.1Z</time>
      </trkpt>
      <trkpt lat="47.26007" lon="4.97883">
        <ele>295</ele>
        <time>2012-12-11T12:31:13.1Z</time>
      </trkpt>
      <trkpt lat="47.26008" lon="4.9788">
        <ele>295</ele>
        <time>2012-12-11T12:31:15.1Z</time>
      </trkpt>
      <trkpt lat="47.26009" lon="4.97879">
        <ele>295</ele>
        <time>2012-12-11T12:31:17.1Z</time>
      </trkpt>
      <trkpt lat="47.26009" lon="4.97879">
        <ele>295</ele>
        <time>2012-12-11T12:31:19.1Z</time>
      </trkpt>
      <trkpt lat="47.26011" lon="4.97881">
        <ele>295</ele>
        <time>2012-12-11T12:31:21.1Z</time>
      </trkpt>
      <trkpt lat="47.26012" lon="4.97882">
        <ele>295</ele>
        <time>2012-12-11T12:31:24.1Z</time>
      </trkpt>
      <trkpt lat="47.26014" lon="4.97882">
        <ele>296</ele>
        <time>2012-12-11T12:31:26.1Z</time>
      </trkpt>
      <trkpt lat="47.26015" lon="4.97881">
        <ele>295</ele>
        <time>2012-12-11T12:31:28.1Z</time>
      </trkpt>
      <trkpt lat="47.26016" lon="4.9788">
        <ele>296</ele>
        <time>2012-12-11T12:31:30.1Z</time>
      </trkpt>
      <trkpt lat="47.26017" lon="4.9788">
        <ele>296</ele>
        <time>2012-12-11T12:31:32.1Z</time>
      </trkpt>
      <trkpt lat="47.26016" lon="4.97879">
        <ele>295</ele>
        <time>2012-12-11T12:31:34.1Z</time>
      </trkpt>
      <trkpt lat="47.26016" lon="4.97877">
        <ele>295</ele>
        <time>2012-12-11T12:31:37.1Z</time>
      </trkpt>
      <trkpt lat="47.26016" lon="4.97874">
        <ele>295</ele>
        <time>2012-12-11T12:31:39.1Z</time>
      </trkpt>
      <trkpt lat="47.26017" lon="4.97871">
        <ele>295</ele>
        <time>2012-12-11T12:31:41.1Z</time>
      </trkpt>
      <trkpt lat="47.26019" lon="4.97869">
        <ele>295</ele>
        <time>2012-12-11T12:31:43.1Z</time>
      </trkpt>
      <trkpt lat="47.26022" lon="4.97869">
        <ele>295</ele>
        <time>2012-12-11T12:31:45.1Z</time>
      </trkpt>
      <trkpt lat="47.26025" lon="4.97868">
        <ele>295</ele>
        <time>2012-12-11T12:31:47.1Z</time>
      </trkpt>
      <trkpt lat="47.26029" lon="4.97867">
        <ele>295</ele>
        <time>2012-12-11T12:31:49.1Z</time>
      </trkpt>
      <trkpt lat="47.26033" lon="4.97866">
        <ele>296</ele>
        <time>2012-12-11T12:31:52.1Z</time>
      </trkpt>
      <trkpt lat="47.26036" lon="4.97865">
        <ele>296</ele>
        <time>2012-12-11T12:31:54.1Z</time>
      </trkpt>
      <trkpt lat="47.2604" lon="4.97863">
        <ele>296</ele>
        <time>2012-12-11T12:31:56.1Z</time>
      </trkpt>
      <trkpt lat="47.26043" lon="4.97861">
        <ele>296</ele>
        <time>2012-12-11T12:31:58.1Z</time>
      </trkpt>
      <trkpt lat="47.26046" lon="4.9786">
        <ele>296</ele>
        <time>2012-12-11T12:32:00.1Z</time>
      </trkpt>
      <trkpt lat="47.26049" lon="4.97858">
        <ele>296</ele>
        <time>2012-12-11T12:32:02.1Z</time>
      </trkpt>
      <trkpt lat="47.26052" lon="4.97858">
        <ele>296</ele>
        <time>2012-12-11T12:32:04.1Z</time>
      </trkpt>
      <trkpt lat="47.26054" lon="4.97859">
        <ele>297</ele>
        <time>2012-12-11T12:32:07.1Z</time>
      </trkpt>
      <trkpt lat="47.26056" lon="4.97862">
        <ele>297</ele>
        <time>2012-12-11T12:32:09.1Z</time>
      </trkpt>
      <trkpt lat="47.2606" lon="4.97866">
        <ele>297</ele>
        <time>2012-12-11T12:32:11.1Z</time>
      </trkpt>
      <trkpt lat="47.26062" lon="4.9787">
        <ele>298</ele>
        <time>2012-12-11T12:32:13.1Z</time>
      </trkpt>
      <trkpt lat="47.26064" lon="4.97873">
        <ele>298</ele>
        <time>2012-12-11T12:32:15.1Z</time>
      </trkpt>
      <trkpt lat="47.26067" lon="4.97875">
        <ele>298</ele>
        <time>2012-12-11T12:32:17.1Z</time>
      </trkpt>
      <trkpt lat="47.2607" lon="4.97877">
        <ele>298</ele>
        <time>2012-12-11T12:32:19.1Z</time>
      </trkpt>
      <trkpt lat="47.26072" lon="4.97878">
        <ele>298</ele>
        <time>2012-12-11T12:32:21.1Z</time>
      </trkpt>
      <trkpt lat="47.26075" lon="4.9788">
        <ele>298</ele>
        <time>2012-12-11T12:32:23.1Z</time>
      </trkpt>
      <trkpt lat="47.26077" lon="4.97883">
        <ele>298</ele>
        <time>2012-12-11T12:32:26.1Z</time>
      </trkpt>
      <trkpt lat="47.26078" lon="4.97885">
        <ele>298</ele>
        <time>2012-12-11T12:32:28.1Z</time>
      </trkpt>
      <trkpt lat="47.2608" lon="4.97887">
        <ele>298</ele>
        <time>2012-12-11T12:32:30.1Z</time>
      </trkpt>
      <trkpt lat="47.26081" lon="4.97889">
        <ele>298</ele>
        <time>2012-12-11T12:32:32.1Z</time>
      </trkpt>
      <trkpt lat="47.26082" lon="4.97889">
        <ele>298</ele>
        <time>2012-12-11T12:32:34.1Z</time>
      </trkpt>
      <trkpt lat="47.26083" lon="4.97887">
        <ele>298</ele>
        <time>2012-12-11T12:32:36.1Z</time>
      </trkpt>
      <trkpt lat="47.26084" lon="4.97887">
        <ele>298</ele>
        <time>2012-12-11T12:32:38.1Z</time>
      </trkpt>
      <trkpt lat="47.26087" lon="4.97888">
        <ele>298</ele>
        <time>2012-12-11T12:32:40.1Z</time>
      </trkpt>
      <trkpt lat="47.2609" lon="4.9789">
        <ele>298</ele>
        <time>2012-12-11T12:32:42.1Z</time>
      </trkpt>
      <trkpt lat="47.26093" lon="4.97891">
        <ele>298</ele>
        <time>2012-12-11T12:32:44.1Z</time>
      </trkpt>
      <trkpt lat="47.26096" lon="4.97893">
        <ele>298</ele>
        <time>2012-12-11T12:32:46.1Z</time>
      </trkpt>
      <trkpt lat="47.26097" lon="4.97896">
        <ele>299</ele>
        <time>2012-12-11T12:32:48.1Z</time>
      </trkpt>
      <trkpt lat="47.26097" lon="4.97896">
        <ele>299</ele>
        <time>2012-12-11T12:32:50.1Z</time>
      </trkpt>
      <trkpt lat="47.26096" lon="4.97895">
        <ele>299</ele>
        <time>2012-12-11T12:32:52.1Z</time>
      </trkpt>
      <trkpt lat="47.26099" lon="4.97896">
        <ele>299</ele>
        <time>2012-12-11T12:32:55.1Z</time>
      </trkpt>
      <trkpt lat="47.26102" lon="4.97897">
        <ele>299</ele>
        <time>2012-12-11T12:32:57.1Z</time>
      </trkpt>
      <trkpt lat="47.26107" lon="4.97899">
        <ele>299</ele>
        <time>2012-12-11T12:32:59.1Z</time>
      </trkpt>
      <trkpt lat="47.2611" lon="4.979">
        <ele>300</ele>
        <time>2012-12-11T12:33:01.1Z</time>
      </trkpt>
      <trkpt lat="47.26113" lon="4.97901">
        <ele>299</ele>
        <time>2012-12-11T12:33:03.1Z</time>
      </trkpt>
      <trkpt lat="47.26115" lon="4.97902">
        <ele>299</ele>
        <time>2012-12-11T12:33:05.1Z</time>
      </trkpt>
      <trkpt lat="47.26118" lon="4.97905">
        <ele>299</ele>
        <time>2012-12-11T12:33:07.1Z</time>
      </trkpt>
      <trkpt lat="47.26121" lon="4.97906">
        <ele>299</ele>
        <time>2012-12-11T12:33:10.1Z</time>
      </trkpt>
      <trkpt lat="47.26124" lon="4.97908">
        <ele>299</ele>
        <time>2012-12-11T12:33:12.1Z</time>
      </trkpt>
      <trkpt lat="47.26127" lon="4.97909">
        <ele>299</ele>
        <time>2012-12-11T12:33:14.1Z</time>
      </trkpt>
      <trkpt lat="47.26131" lon="4.97912">
        <ele>299</ele>
        <time>2012-12-11T12:33:16.1Z</time>
      </trkpt>
      <trkpt lat="47.26133" lon="4.97913">
        <ele>299</ele>
        <time>2012-12-11T12:33:18.1Z</time>
      </trkpt>
      <trkpt lat="47.26136" lon="4.97913">
        <ele>299</ele>
        <time>2012-12-11T12:33:20.1Z</time>
      </trkpt>
      <trkpt lat="47.26139" lon="4.97914">
        <ele>299</ele>
        <time>2012-12-11T12:33:22.1Z</time>
      </trkpt>
      <trkpt lat="47.26141" lon="4.97915">
        <ele>299</ele>
        <time>2012-12-11T12:33:24.1Z</time>
      </trkpt>
      <trkpt lat="47.26143" lon="4.97916">
        <ele>299</ele>
        <time>2012-12-11T12:33:26.1Z</time>
      </trkpt>
      <trkpt lat="47.26145" lon="4.97917">
        <ele>299</ele>
        <time>2012-12-11T12:33:29.1Z</time>
      </trkpt>
      <trkpt lat="47.26147" lon="4.97918">
        <ele>299</ele>
        <time>2012-12-11T12:33:31.1Z</time>
      </trkpt>
      <trkpt lat="47.2615" lon="4.9792">
        <ele>299</ele>
        <time>2012-12-11T12:33:33.1Z</time>
      </trkpt>
      <trkpt lat="47.26152" lon="4.97922">
        <ele>299</ele>
        <time>2012-12-11T12:33:35.1Z</time>
      </trkpt>
      <trkpt lat="47.26155" lon="4.97923">
        <ele>299</ele>
        <time>2012-12-11T12:33:37.1Z</time>
      </trkpt>
      <trkpt lat="47.26159" lon="4.97925">
        <ele>298</ele>
        <time>2012-12-11T12:33:39.1Z</time>
      </trkpt>
      <trkpt lat="47.26163" lon="4.97927">
        <ele>298</ele>
        <time>2012-12-11T12:33:41.1Z</time>
      </trkpt>
      <trkpt lat="47.26165" lon="4.97929">
        <ele>298</ele>
        <time>2012-12-11T12:33:43.1Z</time>
      </trkpt>
      <trkpt lat="47.26168" lon="4.97931">
        <ele>298</ele>
        <time>2012-12-11T12:33:45.1Z</time>
      </trkpt>
      <trkpt lat="47.26171" lon="4.97933">
        <ele>299</ele>
        <time>2012-12-11T12:33:47.1Z</time>
      </trkpt>
      <trkpt lat="47.26174" lon="4.97934">
        <ele>299</ele>
        <time>2012-12-11T12:33:49.1Z</time>
      </trkpt>
      <trkpt lat="47.26177" lon="4.97935">
        <ele>298</ele>
        <time>2012-12-11T12:33:51.1Z</time>
      </trkpt>
      <trkpt lat="47.2618" lon="4.97935">
        <ele>298</ele>
        <time>2012-12-11T12:33:54.1Z</time>
      </trkpt>
      <trkpt lat="47.26183" lon="4.97935">
        <ele>298</ele>
        <time>2012-12-11T12:33:56.1Z</time>
      </trkpt>
      <trkpt lat="47.26187" lon="4.97933">
        <ele>298</ele>
        <time>2012-12-11T12:33:58.1Z</time>
      </trkpt>
      <trkpt lat="47.26189" lon="4.9793">
        <ele>298</ele>
        <time>2012-12-11T12:34:00.1Z</time>
      </trkpt>
      <trkpt lat="47.26191" lon="4.97928">
        <ele>298</ele>
        <time>2012-12-11T12:34:02.1Z</time>
      </trkpt>
      <trkpt lat="47.26193" lon="4.97925">
        <ele>298</ele>
        <time>2012-12-11T12:34:04.1Z</time>
      </trkpt>
      <trkpt lat="47.26195" lon="4.97922">
        <ele>298</ele>
        <time>2012-12-11T12:34:06.1Z</time>
      </trkpt>
      <trkpt lat="47.26197" lon="4.9792">
        <ele>298</ele>
        <time>2012-12-11T12:34:08.1Z</time>
      </trkpt>
      <trkpt lat="47.26199" lon="4.97918">
        <ele>298</ele>
        <time>2012-12-11T12:34:10.1Z</time>
      </trkpt>
      <trkpt lat="47.26201" lon="4.97916">
        <ele>298</ele>
        <time>2012-12-11T12:34:13.1Z</time>
      </trkpt>
      <trkpt lat="47.26202" lon="4.97913">
        <ele>298</ele>
        <time>2012-12-11T12:34:15.1Z</time>
      </trkpt>
      <trkpt lat="47.26204" lon="4.97911">
        <ele>298</ele>
        <time>2012-12-11T12:34:17.1Z</time>
      </trkpt>
      <trkpt lat="47.26206" lon="4.97909">
        <ele>298</ele>
        <time>2012-12-11T12:34:19.1Z</time>
      </trkpt>
      <trkpt lat="47.26208" lon="4.97907">
        <ele>298</ele>
        <time>2012-12-11T12:34:21.1Z</time>
      </trkpt>
      <trkpt lat="47.2621" lon="4.97904">
        <ele>298</ele>
        <time>2012-12-11T12:34:23.1Z</time>
      </trkpt>
      <trkpt lat="47.26213" lon="4.97901">
        <ele>299</ele>
        <time>2012-12-11T12:34:25.1Z</time>
      </trkpt>
      <trkpt lat="47.26215" lon="4.97899">
        <ele>299</ele>
        <time>2012-12-11T12:34:27.1Z</time>
      </trkpt>
      <trkpt lat="47.26218" lon="4.97897">
        <ele>299</ele>
        <time>2012-12-11T12:34:29.1Z</time>
      </trkpt>
      <trkpt lat="47.2622" lon="4.97895">
        <ele>299</ele>
        <time>2012-12-11T12:34:31.1Z</time>
      </trkpt>
      <trkpt lat="47.26222" lon="4.97893">
        <ele>299</ele>
        <time>2012-12-11T12:34:33.1Z</time>
      </trkpt>
      <trkpt lat="47.26224" lon="4.97891">
        <ele>299</ele>
        <time>2012-12-11T12:34:35.1Z</time>
      </trkpt>
      <trkpt lat="47.26227" lon="4.9789">
        <ele>299</ele>
        <time>2012-12-11T12:34:37.1Z</time>
      </trkpt>
      <trkpt lat="47.26229" lon="4.97889">
        <ele>299</ele>
        <time>2012-12-11T12:34:39.1Z</time>
      </trkpt>
      <trkpt lat="47.26232" lon="4.97887">
        <ele>299</ele>
        <time>2012-12-11T12:34:41.1Z</time>
      </trkpt>
      <trkpt lat="47.26234" lon="4.97886">
        <ele>299</ele>
        <time>2012-12-11T12:34:43.1Z</time>
      </trkpt>
      <trkpt lat="47.26237" lon="4.97885">
        <ele>299</ele>
        <time>2012-12-11T12:34:45.1Z</time>
      </trkpt>
      <trkpt lat="47.26239" lon="4.97884">
        <ele>299</ele>
        <time>2012-12-11T12:34:47.1Z</time>
      </trkpt>
      <trkpt lat="47.26242" lon="4.97882">
        <ele>299</ele>
        <time>2012-12-11T12:34:49.1Z</time>
      </trkpt>
      <trkpt lat="47.26244" lon="4.9788">
        <ele>299</ele>
        <time>2012-12-11T12:34:51.1Z</time>
      </trkpt>
      <trkpt lat="47.26247" lon="4.97879">
        <ele>299</ele>
        <time>2012-12-11T12:34:54.1Z</time>
      </trkpt>
      <trkpt lat="47.26249" lon="4.97877">
        <ele>299</ele>
        <time>2012-12-11T12:34:56.1Z</time>
      </trkpt>
      <trkpt lat="47.26252" lon="4.97875">
        <ele>300</ele>
        <time>2012-12-11T12:34:58.1Z</time>
      </trkpt>
      <trkpt lat="47.26254" lon="4.97874">
        <ele>300</ele>
        <time>2012-12-11T12:35:00.1Z</time>
      </trkpt>
      <trkpt lat="47.26258" lon="4.97872">
        <ele>300</ele>
        <time>2012-12-11T12:35:02.1Z</time>
      </trkpt>
      <trkpt lat="47.2626" lon="4.9787">
        <ele>301</ele>
        <time>2012-12-11T12:35:04.1Z</time>
      </trkpt>
      <trkpt lat="47.26263" lon="4.97869">
        <ele>301</ele>
        <time>2012-12-11T12:35:06.1Z</time>
      </trkpt>
      <trkpt lat="47.26265" lon="4.97866">
        <ele>301</ele>
        <time>2012-12-11T12:35:08.1Z</time>
      </trkpt>
      <trkpt lat="47.26267" lon="4.97864">
        <ele>301</ele>
        <time>2012-12-11T12:35:10.1Z</time>
      </trkpt>
      <trkpt lat="47.26269" lon="4.97862">
        <ele>302</ele>
        <time>2012-12-11T12:35:12.1Z</time>
      </trkpt>
      <trkpt lat="47.26271" lon="4.97859">
        <ele>302</ele>
        <time>2012-12-11T12:35:14.1Z</time>
      </trkpt>
      <trkpt lat="47.26274" lon="4.97858">
        <ele>302</ele>
        <time>2012-12-11T12:35:16.1Z</time>
      </trkpt>
      <trkpt lat="47.26276" lon="4.97855">
        <ele>302</ele>
        <time>2012-12-11T12:35:18.1Z</time>
      </trkpt>
      <trkpt lat="47.26278" lon="4.97853">
        <ele>302</ele>
        <time>2012-12-11T12:35:20.1Z</time>
      </trkpt>
      <trkpt lat="47.26281" lon="4.97851">
        <ele>302</ele>
        <time>2012-12-11T12:35:23.1Z</time>
      </trkpt>
      <trkpt lat="47.26283" lon="4.97849">
        <ele>302</ele>
        <time>2012-12-11T12:35:25.1Z</time>
      </trkpt>
      <trkpt lat="47.26286" lon="4.97848">
        <ele>301</ele>
        <time>2012-12-11T12:35:27.1Z</time>
      </trkpt>
      <trkpt lat="47.2629" lon="4.97846">
        <ele>301</ele>
        <time>2012-12-11T12:35:29.1Z</time>
      </trkpt>
      <trkpt lat="47.26292" lon="4.97845">
        <ele>301</ele>
        <time>2012-12-11T12:35:31.1Z</time>
      </trkpt>
      <trkpt lat="47.26295" lon="4.97843">
        <ele>301</ele>
        <time>2012-12-11T12:35:33.1Z</time>
      </trkpt>
      <trkpt lat="47.26297" lon="4.97842">
        <ele>301</ele>
        <time>2012-12-11T12:35:35.1Z</time>
      </trkpt>
      <trkpt lat="47.263" lon="4.97841">
        <ele>301</ele>
        <time>2012-12-11T12:35:37.1Z</time>
      </trkpt>
      <trkpt lat="47.26302" lon="4.9784">
        <ele>302</ele>
        <time>2012-12-11T12:35:39.1Z</time>
      </trkpt>
      <trkpt lat="47.26305" lon="4.97839">
        <ele>302</ele>
        <time>2012-12-11T12:35:42.1Z</time>
      </trkpt>
      <trkpt lat="47.26308" lon="4.97838">
        <ele>302</ele>
        <time>2012-12-11T12:35:44.1Z</time>
      </trkpt>
      <trkpt lat="47.26312" lon="4.97837">
        <ele>302</ele>
        <time>2012-12-11T12:35:46.1Z</time>
      </trkpt>
      <trkpt lat="47.26314" lon="4.97837">
        <ele>302</ele>
        <time>2012-12-11T12:35:48.1Z</time>
      </trkpt>
      <trkpt lat="47.26316" lon="4.97837">
        <ele>302</ele>
        <time>2012-12-11T12:35:50.1Z</time>
      </trkpt>
      <trkpt lat="47.26319" lon="4.97837">
        <ele>302</ele>
        <time>2012-12-11T12:35:52.1Z</time>
      </trkpt>
      <trkpt lat="47.26321" lon="4.97837">
        <ele>302</ele>
        <time>2012-12-11T12:35:54.1Z</time>
      </trkpt>
      <trkpt lat="47.26324" lon="4.97836">
        <ele>301</ele>
        <time>2012-12-11T12:35:57.1Z</time>
      </trkpt>
      <trkpt lat="47.26326" lon="4.97836">
        <ele>301</ele>
        <time>2012-12-11T12:35:59.1Z</time>
      </trkpt>
      <trkpt lat="47.26329" lon="4.97835">
        <ele>300</ele>
        <time>2012-12-11T12:36:01.1Z</time>
      </trkpt>
      <trkpt lat="47.26331" lon="4.97835">
        <ele>301</ele>
        <time>2012-12-11T12:36:03.1Z</time>
      </trkpt>
      <trkpt lat="47.26335" lon="4.97835">
        <ele>301</ele>
        <time>2012-12-11T12:36:05.1Z</time>
      </trkpt>
      <trkpt lat="47.26337" lon="4.97835">
        <ele>301</ele>
        <time>2012-12-11T12:36:07.1Z</time>
      </trkpt>
      <trkpt lat="47.2634" lon="4.97835">
        <ele>301</ele>
        <time>2012-12-11T12:36:09.1Z</time>
      </trkpt>
      <trkpt lat="47.26342" lon="4.97834">
        <ele>301</ele>
        <time>2012-12-11T12:36:12.1Z</time>
      </trkpt>
      <trkpt lat="47.26345" lon="4.97834">
        <ele>301</ele>
        <time>2012-12-11T12:36:14.1Z</time>
      </trkpt>
      <trkpt lat="47.26347" lon="4.97834">
        <ele>301</ele>
        <time>2012-12-11T12:36:16.1Z</time>
      </trkpt>
      <trkpt lat="47.2635" lon="4.97833">
        <ele>301</ele>
        <time>2012-12-11T12:36:18.1Z</time>
      </trkpt>
      <trkpt lat="47.26354" lon="4.97833">
        <ele>301</ele>
        <time>2012-12-11T12:36:20.1Z</time>
      </trkpt>
      <trkpt lat="47.26357" lon="4.97833">
        <ele>301</ele>
        <time>2012-12-11T12:36:22.1Z</time>
      </trkpt>
      <trkpt lat="47.26359" lon="4.97832">
        <ele>301</ele>
        <time>2012-12-11T12:36:24.1Z</time>
      </trkpt>
      <trkpt lat="47.2636" lon="4.97833">
        <ele>301</ele>
        <time>2012-12-11T12:36:26.1Z</time>
      </trkpt>
      <trkpt lat="47.26361" lon="4.97832">
        <ele>301</ele>
        <time>2012-12-11T12:36:28.1Z</time>
      </trkpt>
      <trkpt lat="47.26363" lon="4.97832">
        <ele>301</ele>
        <time>2012-12-11T12:36:31.1Z</time>
      </trkpt>
      <trkpt lat="47.26365" lon="4.97832">
        <ele>301</ele>
        <time>2012-12-11T12:36:33.1Z</time>
      </trkpt>
      <trkpt lat="47.26368" lon="4.97832">
        <ele>301</ele>
        <time>2012-12-11T12:36:35.1Z</time>
      </trkpt>
      <trkpt lat="47.26371" lon="4.97833">
        <ele>301</ele>
        <time>2012-12-11T12:36:37.1Z</time>
      </trkpt>
      <trkpt lat="47.26374" lon="4.97833">
        <ele>301</ele>
        <time>2012-12-11T12:36:39.1Z</time>
      </trkpt>
      <trkpt lat="47.26377" lon="4.97834">
        <ele>301</ele>
        <time>2012-12-11T12:36:41.1Z</time>
      </trkpt>
      <trkpt lat="47.2638" lon="4.97835">
        <ele>301</ele>
        <time>2012-12-11T12:36:43.1Z</time>
      </trkpt>
      <trkpt lat="47.26382" lon="4.97836">
        <ele>301</ele>
        <time>2012-12-11T12:36:45.1Z</time>
      </trkpt>
      <trkpt lat="47.26384" lon="4.97837">
        <ele>301</ele>
        <time>2012-12-11T12:36:47.1Z</time>
      </trkpt>
      <trkpt lat="47.26387" lon="4.97838">
        <ele>301</ele>
        <time>2012-12-11T12:36:49.1Z</time>
      </trkpt>
      <trkpt lat="47.26389" lon="4.97839">
        <ele>301</ele>
        <time>2012-12-11T12:36:51.1Z</time>
      </trkpt>
      <trkpt lat="47.26391" lon="4.9784">
        <ele>301</ele>
        <time>2012-12-11T12:36:53.1Z</time>
      </trkpt>
      <trkpt lat="47.26394" lon="4.97841">
        <ele>301</ele>
        <time>2012-12-11T12:36:55.1Z</time>
      </trkpt>
      <trkpt lat="47.26396" lon="4.97842">
        <ele>301</ele>
        <time>2012-12-11T12:36:57.1Z</time>
      </trkpt>
      <trkpt lat="47.26398" lon="4.97842">
        <ele>301</ele>
        <time>2012-12-11T12:36:59.1Z</time>
      </trkpt>
      <trkpt lat="47.26401" lon="4.97841">
        <ele>300</ele>
        <time>2012-12-11T12:37:02.1Z</time>
      </trkpt>
      <trkpt lat="47.26404" lon="4.9784">
        <ele>300</ele>
        <time>2012-12-11T12:37:04.1Z</time>
      </trkpt>
      <trkpt lat="47.26406" lon="4.97838">
        <ele>300</ele>
        <time>2012-12-11T12:37:06.1Z</time>
      </trkpt>
      <trkpt lat="47.26408" lon="4.97835">
        <ele>300</ele>
        <time>2012-12-11T12:37:08.1Z</time>
      </trkpt>
      <trkpt lat="47.26408" lon="4.97832">
        <ele>300</ele>
        <time>2012-12-11T12:37:10.1Z</time>
      </trkpt>
      <trkpt lat="47.2641" lon="4.97829">
        <ele>300</ele>
        <time>2012-12-11T12:37:12.1Z</time>
      </trkpt>
      <trkpt lat="47.2641" lon="4.97826">
        <ele>301</ele>
        <time>2012-12-11T12:37:14.1Z</time>
      </trkpt>
      <trkpt lat="47.26411" lon="4.97823">
        <ele>300</ele>
        <time>2012-12-11T12:37:16.1Z</time>
      </trkpt>
      <trkpt lat="47.26412" lon="4.97819">
        <ele>300</ele>
        <time>2012-12-11T12:37:18.1Z</time>
      </trkpt>
      <trkpt lat="47.26413" lon="4.97816">
        <ele>301</ele>
        <time>2012-12-11T12:37:20.1Z</time>
      </trkpt>
      <trkpt lat="47.26413" lon="4.97812">
        <ele>301</ele>
        <time>2012-12-11T12:37:22.1Z</time>
      </trkpt>
      <trkpt lat="47.26414" lon="4.97809">
        <ele>301</ele>
        <time>2012-12-11T12:37:24.1Z</time>
      </trkpt>
      <trkpt lat="47.26415" lon="4.97805">
        <ele>302</ele>
        <time>2012-12-11T12:37:27.1Z</time>
      </trkpt>
      <trkpt lat="47.26416" lon="4.97801">
        <ele>302</ele>
        <time>2012-12-11T12:37:29.1Z</time>
      </trkpt>
      <trkpt lat="47.26416" lon="4.97797">
        <ele>302</ele>
        <time>2012-12-11T12:37:31.1Z</time>
      </trkpt>
      <trkpt lat="47.26417" lon="4.97794">
        <ele>302</ele>
        <time>2012-12-11T12:37:33.1Z</time>
      </trkpt>
      <trkpt lat="47.26417" lon="4.9779">
        <ele>302</ele>
        <time>2012-12-11T12:37:35.1Z</time>
      </trkpt>
      <trkpt lat="47.26418" lon="4.97787">
        <ele>302</ele>
        <time>2012-12-11T12:37:37.1Z</time>
      </trkpt>
      <trkpt lat="47.26418" lon="4.97783">
        <ele>302</ele>
        <time>2012-12-11T12:37:39.1Z</time>
      </trkpt>
      <trkpt lat="47.26419" lon="4.97778">
        <ele>302</ele>
        <time>2012-12-11T12:37:41.1Z</time>
      </trkpt>
      <trkpt lat="47.2642" lon="4.97774">
        <ele>302</ele>
        <time>2012-12-11T12:37:43.1Z</time>
      </trkpt>
      <trkpt lat="47.2642" lon="4.97771">
        <ele>302</ele>
        <time>2012-12-11T12:37:45.1Z</time>
      </trkpt>
      <trkpt lat="47.26421" lon="4.97767">
        <ele>302</ele>
        <time>2012-12-11T12:37:47.1Z</time>
      </trkpt>
      <trkpt lat="47.26421" lon="4.97764">
        <ele>303</ele>
        <time>2012-12-11T12:37:49.1Z</time>
      </trkpt>
      <trkpt lat="47.26422" lon="4.9776">
        <ele>303</ele>
        <time>2012-12-11T12:37:51.1Z</time>
      </trkpt>
      <trkpt lat="47.26422" lon="4.97756">
        <ele>303</ele>
        <time>2012-12-11T12:37:53.1Z</time>
      </trkpt>
      <trkpt lat="47.26423" lon="4.97753">
        <ele>303</ele>
        <time>2012-12-11T12:37:55.1Z</time>
      </trkpt>
      <trkpt lat="47.26423" lon="4.97749">
        <ele>303</ele>
        <time>2012-12-11T12:37:57.1Z</time>
      </trkpt>
      <trkpt lat="47.26424" lon="4.97745">
        <ele>304</ele>
        <time>2012-12-11T12:37:59.1Z</time>
      </trkpt>
      <trkpt lat="47.26424" lon="4.97742">
        <ele>304</ele>
        <time>2012-12-11T12:38:01.1Z</time>
      </trkpt>
      <trkpt lat="47.26424" lon="4.97738">
        <ele>304</ele>
        <time>2012-12-11T12:38:04.1Z</time>
      </trkpt>
      <trkpt lat="47.26424" lon="4.97734">
        <ele>304</ele>
        <time>2012-12-11T12:38:06.1Z</time>
      </trkpt>
      <trkpt lat="47.26425" lon="4.9773">
        <ele>304</ele>
        <time>2012-12-11T12:38:08.1Z</time>
      </trkpt>
      <trkpt lat="47.26426" lon="4.97727">
        <ele>304</ele>
        <time>2012-12-11T12:38:10.1Z</time>
      </trkpt>
      <trkpt lat="47.26429" lon="4.97725">
        <ele>305</ele>
        <time>2012-12-11T12:38:12.1Z</time>
      </trkpt>
      <trkpt lat="47.26431" lon="4.97725">
        <ele>305</ele>
        <time>2012-12-11T12:38:14.1Z</time>
      </trkpt>
      <trkpt lat="47.26433" lon="4.97725">
        <ele>305</ele>
        <time>2012-12-11T12:38:16.1Z</time>
      </trkpt>
      <trkpt lat="47.26435" lon="4.97726">
        <ele>305</ele>
        <time>2012-12-11T12:38:18.1Z</time>
      </trkpt>
      <trkpt lat="47.26438" lon="4.97726">
        <ele>305</ele>
        <time>2012-12-11T12:38:20.1Z</time>
      </trkpt>
      <trkpt lat="47.2644" lon="4.97726">
        <ele>306</ele>
        <time>2012-12-11T12:38:22.1Z</time>
      </trkpt>
      <trkpt lat="47.26443" lon="4.97727">
        <ele>306</ele>
        <time>2012-12-11T12:38:24.1Z</time>
      </trkpt>
      <trkpt lat="47.26445" lon="4.97727">
        <ele>306</ele>
        <time>2012-12-11T12:38:26.1Z</time>
      </trkpt>
      <trkpt lat="47.26448" lon="4.97727">
        <ele>306</ele>
        <time>2012-12-11T12:38:28.1Z</time>
      </trkpt>
      <trkpt lat="47.2645" lon="4.97728">
        <ele>306</ele>
        <time>2012-12-11T12:38:30.1Z</time>
      </trkpt>
      <trkpt lat="47.26452" lon="4.97729">
        <ele>306</ele>
        <time>2012-12-11T12:38:33.1Z</time>
      </trkpt>
      <trkpt lat="47.26454" lon="4.9773">
        <ele>306</ele>
        <time>2012-12-11T12:38:35.1Z</time>
      </trkpt>
      <trkpt lat="47.26457" lon="4.97731">
        <ele>306</ele>
        <time>2012-12-11T12:38:37.1Z</time>
      </trkpt>
      <trkpt lat="47.26459" lon="4.97732">
        <ele>306</ele>
        <time>2012-12-11T12:38:39.1Z</time>
      </trkpt>
      <trkpt lat="47.26461" lon="4.97732">
        <ele>306</ele>
        <time>2012-12-11T12:38:41.1Z</time>
      </trkpt>
      <trkpt lat="47.26463" lon="4.97734">
        <ele>306</ele>
        <time>2012-12-11T12:38:43.1Z</time>
      </trkpt>
      <trkpt lat="47.26465" lon="4.97735">
        <ele>306</ele>
        <time>2012-12-11T12:38:45.1Z</time>
      </trkpt>
      <trkpt lat="47.26467" lon="4.97736">
        <ele>306</ele>
        <time>2012-12-11T12:38:47.1Z</time>
      </trkpt>
      <trkpt lat="47.26469" lon="4.97736">
        <ele>306</ele>
        <time>2012-12-11T12:38:49.1Z</time>
      </trkpt>
      <trkpt lat="47.26472" lon="4.97736">
        <ele>307</ele>
        <time>2012-12-11T12:38:51.1Z</time>
      </trkpt>
      <trkpt lat="47.26474" lon="4.97736">
        <ele>307</ele>
        <time>2012-12-11T12:38:54.1Z</time>
      </trkpt>
      <trkpt lat="47.26476" lon="4.97737">
        <ele>307</ele>
        <time>2012-12-11T12:38:56.1Z</time>
      </trkpt>
      <trkpt lat="47.26479" lon="4.97737">
        <ele>307</ele>
        <time>2012-12-11T12:38:58.1Z</time>
      </trkpt>
      <trkpt lat="47.26482" lon="4.97738">
        <ele>307</ele>
        <time>2012-12-11T12:39:00.1Z</time>
      </trkpt>
      <trkpt lat="47.26484" lon="4.97739">
        <ele>307</ele>
        <time>2012-12-11T12:39:02.1Z</time>
      </trkpt>
      <trkpt lat="47.26487" lon="4.9774">
        <ele>308</ele>
        <time>2012-12-11T12:39:04.1Z</time>
      </trkpt>
      <trkpt lat="47.26489" lon="4.9774">
        <ele>308</ele>
        <time>2012-12-11T12:39:06.1Z</time>
      </trkpt>
      <trkpt lat="47.26491" lon="4.9774">
        <ele>307</ele>
        <time>2012-12-11T12:39:08.1Z</time>
      </trkpt>
      <trkpt lat="47.26493" lon="4.97741">
        <ele>307</ele>
        <time>2012-12-11T12:39:10.1Z</time>
      </trkpt>
      <trkpt lat="47.26496" lon="4.97741">
        <ele>308</ele>
        <time>2012-12-11T12:39:12.1Z</time>
      </trkpt>
      <trkpt lat="47.26499" lon="4.97741">
        <ele>308</ele>
        <time>2012-12-11T12:39:14.1Z</time>
      </trkpt>
      <trkpt lat="47.26501" lon="4.97741">
        <ele>308</ele>
        <time>2012-12-11T12:39:17.1Z</time>
      </trkpt>
      <trkpt lat="47.26504" lon="4.97741">
        <ele>308</ele>
        <time>2012-12-11T12:39:19.1Z</time>
      </trkpt>
      <trkpt lat="47.26506" lon="4.97741">
        <ele>308</ele>
        <time>2012-12-11T12:39:21.1Z</time>
      </trkpt>
      <trkpt lat="47.26508" lon="4.97741">
        <ele>308</ele>
        <time>2012-12-11T12:39:23.1Z</time>
      </trkpt>
      <trkpt lat="47.2651" lon="4.97742">
        <ele>308</ele>
        <time>2012-12-11T12:39:25.1Z</time>
      </trkpt>
      <trkpt lat="47.26512" lon="4.97743">
        <ele>308</ele>
        <time>2012-12-11T12:39:27.1Z</time>
      </trkpt>
      <trkpt lat="47.26515" lon="4.97743">
        <ele>308</ele>
        <time>2012-12-11T12:39:29.1Z</time>
      </trkpt>
      <trkpt lat="47.26517" lon="4.97743">
        <ele>308</ele>
        <time>2012-12-11T12:39:31.1Z</time>
      </trkpt>
      <trkpt lat="47.2652" lon="4.97743">
        <ele>309</ele>
        <time>2012-12-11T12:39:33.1Z</time>
      </trkpt>
      <trkpt lat="47.26523" lon="4.97744">
        <ele>308</ele>
        <time>2012-12-11T12:39:35.1Z</time>
      </trkpt>
      <trkpt lat="47.26525" lon="4.97744">
        <ele>308</ele>
        <time>2012-12-11T12:39:37.1Z</time>
      </trkpt>
      <trkpt lat="47.26528" lon="4.97745">
        <ele>309</ele>
        <time>2012-12-11T12:39:39.1Z</time>
      </trkpt>
      <trkpt lat="47.2653" lon="4.97745">
        <ele>308</ele>
        <time>2012-12-11T12:39:41.1Z</time>
      </trkpt>
      <trkpt lat="47.26532" lon="4.97746">
        <ele>309</ele>
        <time>2012-12-11T12:39:44.1Z</time>
      </trkpt>
      <trkpt lat="47.26535" lon="4.97746">
        <ele>309</ele>
        <time>2012-12-11T12:39:46.1Z</time>
      </trkpt>
      <trkpt lat="47.26537" lon="4.97746">
        <ele>309</ele>
        <time>2012-12-11T12:39:48.1Z</time>
      </trkpt>
      <trkpt lat="47.26541" lon="4.97747">
        <ele>309</ele>
        <time>2012-12-11T12:39:50.1Z</time>
      </trkpt>
      <trkpt lat="47.26544" lon="4.97747">
        <ele>309</ele>
        <time>2012-12-11T12:39:52.1Z</time>
      </trkpt>
      <trkpt lat="47.26546" lon="4.97747">
        <ele>309</ele>
        <time>2012-12-11T12:39:54.1Z</time>
      </trkpt>
      <trkpt lat="47.26548" lon="4.97748">
        <ele>309</ele>
        <time>2012-12-11T12:39:56.1Z</time>
      </trkpt>
      <trkpt lat="47.26551" lon="4.97749">
        <ele>309</ele>
        <time>2012-12-11T12:39:58.1Z</time>
      </trkpt>
      <trkpt lat="47.26553" lon="4.9775">
        <ele>309</ele>
        <time>2012-12-11T12:40:00.1Z</time>
      </trkpt>
      <trkpt lat="47.26555" lon="4.97752">
        <ele>308</ele>
        <time>2012-12-11T12:40:02.1Z</time>
      </trkpt>
      <trkpt lat="47.26558" lon="4.97753">
        <ele>308</ele>
        <time>2012-12-11T12:40:04.1Z</time>
      </trkpt>
      <trkpt lat="47.2656" lon="4.97755">
        <ele>309</ele>
        <time>2012-12-11T12:40:07.1Z</time>
      </trkpt>
      <trkpt lat="47.26562" lon="4.97756">
        <ele>309</ele>
        <time>2012-12-11T12:40:09.1Z</time>
      </trkpt>
      <trkpt lat="47.26564" lon="4.97757">
        <ele>309</ele>
        <time>2012-12-11T12:40:11.1Z</time>
      </trkpt>
      <trkpt lat="47.26567" lon="4.97759">
        <ele>309</ele>
        <time>2012-12-11T12:40:13.1Z</time>
      </trkpt>
      <trkpt lat="47.26571" lon="4.97761">
        <ele>309</ele>
        <time>2012-12-11T12:40:15.1Z</time>
      </trkpt>
      <trkpt lat="47.26573" lon="4.97761">
        <ele>309</ele>
        <time>2012-12-11T12:40:17.1Z</time>
      </trkpt>
      <trkpt lat="47.26576" lon="4.97762">
        <ele>309</ele>
        <time>2012-12-11T12:40:19.1Z</time>
      </trkpt>
      <trkpt lat="47.26579" lon="4.97763">
        <ele>309</ele>
        <time>2012-12-11T12:40:21.1Z</time>
      </trkpt>
      <trkpt lat="47.26581" lon="4.97763">
        <ele>309</ele>
        <time>2012-12-11T12:40:23.1Z</time>
      </trkpt>
      <trkpt lat="47.26584" lon="4.97763">
        <ele>309</ele>
        <time>2012-12-11T12:40:25.1Z</time>
      </trkpt>
      <trkpt lat="47.26587" lon="4.97764">
        <ele>309</ele>
        <time>2012-12-11T12:40:27.1Z</time>
      </trkpt>
      <trkpt lat="47.2659" lon="4.97764">
        <ele>309</ele>
        <time>2012-12-11T12:40:29.1Z</time>
      </trkpt>
      <trkpt lat="47.26592" lon="4.97765">
        <ele>309</ele>
        <time>2012-12-11T12:40:31.1Z</time>
      </trkpt>
      <trkpt lat="47.26595" lon="4.97766">
        <ele>309</ele>
        <time>2012-12-11T12:40:33.1Z</time>
      </trkpt>
      <trkpt lat="47.26597" lon="4.97766">
        <ele>309</ele>
        <time>2012-12-11T12:40:36.1Z</time>
      </trkpt>
      <trkpt lat="47.266" lon="4.97767">
        <ele>309</ele>
        <time>2012-12-11T12:40:38.1Z</time>
      </trkpt>
      <trkpt lat="47.26603" lon="4.97768">
        <ele>309</ele>
        <time>2012-12-11T12:40:40.1Z</time>
      </trkpt>
      <trkpt lat="47.26606" lon="4.97768">
        <ele>310</ele>
        <time>2012-12-11T12:40:42.1Z</time>
      </trkpt>
      <trkpt lat="47.26608" lon="4.97768">
        <ele>310</ele>
        <time>2012-12-11T12:40:44.1Z</time>
      </trkpt>
      <trkpt lat="47.26611" lon="4.97767">
        <ele>310</ele>
        <time>2012-12-11T12:40:46.1Z</time>
      </trkpt>
      <trkpt lat="47.26613" lon="4.97763">
        <ele>310</ele>
        <time>2012-12-11T12:40:48.1Z</time>
      </trkpt>
      <trkpt lat="47.26614" lon="4.9776">
        <ele>310</ele>
        <time>2012-12-11T12:40:50.1Z</time>
      </trkpt>
      <trkpt lat="47.26615" lon="4.97756">
        <ele>310</ele>
        <time>2012-12-11T12:40:52.1Z</time>
      </trkpt>
      <trkpt lat="47.26616" lon="4.97753">
        <ele>310</ele>
        <time>2012-12-11T12:40:54.1Z</time>
      </trkpt>
      <trkpt lat="47.26617" lon="4.97748">
        <ele>310</ele>
        <time>2012-12-11T12:40:56.1Z</time>
      </trkpt>
      <trkpt lat="47.26617" lon="4.97744">
        <ele>310</ele>
        <time>2012-12-11T12:40:58.1Z</time>
      </trkpt>
      <trkpt lat="47.26617" lon="4.9774">
        <ele>310</ele>
        <time>2012-12-11T12:41:01.1Z</time>
      </trkpt>
      <trkpt lat="47.26618" lon="4.97737">
        <ele>310</ele>
        <time>2012-12-11T12:41:03.1Z</time>
      </trkpt>
      <trkpt lat="47.26618" lon="4.97732">
        <ele>310</ele>
        <time>2012-12-11T12:41:05.1Z</time>
      </trkpt>
      <trkpt lat="47.26619" lon="4.97729">
        <ele>310</ele>
        <time>2012-12-11T12:41:07.1Z</time>
      </trkpt>
      <trkpt lat="47.2662" lon="4.97723">
        <ele>310</ele>
        <time>2012-12-11T12:41:09.1Z</time>
      </trkpt>
      <trkpt lat="47.2662" lon="4.97719">
        <ele>310</ele>
        <time>2012-12-11T12:41:11.1Z</time>
      </trkpt>
      <trkpt lat="47.26619" lon="4.97716">
        <ele>311</ele>
        <time>2012-12-11T12:41:13.1Z</time>
      </trkpt>
      <trkpt lat="47.26619" lon="4.97712">
        <ele>311</ele>
        <time>2012-12-11T12:41:15.1Z</time>
      </trkpt>
      <trkpt lat="47.26619" lon="4.97708">
        <ele>311</ele>
        <time>2012-12-11T12:41:17.1Z</time>
      </trkpt>
      <trkpt lat="47.26619" lon="4.97705">
        <ele>311</ele>
        <time>2012-12-11T12:41:19.1Z</time>
      </trkpt>
      <trkpt lat="47.2662" lon="4.97701">
        <ele>312</ele>
        <time>2012-12-11T12:41:22.1Z</time>
      </trkpt>
      <trkpt lat="47.26623" lon="4.977">
        <ele>312</ele>
        <time>2012-12-11T12:41:24.1Z</time>
      </trkpt>
      <trkpt lat="47.26625" lon="4.97699">
        <ele>312</ele>
        <time>2012-12-11T12:41:26.1Z</time>
      </trkpt>
      <trkpt lat="47.26627" lon="4.977">
        <ele>313</ele>
        <time>2012-12-11T12:41:28.1Z</time>
      </trkpt>
      <trkpt lat="47.2663" lon="4.977">
        <ele>313</ele>
        <time>2012-12-11T12:41:30.1Z</time>
      </trkpt>
      <trkpt lat="47.26632" lon="4.97701">
        <ele>313</ele>
        <time>2012-12-11T12:41:32.1Z</time>
      </trkpt>
      <trkpt lat="47.26634" lon="4.97701">
        <ele>313</ele>
        <time>2012-12-11T12:41:34.1Z</time>
      </trkpt>
      <trkpt lat="47.26637" lon="4.97702">
        <ele>313</ele>
        <time>2012-12-11T12:41:36.1Z</time>
      </trkpt>
      <trkpt lat="47.26639" lon="4.97703">
        <ele>313</ele>
        <time>2012-12-11T12:41:38.1Z</time>
      </trkpt>
      <trkpt lat="47.26641" lon="4.97704">
        <ele>313</ele>
        <time>2012-12-11T12:41:40.1Z</time>
      </trkpt>
      <trkpt lat="47.26643" lon="4.97705">
        <ele>313</ele>
        <time>2012-12-11T12:41:42.1Z</time>
      </trkpt>
      <trkpt lat="47.26645" lon="4.97706">
        <ele>313</ele>
        <time>2012-12-11T12:41:44.1Z</time>
      </trkpt>
      <trkpt lat="47.26648" lon="4.97708">
        <ele>313</ele>
        <time>2012-12-11T12:41:46.1Z</time>
      </trkpt>
      <trkpt lat="47.2665" lon="4.97709">
        <ele>313</ele>
        <time>2012-12-11T12:41:48.1Z</time>
      </trkpt>
      <trkpt lat="47.26652" lon="4.9771">
        <ele>314</ele>
        <time>2012-12-11T12:41:50.1Z</time>
      </trkpt>
      <trkpt lat="47.26654" lon="4.97711">
        <ele>314</ele>
        <time>2012-12-11T12:41:52.1Z</time>
      </trkpt>
      <trkpt lat="47.26656" lon="4.97712">
        <ele>314</ele>
        <time>2012-12-11T12:41:55.1Z</time>
      </trkpt>
      <trkpt lat="47.26658" lon="4.9771">
        <ele>314</ele>
        <time>2012-12-11T12:41:57.1Z</time>
      </trkpt>
      <trkpt lat="47.26659" lon="4.97706">
        <ele>314</ele>
        <time>2012-12-11T12:41:59.1Z</time>
      </trkpt>
      <trkpt lat="47.2666" lon="4.97703">
        <ele>314</ele>
        <time>2012-12-11T12:42:01.1Z</time>
      </trkpt>
      <trkpt lat="47.26662" lon="4.97698">
        <ele>314</ele>
        <time>2012-12-11T12:42:03.1Z</time>
      </trkpt>
      <trkpt lat="47.26663" lon="4.97695">
        <ele>314</ele>
        <time>2012-12-11T12:42:05.1Z</time>
      </trkpt>
      <trkpt lat="47.26664" lon="4.97691">
        <ele>314</ele>
        <time>2012-12-11T12:42:07.1Z</time>
      </trkpt>
      <trkpt lat="47.26664" lon="4.97688">
        <ele>314</ele>
        <time>2012-12-11T12:42:09.1Z</time>
      </trkpt>
      <trkpt lat="47.26665" lon="4.97685">
        <ele>315</ele>
        <time>2012-12-11T12:42:11.1Z</time>
      </trkpt>
      <trkpt lat="47.26666" lon="4.97681">
        <ele>315</ele>
        <time>2012-12-11T12:42:13.1Z</time>
      </trkpt>
      <trkpt lat="47.26667" lon="4.97678">
        <ele>315</ele>
        <time>2012-12-11T12:42:15.1Z</time>
      </trkpt>
      <trkpt lat="47.26667" lon="4.97674">
        <ele>316</ele>
        <time>2012-12-11T12:42:17.1Z</time>
      </trkpt>
      <trkpt lat="47.26668" lon="4.97671">
        <ele>316</ele>
        <time>2012-12-11T12:42:20.1Z</time>
      </trkpt>
      <trkpt lat="47.26668" lon="4.97667">
        <ele>316</ele>
        <time>2012-12-11T12:42:22.1Z</time>
      </trkpt>
      <trkpt lat="47.26669" lon="4.97664">
        <ele>316</ele>
        <time>2012-12-11T12:42:24.1Z</time>
      </trkpt>
      <trkpt lat="47.26669" lon="4.9766">
        <ele>316</ele>
        <time>2012-12-11T12:42:26.1Z</time>
      </trkpt>
      <trkpt lat="47.26669" lon="4.97657">
        <ele>317</ele>
        <time>2012-12-11T12:42:28.1Z</time>
      </trkpt>
      <trkpt lat="47.26671" lon="4.97652">
        <ele>317</ele>
        <time>2012-12-11T12:42:30.1Z</time>
      </trkpt>
      <trkpt lat="47.26672" lon="4.97649">
        <ele>318</ele>
        <time>2012-12-11T12:42:32.1Z</time>
      </trkpt>
      <trkpt lat="47.26674" lon="4.97648">
        <ele>318</ele>
        <time>2012-12-11T12:42:34.1Z</time>
      </trkpt>
      <trkpt lat="47.26676" lon="4.97648">
        <ele>318</ele>
        <time>2012-12-11T12:42:36.1Z</time>
      </trkpt>
      <trkpt lat="47.26678" lon="4.97649">
        <ele>318</ele>
        <time>2012-12-11T12:42:38.1Z</time>
      </trkpt>
      <trkpt lat="47.2668" lon="4.97649">
        <ele>318</ele>
        <time>2012-12-11T12:42:40.1Z</time>
      </trkpt>
      <trkpt lat="47.26683" lon="4.9765">
        <ele>318</ele>
        <time>2012-12-11T12:42:42.1Z</time>
      </trkpt>
      <trkpt lat="47.26685" lon="4.97651">
        <ele>318</ele>
        <time>2012-12-11T12:42:44.1Z</time>
      </trkpt>
      <trkpt lat="47.26687" lon="4.97652">
        <ele>319</ele>
        <time>2012-12-11T12:42:46.1Z</time>
      </trkpt>
      <trkpt lat="47.26689" lon="4.97652">
        <ele>319</ele>
        <time>2012-12-11T12:42:48.1Z</time>
      </trkpt>
      <trkpt lat="47.26691" lon="4.97654">
        <ele>319</ele>
        <time>2012-12-11T12:42:50.1Z</time>
      </trkpt>
      <trkpt lat="47.26694" lon="4.97655">
        <ele>319</ele>
        <time>2012-12-11T12:42:53.1Z</time>
      </trkpt>
      <trkpt lat="47.26696" lon="4.97657">
        <ele>319</ele>
        <time>2012-12-11T12:42:55.1Z</time>
      </trkpt>
      <trkpt lat="47.26698" lon="4.97659">
        <ele>318</ele>
        <time>2012-12-11T12:42:57.1Z</time>
      </trkpt>
      <trkpt lat="47.267" lon="4.97661">
        <ele>319</ele>
        <time>2012-12-11T12:42:59.1Z</time>
      </trkpt>
      <trkpt lat="47.26704" lon="4.97664">
        <ele>319</ele>
        <time>2012-12-11T12:43:01.1Z</time>
      </trkpt>
      <trkpt lat="47.26706" lon="4.97666">
        <ele>319</ele>
        <time>2012-12-11T12:43:03.1Z</time>
      </trkpt>
      <trkpt lat="47.26708" lon="4.97668">
        <ele>319</ele>
        <time>2012-12-11T12:43:05.1Z</time>
      </trkpt>
      <trkpt lat="47.26711" lon="4.9767">
        <ele>319</ele>
        <time>2012-12-11T12:43:07.1Z</time>
      </trkpt>
      <trkpt lat="47.26713" lon="4.97671">
        <ele>318</ele>
        <time>2012-12-11T12:43:09.1Z</time>
      </trkpt>
      <trkpt lat="47.26715" lon="4.97673">
        <ele>318</ele>
        <time>2012-12-11T12:43:11.1Z</time>
      </trkpt>
      <trkpt lat="47.26718" lon="4.97674">
        <ele>318</ele>
        <time>2012-12-11T12:43:13.1Z</time>
      </trkpt>
      <trkpt lat="47.2672" lon="4.97675">
        <ele>318</ele>
        <time>2012-12-11T12:43:15.1Z</time>
      </trkpt>
      <trkpt lat="47.26723" lon="4.97677">
        <ele>318</ele>
        <time>2012-12-11T12:43:17.1Z</time>
      </trkpt>
      <trkpt lat="47.26726" lon="4.97678">
        <ele>318</ele>
        <time>2012-12-11T12:43:19.1Z</time>
      </trkpt>
      <trkpt lat="47.26729" lon="4.97679">
        <ele>317</ele>
        <time>2012-12-11T12:43:21.1Z</time>
      </trkpt>
      <trkpt lat="47.26732" lon="4.97679">
        <ele>317</ele>
        <time>2012-12-11T12:43:24.1Z</time>
      </trkpt>
      <trkpt lat="47.26736" lon="4.9768">
        <ele>317</ele>
        <time>2012-12-11T12:43:26.1Z</time>
      </trkpt>
      <trkpt lat="47.26739" lon="4.9768">
        <ele>317</ele>
        <time>2012-12-11T12:43:28.1Z</time>
      </trkpt>
      <trkpt lat="47.26741" lon="4.97677">
        <ele>317</ele>
        <time>2012-12-11T12:43:30.1Z</time>
      </trkpt>
      <trkpt lat="47.26743" lon="4.97673">
        <ele>318</ele>
        <time>2012-12-11T12:43:32.1Z</time>
      </trkpt>
      <trkpt lat="47.26744" lon="4.9767">
        <ele>318</ele>
        <time>2012-12-11T12:43:34.1Z</time>
      </trkpt>
      <trkpt lat="47.26745" lon="4.97666">
        <ele>318</ele>
        <time>2012-12-11T12:43:36.1Z</time>
      </trkpt>
      <trkpt lat="47.26746" lon="4.97662">
        <ele>318</ele>
        <time>2012-12-11T12:43:38.1Z</time>
      </trkpt>
      <trkpt lat="47.26748" lon="4.97659">
        <ele>318</ele>
        <time>2012-12-11T12:43:40.1Z</time>
      </trkpt>
      <trkpt lat="47.2675" lon="4.97656">
        <ele>318</ele>
        <time>2012-12-11T12:43:42.1Z</time>
      </trkpt>
      <trkpt lat="47.26752" lon="4.97653">
        <ele>319</ele>
        <time>2012-12-11T12:43:44.1Z</time>
      </trkpt>
      <trkpt lat="47.26754" lon="4.97651">
        <ele>318</ele>
        <time>2012-12-11T12:43:47.1Z</time>
      </trkpt>
      <trkpt lat="47.26756" lon="4.97648">
        <ele>318</ele>
        <time>2012-12-11T12:43:49.1Z</time>
      </trkpt>
      <trkpt lat="47.26759" lon="4.97643">
        <ele>318</ele>
        <time>2012-12-11T12:43:51.1Z</time>
      </trkpt>
      <trkpt lat="47.2676" lon="4.9764">
        <ele>318</ele>
        <time>2012-12-11T12:43:53.1Z</time>
      </trkpt>
      <trkpt lat="47.26762" lon="4.97636">
        <ele>319</ele>
        <time>2012-12-11T12:43:55.1Z</time>
      </trkpt>
      <trkpt lat="47.26763" lon="4.97633">
        <ele>319</ele>
        <time>2012-12-11T12:43:57.1Z</time>
      </trkpt>
      <trkpt lat="47.26764" lon="4.97629">
        <ele>319</ele>
        <time>2012-12-11T12:43:59.1Z</time>
      </trkpt>
      <trkpt lat="47.26764" lon="4.97625">
        <ele>319</ele>
        <time>2012-12-11T12:44:01.1Z</time>
      </trkpt>
      <trkpt lat="47.26765" lon="4.97621">
        <ele>319</ele>
        <time>2012-12-11T12:44:03.1Z</time>
      </trkpt>
      <trkpt lat="47.26765" lon="4.97617">
        <ele>319</ele>
        <time>2012-12-11T12:44:05.1Z</time>
      </trkpt>
      <trkpt lat="47.26766" lon="4.97614">
        <ele>319</ele>
        <time>2012-12-11T12:44:07.1Z</time>
      </trkpt>
      <trkpt lat="47.26768" lon="4.97612">
        <ele>319</ele>
        <time>2012-12-11T12:44:09.1Z</time>
      </trkpt>
      <trkpt lat="47.2677" lon="4.97609">
        <ele>319</ele>
        <time>2012-12-11T12:44:12.1Z</time>
      </trkpt>
      <trkpt lat="47.26772" lon="4.97606">
        <ele>319</ele>
        <time>2012-12-11T12:44:14.1Z</time>
      </trkpt>
      <trkpt lat="47.26773" lon="4.97602">
        <ele>319</ele>
        <time>2012-12-11T12:44:16.1Z</time>
      </trkpt>
      <trkpt lat="47.26775" lon="4.97599">
        <ele>319</ele>
        <time>2012-12-11T12:44:18.1Z</time>
      </trkpt>
      <trkpt lat="47.26776" lon="4.97597">
        <ele>318</ele>
        <time>2012-12-11T12:44:20.1Z</time>
      </trkpt>
      <trkpt lat="47.26777" lon="4.97595">
        <ele>317</ele>
        <time>2012-12-11T12:44:22.1Z</time>
      </trkpt>
      <trkpt lat="47.26779" lon="4.97592">
        <ele>317</ele>
        <time>2012-12-11T12:44:24.1Z</time>
      </trkpt>
      <trkpt lat="47.26781" lon="4.97589">
        <ele>317</ele>
        <time>2012-12-11T12:44:27.1Z</time>
      </trkpt>
      <trkpt lat="47.26783" lon="4.97587">
        <ele>317</ele>
        <time>2012-12-11T12:44:29.1Z</time>
      </trkpt>
      <trkpt lat="47.26785" lon="4.97585">
        <ele>317</ele>
        <time>2012-12-11T12:44:31.1Z</time>
      </trkpt>
      <trkpt lat="47.26786" lon="4.97583">
        <ele>317</ele>
        <time>2012-12-11T12:44:33.1Z</time>
      </trkpt>
      <trkpt lat="47.26788" lon="4.9758">
        <ele>317</ele>
        <time>2012-12-11T12:44:35.1Z</time>
      </trkpt>
      <trkpt lat="47.26789" lon="4.97578">
        <ele>317</ele>
        <time>2012-12-11T12:44:37.1Z</time>
      </trkpt>
      <trkpt lat="47.2679" lon="4.97578">
        <ele>317</ele>
        <time>2012-12-11T12:44:39.1Z</time>
      </trkpt>
      <trkpt lat="47.2679" lon="4.97577">
        <ele>317</ele>
        <time>2012-12-11T12:44:41.1Z</time>
      </trkpt>
      <trkpt lat="47.2679" lon="4.97577">
        <ele>317</ele>
        <time>2012-12-11T12:44:43.1Z</time>
      </trkpt>
      <trkpt lat="47.2679" lon="4.97577">
        <ele>317</ele>
        <time>2012-12-11T12:44:45.1Z</time>
      </trkpt>
      <trkpt lat="47.2679" lon="4.97577">
        <ele>318</ele>
        <time>2012-12-11T12:44:47.1Z</time>
      </trkpt>
      <trkpt lat="47.26791" lon="4.97576">
        <ele>317</ele>
        <time>2012-12-11T12:44:49.1Z</time>
      </trkpt>
      <trkpt lat="47.26791" lon="4.97576">
        <ele>317</ele>
        <time>2012-12-11T12:44:51.1Z</time>
      </trkpt>
      <trkpt lat="47.26791" lon="4.97576">
        <ele>317</ele>
        <time>2012-12-11T12:44:53.1Z</time>
      </trkpt>
      <trkpt lat="47.26791" lon="4.97576">
        <ele>317</ele>
        <time>2012-12-11T12:44:55.1Z</time>
      </trkpt>
      <trkpt lat="47.26791" lon="4.97576">
        <ele>317</ele>
        <time>2012-12-11T12:44:58.1Z</time>
      </trkpt>
      <trkpt lat="47.26791" lon="4.97576">
        <ele>317</ele>
        <time>2012-12-11T12:45:00.1Z</time>
      </trkpt>
      <trkpt lat="47.26791" lon="4.97575">
        <ele>317</ele>
        <time>2012-12-11T12:45:02.1Z</time>
      </trkpt>
      <trkpt lat="47.26791" lon="4.97575">
        <ele>317</ele>
        <time>2012-12-11T12:45:04.1Z</time>
      </trkpt>
      <trkpt lat="47.26791" lon="4.97575">
        <ele>318</ele>
        <time>2012-12-11T12:45:06.1Z</time>
      </trkpt>
      <trkpt lat="47.26791" lon="4.97574">
        <ele>317</ele>
        <time>2012-12-11T12:45:08.1Z</time>
      </trkpt>
      <trkpt lat="47.26791" lon="4.97574">
        <ele>317</ele>
        <time>2012-12-11T12:45:10.1Z</time>
      </trkpt>
      <trkpt lat="47.26791" lon="4.97574">
        <ele>317</ele>
        <time>2012-12-11T12:45:12.1Z</time>
      </trkpt>
      <trkpt lat="47.26792" lon="4.97574">
        <ele>317</ele>
        <time>2012-12-11T12:45:14.1Z</time>
      </trkpt>
      <trkpt lat="47.26792" lon="4.97575">
        <ele>317</ele>
        <time>2012-12-11T12:45:16.1Z</time>
      </trkpt>
      <trkpt lat="47.26792" lon="4.97575">
        <ele>317</ele>
        <time>2012-12-11T12:45:18.1Z</time>
      </trkpt>
      <trkpt lat="47.26792" lon="4.97575">
        <ele>317</ele>
        <time>2012-12-11T12:45:20.1Z</time>
      </trkpt>
      <trkpt lat="47.26792" lon="4.97575">
        <ele>317</ele>
        <time>2012-12-11T12:45:22.1Z</time>
      </trkpt>
      <trkpt lat="47.26793" lon="4.97575">
        <ele>317</ele>
        <time>2012-12-11T12:45:24.1Z</time>
      </trkpt>
      <trkpt lat="47.26793" lon="4.97575">
        <ele>317</ele>
        <time>2012-12-11T12:45:26.1Z</time>
      </trkpt>
      <trkpt lat="47.26793" lon="4.97575">
        <ele>317</ele>
        <time>2012-12-11T12:45:28.1Z</time>
      </trkpt>
      <trkpt lat="47.26794" lon="4.97575">
        <ele>317</ele>
        <time>2012-12-11T12:45:30.1Z</time>
      </trkpt>
      <trkpt lat="47.26794" lon="4.97575">
        <ele>317</ele>
        <time>2012-12-11T12:45:32.1Z</time>
      </trkpt>
      <trkpt lat="47.26794" lon="4.97575">
        <ele>317</ele>
        <time>2012-12-11T12:45:34.1Z</time>
      </trkpt>
      <trkpt lat="47.26793" lon="4.97576">
        <ele>317</ele>
        <time>2012-12-11T12:45:36.1Z</time>
      </trkpt>
      <trkpt lat="47.26793" lon="4.97576">
        <ele>317</ele>
        <time>2012-12-11T12:45:38.1Z</time>
      </trkpt>
      <trkpt lat="47.26793" lon="4.97576">
        <ele>317</ele>
        <time>2012-12-11T12:45:41.1Z</time>
      </trkpt>
      <trkpt lat="47.26794" lon="4.97576">
        <ele>317</ele>
        <time>2012-12-11T12:45:43.1Z</time>
      </trkpt>
      <trkpt lat="47.26794" lon="4.97576">
        <ele>317</ele>
        <time>2012-12-11T12:45:45.1Z</time>
      </trkpt>
      <trkpt lat="47.26794" lon="4.97576">
        <ele>317</ele>
        <time>2012-12-11T12:45:47.1Z</time>
      </trkpt>
      <trkpt lat="47.26794" lon="4.97576">
        <ele>317</ele>
        <time>2012-12-11T12:45:49.1Z</time>
      </trkpt>
      <trkpt lat="47.26795" lon="4.97577">
        <ele>317</ele>
        <time>2012-12-11T12:45:51.1Z</time>
      </trkpt>
      <trkpt lat="47.26795" lon="4.97577">
        <ele>317</ele>
        <time>2012-12-11T12:45:53.1Z</time>
      </trkpt>
      <trkpt lat="47.26795" lon="4.97577">
        <ele>317</ele>
        <time>2012-12-11T12:45:55.1Z</time>
      </trkpt>
      <trkpt lat="47.26795" lon="4.97577">
        <ele>317</ele>
        <time>2012-12-11T12:45:57.1Z</time>
      </trkpt>
      <trkpt lat="47.26795" lon="4.97576">
        <ele>317</ele>
        <time>2012-12-11T12:45:59.1Z</time>
      </trkpt>
      <trkpt lat="47.26795" lon="4.97576">
        <ele>317</ele>
        <time>2012-12-11T12:46:01.1Z</time>
      </trkpt>
      <trkpt lat="47.26794" lon="4.97575">
        <ele>317</ele>
        <time>2012-12-11T12:46:04.1Z</time>
      </trkpt>
      <trkpt lat="47.26794" lon="4.97573">
        <ele>317</ele>
        <time>2012-12-11T12:46:06.1Z</time>
      </trkpt>
      <trkpt lat="47.26794" lon="4.9757">
        <ele>317</ele>
        <time>2012-12-11T12:46:08.1Z</time>
      </trkpt>
      <trkpt lat="47.26794" lon="4.97567">
        <ele>317</ele>
        <time>2012-12-11T12:46:10.1Z</time>
      </trkpt>
      <trkpt lat="47.26794" lon="4.97564">
        <ele>318</ele>
        <time>2012-12-11T12:46:12.1Z</time>
      </trkpt>
      <trkpt lat="47.26794" lon="4.97559">
        <ele>318</ele>
        <time>2012-12-11T12:46:14.1Z</time>
      </trkpt>
      <trkpt lat="47.26796" lon="4.97556">
        <ele>318</ele>
        <time>2012-12-11T12:46:16.1Z</time>
      </trkpt>
      <trkpt lat="47.26796" lon="4.97554">
        <ele>318</ele>
        <time>2012-12-11T12:46:18.1Z</time>
      </trkpt>
      <trkpt lat="47.26797" lon="4.97552">
        <ele>319</ele>
        <time>2012-12-11T12:46:20.1Z</time>
      </trkpt>
      <trkpt lat="47.26797" lon="4.97549">
        <ele>320</ele>
        <time>2012-12-11T12:46:22.1Z</time>
      </trkpt>
      <trkpt lat="47.26797" lon="4.97547">
        <ele>320</ele>
        <time>2012-12-11T12:46:24.1Z</time>
      </trkpt>
      <trkpt lat="47.26798" lon="4.97545">
        <ele>321</ele>
        <time>2012-12-11T12:46:27.1Z</time>
      </trkpt>
      <trkpt lat="47.26799" lon="4.97542">
        <ele>321</ele>
        <time>2012-12-11T12:46:29.1Z</time>
      </trkpt>
      <trkpt lat="47.26799" lon="4.9754">
        <ele>321</ele>
        <time>2012-12-11T12:46:31.1Z</time>
      </trkpt>
      <trkpt lat="47.26799" lon="4.97538">
        <ele>322</ele>
        <time>2012-12-11T12:46:33.1Z</time>
      </trkpt>
      <trkpt lat="47.268" lon="4.97535">
        <ele>322</ele>
        <time>2012-12-11T12:46:35.1Z</time>
      </trkpt>
      <trkpt lat="47.26801" lon="4.97532">
        <ele>322</ele>
        <time>2012-12-11T12:46:37.1Z</time>
      </trkpt>
      <trkpt lat="47.26802" lon="4.97529">
        <ele>323</ele>
        <time>2012-12-11T12:46:39.1Z</time>
      </trkpt>
      <trkpt lat="47.26804" lon="4.97527">
        <ele>323</ele>
        <time>2012-12-11T12:46:41.1Z</time>
      </trkpt>
      <trkpt lat="47.26804" lon="4.97524">
        <ele>323</ele>
        <time>2012-12-11T12:46:43.1Z</time>
      </trkpt>
      <trkpt lat="47.26806" lon="4.97522">
        <ele>324</ele>
        <time>2012-12-11T12:46:45.1Z</time>
      </trkpt>
      <trkpt lat="47.26807" lon="4.9752">
        <ele>324</ele>
        <time>2012-12-11T12:46:47.1Z</time>
      </trkpt>
      <trkpt lat="47.26808" lon="4.97517">
        <ele>325</ele>
        <time>2012-12-11T12:46:49.1Z</time>
      </trkpt>
      <trkpt lat="47.26809" lon="4.97515">
        <ele>325</ele>
        <time>2012-12-11T12:46:51.1Z</time>
      </trkpt>
      <trkpt lat="47.2681" lon="4.97513">
        <ele>326</ele>
        <time>2012-12-11T12:46:53.1Z</time>
      </trkpt>
      <trkpt lat="47.26812" lon="4.97511">
        <ele>326</ele>
        <time>2012-12-11T12:46:56.1Z</time>
      </trkpt>
      <trkpt lat="47.26814" lon="4.97507">
        <ele>327</ele>
        <time>2012-12-11T12:46:58.1Z</time>
      </trkpt>
      <trkpt lat="47.26815" lon="4.97506">
        <ele>327</ele>
        <time>2012-12-11T12:47:00.1Z</time>
      </trkpt>
      <trkpt lat="47.26818" lon="4.97507">
        <ele>327</ele>
        <time>2012-12-11T12:47:02.1Z</time>
      </trkpt>
      <trkpt lat="47.26818" lon="4.97509">
        <ele>328</ele>
        <time>2012-12-11T12:47:04.1Z</time>
      </trkpt>
      <trkpt lat="47.2682" lon="4.97511">
        <ele>328</ele>
        <time>2012-12-11T12:47:06.1Z</time>
      </trkpt>
      <trkpt lat="47.26822" lon="4.97512">
        <ele>328</ele>
        <time>2012-12-11T12:47:08.1Z</time>
      </trkpt>
      <trkpt lat="47.26823" lon="4.97515">
        <ele>328</ele>
        <time>2012-12-11T12:47:10.1Z</time>
      </trkpt>
      <trkpt lat="47.26825" lon="4.97517">
        <ele>328</ele>
        <time>2012-12-11T12:47:12.1Z</time>
      </trkpt>
      <trkpt lat="47.26826" lon="4.97519">
        <ele>328</ele>
        <time>2012-12-11T12:47:14.1Z</time>
      </trkpt>
      <trkpt lat="47.26829" lon="4.97521">
        <ele>328</ele>
        <time>2012-12-11T12:47:16.1Z</time>
      </trkpt>
      <trkpt lat="47.26831" lon="4.97523">
        <ele>328</ele>
        <time>2012-12-11T12:47:18.1Z</time>
      </trkpt>
      <trkpt lat="47.26833" lon="4.97524">
        <ele>328</ele>
        <time>2012-12-11T12:47:20.1Z</time>
      </trkpt>
      <trkpt lat="47.26834" lon="4.97526">
        <ele>328</ele>
        <time>2012-12-11T12:47:22.1Z</time>
      </trkpt>
      <trkpt lat="47.26836" lon="4.97528">
        <ele>328</ele>
        <time>2012-12-11T12:47:24.1Z</time>
      </trkpt>
      <trkpt lat="47.26838" lon="4.97529">
        <ele>328</ele>
        <time>2012-12-11T12:47:27.1Z</time>
      </trkpt>
      <trkpt lat="47.2684" lon="4.97531">
        <ele>328</ele>
        <time>2012-12-11T12:47:29.1Z</time>
      </trkpt>
      <trkpt lat="47.26842" lon="4.97533">
        <ele>328</ele>
        <time>2012-12-11T12:47:31.1Z</time>
      </trkpt>
      <trkpt lat="47.26844" lon="4.97534">
        <ele>328</ele>
        <time>2012-12-11T12:47:33.1Z</time>
      </trkpt>
      <trkpt lat="47.26847" lon="4.97537">
        <ele>328</ele>
        <time>2012-12-11T12:47:35.1Z</time>
      </trkpt>
      <trkpt lat="47.26851" lon="4.97539">
        <ele>329</ele>
        <time>2012-12-11T12:47:37.1Z</time>
      </trkpt>
      <trkpt lat="47.26854" lon="4.97541">
        <ele>329</ele>
        <time>2012-12-11T12:47:39.1Z</time>
      </trkpt>
      <trkpt lat="47.26857" lon="4.97543">
        <ele>329</ele>
        <time>2012-12-11T12:47:41.1Z</time>
      </trkpt>
      <trkpt lat="47.26861" lon="4.97544">
        <ele>329</ele>
        <time>2012-12-11T12:47:43.1Z</time>
      </trkpt>
      <trkpt lat="47.26865" lon="4.97545">
        <ele>329</ele>
        <time>2012-12-11T12:47:45.1Z</time>
      </trkpt>
      <trkpt lat="47.26868" lon="4.97547">
        <ele>329</ele>
        <time>2012-12-11T12:47:47.1Z</time>
      </trkpt>
      <trkpt lat="47.26871" lon="4.9755">
        <ele>330</ele>
        <time>2012-12-11T12:47:49.1Z</time>
      </trkpt>
      <trkpt lat="47.26874" lon="4.97552">
        <ele>330</ele>
        <time>2012-12-11T12:47:52.1Z</time>
      </trkpt>
      <trkpt lat="47.26878" lon="4.97554">
        <ele>330</ele>
        <time>2012-12-11T12:47:54.1Z</time>
      </trkpt>
      <trkpt lat="47.26881" lon="4.97556">
        <ele>330</ele>
        <time>2012-12-11T12:47:56.1Z</time>
      </trkpt>
      <trkpt lat="47.26886" lon="4.97557">
        <ele>330</ele>
        <time>2012-12-11T12:47:58.1Z</time>
      </trkpt>
      <trkpt lat="47.26889" lon="4.97559">
        <ele>330</ele>
        <time>2012-12-11T12:48:00.1Z</time>
      </trkpt>
      <trkpt lat="47.26892" lon="4.97561">
        <ele>330</ele>
        <time>2012-12-11T12:48:02.1Z</time>
      </trkpt>
      <trkpt lat="47.26894" lon="4.97562">
        <ele>330</ele>
        <time>2012-12-11T12:48:04.1Z</time>
      </trkpt>
      <trkpt lat="47.26897" lon="4.97564">
        <ele>330</ele>
        <time>2012-12-11T12:48:06.1Z</time>
      </trkpt>
      <trkpt lat="47.26899" lon="4.97566">
        <ele>330</ele>
        <time>2012-12-11T12:48:08.1Z</time>
      </trkpt>
      <trkpt lat="47.26902" lon="4.97567">
        <ele>330</ele>
        <time>2012-12-11T12:48:10.1Z</time>
      </trkpt>
      <trkpt lat="47.26904" lon="4.97569">
        <ele>330</ele>
        <time>2012-12-11T12:48:12.1Z</time>
      </trkpt>
      <trkpt lat="47.26907" lon="4.9757">
        <ele>330</ele>
        <time>2012-12-11T12:48:14.1Z</time>
      </trkpt>
      <trkpt lat="47.2691" lon="4.97571">
        <ele>331</ele>
        <time>2012-12-11T12:48:16.1Z</time>
      </trkpt>
      <trkpt lat="47.26912" lon="4.97571">
        <ele>331</ele>
        <time>2012-12-11T12:48:18.1Z</time>
      </trkpt>
      <trkpt lat="47.26915" lon="4.97572">
        <ele>331</ele>
        <time>2012-12-11T12:48:21.1Z</time>
      </trkpt>
      <trkpt lat="47.26918" lon="4.97573">
        <ele>331</ele>
        <time>2012-12-11T12:48:23.1Z</time>
      </trkpt>
      <trkpt lat="47.26921" lon="4.97575">
        <ele>332</ele>
        <time>2012-12-11T12:48:25.1Z</time>
      </trkpt>
      <trkpt lat="47.26924" lon="4.97576">
        <ele>332</ele>
        <time>2012-12-11T12:48:27.1Z</time>
      </trkpt>
      <trkpt lat="47.26927" lon="4.97577">
        <ele>331</ele>
        <time>2012-12-11T12:48:29.1Z</time>
      </trkpt>
      <trkpt lat="47.26931" lon="4.9758">
        <ele>332</ele>
        <time>2012-12-11T12:48:31.1Z</time>
      </trkpt>
      <trkpt lat="47.26934" lon="4.97581">
        <ele>332</ele>
        <time>2012-12-11T12:48:33.1Z</time>
      </trkpt>
      <trkpt lat="47.26937" lon="4.97583">
        <ele>332</ele>
        <time>2012-12-11T12:48:35.1Z</time>
      </trkpt>
      <trkpt lat="47.2694" lon="4.97584">
        <ele>333</ele>
        <time>2012-12-11T12:48:37.1Z</time>
      </trkpt>
      <trkpt lat="47.26943" lon="4.97585">
        <ele>333</ele>
        <time>2012-12-11T12:48:39.1Z</time>
      </trkpt>
      <trkpt lat="47.26946" lon="4.97586">
        <ele>333</ele>
        <time>2012-12-11T12:48:41.1Z</time>
      </trkpt>
      <trkpt lat="47.26949" lon="4.97588">
        <ele>332</ele>
        <time>2012-12-11T12:48:43.1Z</time>
      </trkpt>
      <trkpt lat="47.26952" lon="4.97589">
        <ele>332</ele>
        <time>2012-12-11T12:48:45.1Z</time>
      </trkpt>
      <trkpt lat="47.26954" lon="4.97591">
        <ele>333</ele>
        <time>2012-12-11T12:48:47.1Z</time>
      </trkpt>
      <trkpt lat="47.26955" lon="4.97593">
        <ele>332</ele>
        <time>2012-12-11T12:48:49.1Z</time>
      </trkpt>
      <trkpt lat="47.26957" lon="4.97595">
        <ele>332</ele>
        <time>2012-12-11T12:48:51.1Z</time>
      </trkpt>
      <trkpt lat="47.2696" lon="4.97598">
        <ele>332</ele>
        <time>2012-12-11T12:48:53.1Z</time>
      </trkpt>
      <trkpt lat="47.26962" lon="4.97601">
        <ele>333</ele>
        <time>2012-12-11T12:48:55.1Z</time>
      </trkpt>
      <trkpt lat="47.26963" lon="4.97603">
        <ele>333</ele>
        <time>2012-12-11T12:48:57.1Z</time>
      </trkpt>
      <trkpt lat="47.26964" lon="4.97605">
        <ele>333</ele>
        <time>2012-12-11T12:48:59.1Z</time>
      </trkpt>
      <trkpt lat="47.26966" lon="4.97606">
        <ele>333</ele>
        <time>2012-12-11T12:49:02.1Z</time>
      </trkpt>
      <trkpt lat="47.26967" lon="4.97607">
        <ele>333</ele>
        <time>2012-12-11T12:49:04.1Z</time>
      </trkpt>
      <trkpt lat="47.26967" lon="4.97609">
        <ele>333</ele>
        <time>2012-12-11T12:49:06.1Z</time>
      </trkpt>
      <trkpt lat="47.26966" lon="4.97611">
        <ele>333</ele>
        <time>2012-12-11T12:49:08.1Z</time>
      </trkpt>
      <trkpt lat="47.26965" lon="4.97614">
        <ele>332</ele>
        <time>2012-12-11T12:49:10.1Z</time>
      </trkpt>
      <trkpt lat="47.26964" lon="4.97618">
        <ele>332</ele>
        <time>2012-12-11T12:49:12.1Z</time>
      </trkpt>
      <trkpt lat="47.26963" lon="4.97621">
        <ele>332</ele>
        <time>2012-12-11T12:49:14.1Z</time>
      </trkpt>
      <trkpt lat="47.26963" lon="4.97624">
        <ele>331</ele>
        <time>2012-12-11T12:49:16.1Z</time>
      </trkpt>
      <trkpt lat="47.26965" lon="4.97627">
        <ele>331</ele>
        <time>2012-12-11T12:49:18.1Z</time>
      </trkpt>
      <trkpt lat="47.26966" lon="4.97629">
        <ele>331</ele>
        <time>2012-12-11T12:49:20.1Z</time>
      </trkpt>
      <trkpt lat="47.26968" lon="4.97631">
        <ele>331</ele>
        <time>2012-12-11T12:49:23.1Z</time>
      </trkpt>
      <trkpt lat="47.2697" lon="4.97633">
        <ele>331</ele>
        <time>2012-12-11T12:49:25.1Z</time>
      </trkpt>
      <trkpt lat="47.26972" lon="4.97635">
        <ele>331</ele>
        <time>2012-12-11T12:49:27.1Z</time>
      </trkpt>
      <trkpt lat="47.26976" lon="4.97636">
        <ele>331</ele>
        <time>2012-12-11T12:49:29.1Z</time>
      </trkpt>
      <trkpt lat="47.26978" lon="4.97637">
        <ele>331</ele>
        <time>2012-12-11T12:49:31.1Z</time>
      </trkpt>
      <trkpt lat="47.2698" lon="4.97639">
        <ele>331</ele>
        <time>2012-12-11T12:49:33.1Z</time>
      </trkpt>
      <trkpt lat="47.26981" lon="4.97641">
        <ele>332</ele>
        <time>2012-12-11T12:49:35.1Z</time>
      </trkpt>
      <trkpt lat="47.26983" lon="4.97643">
        <ele>332</ele>
        <time>2012-12-11T12:49:37.1Z</time>
      </trkpt>
      <trkpt lat="47.26985" lon="4.97644">
        <ele>332</ele>
        <time>2012-12-11T12:49:39.1Z</time>
      </trkpt>
      <trkpt lat="47.26987" lon="4.97646">
        <ele>332</ele>
        <time>2012-12-11T12:49:41.1Z</time>
      </trkpt>
      <trkpt lat="47.26989" lon="4.97647">
        <ele>332</ele>
        <time>2012-12-11T12:49:43.1Z</time>
      </trkpt>
      <trkpt lat="47.26992" lon="4.97648">
        <ele>332</ele>
        <time>2012-12-11T12:49:45.1Z</time>
      </trkpt>
      <trkpt lat="47.26994" lon="4.9765">
        <ele>333</ele>
        <time>2012-12-11T12:49:47.1Z</time>
      </trkpt>
      <trkpt lat="47.26996" lon="4.97651">
        <ele>333</ele>
        <time>2012-12-11T12:49:49.1Z</time>
      </trkpt>
      <trkpt lat="47.26998" lon="4.97652">
        <ele>333</ele>
        <time>2012-12-11T12:49:52.1Z</time>
      </trkpt>
      <trkpt lat="47.27001" lon="4.97653">
        <ele>333</ele>
        <time>2012-12-11T12:49:54.1Z</time>
      </trkpt>
      <trkpt lat="47.27003" lon="4.97654">
        <ele>333</ele>
        <time>2012-12-11T12:49:56.1Z</time>
      </trkpt>
      <trkpt lat="47.27007" lon="4.97655">
        <ele>333</ele>
        <time>2012-12-11T12:49:58.1Z</time>
      </trkpt>
      <trkpt lat="47.27008" lon="4.97656">
        <ele>334</ele>
        <time>2012-12-11T12:50:00.1Z</time>
      </trkpt>
      <trkpt lat="47.27008" lon="4.97656">
        <ele>334</ele>
        <time>2012-12-11T12:50:02.1Z</time>
      </trkpt>
      <trkpt lat="47.2701" lon="4.97656">
        <ele>334</ele>
        <time>2012-12-11T12:50:04.1Z</time>
      </trkpt>
      <trkpt lat="47.27011" lon="4.97657">
        <ele>334</ele>
        <time>2012-12-11T12:50:06.1Z</time>
      </trkpt>
      <trkpt lat="47.27014" lon="4.97657">
        <ele>334</ele>
        <time>2012-12-11T12:50:08.1Z</time>
      </trkpt>
      <trkpt lat="47.27016" lon="4.97656">
        <ele>334</ele>
        <time>2012-12-11T12:50:10.1Z</time>
      </trkpt>
      <trkpt lat="47.27018" lon="4.97657">
        <ele>334</ele>
        <time>2012-12-11T12:50:12.1Z</time>
      </trkpt>
      <trkpt lat="47.27021" lon="4.97657">
        <ele>334</ele>
        <time>2012-12-11T12:50:14.1Z</time>
      </trkpt>
      <trkpt lat="47.27023" lon="4.97658">
        <ele>335</ele>
        <time>2012-12-11T12:50:17.1Z</time>
      </trkpt>
      <trkpt lat="47.27027" lon="4.97658">
        <ele>335</ele>
        <time>2012-12-11T12:50:19.1Z</time>
      </trkpt>
      <trkpt lat="47.27029" lon="4.97658">
        <ele>335</ele>
        <time>2012-12-11T12:50:21.1Z</time>
      </trkpt>
      <trkpt lat="47.27032" lon="4.97658">
        <ele>335</ele>
        <time>2012-12-11T12:50:23.1Z</time>
      </trkpt>
      <trkpt lat="47.27034" lon="4.97659">
        <ele>335</ele>
        <time>2012-12-11T12:50:25.1Z</time>
      </trkpt>
      <trkpt lat="47.27037" lon="4.97659">
        <ele>335</ele>
        <time>2012-12-11T12:50:27.1Z</time>
      </trkpt>
      <trkpt lat="47.27039" lon="4.97659">
        <ele>336</ele>
        <time>2012-12-11T12:50:29.1Z</time>
      </trkpt>
      <trkpt lat="47.27042" lon="4.97659">
        <ele>336</ele>
        <time>2012-12-11T12:50:31.1Z</time>
      </trkpt>
      <trkpt lat="47.27044" lon="4.9766">
        <ele>336</ele>
        <time>2012-12-11T12:50:33.1Z</time>
      </trkpt>
      <trkpt lat="47.27046" lon="4.9766">
        <ele>336</ele>
        <time>2012-12-11T12:50:36.1Z</time>
      </trkpt>
      <trkpt lat="47.27048" lon="4.97661">
        <ele>336</ele>
        <time>2012-12-11T12:50:38.1Z</time>
      </trkpt>
      <trkpt lat="47.2705" lon="4.97661">
        <ele>336</ele>
        <time>2012-12-11T12:50:40.1Z</time>
      </trkpt>
      <trkpt lat="47.27053" lon="4.97663">
        <ele>336</ele>
        <time>2012-12-11T12:50:42.1Z</time>
      </trkpt>
      <trkpt lat="47.27055" lon="4.97666">
        <ele>336</ele>
        <time>2012-12-11T12:50:44.1Z</time>
      </trkpt>
      <trkpt lat="47.27056" lon="4.97669">
        <ele>337</ele>
        <time>2012-12-11T12:50:46.1Z</time>
      </trkpt>
      <trkpt lat="47.27058" lon="4.97672">
        <ele>337</ele>
        <time>2012-12-11T12:50:48.1Z</time>
      </trkpt>
      <trkpt lat="47.27059" lon="4.97674">
        <ele>336</ele>
        <time>2012-12-11T12:50:50.1Z</time>
      </trkpt>
      <trkpt lat="47.27061" lon="4.97676">
        <ele>336</ele>
        <time>2012-12-11T12:50:52.1Z</time>
      </trkpt>
      <trkpt lat="47.27062" lon="4.97677">
        <ele>336</ele>
        <time>2012-12-11T12:50:54.1Z</time>
      </trkpt>
      <trkpt lat="47.27063" lon="4.97678">
        <ele>336</ele>
        <time>2012-12-11T12:50:56.1Z</time>
      </trkpt>
      <trkpt lat="47.27064" lon="4.97678">
        <ele>337</ele>
        <time>2012-12-11T12:50:58.1Z</time>
      </trkpt>
      <trkpt lat="47.27064" lon="4.97678">
        <ele>336</ele>
        <time>2012-12-11T12:51:00.1Z</time>
      </trkpt>
      <trkpt lat="47.27065" lon="4.97678">
        <ele>337</ele>
        <time>2012-12-11T12:51:02.1Z</time>
      </trkpt>
      <trkpt lat="47.27065" lon="4.97679">
        <ele>337</ele>
        <time>2012-12-11T12:51:04.1Z</time>
      </trkpt>
      <trkpt lat="47.27066" lon="4.97679">
        <ele>337</ele>
        <time>2012-12-11T12:51:07.1Z</time>
      </trkpt>
      <trkpt lat="47.27066" lon="4.97679">
        <ele>337</ele>
        <time>2012-12-11T12:51:09.1Z</time>
      </trkpt>
      <trkpt lat="47.27066" lon="4.97679">
        <ele>337</ele>
        <time>2012-12-11T12:51:11.1Z</time>
      </trkpt>
      <trkpt lat="47.27068" lon="4.97678">
        <ele>337</ele>
        <time>2012-12-11T12:51:13.1Z</time>
      </trkpt>
      <trkpt lat="47.27069" lon="4.97678">
        <ele>337</ele>
        <time>2012-12-11T12:51:15.1Z</time>
      </trkpt>
      <trkpt lat="47.27071" lon="4.97678">
        <ele>337</ele>
        <time>2012-12-11T12:51:17.1Z</time>
      </trkpt>
      <trkpt lat="47.27071" lon="4.97678">
        <ele>337</ele>
        <time>2012-12-11T12:51:19.1Z</time>
      </trkpt>
      <trkpt lat="47.27071" lon="4.97679">
        <ele>337</ele>
        <time>2012-12-11T12:51:21.1Z</time>
      </trkpt>
      <trkpt lat="47.27071" lon="4.97679">
        <ele>337</ele>
        <time>2012-12-11T12:51:23.1Z</time>
      </trkpt>
      <trkpt lat="47.27072" lon="4.97678">
        <ele>337</ele>
        <time>2012-12-11T12:51:25.1Z</time>
      </trkpt>
      <trkpt lat="47.27072" lon="4.97679">
        <ele>337</ele>
        <time>2012-12-11T12:51:27.1Z</time>
      </trkpt>
      <trkpt lat="47.27072" lon="4.97679">
        <ele>337</ele>
        <time>2012-12-11T12:51:29.1Z</time>
      </trkpt>
      <trkpt lat="47.27072" lon="4.9768">
        <ele>337</ele>
        <time>2012-12-11T12:51:31.1Z</time>
      </trkpt>
      <trkpt lat="47.27071" lon="4.9768">
        <ele>337</ele>
        <time>2012-12-11T12:51:34.1Z</time>
      </trkpt>
      <trkpt lat="47.27072" lon="4.9768">
        <ele>337</ele>
        <time>2012-12-11T12:51:36.1Z</time>
      </trkpt>
      <trkpt lat="47.27072" lon="4.9768">
        <ele>337</ele>
        <time>2012-12-11T12:51:38.1Z</time>
      </trkpt>
      <trkpt lat="47.27073" lon="4.9768">
        <ele>337</ele>
        <time>2012-12-11T12:51:40.1Z</time>
      </trkpt>
      <trkpt lat="47.27073" lon="4.9768">
        <ele>337</ele>
        <time>2012-12-11T12:51:42.1Z</time>
      </trkpt>
      <trkpt lat="47.27074" lon="4.9768">
        <ele>337</ele>
        <time>2012-12-11T12:51:44.1Z</time>
      </trkpt>
      <trkpt lat="47.27074" lon="4.97679">
        <ele>337</ele>
        <time>2012-12-11T12:51:46.1Z</time>
      </trkpt>
      <trkpt lat="47.27075" lon="4.97679">
        <ele>337</ele>
        <time>2012-12-11T12:51:48.1Z</time>
      </trkpt>
      <trkpt lat="47.27076" lon="4.97679">
        <ele>338</ele>
        <time>2012-12-11T12:51:50.1Z</time>
      </trkpt>
      <trkpt lat="47.27075" lon="4.97678">
        <ele>338</ele>
        <time>2012-12-11T12:51:52.1Z</time>
      </trkpt>
      <trkpt lat="47.27075" lon="4.97678">
        <ele>338</ele>
        <time>2012-12-11T12:51:54.1Z</time>
      </trkpt>
      <trkpt lat="47.27075" lon="4.97678">
        <ele>338</ele>
        <time>2012-12-11T12:51:56.1Z</time>
      </trkpt>
      <trkpt lat="47.27075" lon="4.97678">
        <ele>338</ele>
        <time>2012-12-11T12:51:58.1Z</time>
      </trkpt>
      <trkpt lat="47.27075" lon="4.97678">
        <ele>338</ele>
        <time>2012-12-11T12:52:01.1Z</time>
      </trkpt>
      <trkpt lat="47.27076" lon="4.97678">
        <ele>338</ele>
        <time>2012-12-11T12:52:03.1Z</time>
      </trkpt>
      <trkpt lat="47.27076" lon="4.97677">
        <ele>338</ele>
        <time>2012-12-11T12:52:05.1Z</time>
      </trkpt>
      <trkpt lat="47.27076" lon="4.97677">
        <ele>338</ele>
        <time>2012-12-11T12:52:07.1Z</time>
      </trkpt>
      <trkpt lat="47.27076" lon="4.97676">
        <ele>338</ele>
        <time>2012-12-11T12:52:09.1Z</time>
      </trkpt>
      <trkpt lat="47.27076" lon="4.97676">
        <ele>338</ele>
        <time>2012-12-11T12:52:11.1Z</time>
      </trkpt>
      <trkpt lat="47.27076" lon="4.97676">
        <ele>338</ele>
        <time>2012-12-11T12:52:13.1Z</time>
      </trkpt>
      <trkpt lat="47.27076" lon="4.97676">
        <ele>338</ele>
        <time>2012-12-11T12:52:15.1Z</time>
      </trkpt>
      <trkpt lat="47.27076" lon="4.97676">
        <ele>338</ele>
        <time>2012-12-11T12:52:17.1Z</time>
      </trkpt>
      <trkpt lat="47.27076" lon="4.97676">
        <ele>338</ele>
        <time>2012-12-11T12:52:19.1Z</time>
      </trkpt>
      <trkpt lat="47.27076" lon="4.97676">
        <ele>338</ele>
        <time>2012-12-11T12:52:21.1Z</time>
      </trkpt>
      <trkpt lat="47.27076" lon="4.97676">
        <ele>338</ele>
        <time>2012-12-11T12:52:23.1Z</time>
      </trkpt>
      <trkpt lat="47.27077" lon="4.97676">
        <ele>338</ele>
        <time>2012-12-11T12:52:25.1Z</time>
      </trkpt>
      <trkpt lat="47.27077" lon="4.97676">
        <ele>338</ele>
        <time>2012-12-11T12:52:27.1Z</time>
      </trkpt>
      <trkpt lat="47.27077" lon="4.97676">
        <ele>338</ele>
        <time>2012-12-11T12:52:29.1Z</time>
      </trkpt>
      <trkpt lat="47.27077" lon="4.97676">
        <ele>338</ele>
        <time>2012-12-11T12:52:31.1Z</time>
      </trkpt>
      <trkpt lat="47.27077" lon="4.97676">
        <ele>338</ele>
        <time>2012-12-11T12:52:33.1Z</time>
      </trkpt>
      <trkpt lat="47.27077" lon="4.97676">
        <ele>338</ele>
        <time>2012-12-11T12:52:36.1Z</time>
      </trkpt>
      <trkpt lat="47.27077" lon="4.97675">
        <ele>338</ele>
        <time>2012-12-11T12:52:38.1Z</time>
      </trkpt>
      <trkpt lat="47.27078" lon="4.97675">
        <ele>338</ele>
        <time>2012-12-11T12:52:40.1Z</time>
      </trkpt>
      <trkpt lat="47.27078" lon="4.97675">
        <ele>337</ele>
        <time>2012-12-11T12:52:42.1Z</time>
      </trkpt>
      <trkpt lat="47.27078" lon="4.97675">
        <ele>338</ele>
        <time>2012-12-11T12:52:44.1Z</time>
      </trkpt>
      <trkpt lat="47.27079" lon="4.97675">
        <ele>338</ele>
        <time>2012-12-11T12:52:46.1Z</time>
      </trkpt>
      <trkpt lat="47.27079" lon="4.97675">
        <ele>338</ele>
        <time>2012-12-11T12:52:48.1Z</time>
      </trkpt>
      <trkpt lat="47.27079" lon="4.97675">
        <ele>338</ele>
        <time>2012-12-11T12:52:50.1Z</time>
      </trkpt>
      <trkpt lat="47.27079" lon="4.97675">
        <ele>338</ele>
        <time>2012-12-11T12:52:52.1Z</time>
      </trkpt>
      <trkpt lat="47.27079" lon="4.97675">
        <ele>338</ele>
        <time>2012-12-11T12:52:54.1Z</time>
      </trkpt>
      <trkpt lat="47.27079" lon="4.97675">
        <ele>338</ele>
        <time>2012-12-11T12:52:56.1Z</time>
      </trkpt>
      <trkpt lat="47.27079" lon="4.97675">
        <ele>338</ele>
        <time>2012-12-11T12:52:59.1Z</time>
      </trkpt>
      <trkpt lat="47.27079" lon="4.97675">
        <ele>338</ele>
        <time>2012-12-11T12:53:01.1Z</time>
      </trkpt>
      <trkpt lat="47.27079" lon="4.97675">
        <ele>338</ele>
        <time>2012-12-11T12:53:03.1Z</time>
      </trkpt>
      <trkpt lat="47.27079" lon="4.97675">
        <ele>338</ele>
        <time>2012-12-11T12:53:05.1Z</time>
      </trkpt>
      <trkpt lat="47.27079" lon="4.97675">
        <ele>338</ele>
        <time>2012-12-11T12:53:07.1Z</time>
      </trkpt>
      <trkpt lat="47.27079" lon="4.97676">
        <ele>338</ele>
        <time>2012-12-11T12:53:09.1Z</time>
      </trkpt>
      <trkpt lat="47.27079" lon="4.97676">
        <ele>338</ele>
        <time>2012-12-11T12:53:11.1Z</time>
      </trkpt>
      <trkpt lat="47.27079" lon="4.97676">
        <ele>337</ele>
        <time>2012-12-11T12:53:13.1Z</time>
      </trkpt>
      <trkpt lat="47.27079" lon="4.97675">
        <ele>337</ele>
        <time>2012-12-11T12:53:15.1Z</time>
      </trkpt>
      <trkpt lat="47.27079" lon="4.97675">
        <ele>337</ele>
        <time>2012-12-11T12:53:17.1Z</time>
      </trkpt>
      <trkpt lat="47.27079" lon="4.97675">
        <ele>337</ele>
        <time>2012-12-11T12:53:19.1Z</time>
      </trkpt>
      <trkpt lat="47.27079" lon="4.97675">
        <ele>337</ele>
        <time>2012-12-11T12:53:21.1Z</time>
      </trkpt>
      <trkpt lat="47.27079" lon="4.97675">
        <ele>338</ele>
        <time>2012-12-11T12:53:23.1Z</time>
      </trkpt>
      <trkpt lat="47.27079" lon="4.97676">
        <ele>338</ele>
        <time>2012-12-11T12:53:25.1Z</time>
      </trkpt>
      <trkpt lat="47.27079" lon="4.97675">
        <ele>338</ele>
        <time>2012-12-11T12:53:27.1Z</time>
      </trkpt>
      <trkpt lat="47.2708" lon="4.97675">
        <ele>338</ele>
        <time>2012-12-11T12:53:29.1Z</time>
      </trkpt>
      <trkpt lat="47.27079" lon="4.97675">
        <ele>338</ele>
        <time>2012-12-11T12:53:31.1Z</time>
      </trkpt>
      <trkpt lat="47.2708" lon="4.97675">
        <ele>338</ele>
        <time>2012-12-11T12:53:33.1Z</time>
      </trkpt>
      <trkpt lat="47.2708" lon="4.97675">
        <ele>338</ele>
        <time>2012-12-11T12:53:35.1Z</time>
      </trkpt>
      <trkpt lat="47.27081" lon="4.97674">
        <ele>338</ele>
        <time>2012-12-11T12:53:37.1Z</time>
      </trkpt>
      <trkpt lat="47.27081" lon="4.97674">
        <ele>338</ele>
        <time>2012-12-11T12:53:40.1Z</time>
      </trkpt>
      <trkpt lat="47.27082" lon="4.97674">
        <ele>338</ele>
        <time>2012-12-11T12:53:42.1Z</time>
      </trkpt>
      <trkpt lat="47.27082" lon="4.97674">
        <ele>338</ele>
        <time>2012-12-11T12:53:44.1Z</time>
      </trkpt>
      <trkpt lat="47.27082" lon="4.97674">
        <ele>338</ele>
        <time>2012-12-11T12:53:46.1Z</time>
      </trkpt>
      <trkpt lat="47.27082" lon="4.97675">
        <ele>338</ele>
        <time>2012-12-11T12:53:48.1Z</time>
      </trkpt>
      <trkpt lat="47.27082" lon="4.97676">
        <ele>338</ele>
        <time>2012-12-11T12:53:50.1Z</time>
      </trkpt>
      <trkpt lat="47.27083" lon="4.97677">
        <ele>338</ele>
        <time>2012-12-11T12:53:52.1Z</time>
      </trkpt>
      <trkpt lat="47.27083" lon="4.97677">
        <ele>338</ele>
        <time>2012-12-11T12:53:54.1Z</time>
      </trkpt>
      <trkpt lat="47.27083" lon="4.97678">
        <ele>338</ele>
        <time>2012-12-11T12:53:57.1Z</time>
      </trkpt>
      <trkpt lat="47.27083" lon="4.97679">
        <ele>338</ele>
        <time>2012-12-11T12:53:59.1Z</time>
      </trkpt>
      <trkpt lat="47.27083" lon="4.97679">
        <ele>338</ele>
        <time>2012-12-11T12:54:01.1Z</time>
      </trkpt>
      <trkpt lat="47.27084" lon="4.97679">
        <ele>338</ele>
        <time>2012-12-11T12:54:03.1Z</time>
      </trkpt>
      <trkpt lat="47.27084" lon="4.9768">
        <ele>338</ele>
        <time>2012-12-11T12:54:05.1Z</time>
      </trkpt>
      <trkpt lat="47.27084" lon="4.9768">
        <ele>338</ele>
        <time>2012-12-11T12:54:07.1Z</time>
      </trkpt>
      <trkpt lat="47.27084" lon="4.9768">
        <ele>338</ele>
        <time>2012-12-11T12:54:09.1Z</time>
      </trkpt>
      <trkpt lat="47.27084" lon="4.97681">
        <ele>338</ele>
        <time>2012-12-11T12:54:11.1Z</time>
      </trkpt>
      <trkpt lat="47.27084" lon="4.97681">
        <ele>338</ele>
        <time>2012-12-11T12:54:13.1Z</time>
      </trkpt>
      <trkpt lat="47.27084" lon="4.97682">
        <ele>337</ele>
        <time>2012-12-11T12:54:16.1Z</time>
      </trkpt>
      <trkpt lat="47.27084" lon="4.97681">
        <ele>338</ele>
        <time>2012-12-11T12:54:18.1Z</time>
      </trkpt>
      <trkpt lat="47.27084" lon="4.97681">
        <ele>338</ele>
        <time>2012-12-11T12:54:20.1Z</time>
      </trkpt>
      <trkpt lat="47.27083" lon="4.97681">
        <ele>338</ele>
        <time>2012-12-11T12:54:22.1Z</time>
      </trkpt>
      <trkpt lat="47.27083" lon="4.97682">
        <ele>338</ele>
        <time>2012-12-11T12:54:24.1Z</time>
      </trkpt>
      <trkpt lat="47.27083" lon="4.97683">
        <ele>338</ele>
        <time>2012-12-11T12:54:26.1Z</time>
      </trkpt>
      <trkpt lat="47.27083" lon="4.97683">
        <ele>338</ele>
        <time>2012-12-11T12:54:28.1Z</time>
      </trkpt>
      <trkpt lat="47.27083" lon="4.97683">
        <ele>338</ele>
        <time>2012-12-11T12:54:30.1Z</time>
      </trkpt>
      <trkpt lat="47.27083" lon="4.97683">
        <ele>338</ele>
        <time>2012-12-11T12:54:33.1Z</time>
      </trkpt>
      <trkpt lat="47.27082" lon="4.97683">
        <ele>338</ele>
        <time>2012-12-11T12:54:35.1Z</time>
      </trkpt>
      <trkpt lat="47.27082" lon="4.97684">
        <ele>338</ele>
        <time>2012-12-11T12:54:37.1Z</time>
      </trkpt>
      <trkpt lat="47.27082" lon="4.97684">
        <ele>338</ele>
        <time>2012-12-11T12:54:39.1Z</time>
      </trkpt>
      <trkpt lat="47.27082" lon="4.97684">
        <ele>338</ele>
        <time>2012-12-11T12:54:41.1Z</time>
      </trkpt>
      <trkpt lat="47.27081" lon="4.97684">
        <ele>338</ele>
        <time>2012-12-11T12:54:43.1Z</time>
      </trkpt>
      <trkpt lat="47.27081" lon="4.97684">
        <ele>338</ele>
        <time>2012-12-11T12:54:45.1Z</time>
      </trkpt>
      <trkpt lat="47.27081" lon="4.97684">
        <ele>338</ele>
        <time>2012-12-11T12:54:47.1Z</time>
      </trkpt>
      <trkpt lat="47.27081" lon="4.97684">
        <ele>338</ele>
        <time>2012-12-11T12:54:49.1Z</time>
      </trkpt>
      <trkpt lat="47.27081" lon="4.97684">
        <ele>338</ele>
        <time>2012-12-11T12:54:51.1Z</time>
      </trkpt>
      <trkpt lat="47.27081" lon="4.97683">
        <ele>338</ele>
        <time>2012-12-11T12:54:53.1Z</time>
      </trkpt>
      <trkpt lat="47.27082" lon="4.97683">
        <ele>338</ele>
        <time>2012-12-11T12:54:55.1Z</time>
      </trkpt>
      <trkpt lat="47.27083" lon="4.97682">
        <ele>339</ele>
        <time>2012-12-11T12:54:57.1Z</time>
      </trkpt>
      <trkpt lat="47.27084" lon="4.97681">
        <ele>339</ele>
        <time>2012-12-11T12:54:59.1Z</time>
      </trkpt>
      <trkpt lat="47.27085" lon="4.97682">
        <ele>339</ele>
        <time>2012-12-11T12:55:02.1Z</time>
      </trkpt>
      <trkpt lat="47.27085" lon="4.97682">
        <ele>339</ele>
        <time>2012-12-11T12:55:04.1Z</time>
      </trkpt>
      <trkpt lat="47.27087" lon="4.97683">
        <ele>340</ele>
        <time>2012-12-11T12:55:06.1Z</time>
      </trkpt>
      <trkpt lat="47.27089" lon="4.97683">
        <ele>339</ele>
        <time>2012-12-11T12:55:08.1Z</time>
      </trkpt>
      <trkpt lat="47.2709" lon="4.97684">
        <ele>339</ele>
        <time>2012-12-11T12:55:10.1Z</time>
      </trkpt>
      <trkpt lat="47.27092" lon="4.97685">
        <ele>339</ele>
        <time>2012-12-11T12:55:12.1Z</time>
      </trkpt>
      <trkpt lat="47.27094" lon="4.97684">
        <ele>339</ele>
        <time>2012-12-11T12:55:14.1Z</time>
      </trkpt>
      <trkpt lat="47.27095" lon="4.97683">
        <ele>340</ele>
        <time>2012-12-11T12:55:16.1Z</time>
      </trkpt>
      <trkpt lat="47.27097" lon="4.97683">
        <ele>340</ele>
        <time>2012-12-11T12:55:18.1Z</time>
      </trkpt>
      <trkpt lat="47.27099" lon="4.97683">
        <ele>340</ele>
        <time>2012-12-11T12:55:20.1Z</time>
      </trkpt>
      <trkpt lat="47.271" lon="4.97684">
        <ele>340</ele>
        <time>2012-12-11T12:55:22.1Z</time>
      </trkpt>
      <trkpt lat="47.27102" lon="4.97685">
        <ele>340</ele>
        <time>2012-12-11T12:55:24.1Z</time>
      </trkpt>
      <trkpt lat="47.27104" lon="4.97686">
        <ele>341</ele>
        <time>2012-12-11T12:55:26.1Z</time>
      </trkpt>
      <trkpt lat="47.27105" lon="4.97687">
        <ele>341</ele>
        <time>2012-12-11T12:55:28.1Z</time>
      </trkpt>
      <trkpt lat="47.27108" lon="4.97689">
        <ele>340</ele>
        <time>2012-12-11T12:55:30.1Z</time>
      </trkpt>
      <trkpt lat="47.27109" lon="4.9769">
        <ele>340</ele>
        <time>2012-12-11T12:55:32.1Z</time>
      </trkpt>
      <trkpt lat="47.27111" lon="4.97691">
        <ele>340</ele>
        <time>2012-12-11T12:55:34.1Z</time>
      </trkpt>
      <trkpt lat="47.27113" lon="4.97692">
        <ele>340</ele>
        <time>2012-12-11T12:55:36.1Z</time>
      </trkpt>
      <trkpt lat="47.27115" lon="4.97692">
        <ele>340</ele>
        <time>2012-12-11T12:55:38.1Z</time>
      </trkpt>
      <trkpt lat="47.27117" lon="4.97692">
        <ele>341</ele>
        <time>2012-12-11T12:55:41.1Z</time>
      </trkpt>
      <trkpt lat="47.27119" lon="4.97693">
        <ele>341</ele>
        <time>2012-12-11T12:55:43.1Z</time>
      </trkpt>
      <trkpt lat="47.27121" lon="4.97693">
        <ele>341</ele>
        <time>2012-12-11T12:55:45.1Z</time>
      </trkpt>
      <trkpt lat="47.27123" lon="4.97694">
        <ele>341</ele>
        <time>2012-12-11T12:55:47.1Z</time>
      </trkpt>
      <trkpt lat="47.27125" lon="4.97696">
        <ele>341</ele>
        <time>2012-12-11T12:55:49.1Z</time>
      </trkpt>
      <trkpt lat="47.27127" lon="4.97696">
        <ele>341</ele>
        <time>2012-12-11T12:55:51.1Z</time>
      </trkpt>
      <trkpt lat="47.27129" lon="4.97697">
        <ele>341</ele>
        <time>2012-12-11T12:55:53.1Z</time>
      </trkpt>
      <trkpt lat="47.27131" lon="4.97697">
        <ele>341</ele>
        <time>2012-12-11T12:55:55.1Z</time>
      </trkpt>
      <trkpt lat="47.27133" lon="4.97697">
        <ele>341</ele>
        <time>2012-12-11T12:55:57.1Z</time>
      </trkpt>
      <trkpt lat="47.27134" lon="4.97697">
        <ele>341</ele>
        <time>2012-12-11T12:55:59.1Z</time>
      </trkpt>
      <trkpt lat="47.27137" lon="4.97698">
        <ele>341</ele>
        <time>2012-12-11T12:56:01.1Z</time>
      </trkpt>
      <trkpt lat="47.27138" lon="4.97699">
        <ele>341</ele>
        <time>2012-12-11T12:56:03.1Z</time>
      </trkpt>
      <trkpt lat="47.2714" lon="4.97699">
        <ele>341</ele>
        <time>2012-12-11T12:56:05.1Z</time>
      </trkpt>
      <trkpt lat="47.27142" lon="4.977">
        <ele>341</ele>
        <time>2012-12-11T12:56:08.1Z</time>
      </trkpt>
      <trkpt lat="47.27145" lon="4.97701">
        <ele>341</ele>
        <time>2012-12-11T12:56:10.1Z</time>
      </trkpt>
      <trkpt lat="47.27147" lon="4.97702">
        <ele>342</ele>
        <time>2012-12-11T12:56:12.1Z</time>
      </trkpt>
      <trkpt lat="47.27149" lon="4.97703">
        <ele>341</ele>
        <time>2012-12-11T12:56:14.1Z</time>
      </trkpt>
      <trkpt lat="47.27151" lon="4.97704">
        <ele>341</ele>
        <time>2012-12-11T12:56:16.1Z</time>
      </trkpt>
      <trkpt lat="47.27153" lon="4.97704">
        <ele>341</ele>
        <time>2012-12-11T12:56:18.1Z</time>
      </trkpt>
      <trkpt lat="47.27155" lon="4.97705">
        <ele>340</ele>
        <time>2012-12-11T12:56:20.1Z</time>
      </trkpt>
      <trkpt lat="47.27156" lon="4.97707">
        <ele>340</ele>
        <time>2012-12-11T12:56:22.1Z</time>
      </trkpt>
      <trkpt lat="47.27159" lon="4.97709">
        <ele>340</ele>
        <time>2012-12-11T12:56:25.1Z</time>
      </trkpt>
      <trkpt lat="47.27161" lon="4.97711">
        <ele>340</ele>
        <time>2012-12-11T12:56:27.1Z</time>
      </trkpt>
      <trkpt lat="47.27162" lon="4.97713">
        <ele>340</ele>
        <time>2012-12-11T12:56:29.1Z</time>
      </trkpt>
      <trkpt lat="47.27166" lon="4.97715">
        <ele>340</ele>
        <time>2012-12-11T12:56:31.1Z</time>
      </trkpt>
      <trkpt lat="47.27168" lon="4.97716">
        <ele>340</ele>
        <time>2012-12-11T12:56:33.1Z</time>
      </trkpt>
      <trkpt lat="47.2717" lon="4.97717">
        <ele>340</ele>
        <time>2012-12-11T12:56:35.1Z</time>
      </trkpt>
      <trkpt lat="47.27172" lon="4.97718">
        <ele>340</ele>
        <time>2012-12-11T12:56:37.1Z</time>
      </trkpt>
      <trkpt lat="47.27174" lon="4.97721">
        <ele>341</ele>
        <time>2012-12-11T12:56:39.1Z</time>
      </trkpt>
      <trkpt lat="47.27176" lon="4.97723">
        <ele>341</ele>
        <time>2012-12-11T12:56:41.1Z</time>
      </trkpt>
      <trkpt lat="47.27179" lon="4.97724">
        <ele>341</ele>
        <time>2012-12-11T12:56:43.1Z</time>
      </trkpt>
      <trkpt lat="47.2718" lon="4.97727">
        <ele>340</ele>
        <time>2012-12-11T12:56:45.1Z</time>
      </trkpt>
      <trkpt lat="47.27182" lon="4.97728">
        <ele>340</ele>
        <time>2012-12-11T12:56:47.1Z</time>
      </trkpt>
      <trkpt lat="47.27185" lon="4.97729">
        <ele>340</ele>
        <time>2012-12-11T12:56:49.1Z</time>
      </trkpt>
      <trkpt lat="47.27187" lon="4.9773">
        <ele>340</ele>
        <time>2012-12-11T12:56:51.1Z</time>
      </trkpt>
      <trkpt lat="47.27189" lon="4.97731">
        <ele>341</ele>
        <time>2012-12-11T12:56:54.1Z</time>
      </trkpt>
      <trkpt lat="47.27192" lon="4.97734">
        <ele>341</ele>
        <time>2012-12-11T12:56:56.1Z</time>
      </trkpt>
      <trkpt lat="47.27194" lon="4.97736">
        <ele>340</ele>
        <time>2012-12-11T12:56:58.1Z</time>
      </trkpt>
      <trkpt lat="47.27197" lon="4.97737">
        <ele>340</ele>
        <time>2012-12-11T12:57:00.1Z</time>
      </trkpt>
      <trkpt lat="47.27198" lon="4.9774">
        <ele>340</ele>
        <time>2012-12-11T12:57:02.1Z</time>
      </trkpt>
      <trkpt lat="47.272" lon="4.97744">
        <ele>340</ele>
        <time>2012-12-11T12:57:04.1Z</time>
      </trkpt>
      <trkpt lat="47.27201" lon="4.97747">
        <ele>340</ele>
        <time>2012-12-11T12:57:06.1Z</time>
      </trkpt>
      <trkpt lat="47.27202" lon="4.97748">
        <ele>340</ele>
        <time>2012-12-11T12:57:08.1Z</time>
      </trkpt>
      <trkpt lat="47.27203" lon="4.97749">
        <ele>340</ele>
        <time>2012-12-11T12:57:10.1Z</time>
      </trkpt>
      <trkpt lat="47.27204" lon="4.97751">
        <ele>340</ele>
        <time>2012-12-11T12:57:12.1Z</time>
      </trkpt>
      <trkpt lat="47.27205" lon="4.97753">
        <ele>340</ele>
        <time>2012-12-11T12:57:14.1Z</time>
      </trkpt>
      <trkpt lat="47.27205" lon="4.97755">
        <ele>339</ele>
        <time>2012-12-11T12:57:16.1Z</time>
      </trkpt>
      <trkpt lat="47.27205" lon="4.97757">
        <ele>339</ele>
        <time>2012-12-11T12:57:18.1Z</time>
      </trkpt>
      <trkpt lat="47.27205" lon="4.9776">
        <ele>338</ele>
        <time>2012-12-11T12:57:20.1Z</time>
      </trkpt>
      <trkpt lat="47.27205" lon="4.97764">
        <ele>338</ele>
        <time>2012-12-11T12:57:23.1Z</time>
      </trkpt>
      <trkpt lat="47.27206" lon="4.97767">
        <ele>337</ele>
        <time>2012-12-11T12:57:25.1Z</time>
      </trkpt>
      <trkpt lat="47.27208" lon="4.97769">
        <ele>337</ele>
        <time>2012-12-11T12:57:27.1Z</time>
      </trkpt>
      <trkpt lat="47.2721" lon="4.97771">
        <ele>336</ele>
        <time>2012-12-11T12:57:29.1Z</time>
      </trkpt>
      <trkpt lat="47.27212" lon="4.97772">
        <ele>336</ele>
        <time>2012-12-11T12:57:31.1Z</time>
      </trkpt>
      <trkpt lat="47.27214" lon="4.97774">
        <ele>336</ele>
        <time>2012-12-11T12:57:33.1Z</time>
      </trkpt>
      <trkpt lat="47.27216" lon="4.97775">
        <ele>336</ele>
        <time>2012-12-11T12:57:36.1Z</time>
      </trkpt>
      <trkpt lat="47.27218" lon="4.97779">
        <ele>336</ele>
        <time>2012-12-11T12:57:38.1Z</time>
      </trkpt>
      <trkpt lat="47.27219" lon="4.9778">
        <ele>336</ele>
        <time>2012-12-11T12:57:40.1Z</time>
      </trkpt>
      <trkpt lat="47.27222" lon="4.97783">
        <ele>336</ele>
        <time>2012-12-11T12:57:42.1Z</time>
      </trkpt>
      <trkpt lat="47.27224" lon="4.97784">
        <ele>336</ele>
        <time>2012-12-11T12:57:44.1Z</time>
      </trkpt>
      <trkpt lat="47.27226" lon="4.97786">
        <ele>336</ele>
        <time>2012-12-11T12:57:46.1Z</time>
      </trkpt>
      <trkpt lat="47.27228" lon="4.97787">
        <ele>336</ele>
        <time>2012-12-11T12:57:48.1Z</time>
      </trkpt>
      <trkpt lat="47.27231" lon="4.97788">
        <ele>336</ele>
        <time>2012-12-11T12:57:50.1Z</time>
      </trkpt>
      <trkpt lat="47.27233" lon="4.97789">
        <ele>336</ele>
        <time>2012-12-11T12:57:53.1Z</time>
      </trkpt>
      <trkpt lat="47.27235" lon="4.97791">
        <ele>336</ele>
        <time>2012-12-11T12:57:55.1Z</time>
      </trkpt>
      <trkpt lat="47.27237" lon="4.97792">
        <ele>336</ele>
        <time>2012-12-11T12:57:57.1Z</time>
      </trkpt>
      <trkpt lat="47.27242" lon="4.97795">
        <ele>336</ele>
        <time>2012-12-11T12:57:59.1Z</time>
      </trkpt>
      <trkpt lat="47.27244" lon="4.97795">
        <ele>336</ele>
        <time>2012-12-11T12:58:01.1Z</time>
      </trkpt>
      <trkpt lat="47.27246" lon="4.97797">
        <ele>336</ele>
        <time>2012-12-11T12:58:03.1Z</time>
      </trkpt>
      <trkpt lat="47.27248" lon="4.97798">
        <ele>336</ele>
        <time>2012-12-11T12:58:05.1Z</time>
      </trkpt>
      <trkpt lat="47.2725" lon="4.97799">
        <ele>336</ele>
        <time>2012-12-11T12:58:07.1Z</time>
      </trkpt>
      <trkpt lat="47.27252" lon="4.978">
        <ele>336</ele>
        <time>2012-12-11T12:58:09.1Z</time>
      </trkpt>
      <trkpt lat="47.27254" lon="4.97801">
        <ele>336</ele>
        <time>2012-12-11T12:58:11.1Z</time>
      </trkpt>
      <trkpt lat="47.27256" lon="4.97802">
        <ele>336</ele>
        <time>2012-12-11T12:58:13.1Z</time>
      </trkpt>
      <trkpt lat="47.27258" lon="4.97802">
        <ele>337</ele>
        <time>2012-12-11T12:58:15.1Z</time>
      </trkpt>
      <trkpt lat="47.27261" lon="4.97803">
        <ele>337</ele>
        <time>2012-12-11T12:58:17.1Z</time>
      </trkpt>
      <trkpt lat="47.27263" lon="4.97803">
        <ele>337</ele>
        <time>2012-12-11T12:58:19.1Z</time>
      </trkpt>
      <trkpt lat="47.27265" lon="4.97803">
        <ele>337</ele>
        <time>2012-12-11T12:58:22.1Z</time>
      </trkpt>
      <trkpt lat="47.27268" lon="4.97805">
        <ele>337</ele>
        <time>2012-12-11T12:58:24.1Z</time>
      </trkpt>
      <trkpt lat="47.2727" lon="4.97807">
        <ele>337</ele>
        <time>2012-12-11T12:58:26.1Z</time>
      </trkpt>
      <trkpt lat="47.27272" lon="4.97808">
        <ele>337</ele>
        <time>2012-12-11T12:58:28.1Z</time>
      </trkpt>
      <trkpt lat="47.27275" lon="4.97808">
        <ele>337</ele>
        <time>2012-12-11T12:58:30.1Z</time>
      </trkpt>
      <trkpt lat="47.27277" lon="4.9781">
        <ele>337</ele>
        <time>2012-12-11T12:58:32.1Z</time>
      </trkpt>
      <trkpt lat="47.2728" lon="4.97811">
        <ele>337</ele>
        <time>2012-12-11T12:58:34.1Z</time>
      </trkpt>
      <trkpt lat="47.27282" lon="4.97812">
        <ele>337</ele>
        <time>2012-12-11T12:58:36.1Z</time>
      </trkpt>
      <trkpt lat="47.27284" lon="4.97812">
        <ele>337</ele>
        <time>2012-12-11T12:58:38.1Z</time>
      </trkpt>
      <trkpt lat="47.27286" lon="4.97812">
        <ele>337</ele>
        <time>2012-12-11T12:58:40.1Z</time>
      </trkpt>
      <trkpt lat="47.27287" lon="4.97811">
        <ele>337</ele>
        <time>2012-12-11T12:58:42.1Z</time>
      </trkpt>
      <trkpt lat="47.27289" lon="4.97811">
        <ele>337</ele>
        <time>2012-12-11T12:58:44.1Z</time>
      </trkpt>
      <trkpt lat="47.2729" lon="4.97811">
        <ele>338</ele>
        <time>2012-12-11T12:58:46.1Z</time>
      </trkpt>
      <trkpt lat="47.27293" lon="4.97811">
        <ele>338</ele>
        <time>2012-12-11T12:58:48.1Z</time>
      </trkpt>
      <trkpt lat="47.27295" lon="4.97811">
        <ele>338</ele>
        <time>2012-12-11T12:58:50.1Z</time>
      </trkpt>
      <trkpt lat="47.27298" lon="4.9781">
        <ele>338</ele>
        <time>2012-12-11T12:58:53.1Z</time>
      </trkpt>
      <trkpt lat="47.27301" lon="4.97808">
        <ele>338</ele>
        <time>2012-12-11T12:58:55.1Z</time>
      </trkpt>
      <trkpt lat="47.27304" lon="4.97807">
        <ele>338</ele>
        <time>2012-12-11T12:58:57.1Z</time>
      </trkpt>
      <trkpt lat="47.27306" lon="4.97807">
        <ele>338</ele>
        <time>2012-12-11T12:58:59.1Z</time>
      </trkpt>
      <trkpt lat="47.27309" lon="4.97808">
        <ele>338</ele>
        <time>2012-12-11T12:59:01.1Z</time>
      </trkpt>
      <trkpt lat="47.27311" lon="4.97808">
        <ele>338</ele>
        <time>2012-12-11T12:59:03.1Z</time>
      </trkpt>
      <trkpt lat="47.27314" lon="4.97807">
        <ele>339</ele>
        <time>2012-12-11T12:59:05.1Z</time>
      </trkpt>
      <trkpt lat="47.27316" lon="4.97807">
        <ele>339</ele>
        <time>2012-12-11T12:59:07.1Z</time>
      </trkpt>
      <trkpt lat="47.27319" lon="4.97807">
        <ele>339</ele>
        <time>2012-12-11T12:59:09.1Z</time>
      </trkpt>
      <trkpt lat="47.27321" lon="4.97807">
        <ele>339</ele>
        <time>2012-12-11T12:59:11.1Z</time>
      </trkpt>
      <trkpt lat="47.27324" lon="4.97808">
        <ele>339</ele>
        <time>2012-12-11T12:59:13.1Z</time>
      </trkpt>
      <trkpt lat="47.27327" lon="4.97808">
        <ele>339</ele>
        <time>2012-12-11T12:59:15.1Z</time>
      </trkpt>
      <trkpt lat="47.27329" lon="4.97809">
        <ele>339</ele>
        <time>2012-12-11T12:59:17.1Z</time>
      </trkpt>
      <trkpt lat="47.27333" lon="4.9781">
        <ele>340</ele>
        <time>2012-12-11T12:59:20.1Z</time>
      </trkpt>
      <trkpt lat="47.27335" lon="4.9781">
        <ele>340</ele>
        <time>2012-12-11T12:59:22.1Z</time>
      </trkpt>
      <trkpt lat="47.27338" lon="4.9781">
        <ele>340</ele>
        <time>2012-12-11T12:59:24.1Z</time>
      </trkpt>
      <trkpt lat="47.2734" lon="4.9781">
        <ele>340</ele>
        <time>2012-12-11T12:59:26.1Z</time>
      </trkpt>
      <trkpt lat="47.27342" lon="4.9781">
        <ele>340</ele>
        <time>2012-12-11T12:59:28.1Z</time>
      </trkpt>
      <trkpt lat="47.27344" lon="4.97811">
        <ele>340</ele>
        <time>2012-12-11T12:59:30.1Z</time>
      </trkpt>
      <trkpt lat="47.27346" lon="4.97811">
        <ele>340</ele>
        <time>2012-12-11T12:59:32.1Z</time>
      </trkpt>
      <trkpt lat="47.27349" lon="4.97811">
        <ele>340</ele>
        <time>2012-12-11T12:59:34.1Z</time>
      </trkpt>
      <trkpt lat="47.27352" lon="4.97811">
        <ele>340</ele>
        <time>2012-12-11T12:59:36.1Z</time>
      </trkpt>
      <trkpt lat="47.27356" lon="4.97812">
        <ele>340</ele>
        <time>2012-12-11T12:59:38.1Z</time>
      </trkpt>
      <trkpt lat="47.27358" lon="4.97812">
        <ele>340</ele>
        <time>2012-12-11T12:59:40.1Z</time>
      </trkpt>
      <trkpt lat="47.2736" lon="4.97813">
        <ele>341</ele>
        <time>2012-12-11T12:59:42.1Z</time>
      </trkpt>
      <trkpt lat="47.27362" lon="4.97813">
        <ele>341</ele>
        <time>2012-12-11T12:59:44.1Z</time>
      </trkpt>
      <trkpt lat="47.27364" lon="4.97814">
        <ele>341</ele>
        <time>2012-12-11T12:59:46.1Z</time>
      </trkpt>
      <trkpt lat="47.27367" lon="4.97815">
        <ele>341</ele>
        <time>2012-12-11T12:59:48.1Z</time>
      </trkpt>
      <trkpt lat="47.27369" lon="4.97816">
        <ele>340</ele>
        <time>2012-12-11T12:59:50.1Z</time>
      </trkpt>
      <trkpt lat="47.27371" lon="4.97818">
        <ele>340</ele>
        <time>2012-12-11T12:59:52.1Z</time>
      </trkpt>
      <trkpt lat="47.27373" lon="4.97818">
        <ele>340</ele>
        <time>2012-12-11T12:59:55.1Z</time>
      </trkpt>
      <trkpt lat="47.27376" lon="4.97821">
        <ele>340</ele>
        <time>2012-12-11T12:59:57.1Z</time>
      </trkpt>
      <trkpt lat="47.27379" lon="4.97822">
        <ele>340</ele>
        <time>2012-12-11T12:59:59.1Z</time>
      </trkpt>
      <trkpt lat="47.27382" lon="4.97823">
        <ele>340</ele>
        <time>2012-12-11T13:00:01.1Z</time>
      </trkpt>
      <trkpt lat="47.27384" lon="4.97824">
        <ele>340</ele>
        <time>2012-12-11T13:00:03.1Z</time>
      </trkpt>
      <trkpt lat="47.27387" lon="4.97825">
        <ele>340</ele>
        <time>2012-12-11T13:00:05.1Z</time>
      </trkpt>
      <trkpt lat="47.2739" lon="4.97825">
        <ele>339</ele>
        <time>2012-12-11T13:00:07.1Z</time>
      </trkpt>
      <trkpt lat="47.27393" lon="4.97825">
        <ele>339</ele>
        <time>2012-12-11T13:00:09.1Z</time>
      </trkpt>
      <trkpt lat="47.27396" lon="4.97824">
        <ele>339</ele>
        <time>2012-12-11T13:00:11.1Z</time>
      </trkpt>
      <trkpt lat="47.27399" lon="4.97825">
        <ele>339</ele>
        <time>2012-12-11T13:00:13.1Z</time>
      </trkpt>
      <trkpt lat="47.27401" lon="4.97827">
        <ele>339</ele>
        <time>2012-12-11T13:00:15.1Z</time>
      </trkpt>
      <trkpt lat="47.27404" lon="4.97828">
        <ele>339</ele>
        <time>2012-12-11T13:00:17.1Z</time>
      </trkpt>
      <trkpt lat="47.27407" lon="4.97827">
        <ele>339</ele>
        <time>2012-12-11T13:00:19.1Z</time>
      </trkpt>
      <trkpt lat="47.2741" lon="4.97826">
        <ele>339</ele>
        <time>2012-12-11T13:00:22.1Z</time>
      </trkpt>
      <trkpt lat="47.27413" lon="4.97825">
        <ele>339</ele>
        <time>2012-12-11T13:00:24.1Z</time>
      </trkpt>
      <trkpt lat="47.27415" lon="4.97823">
        <ele>339</ele>
        <time>2012-12-11T13:00:26.1Z</time>
      </trkpt>
      <trkpt lat="47.27418" lon="4.97822">
        <ele>339</ele>
        <time>2012-12-11T13:00:28.1Z</time>
      </trkpt>
      <trkpt lat="47.2742" lon="4.9782">
        <ele>339</ele>
        <time>2012-12-11T13:00:30.1Z</time>
      </trkpt>
      <trkpt lat="47.27422" lon="4.97819">
        <ele>339</ele>
        <time>2012-12-11T13:00:32.1Z</time>
      </trkpt>
      <trkpt lat="47.27424" lon="4.97818">
        <ele>339</ele>
        <time>2012-12-11T13:00:34.1Z</time>
      </trkpt>
      <trkpt lat="47.27427" lon="4.97817">
        <ele>339</ele>
        <time>2012-12-11T13:00:36.1Z</time>
      </trkpt>
      <trkpt lat="47.27429" lon="4.97816">
        <ele>340</ele>
        <time>2012-12-11T13:00:38.1Z</time>
      </trkpt>
      <trkpt lat="47.27431" lon="4.97815">
        <ele>340</ele>
        <time>2012-12-11T13:00:40.1Z</time>
      </trkpt>
      <trkpt lat="47.27433" lon="4.97815">
        <ele>340</ele>
        <time>2012-12-11T13:00:42.1Z</time>
      </trkpt>
      <trkpt lat="47.27436" lon="4.97815">
        <ele>339</ele>
        <time>2012-12-11T13:00:44.1Z</time>
      </trkpt>
      <trkpt lat="47.27438" lon="4.97813">
        <ele>339</ele>
        <time>2012-12-11T13:00:46.1Z</time>
      </trkpt>
      <trkpt lat="47.27441" lon="4.97812">
        <ele>338</ele>
        <time>2012-12-11T13:00:48.1Z</time>
      </trkpt>
      <trkpt lat="47.27443" lon="4.9781">
        <ele>338</ele>
        <time>2012-12-11T13:00:50.1Z</time>
      </trkpt>
      <trkpt lat="47.27448" lon="4.97807">
        <ele>338</ele>
        <time>2012-12-11T13:00:53.1Z</time>
      </trkpt>
      <trkpt lat="47.27451" lon="4.97804">
        <ele>338</ele>
        <time>2012-12-11T13:00:55.1Z</time>
      </trkpt>
      <trkpt lat="47.27455" lon="4.97803">
        <ele>338</ele>
        <time>2012-12-11T13:00:57.1Z</time>
      </trkpt>
      <trkpt lat="47.27458" lon="4.97801">
        <ele>337</ele>
        <time>2012-12-11T13:00:59.1Z</time>
      </trkpt>
      <trkpt lat="47.2746" lon="4.97799">
        <ele>337</ele>
        <time>2012-12-11T13:01:01.1Z</time>
      </trkpt>
      <trkpt lat="47.27464" lon="4.97799">
        <ele>337</ele>
        <time>2012-12-11T13:01:03.1Z</time>
      </trkpt>
      <trkpt lat="47.27466" lon="4.97798">
        <ele>337</ele>
        <time>2012-12-11T13:01:05.1Z</time>
      </trkpt>
      <trkpt lat="47.27468" lon="4.97798">
        <ele>337</ele>
        <time>2012-12-11T13:01:07.1Z</time>
      </trkpt>
      <trkpt lat="47.2747" lon="4.97797">
        <ele>337</ele>
        <time>2012-12-11T13:01:09.1Z</time>
      </trkpt>
      <trkpt lat="47.27472" lon="4.97796">
        <ele>337</ele>
        <time>2012-12-11T13:01:11.1Z</time>
      </trkpt>
      <trkpt lat="47.27474" lon="4.97797">
        <ele>337</ele>
        <time>2012-12-11T13:01:13.1Z</time>
      </trkpt>
      <trkpt lat="47.27477" lon="4.97798">
        <ele>338</ele>
        <time>2012-12-11T13:01:15.1Z</time>
      </trkpt>
      <trkpt lat="47.27478" lon="4.97798">
        <ele>338</ele>
        <time>2012-12-11T13:01:17.1Z</time>
      </trkpt>
      <trkpt lat="47.2748" lon="4.97799">
        <ele>339</ele>
        <time>2012-12-11T13:01:19.1Z</time>
      </trkpt>
      <trkpt lat="47.27482" lon="4.978">
        <ele>339</ele>
        <time>2012-12-11T13:01:22.1Z</time>
      </trkpt>
      <trkpt lat="47.27484" lon="4.978">
        <ele>339</ele>
        <time>2012-12-11T13:01:24.1Z</time>
      </trkpt>
      <trkpt lat="47.27485" lon="4.97798">
        <ele>340</ele>
        <time>2012-12-11T13:01:26.1Z</time>
      </trkpt>
      <trkpt lat="47.27486" lon="4.97796">
        <ele>340</ele>
        <time>2012-12-11T13:01:28.1Z</time>
      </trkpt>
      <trkpt lat="47.27486" lon="4.97795">
        <ele>340</ele>
        <time>2012-12-11T13:01:30.1Z</time>
      </trkpt>
      <trkpt lat="47.27487" lon="4.97794">
        <ele>340</ele>
        <time>2012-12-11T13:01:33.1Z</time>
      </trkpt>
      <trkpt lat="47.27488" lon="4.97791">
        <ele>340</ele>
        <time>2012-12-11T13:01:35.1Z</time>
      </trkpt>
      <trkpt lat="47.27488" lon="4.97789">
        <ele>340</ele>
        <time>2012-12-11T13:01:37.1Z</time>
      </trkpt>
      <trkpt lat="47.27488" lon="4.97787">
        <ele>340</ele>
        <time>2012-12-11T13:01:39.1Z</time>
      </trkpt>
      <trkpt lat="47.27488" lon="4.97785">
        <ele>340</ele>
        <time>2012-12-11T13:01:41.1Z</time>
      </trkpt>
      <trkpt lat="47.27488" lon="4.97782">
        <ele>341</ele>
        <time>2012-12-11T13:01:43.1Z</time>
      </trkpt>
      <trkpt lat="47.27488" lon="4.97779">
        <ele>341</ele>
        <time>2012-12-11T13:01:45.1Z</time>
      </trkpt>
      <trkpt lat="47.27488" lon="4.97777">
        <ele>341</ele>
        <time>2012-12-11T13:01:47.1Z</time>
      </trkpt>
      <trkpt lat="47.27488" lon="4.97774">
        <ele>341</ele>
        <time>2012-12-11T13:01:49.1Z</time>
      </trkpt>
      <trkpt lat="47.27489" lon="4.97772">
        <ele>341</ele>
        <time>2012-12-11T13:01:51.1Z</time>
      </trkpt>
      <trkpt lat="47.27489" lon="4.97769">
        <ele>342</ele>
        <time>2012-12-11T13:01:53.1Z</time>
      </trkpt>
      <trkpt lat="47.27489" lon="4.97767">
        <ele>342</ele>
        <time>2012-12-11T13:01:55.1Z</time>
      </trkpt>
      <trkpt lat="47.27489" lon="4.97763">
        <ele>343</ele>
        <time>2012-12-11T13:01:58.1Z</time>
      </trkpt>
      <trkpt lat="47.27489" lon="4.9776">
        <ele>343</ele>
        <time>2012-12-11T13:02:00.1Z</time>
      </trkpt>
      <trkpt lat="47.27489" lon="4.97757">
        <ele>343</ele>
        <time>2012-12-11T13:02:02.1Z</time>
      </trkpt>
      <trkpt lat="47.27489" lon="4.97754">
        <ele>343</ele>
        <time>2012-12-11T13:02:04.1Z</time>
      </trkpt>
      <trkpt lat="47.27489" lon="4.97752">
        <ele>343</ele>
        <time>2012-12-11T13:02:06.1Z</time>
      </trkpt>
      <trkpt lat="47.27489" lon="4.97749">
        <ele>343</ele>
        <time>2012-12-11T13:02:08.1Z</time>
      </trkpt>
      <trkpt lat="47.27489" lon="4.97746">
        <ele>343</ele>
        <time>2012-12-11T13:02:10.1Z</time>
      </trkpt>
      <trkpt lat="47.27488" lon="4.97743">
        <ele>343</ele>
        <time>2012-12-11T13:02:12.1Z</time>
      </trkpt>
      <trkpt lat="47.27488" lon="4.97741">
        <ele>343</ele>
        <time>2012-12-11T13:02:15.1Z</time>
      </trkpt>
      <trkpt lat="47.27488" lon="4.97736">
        <ele>343</ele>
        <time>2012-12-11T13:02:17.1Z</time>
      </trkpt>
      <trkpt lat="47.27487" lon="4.97732">
        <ele>343</ele>
        <time>2012-12-11T13:02:19.1Z</time>
      </trkpt>
      <trkpt lat="47.27487" lon="4.97728">
        <ele>343</ele>
        <time>2012-12-11T13:02:21.1Z</time>
      </trkpt>
      <trkpt lat="47.27486" lon="4.97725">
        <ele>344</ele>
        <time>2012-12-11T13:02:23.1Z</time>
      </trkpt>
      <trkpt lat="47.27485" lon="4.97723">
        <ele>344</ele>
        <time>2012-12-11T13:02:25.1Z</time>
      </trkpt>
      <trkpt lat="47.27485" lon="4.9772">
        <ele>344</ele>
        <time>2012-12-11T13:02:27.1Z</time>
      </trkpt>
      <trkpt lat="47.27484" lon="4.97717">
        <ele>344</ele>
        <time>2012-12-11T13:02:29.1Z</time>
      </trkpt>
      <trkpt lat="47.27484" lon="4.97715">
        <ele>344</ele>
        <time>2012-12-11T13:02:31.1Z</time>
      </trkpt>
      <trkpt lat="47.27484" lon="4.97713">
        <ele>345</ele>
        <time>2012-12-11T13:02:33.1Z</time>
      </trkpt>
      <trkpt lat="47.27483" lon="4.97711">
        <ele>345</ele>
        <time>2012-12-11T13:02:35.1Z</time>
      </trkpt>
      <trkpt lat="47.27483" lon="4.97708">
        <ele>345</ele>
        <time>2012-12-11T13:02:37.1Z</time>
      </trkpt>
      <trkpt lat="47.27484" lon="4.97706">
        <ele>345</ele>
        <time>2012-12-11T13:02:39.1Z</time>
      </trkpt>
      <trkpt lat="47.27484" lon="4.97703">
        <ele>345</ele>
        <time>2012-12-11T13:02:41.1Z</time>
      </trkpt>
      <trkpt lat="47.27484" lon="4.97698">
        <ele>345</ele>
        <time>2012-12-11T13:02:43.1Z</time>
      </trkpt>
      <trkpt lat="47.27485" lon="4.97694">
        <ele>345</ele>
        <time>2012-12-11T13:02:46.1Z</time>
      </trkpt>
      <trkpt lat="47.27485" lon="4.9769">
        <ele>346</ele>
        <time>2012-12-11T13:02:48.1Z</time>
      </trkpt>
      <trkpt lat="47.27485" lon="4.97688">
        <ele>346</ele>
        <time>2012-12-11T13:02:50.1Z</time>
      </trkpt>
      <trkpt lat="47.27485" lon="4.97685">
        <ele>347</ele>
        <time>2012-12-11T13:02:52.1Z</time>
      </trkpt>
      <trkpt lat="47.27486" lon="4.97682">
        <ele>347</ele>
        <time>2012-12-11T13:02:54.1Z</time>
      </trkpt>
      <trkpt lat="47.27486" lon="4.97679">
        <ele>347</ele>
        <time>2012-12-11T13:02:56.1Z</time>
      </trkpt>
      <trkpt lat="47.27487" lon="4.97677">
        <ele>348</ele>
        <time>2012-12-11T13:02:58.1Z</time>
      </trkpt>
      <trkpt lat="47.27488" lon="4.97673">
        <ele>348</ele>
        <time>2012-12-11T13:03:00.1Z</time>
      </trkpt>
      <trkpt lat="47.27488" lon="4.9767">
        <ele>348</ele>
        <time>2012-12-11T13:03:02.1Z</time>
      </trkpt>
      <trkpt lat="47.27488" lon="4.97667">
        <ele>349</ele>
        <time>2012-12-11T13:03:04.1Z</time>
      </trkpt>
      <trkpt lat="47.27488" lon="4.97663">
        <ele>349</ele>
        <time>2012-12-11T13:03:06.1Z</time>
      </trkpt>
      <trkpt lat="47.27489" lon="4.9766">
        <ele>349</ele>
        <time>2012-12-11T13:03:08.1Z</time>
      </trkpt>
      <trkpt lat="47.27489" lon="4.97657">
        <ele>350</ele>
        <time>2012-12-11T13:03:10.1Z</time>
      </trkpt>
      <trkpt lat="47.2749" lon="4.97654">
        <ele>350</ele>
        <time>2012-12-11T13:03:12.1Z</time>
      </trkpt>
      <trkpt lat="47.27491" lon="4.97649">
        <ele>350</ele>
        <time>2012-12-11T13:03:15.1Z</time>
      </trkpt>
      <trkpt lat="47.27491" lon="4.97646">
        <ele>350</ele>
        <time>2012-12-11T13:03:17.1Z</time>
      </trkpt>
      <trkpt lat="47.27491" lon="4.97643">
        <ele>350</ele>
        <time>2012-12-11T13:03:19.1Z</time>
      </trkpt>
      <trkpt lat="47.27492" lon="4.97641">
        <ele>351</ele>
        <time>2012-12-11T13:03:21.1Z</time>
      </trkpt>
      <trkpt lat="47.27493" lon="4.97639">
        <ele>351</ele>
        <time>2012-12-11T13:03:23.1Z</time>
      </trkpt>
      <trkpt lat="47.27493" lon="4.97637">
        <ele>352</ele>
        <time>2012-12-11T13:03:25.1Z</time>
      </trkpt>
      <trkpt lat="47.27494" lon="4.97635">
        <ele>352</ele>
        <time>2012-12-11T13:03:27.1Z</time>
      </trkpt>
      <trkpt lat="47.27494" lon="4.97633">
        <ele>352</ele>
        <time>2012-12-11T13:03:29.1Z</time>
      </trkpt>
      <trkpt lat="47.27495" lon="4.97629">
        <ele>353</ele>
        <time>2012-12-11T13:03:32.1Z</time>
      </trkpt>
      <trkpt lat="47.27495" lon="4.97625">
        <ele>353</ele>
        <time>2012-12-11T13:03:34.1Z</time>
      </trkpt>
      <trkpt lat="47.27495" lon="4.97622">
        <ele>354</ele>
        <time>2012-12-11T13:03:36.1Z</time>
      </trkpt>
      <trkpt lat="47.27495" lon="4.97619">
        <ele>354</ele>
        <time>2012-12-11T13:03:38.1Z</time>
      </trkpt>
      <trkpt lat="47.27495" lon="4.97616">
        <ele>354</ele>
        <time>2012-12-11T13:03:40.1Z</time>
      </trkpt>
      <trkpt lat="47.27495" lon="4.97613">
        <ele>354</ele>
        <time>2012-12-11T13:03:42.1Z</time>
      </trkpt>
      <trkpt lat="47.27495" lon="4.9761">
        <ele>355</ele>
        <time>2012-12-11T13:03:44.1Z</time>
      </trkpt>
      <trkpt lat="47.27496" lon="4.97607">
        <ele>355</ele>
        <time>2012-12-11T13:03:46.1Z</time>
      </trkpt>
      <trkpt lat="47.27496" lon="4.97604">
        <ele>355</ele>
        <time>2012-12-11T13:03:48.1Z</time>
      </trkpt>
      <trkpt lat="47.27496" lon="4.97601">
        <ele>355</ele>
        <time>2012-12-11T13:03:50.1Z</time>
      </trkpt>
      <trkpt lat="47.27497" lon="4.97599">
        <ele>356</ele>
        <time>2012-12-11T13:03:52.1Z</time>
      </trkpt>
      <trkpt lat="47.27499" lon="4.97594">
        <ele>357</ele>
        <time>2012-12-11T13:03:55.1Z</time>
      </trkpt>
      <trkpt lat="47.27499" lon="4.97591">
        <ele>357</ele>
        <time>2012-12-11T13:03:57.1Z</time>
      </trkpt>
      <trkpt lat="47.27501" lon="4.9759">
        <ele>357</ele>
        <time>2012-12-11T13:03:59.1Z</time>
      </trkpt>
      <trkpt lat="47.27502" lon="4.97586">
        <ele>357</ele>
        <time>2012-12-11T13:04:01.1Z</time>
      </trkpt>
      <trkpt lat="47.27503" lon="4.97582">
        <ele>358</ele>
        <time>2012-12-11T13:04:03.1Z</time>
      </trkpt>
      <trkpt lat="47.27504" lon="4.97578">
        <ele>358</ele>
        <time>2012-12-11T13:04:05.1Z</time>
      </trkpt>
      <trkpt lat="47.27505" lon="4.97573">
        <ele>359</ele>
        <time>2012-12-11T13:04:07.1Z</time>
      </trkpt>
      <trkpt lat="47.27506" lon="4.97571">
        <ele>360</ele>
        <time>2012-12-11T13:04:09.1Z</time>
      </trkpt>
      <trkpt lat="47.27507" lon="4.97568">
        <ele>361</ele>
        <time>2012-12-11T13:04:11.1Z</time>
      </trkpt>
      <trkpt lat="47.27507" lon="4.97564">
        <ele>361</ele>
        <time>2012-12-11T13:04:13.1Z</time>
      </trkpt>
      <trkpt lat="47.27508" lon="4.97561">
        <ele>361</ele>
        <time>2012-12-11T13:04:15.1Z</time>
      </trkpt>
      <trkpt lat="47.27509" lon="4.97557">
        <ele>362</ele>
        <time>2012-12-11T13:04:17.1Z</time>
      </trkpt>
      <trkpt lat="47.2751" lon="4.97555">
        <ele>362</ele>
        <time>2012-12-11T13:04:19.1Z</time>
      </trkpt>
      <trkpt lat="47.27512" lon="4.97551">
        <ele>363</ele>
        <time>2012-12-11T13:04:22.1Z</time>
      </trkpt>
      <trkpt lat="47.27513" lon="4.97548">
        <ele>363</ele>
        <time>2012-12-11T13:04:24.1Z</time>
      </trkpt>
      <trkpt lat="47.27515" lon="4.97545">
        <ele>363</ele>
        <time>2012-12-11T13:04:26.1Z</time>
      </trkpt>
      <trkpt lat="47.27515" lon="4.97542">
        <ele>364</ele>
        <time>2012-12-11T13:04:28.1Z</time>
      </trkpt>
      <trkpt lat="47.27517" lon="4.97538">
        <ele>365</ele>
        <time>2012-12-11T13:04:30.1Z</time>
      </trkpt>
      <trkpt lat="47.27517" lon="4.97536">
        <ele>366</ele>
        <time>2012-12-11T13:04:32.1Z</time>
      </trkpt>
      <trkpt lat="47.27519" lon="4.97531">
        <ele>366</ele>
        <time>2012-12-11T13:04:35.1Z</time>
      </trkpt>
      <trkpt lat="47.2752" lon="4.97527">
        <ele>366</ele>
        <time>2012-12-11T13:04:37.1Z</time>
      </trkpt>
      <trkpt lat="47.2752" lon="4.97523">
        <ele>366</ele>
        <time>2012-12-11T13:04:39.1Z</time>
      </trkpt>
      <trkpt lat="47.27521" lon="4.97521">
        <ele>367</ele>
        <time>2012-12-11T13:04:41.1Z</time>
      </trkpt>
      <trkpt lat="47.27522" lon="4.97519">
        <ele>367</ele>
        <time>2012-12-11T13:04:43.1Z</time>
      </trkpt>
      <trkpt lat="47.27523" lon="4.97516">
        <ele>368</ele>
        <time>2012-12-11T13:04:45.1Z</time>
      </trkpt>
      <trkpt lat="47.27525" lon="4.97512">
        <ele>369</ele>
        <time>2012-12-11T13:04:47.1Z</time>
      </trkpt>
      <trkpt lat="47.27526" lon="4.97509">
        <ele>369</ele>
        <time>2012-12-11T13:04:49.1Z</time>
      </trkpt>
      <trkpt lat="47.27528" lon="4.97507">
        <ele>370</ele>
        <time>2012-12-11T13:04:51.1Z</time>
      </trkpt>
      <trkpt lat="47.27528" lon="4.97504">
        <ele>371</ele>
        <time>2012-12-11T13:04:53.1Z</time>
      </trkpt>
      <trkpt lat="47.2753" lon="4.97502">
        <ele>371</ele>
        <time>2012-12-11T13:04:55.1Z</time>
      </trkpt>
      <trkpt lat="47.27532" lon="4.97499">
        <ele>372</ele>
        <time>2012-12-11T13:04:57.1Z</time>
      </trkpt>
      <trkpt lat="47.27533" lon="4.97495">
        <ele>372</ele>
        <time>2012-12-11T13:04:59.1Z</time>
      </trkpt>
      <trkpt lat="47.27535" lon="4.9749">
        <ele>373</ele>
        <time>2012-12-11T13:05:02.1Z</time>
      </trkpt>
      <trkpt lat="47.27537" lon="4.97487">
        <ele>373</ele>
        <time>2012-12-11T13:05:04.1Z</time>
      </trkpt>
      <trkpt lat="47.27538" lon="4.97485">
        <ele>374</ele>
        <time>2012-12-11T13:05:06.1Z</time>
      </trkpt>
      <trkpt lat="47.27539" lon="4.97482">
        <ele>374</ele>
        <time>2012-12-11T13:05:08.1Z</time>
      </trkpt>
      <trkpt lat="47.27541" lon="4.97479">
        <ele>374</ele>
        <time>2012-12-11T13:05:10.1Z</time>
      </trkpt>
      <trkpt lat="47.27542" lon="4.97476">
        <ele>375</ele>
        <time>2012-12-11T13:05:12.1Z</time>
      </trkpt>
      <trkpt lat="47.27542" lon="4.97473">
        <ele>375</ele>
        <time>2012-12-11T13:05:14.1Z</time>
      </trkpt>
      <trkpt lat="47.27543" lon="4.9747">
        <ele>376</ele>
        <time>2012-12-11T13:05:16.1Z</time>
      </trkpt>
      <trkpt lat="47.27543" lon="4.97467">
        <ele>376</ele>
        <time>2012-12-11T13:05:18.1Z</time>
      </trkpt>
      <trkpt lat="47.27544" lon="4.97464">
        <ele>377</ele>
        <time>2012-12-11T13:05:20.1Z</time>
      </trkpt>
      <trkpt lat="47.27545" lon="4.97461">
        <ele>377</ele>
        <time>2012-12-11T13:05:22.1Z</time>
      </trkpt>
      <trkpt lat="47.27546" lon="4.97457">
        <ele>377</ele>
        <time>2012-12-11T13:05:25.1Z</time>
      </trkpt>
      <trkpt lat="47.27546" lon="4.97455">
        <ele>378</ele>
        <time>2012-12-11T13:05:27.1Z</time>
      </trkpt>
      <trkpt lat="47.27546" lon="4.97451">
        <ele>378</ele>
        <time>2012-12-11T13:05:29.1Z</time>
      </trkpt>
      <trkpt lat="47.27546" lon="4.97448">
        <ele>378</ele>
        <time>2012-12-11T13:05:31.1Z</time>
      </trkpt>
      <trkpt lat="47.27546" lon="4.97446">
        <ele>378</ele>
        <time>2012-12-11T13:05:33.1Z</time>
      </trkpt>
      <trkpt lat="47.27546" lon="4.97443">
        <ele>379</ele>
        <time>2012-12-11T13:05:35.1Z</time>
      </trkpt>
      <trkpt lat="47.27546" lon="4.97439">
        <ele>379</ele>
        <time>2012-12-11T13:05:37.1Z</time>
      </trkpt>
      <trkpt lat="47.27547" lon="4.97435">
        <ele>379</ele>
        <time>2012-12-11T13:05:39.1Z</time>
      </trkpt>
      <trkpt lat="47.27547" lon="4.97432">
        <ele>380</ele>
        <time>2012-12-11T13:05:41.1Z</time>
      </trkpt>
      <trkpt lat="47.27548" lon="4.9743">
        <ele>380</ele>
        <time>2012-12-11T13:05:43.1Z</time>
      </trkpt>
      <trkpt lat="47.27549" lon="4.97426">
        <ele>381</ele>
        <time>2012-12-11T13:05:46.1Z</time>
      </trkpt>
      <trkpt lat="47.2755" lon="4.97423">
        <ele>381</ele>
        <time>2012-12-11T13:05:48.1Z</time>
      </trkpt>
      <trkpt lat="47.27551" lon="4.97419">
        <ele>382</ele>
        <time>2012-12-11T13:05:50.1Z</time>
      </trkpt>
      <trkpt lat="47.27552" lon="4.97416">
        <ele>382</ele>
        <time>2012-12-11T13:05:52.1Z</time>
      </trkpt>
      <trkpt lat="47.27552" lon="4.97413">
        <ele>383</ele>
        <time>2012-12-11T13:05:54.1Z</time>
      </trkpt>
      <trkpt lat="47.27553" lon="4.97408">
        <ele>383</ele>
        <time>2012-12-11T13:05:57.1Z</time>
      </trkpt>
      <trkpt lat="47.27554" lon="4.97405">
        <ele>383</ele>
        <time>2012-12-11T13:05:59.1Z</time>
      </trkpt>
      <trkpt lat="47.27555" lon="4.97402">
        <ele>384</ele>
        <time>2012-12-11T13:06:01.1Z</time>
      </trkpt>
      <trkpt lat="47.27556" lon="4.97398">
        <ele>384</ele>
        <time>2012-12-11T13:06:03.1Z</time>
      </trkpt>
      <trkpt lat="47.27557" lon="4.97395">
        <ele>385</ele>
        <time>2012-12-11T13:06:05.1Z</time>
      </trkpt>
      <trkpt lat="47.27558" lon="4.97391">
        <ele>385</ele>
        <time>2012-12-11T13:06:07.1Z</time>
      </trkpt>
      <trkpt lat="47.27559" lon="4.97387">
        <ele>385</ele>
        <time>2012-12-11T13:06:10.1Z</time>
      </trkpt>
      <trkpt lat="47.2756" lon="4.97385">
        <ele>386</ele>
        <time>2012-12-11T13:06:12.1Z</time>
      </trkpt>
      <trkpt lat="47.2756" lon="4.97382">
        <ele>387</ele>
        <time>2012-12-11T13:06:14.1Z</time>
      </trkpt>
      <trkpt lat="47.27561" lon="4.97379">
        <ele>387</ele>
        <time>2012-12-11T13:06:16.1Z</time>
      </trkpt>
      <trkpt lat="47.27562" lon="4.97376">
        <ele>387</ele>
        <time>2012-12-11T13:06:18.1Z</time>
      </trkpt>
      <trkpt lat="47.27562" lon="4.97373">
        <ele>387</ele>
        <time>2012-12-11T13:06:20.1Z</time>
      </trkpt>
      <trkpt lat="47.27562" lon="4.9737">
        <ele>387</ele>
        <time>2012-12-11T13:06:22.1Z</time>
      </trkpt>
      <trkpt lat="47.27563" lon="4.97367">
        <ele>388</ele>
        <time>2012-12-11T13:06:24.1Z</time>
      </trkpt>
      <trkpt lat="47.27563" lon="4.97364">
        <ele>388</ele>
        <time>2012-12-11T13:06:26.1Z</time>
      </trkpt>
      <trkpt lat="47.27563" lon="4.97361">
        <ele>389</ele>
        <time>2012-12-11T13:06:28.1Z</time>
      </trkpt>
      <trkpt lat="47.27564" lon="4.97358">
        <ele>390</ele>
        <time>2012-12-11T13:06:30.1Z</time>
      </trkpt>
      <trkpt lat="47.27564" lon="4.97353">
        <ele>390</ele>
        <time>2012-12-11T13:06:33.1Z</time>
      </trkpt>
      <trkpt lat="47.27564" lon="4.9735">
        <ele>391</ele>
        <time>2012-12-11T13:06:35.1Z</time>
      </trkpt>
      <trkpt lat="47.27565" lon="4.97349">
        <ele>391</ele>
        <time>2012-12-11T13:06:37.1Z</time>
      </trkpt>
      <trkpt lat="47.27566" lon="4.97346">
        <ele>391</ele>
        <time>2012-12-11T13:06:39.1Z</time>
      </trkpt>
      <trkpt lat="47.27566" lon="4.97342">
        <ele>392</ele>
        <time>2012-12-11T13:06:41.1Z</time>
      </trkpt>
      <trkpt lat="47.27567" lon="4.9734">
        <ele>392</ele>
        <time>2012-12-11T13:06:43.1Z</time>
      </trkpt>
      <trkpt lat="47.27568" lon="4.97337">
        <ele>393</ele>
        <time>2012-12-11T13:06:45.1Z</time>
      </trkpt>
      <trkpt lat="47.27568" lon="4.97334">
        <ele>393</ele>
        <time>2012-12-11T13:06:47.1Z</time>
      </trkpt>
      <trkpt lat="47.27568" lon="4.97332">
        <ele>394</ele>
        <time>2012-12-11T13:06:49.1Z</time>
      </trkpt>
      <trkpt lat="47.27569" lon="4.97329">
        <ele>394</ele>
        <time>2012-12-11T13:06:51.1Z</time>
      </trkpt>
      <trkpt lat="47.27569" lon="4.97326">
        <ele>395</ele>
        <time>2012-12-11T13:06:53.1Z</time>
      </trkpt>
      <trkpt lat="47.27569" lon="4.97322">
        <ele>395</ele>
        <time>2012-12-11T13:06:56.1Z</time>
      </trkpt>
      <trkpt lat="47.2757" lon="4.97318">
        <ele>395</ele>
        <time>2012-12-11T13:06:58.1Z</time>
      </trkpt>
      <trkpt lat="47.2757" lon="4.97316">
        <ele>396</ele>
        <time>2012-12-11T13:07:00.1Z</time>
      </trkpt>
      <trkpt lat="47.27571" lon="4.97313">
        <ele>396</ele>
        <time>2012-12-11T13:07:02.1Z</time>
      </trkpt>
      <trkpt lat="47.27571" lon="4.9731">
        <ele>397</ele>
        <time>2012-12-11T13:07:04.1Z</time>
      </trkpt>
      <trkpt lat="47.27571" lon="4.97307">
        <ele>397</ele>
        <time>2012-12-11T13:07:06.1Z</time>
      </trkpt>
      <trkpt lat="47.27572" lon="4.97305">
        <ele>398</ele>
        <time>2012-12-11T13:07:08.1Z</time>
      </trkpt>
      <trkpt lat="47.27573" lon="4.97302">
        <ele>398</ele>
        <time>2012-12-11T13:07:10.1Z</time>
      </trkpt>
      <trkpt lat="47.27573" lon="4.97299">
        <ele>399</ele>
        <time>2012-12-11T13:07:12.1Z</time>
      </trkpt>
      <trkpt lat="47.27574" lon="4.97297">
        <ele>399</ele>
        <time>2012-12-11T13:07:14.1Z</time>
      </trkpt>
      <trkpt lat="47.27574" lon="4.97294">
        <ele>400</ele>
        <time>2012-12-11T13:07:16.1Z</time>
      </trkpt>
      <trkpt lat="47.27575" lon="4.97291">
        <ele>401</ele>
        <time>2012-12-11T13:07:18.1Z</time>
      </trkpt>
      <trkpt lat="47.27575" lon="4.97289">
        <ele>401</ele>
        <time>2012-12-11T13:07:20.1Z</time>
      </trkpt>
      <trkpt lat="47.27576" lon="4.97287">
        <ele>402</ele>
        <time>2012-12-11T13:07:22.1Z</time>
      </trkpt>
      <trkpt lat="47.27577" lon="4.97285">
        <ele>402</ele>
        <time>2012-12-11T13:07:24.1Z</time>
      </trkpt>
      <trkpt lat="47.27578" lon="4.97282">
        <ele>403</ele>
        <time>2012-12-11T13:07:26.1Z</time>
      </trkpt>
      <trkpt lat="47.27579" lon="4.9728">
        <ele>403</ele>
        <time>2012-12-11T13:07:28.1Z</time>
      </trkpt>
      <trkpt lat="47.2758" lon="4.97277">
        <ele>403</ele>
        <time>2012-12-11T13:07:30.1Z</time>
      </trkpt>
      <trkpt lat="47.27581" lon="4.97274">
        <ele>404</ele>
        <time>2012-12-11T13:07:33.1Z</time>
      </trkpt>
      <trkpt lat="47.27582" lon="4.97272">
        <ele>404</ele>
        <time>2012-12-11T13:07:35.1Z</time>
      </trkpt>
      <trkpt lat="47.27583" lon="4.97269">
        <ele>405</ele>
        <time>2012-12-11T13:07:37.1Z</time>
      </trkpt>
      <trkpt lat="47.27584" lon="4.97266">
        <ele>405</ele>
        <time>2012-12-11T13:07:39.1Z</time>
      </trkpt>
      <trkpt lat="47.27585" lon="4.97264">
        <ele>406</ele>
        <time>2012-12-11T13:07:41.1Z</time>
      </trkpt>
      <trkpt lat="47.27586" lon="4.97261">
        <ele>406</ele>
        <time>2012-12-11T13:07:43.1Z</time>
      </trkpt>
      <trkpt lat="47.27588" lon="4.97259">
        <ele>407</ele>
        <time>2012-12-11T13:07:45.1Z</time>
      </trkpt>
      <trkpt lat="47.27589" lon="4.97257">
        <ele>407</ele>
        <time>2012-12-11T13:07:47.1Z</time>
      </trkpt>
      <trkpt lat="47.2759" lon="4.97253">
        <ele>407</ele>
        <time>2012-12-11T13:07:50.1Z</time>
      </trkpt>
      <trkpt lat="47.27591" lon="4.9725">
        <ele>408</ele>
        <time>2012-12-11T13:07:52.1Z</time>
      </trkpt>
      <trkpt lat="47.27592" lon="4.97248">
        <ele>408</ele>
        <time>2012-12-11T13:07:54.1Z</time>
      </trkpt>
      <trkpt lat="47.27593" lon="4.97245">
        <ele>408</ele>
        <time>2012-12-11T13:07:56.1Z</time>
      </trkpt>
      <trkpt lat="47.27594" lon="4.97243">
        <ele>408</ele>
        <time>2012-12-11T13:07:58.1Z</time>
      </trkpt>
      <trkpt lat="47.27595" lon="4.9724">
        <ele>409</ele>
        <time>2012-12-11T13:08:00.1Z</time>
      </trkpt>
      <trkpt lat="47.27596" lon="4.97238">
        <ele>410</ele>
        <time>2012-12-11T13:08:02.1Z</time>
      </trkpt>
      <trkpt lat="47.27597" lon="4.97235">
        <ele>410</ele>
        <time>2012-12-11T13:08:04.1Z</time>
      </trkpt>
      <trkpt lat="47.27598" lon="4.97233">
        <ele>410</ele>
        <time>2012-12-11T13:08:06.1Z</time>
      </trkpt>
      <trkpt lat="47.27599" lon="4.97231">
        <ele>411</ele>
        <time>2012-12-11T13:08:08.1Z</time>
      </trkpt>
      <trkpt lat="47.276" lon="4.97228">
        <ele>411</ele>
        <time>2012-12-11T13:08:10.1Z</time>
      </trkpt>
      <trkpt lat="47.27602" lon="4.97225">
        <ele>412</ele>
        <time>2012-12-11T13:08:12.1Z</time>
      </trkpt>
      <trkpt lat="47.27603" lon="4.97223">
        <ele>412</ele>
        <time>2012-12-11T13:08:14.1Z</time>
      </trkpt>
      <trkpt lat="47.27604" lon="4.97221">
        <ele>413</ele>
        <time>2012-12-11T13:08:16.1Z</time>
      </trkpt>
      <trkpt lat="47.27606" lon="4.97218">
        <ele>413</ele>
        <time>2012-12-11T13:08:18.1Z</time>
      </trkpt>
      <trkpt lat="47.27608" lon="4.97216">
        <ele>413</ele>
        <time>2012-12-11T13:08:20.1Z</time>
      </trkpt>
      <trkpt lat="47.27609" lon="4.97214">
        <ele>414</ele>
        <time>2012-12-11T13:08:22.1Z</time>
      </trkpt>
      <trkpt lat="47.2761" lon="4.97212">
        <ele>414</ele>
        <time>2012-12-11T13:08:24.1Z</time>
      </trkpt>
      <trkpt lat="47.27611" lon="4.9721">
        <ele>414</ele>
        <time>2012-12-11T13:08:26.1Z</time>
      </trkpt>
      <trkpt lat="47.27611" lon="4.97206">
        <ele>414</ele>
        <time>2012-12-11T13:08:28.1Z</time>
      </trkpt>
      <trkpt lat="47.27611" lon="4.97204">
        <ele>415</ele>
        <time>2012-12-11T13:08:31.1Z</time>
      </trkpt>
      <trkpt lat="47.27611" lon="4.97201">
        <ele>415</ele>
        <time>2012-12-11T13:08:33.1Z</time>
      </trkpt>
      <trkpt lat="47.27611" lon="4.97198">
        <ele>415</ele>
        <time>2012-12-11T13:08:35.1Z</time>
      </trkpt>
      <trkpt lat="47.27612" lon="4.97197">
        <ele>416</ele>
        <time>2012-12-11T13:08:37.1Z</time>
      </trkpt>
      <trkpt lat="47.27612" lon="4.97196">
        <ele>416</ele>
        <time>2012-12-11T13:08:39.1Z</time>
      </trkpt>
      <trkpt lat="47.27612" lon="4.97196">
        <ele>417</ele>
        <time>2012-12-11T13:08:41.1Z</time>
      </trkpt>
      <trkpt lat="47.27612" lon="4.97196">
        <ele>416</ele>
        <time>2012-12-11T13:08:43.1Z</time>
      </trkpt>
      <trkpt lat="47.27612" lon="4.97197">
        <ele>416</ele>
        <time>2012-12-11T13:08:45.1Z</time>
      </trkpt>
      <trkpt lat="47.27612" lon="4.97197">
        <ele>416</ele>
        <time>2012-12-11T13:08:47.1Z</time>
      </trkpt>
      <trkpt lat="47.27613" lon="4.97198">
        <ele>416</ele>
        <time>2012-12-11T13:08:49.1Z</time>
      </trkpt>
      <trkpt lat="47.27613" lon="4.97199">
        <ele>416</ele>
        <time>2012-12-11T13:08:51.1Z</time>
      </trkpt>
      <trkpt lat="47.27618" lon="4.97207">
        <ele>416</ele>
        <time>2012-12-11T13:08:53.1Z</time>
      </trkpt>
      <trkpt lat="47.27618" lon="4.97207">
        <ele>416</ele>
        <time>2012-12-11T13:08:56.1Z</time>
      </trkpt>
      <trkpt lat="47.27618" lon="4.97207">
        <ele>417</ele>
        <time>2012-12-11T13:08:58.1Z</time>
      </trkpt>
      <trkpt lat="47.27619" lon="4.97207">
        <ele>417</ele>
        <time>2012-12-11T13:09:00.1Z</time>
      </trkpt>
      <trkpt lat="47.2762" lon="4.97207">
        <ele>417</ele>
        <time>2012-12-11T13:09:02.1Z</time>
      </trkpt>
      <trkpt lat="47.27621" lon="4.97207">
        <ele>417</ele>
        <time>2012-12-11T13:09:04.1Z</time>
      </trkpt>
      <trkpt lat="47.27621" lon="4.97207">
        <ele>417</ele>
        <time>2012-12-11T13:09:06.1Z</time>
      </trkpt>
      <trkpt lat="47.27621" lon="4.97207">
        <ele>416</ele>
        <time>2012-12-11T13:09:08.1Z</time>
      </trkpt>
      <trkpt lat="47.27621" lon="4.97207">
        <ele>416</ele>
        <time>2012-12-11T13:09:10.1Z</time>
      </trkpt>
      <trkpt lat="47.27621" lon="4.97207">
        <ele>416</ele>
        <time>2012-12-11T13:09:12.1Z</time>
      </trkpt>
      <trkpt lat="47.27621" lon="4.97208">
        <ele>416</ele>
        <time>2012-12-11T13:09:14.1Z</time>
      </trkpt>
      <trkpt lat="47.27622" lon="4.97208">
        <ele>417</ele>
        <time>2012-12-11T13:09:16.1Z</time>
      </trkpt>
      <trkpt lat="47.27622" lon="4.97208">
        <ele>417</ele>
        <time>2012-12-11T13:09:19.1Z</time>
      </trkpt>
      <trkpt lat="47.27622" lon="4.97209">
        <ele>417</ele>
        <time>2012-12-11T13:09:21.1Z</time>
      </trkpt>
      <trkpt lat="47.27622" lon="4.97209">
        <ele>417</ele>
        <time>2012-12-11T13:09:23.1Z</time>
      </trkpt>
      <trkpt lat="47.27623" lon="4.9721">
        <ele>417</ele>
        <time>2012-12-11T13:09:25.1Z</time>
      </trkpt>
      <trkpt lat="47.27623" lon="4.9721">
        <ele>417</ele>
        <time>2012-12-11T13:09:27.1Z</time>
      </trkpt>
      <trkpt lat="47.27622" lon="4.97211">
        <ele>417</ele>
        <time>2012-12-11T13:09:29.1Z</time>
      </trkpt>
      <trkpt lat="47.27622" lon="4.97211">
        <ele>417</ele>
        <time>2012-12-11T13:09:31.1Z</time>
      </trkpt>
      <trkpt lat="47.27622" lon="4.97212">
        <ele>417</ele>
        <time>2012-12-11T13:09:33.1Z</time>
      </trkpt>
      <trkpt lat="47.27622" lon="4.97212">
        <ele>417</ele>
        <time>2012-12-11T13:09:35.1Z</time>
      </trkpt>
      <trkpt lat="47.27622" lon="4.97212">
        <ele>417</ele>
        <time>2012-12-11T13:09:38.1Z</time>
      </trkpt>
      <trkpt lat="47.27623" lon="4.97211">
        <ele>417</ele>
        <time>2012-12-11T13:09:40.1Z</time>
      </trkpt>
      <trkpt lat="47.27623" lon="4.97211">
        <ele>417</ele>
        <time>2012-12-11T13:09:42.1Z</time>
      </trkpt>
      <trkpt lat="47.27624" lon="4.97211">
        <ele>417</ele>
        <time>2012-12-11T13:09:44.1Z</time>
      </trkpt>
      <trkpt lat="47.27625" lon="4.97211">
        <ele>417</ele>
        <time>2012-12-11T13:09:46.1Z</time>
      </trkpt>
      <trkpt lat="47.27626" lon="4.97211">
        <ele>418</ele>
        <time>2012-12-11T13:09:48.1Z</time>
      </trkpt>
      <trkpt lat="47.27626" lon="4.97211">
        <ele>417</ele>
        <time>2012-12-11T13:09:50.1Z</time>
      </trkpt>
      <trkpt lat="47.27628" lon="4.97212">
        <ele>418</ele>
        <time>2012-12-11T13:09:52.1Z</time>
      </trkpt>
      <trkpt lat="47.27629" lon="4.97214">
        <ele>418</ele>
        <time>2012-12-11T13:09:54.1Z</time>
      </trkpt>
      <trkpt lat="47.2763" lon="4.97214">
        <ele>417</ele>
        <time>2012-12-11T13:09:56.1Z</time>
      </trkpt>
      <trkpt lat="47.27631" lon="4.97214">
        <ele>417</ele>
        <time>2012-12-11T13:09:58.1Z</time>
      </trkpt>
      <trkpt lat="47.27633" lon="4.97215">
        <ele>417</ele>
        <time>2012-12-11T13:10:00.1Z</time>
      </trkpt>
      <trkpt lat="47.27635" lon="4.97215">
        <ele>417</ele>
        <time>2012-12-11T13:10:02.1Z</time>
      </trkpt>
      <trkpt lat="47.27637" lon="4.97216">
        <ele>417</ele>
        <time>2012-12-11T13:10:04.1Z</time>
      </trkpt>
      <trkpt lat="47.27639" lon="4.97217">
        <ele>417</ele>
        <time>2012-12-11T13:10:07.1Z</time>
      </trkpt>
      <trkpt lat="47.2764" lon="4.97217">
        <ele>418</ele>
        <time>2012-12-11T13:10:09.1Z</time>
      </trkpt>
      <trkpt lat="47.27642" lon="4.97218">
        <ele>418</ele>
        <time>2012-12-11T13:10:11.1Z</time>
      </trkpt>
      <trkpt lat="47.27644" lon="4.97218">
        <ele>418</ele>
        <time>2012-12-11T13:10:13.1Z</time>
      </trkpt>
      <trkpt lat="47.27646" lon="4.97219">
        <ele>418</ele>
        <time>2012-12-11T13:10:15.1Z</time>
      </trkpt>
      <trkpt lat="47.27649" lon="4.9722">
        <ele>418</ele>
        <time>2012-12-11T13:10:17.1Z</time>
      </trkpt>
      <trkpt lat="47.2765" lon="4.9722">
        <ele>418</ele>
        <time>2012-12-11T13:10:19.1Z</time>
      </trkpt>
      <trkpt lat="47.27652" lon="4.9722">
        <ele>418</ele>
        <time>2012-12-11T13:10:22.1Z</time>
      </trkpt>
      <trkpt lat="47.27655" lon="4.97221">
        <ele>418</ele>
        <time>2012-12-11T13:10:24.1Z</time>
      </trkpt>
      <trkpt lat="47.27656" lon="4.97222">
        <ele>418</ele>
        <time>2012-12-11T13:10:26.1Z</time>
      </trkpt>
      <trkpt lat="47.27658" lon="4.97223">
        <ele>418</ele>
        <time>2012-12-11T13:10:28.1Z</time>
      </trkpt>
      <trkpt lat="47.2766" lon="4.97224">
        <ele>418</ele>
        <time>2012-12-11T13:10:30.1Z</time>
      </trkpt>
      <trkpt lat="47.27662" lon="4.97225">
        <ele>418</ele>
        <time>2012-12-11T13:10:32.1Z</time>
      </trkpt>
      <trkpt lat="47.27663" lon="4.97225">
        <ele>418</ele>
        <time>2012-12-11T13:10:34.1Z</time>
      </trkpt>
      <trkpt lat="47.27666" lon="4.97226">
        <ele>418</ele>
        <time>2012-12-11T13:10:36.1Z</time>
      </trkpt>
      <trkpt lat="47.27668" lon="4.97226">
        <ele>418</ele>
        <time>2012-12-11T13:10:38.1Z</time>
      </trkpt>
      <trkpt lat="47.2767" lon="4.97228">
        <ele>418</ele>
        <time>2012-12-11T13:10:41.1Z</time>
      </trkpt>
      <trkpt lat="47.27671" lon="4.97229">
        <ele>418</ele>
        <time>2012-12-11T13:10:43.1Z</time>
      </trkpt>
      <trkpt lat="47.27673" lon="4.9723">
        <ele>418</ele>
        <time>2012-12-11T13:10:45.1Z</time>
      </trkpt>
      <trkpt lat="47.27674" lon="4.97231">
        <ele>418</ele>
        <time>2012-12-11T13:10:47.1Z</time>
      </trkpt>
      <trkpt lat="47.27677" lon="4.97232">
        <ele>418</ele>
        <time>2012-12-11T13:10:49.1Z</time>
      </trkpt>
      <trkpt lat="47.27679" lon="4.97233">
        <ele>418</ele>
        <time>2012-12-11T13:10:51.1Z</time>
      </trkpt>
      <trkpt lat="47.27681" lon="4.97234">
        <ele>418</ele>
        <time>2012-12-11T13:10:54.1Z</time>
      </trkpt>
      <trkpt lat="47.27683" lon="4.97234">
        <ele>418</ele>
        <time>2012-12-11T13:10:56.1Z</time>
      </trkpt>
      <trkpt lat="47.27685" lon="4.97235">
        <ele>418</ele>
        <time>2012-12-11T13:10:58.1Z</time>
      </trkpt>
      <trkpt lat="47.27686" lon="4.97236">
        <ele>418</ele>
        <time>2012-12-11T13:11:00.1Z</time>
      </trkpt>
      <trkpt lat="47.27688" lon="4.97237">
        <ele>418</ele>
        <time>2012-12-11T13:11:02.1Z</time>
      </trkpt>
      <trkpt lat="47.27691" lon="4.97238">
        <ele>418</ele>
        <time>2012-12-11T13:11:04.1Z</time>
      </trkpt>
      <trkpt lat="47.27692" lon="4.97239">
        <ele>418</ele>
        <time>2012-12-11T13:11:06.1Z</time>
      </trkpt>
      <trkpt lat="47.27694" lon="4.9724">
        <ele>418</ele>
        <time>2012-12-11T13:11:08.1Z</time>
      </trkpt>
      <trkpt lat="47.27697" lon="4.97241">
        <ele>418</ele>
        <time>2012-12-11T13:11:10.1Z</time>
      </trkpt>
      <trkpt lat="47.27699" lon="4.97242">
        <ele>418</ele>
        <time>2012-12-11T13:11:12.1Z</time>
      </trkpt>
      <trkpt lat="47.27701" lon="4.97242">
        <ele>418</ele>
        <time>2012-12-11T13:11:14.1Z</time>
      </trkpt>
      <trkpt lat="47.27703" lon="4.97243">
        <ele>417</ele>
        <time>2012-12-11T13:11:16.1Z</time>
      </trkpt>
      <trkpt lat="47.27705" lon="4.97244">
        <ele>417</ele>
        <time>2012-12-11T13:11:18.1Z</time>
      </trkpt>
      <trkpt lat="47.27707" lon="4.97245">
        <ele>417</ele>
        <time>2012-12-11T13:11:20.1Z</time>
      </trkpt>
      <trkpt lat="47.27708" lon="4.97246">
        <ele>417</ele>
        <time>2012-12-11T13:11:22.1Z</time>
      </trkpt>
      <trkpt lat="47.27711" lon="4.97247">
        <ele>417</ele>
        <time>2012-12-11T13:11:24.1Z</time>
      </trkpt>
      <trkpt lat="47.27713" lon="4.97248">
        <ele>417</ele>
        <time>2012-12-11T13:11:27.1Z</time>
      </trkpt>
      <trkpt lat="47.27716" lon="4.97249">
        <ele>417</ele>
        <time>2012-12-11T13:11:29.1Z</time>
      </trkpt>
      <trkpt lat="47.27717" lon="4.9725">
        <ele>417</ele>
        <time>2012-12-11T13:11:31.1Z</time>
      </trkpt>
      <trkpt lat="47.2772" lon="4.97252">
        <ele>416</ele>
        <time>2012-12-11T13:11:33.1Z</time>
      </trkpt>
      <trkpt lat="47.27724" lon="4.97254">
        <ele>416</ele>
        <time>2012-12-11T13:11:35.1Z</time>
      </trkpt>
      <trkpt lat="47.27726" lon="4.97255">
        <ele>416</ele>
        <time>2012-12-11T13:11:37.1Z</time>
      </trkpt>
      <trkpt lat="47.27729" lon="4.97256">
        <ele>416</ele>
        <time>2012-12-11T13:11:39.1Z</time>
      </trkpt>
      <trkpt lat="47.27731" lon="4.97258">
        <ele>416</ele>
        <time>2012-12-11T13:11:42.1Z</time>
      </trkpt>
      <trkpt lat="47.27733" lon="4.97259">
        <ele>415</ele>
        <time>2012-12-11T13:11:44.1Z</time>
      </trkpt>
      <trkpt lat="47.27736" lon="4.9726">
        <ele>416</ele>
        <time>2012-12-11T13:11:46.1Z</time>
      </trkpt>
      <trkpt lat="47.27737" lon="4.97261">
        <ele>416</ele>
        <time>2012-12-11T13:11:48.1Z</time>
      </trkpt>
      <trkpt lat="47.2774" lon="4.97262">
        <ele>416</ele>
        <time>2012-12-11T13:11:50.1Z</time>
      </trkpt>
      <trkpt lat="47.27742" lon="4.97263">
        <ele>416</ele>
        <time>2012-12-11T13:11:52.1Z</time>
      </trkpt>
      <trkpt lat="47.27745" lon="4.97264">
        <ele>416</ele>
        <time>2012-12-11T13:11:54.1Z</time>
      </trkpt>
      <trkpt lat="47.27747" lon="4.97266">
        <ele>416</ele>
        <time>2012-12-11T13:11:57.1Z</time>
      </trkpt>
      <trkpt lat="47.27749" lon="4.97267">
        <ele>416</ele>
        <time>2012-12-11T13:11:59.1Z</time>
      </trkpt>
      <trkpt lat="47.27751" lon="4.97269">
        <ele>416</ele>
        <time>2012-12-11T13:12:01.1Z</time>
      </trkpt>
      <trkpt lat="47.27753" lon="4.9727">
        <ele>415</ele>
        <time>2012-12-11T13:12:03.1Z</time>
      </trkpt>
      <trkpt lat="47.27755" lon="4.97272">
        <ele>415</ele>
        <time>2012-12-11T13:12:05.1Z</time>
      </trkpt>
      <trkpt lat="47.27757" lon="4.97274">
        <ele>415</ele>
        <time>2012-12-11T13:12:07.1Z</time>
      </trkpt>
      <trkpt lat="47.2776" lon="4.97276">
        <ele>415</ele>
        <time>2012-12-11T13:12:09.1Z</time>
      </trkpt>
      <trkpt lat="47.27761" lon="4.97277">
        <ele>415</ele>
        <time>2012-12-11T13:12:11.1Z</time>
      </trkpt>
      <trkpt lat="47.27763" lon="4.97278">
        <ele>414</ele>
        <time>2012-12-11T13:12:13.1Z</time>
      </trkpt>
      <trkpt lat="47.27766" lon="4.97279">
        <ele>414</ele>
        <time>2012-12-11T13:12:15.1Z</time>
      </trkpt>
      <trkpt lat="47.27768" lon="4.9728">
        <ele>414</ele>
        <time>2012-12-11T13:12:18.1Z</time>
      </trkpt>
      <trkpt lat="47.2777" lon="4.97281">
        <ele>414</ele>
        <time>2012-12-11T13:12:20.1Z</time>
      </trkpt>
      <trkpt lat="47.27772" lon="4.97282">
        <ele>414</ele>
        <time>2012-12-11T13:12:22.1Z</time>
      </trkpt>
      <trkpt lat="47.27774" lon="4.97283">
        <ele>414</ele>
        <time>2012-12-11T13:12:24.1Z</time>
      </trkpt>
      <trkpt lat="47.27776" lon="4.97284">
        <ele>414</ele>
        <time>2012-12-11T13:12:26.1Z</time>
      </trkpt>
      <trkpt lat="47.27778" lon="4.97285">
        <ele>414</ele>
        <time>2012-12-11T13:12:28.1Z</time>
      </trkpt>
      <trkpt lat="47.2778" lon="4.97286">
        <ele>413</ele>
        <time>2012-12-11T13:12:30.1Z</time>
      </trkpt>
      <trkpt lat="47.27781" lon="4.97287">
        <ele>413</ele>
        <time>2012-12-11T13:12:32.1Z</time>
      </trkpt>
      <trkpt lat="47.27783" lon="4.97288">
        <ele>413</ele>
        <time>2012-12-11T13:12:34.1Z</time>
      </trkpt>
      <trkpt lat="47.27784" lon="4.97288">
        <ele>412</ele>
        <time>2012-12-11T13:12:37.1Z</time>
      </trkpt>
      <trkpt lat="47.27785" lon="4.97288">
        <ele>412</ele>
        <time>2012-12-11T13:12:39.1Z</time>
      </trkpt>
      <trkpt lat="47.27787" lon="4.97289">
        <ele>412</ele>
        <time>2012-12-11T13:12:41.1Z</time>
      </trkpt>
      <trkpt lat="47.27788" lon="4.97289">
        <ele>412</ele>
        <time>2012-12-11T13:12:43.1Z</time>
      </trkpt>
      <trkpt lat="47.2779" lon="4.9729">
        <ele>412</ele>
        <time>2012-12-11T13:12:45.1Z</time>
      </trkpt>
      <trkpt lat="47.27791" lon="4.97291">
        <ele>411</ele>
        <time>2012-12-11T13:12:47.1Z</time>
      </trkpt>
      <trkpt lat="47.27793" lon="4.97291">
        <ele>411</ele>
        <time>2012-12-11T13:12:49.1Z</time>
      </trkpt>
      <trkpt lat="47.27795" lon="4.97292">
        <ele>411</ele>
        <time>2012-12-11T13:12:51.1Z</time>
      </trkpt>
      <trkpt lat="47.27797" lon="4.97294">
        <ele>411</ele>
        <time>2012-12-11T13:12:53.1Z</time>
      </trkpt>
      <trkpt lat="47.27799" lon="4.97295">
        <ele>411</ele>
        <time>2012-12-11T13:12:55.1Z</time>
      </trkpt>
      <trkpt lat="47.27801" lon="4.97295">
        <ele>411</ele>
        <time>2012-12-11T13:12:57.1Z</time>
      </trkpt>
      <trkpt lat="47.27804" lon="4.97293">
        <ele>411</ele>
        <time>2012-12-11T13:12:59.1Z</time>
      </trkpt>
      <trkpt lat="47.27806" lon="4.97292">
        <ele>411</ele>
        <time>2012-12-11T13:13:01.1Z</time>
      </trkpt>
      <trkpt lat="47.27807" lon="4.97291">
        <ele>411</ele>
        <time>2012-12-11T13:13:03.1Z</time>
      </trkpt>
      <trkpt lat="47.27807" lon="4.97289">
        <ele>411</ele>
        <time>2012-12-11T13:13:05.1Z</time>
      </trkpt>
      <trkpt lat="47.27808" lon="4.97288">
        <ele>412</ele>
        <time>2012-12-11T13:13:08.1Z</time>
      </trkpt>
      <trkpt lat="47.27808" lon="4.97286">
        <ele>412</ele>
        <time>2012-12-11T13:13:10.1Z</time>
      </trkpt>
      <trkpt lat="47.27809" lon="4.97284">
        <ele>413</ele>
        <time>2012-12-11T13:13:12.1Z</time>
      </trkpt>
      <trkpt lat="47.2781" lon="4.97282">
        <ele>413</ele>
        <time>2012-12-11T13:13:14.1Z</time>
      </trkpt>
      <trkpt lat="47.27811" lon="4.97279">
        <ele>413</ele>
        <time>2012-12-11T13:13:16.1Z</time>
      </trkpt>
      <trkpt lat="47.27812" lon="4.97277">
        <ele>413</ele>
        <time>2012-12-11T13:13:18.1Z</time>
      </trkpt>
      <trkpt lat="47.27813" lon="4.97275">
        <ele>413</ele>
        <time>2012-12-11T13:13:20.1Z</time>
      </trkpt>
      <trkpt lat="47.27814" lon="4.97272">
        <ele>413</ele>
        <time>2012-12-11T13:13:22.1Z</time>
      </trkpt>
      <trkpt lat="47.27814" lon="4.97269">
        <ele>413</ele>
        <time>2012-12-11T13:13:24.1Z</time>
      </trkpt>
      <trkpt lat="47.27815" lon="4.97266">
        <ele>414</ele>
        <time>2012-12-11T13:13:26.1Z</time>
      </trkpt>
      <trkpt lat="47.27817" lon="4.97262">
        <ele>414</ele>
        <time>2012-12-11T13:13:28.1Z</time>
      </trkpt>
      <trkpt lat="47.27818" lon="4.97259">
        <ele>414</ele>
        <time>2012-12-11T13:13:30.1Z</time>
      </trkpt>
      <trkpt lat="47.27819" lon="4.97256">
        <ele>414</ele>
        <time>2012-12-11T13:13:32.1Z</time>
      </trkpt>
      <trkpt lat="47.2782" lon="4.97254">
        <ele>414</ele>
        <time>2012-12-11T13:13:35.1Z</time>
      </trkpt>
      <trkpt lat="47.27821" lon="4.97251">
        <ele>414</ele>
        <time>2012-12-11T13:13:37.1Z</time>
      </trkpt>
      <trkpt lat="47.27822" lon="4.97248">
        <ele>415</ele>
        <time>2012-12-11T13:13:39.1Z</time>
      </trkpt>
      <trkpt lat="47.27823" lon="4.97245">
        <ele>415</ele>
        <time>2012-12-11T13:13:41.1Z</time>
      </trkpt>
      <trkpt lat="47.27824" lon="4.97242">
        <ele>415</ele>
        <time>2012-12-11T13:13:43.1Z</time>
      </trkpt>
      <trkpt lat="47.27826" lon="4.9724">
        <ele>415</ele>
        <time>2012-12-11T13:13:45.1Z</time>
      </trkpt>
      <trkpt lat="47.27827" lon="4.97237">
        <ele>415</ele>
        <time>2012-12-11T13:13:47.1Z</time>
      </trkpt>
      <trkpt lat="47.27828" lon="4.97234">
        <ele>415</ele>
        <time>2012-12-11T13:13:49.1Z</time>
      </trkpt>
      <trkpt lat="47.27829" lon="4.9723">
        <ele>415</ele>
        <time>2012-12-11T13:13:51.1Z</time>
      </trkpt>
      <trkpt lat="47.2783" lon="4.97226">
        <ele>415</ele>
        <time>2012-12-11T13:13:53.1Z</time>
      </trkpt>
      <trkpt lat="47.27831" lon="4.97223">
        <ele>415</ele>
        <time>2012-12-11T13:13:56.1Z</time>
      </trkpt>
      <trkpt lat="47.27832" lon="4.97221">
        <ele>416</ele>
        <time>2012-12-11T13:13:58.1Z</time>
      </trkpt>
      <trkpt lat="47.27833" lon="4.97218">
        <ele>416</ele>
        <time>2012-12-11T13:14:00.1Z</time>
      </trkpt>
      <trkpt lat="47.27834" lon="4.97216">
        <ele>416</ele>
        <time>2012-12-11T13:14:02.1Z</time>
      </trkpt>
      <trkpt lat="47.27835" lon="4.97213">
        <ele>416</ele>
        <time>2012-12-11T13:14:04.1Z</time>
      </trkpt>
      <trkpt lat="47.27835" lon="4.9721">
        <ele>416</ele>
        <time>2012-12-11T13:14:06.1Z</time>
      </trkpt>
      <trkpt lat="47.27836" lon="4.97206">
        <ele>416</ele>
        <time>2012-12-11T13:14:08.1Z</time>
      </trkpt>
      <trkpt lat="47.27837" lon="4.97202">
        <ele>416</ele>
        <time>2012-12-11T13:14:10.1Z</time>
      </trkpt>
      <trkpt lat="47.27838" lon="4.97199">
        <ele>416</ele>
        <time>2012-12-11T13:14:12.1Z</time>
      </trkpt>
      <trkpt lat="47.2784" lon="4.97197">
        <ele>416</ele>
        <time>2012-12-11T13:14:14.1Z</time>
      </trkpt>
      <trkpt lat="47.2784" lon="4.97194">
        <ele>417</ele>
        <time>2012-12-11T13:14:16.1Z</time>
      </trkpt>
      <trkpt lat="47.27842" lon="4.97191">
        <ele>417</ele>
        <time>2012-12-11T13:14:18.1Z</time>
      </trkpt>
      <trkpt lat="47.27842" lon="4.97187">
        <ele>417</ele>
        <time>2012-12-11T13:14:21.1Z</time>
      </trkpt>
      <trkpt lat="47.27842" lon="4.97184">
        <ele>417</ele>
        <time>2012-12-11T13:14:23.1Z</time>
      </trkpt>
      <trkpt lat="47.27843" lon="4.97182">
        <ele>417</ele>
        <time>2012-12-11T13:14:25.1Z</time>
      </trkpt>
      <trkpt lat="47.27844" lon="4.97179">
        <ele>417</ele>
        <time>2012-12-11T13:14:27.1Z</time>
      </trkpt>
      <trkpt lat="47.27845" lon="4.97176">
        <ele>418</ele>
        <time>2012-12-11T13:14:29.1Z</time>
      </trkpt>
      <trkpt lat="47.27846" lon="4.97173">
        <ele>418</ele>
        <time>2012-12-11T13:14:31.1Z</time>
      </trkpt>
      <trkpt lat="47.27847" lon="4.97168">
        <ele>418</ele>
        <time>2012-12-11T13:14:33.1Z</time>
      </trkpt>
      <trkpt lat="47.27848" lon="4.97165">
        <ele>418</ele>
        <time>2012-12-11T13:14:35.1Z</time>
      </trkpt>
      <trkpt lat="47.27848" lon="4.97162">
        <ele>418</ele>
        <time>2012-12-11T13:14:38.1Z</time>
      </trkpt>
      <trkpt lat="47.27849" lon="4.97159">
        <ele>418</ele>
        <time>2012-12-11T13:14:40.1Z</time>
      </trkpt>
      <trkpt lat="47.2785" lon="4.97156">
        <ele>418</ele>
        <time>2012-12-11T13:14:42.1Z</time>
      </trkpt>
      <trkpt lat="47.2785" lon="4.97154">
        <ele>418</ele>
        <time>2012-12-11T13:14:44.1Z</time>
      </trkpt>
      <trkpt lat="47.27851" lon="4.97151">
        <ele>419</ele>
        <time>2012-12-11T13:14:46.1Z</time>
      </trkpt>
      <trkpt lat="47.27852" lon="4.97149">
        <ele>419</ele>
        <time>2012-12-11T13:14:48.1Z</time>
      </trkpt>
      <trkpt lat="47.27853" lon="4.97143">
        <ele>419</ele>
        <time>2012-12-11T13:14:50.1Z</time>
      </trkpt>
      <trkpt lat="47.27853" lon="4.9714">
        <ele>419</ele>
        <time>2012-12-11T13:14:52.1Z</time>
      </trkpt>
      <trkpt lat="47.27855" lon="4.97137">
        <ele>419</ele>
        <time>2012-12-11T13:14:55.1Z</time>
      </trkpt>
      <trkpt lat="47.27855" lon="4.97134">
        <ele>419</ele>
        <time>2012-12-11T13:14:57.1Z</time>
      </trkpt>
      <trkpt lat="47.27856" lon="4.97132">
        <ele>420</ele>
        <time>2012-12-11T13:14:59.1Z</time>
      </trkpt>
      <trkpt lat="47.27857" lon="4.97129">
        <ele>420</ele>
        <time>2012-12-11T13:15:01.1Z</time>
      </trkpt>
      <trkpt lat="47.27858" lon="4.97124">
        <ele>420</ele>
        <time>2012-12-11T13:15:03.1Z</time>
      </trkpt>
      <trkpt lat="47.27859" lon="4.97121">
        <ele>420</ele>
        <time>2012-12-11T13:15:05.1Z</time>
      </trkpt>
      <trkpt lat="47.2786" lon="4.97118">
        <ele>420</ele>
        <time>2012-12-11T13:15:07.1Z</time>
      </trkpt>
      <trkpt lat="47.27861" lon="4.97115">
        <ele>420</ele>
        <time>2012-12-11T13:15:09.1Z</time>
      </trkpt>
      <trkpt lat="47.27861" lon="4.97112">
        <ele>420</ele>
        <time>2012-12-11T13:15:12.1Z</time>
      </trkpt>
      <trkpt lat="47.27862" lon="4.97108">
        <ele>420</ele>
        <time>2012-12-11T13:15:14.1Z</time>
      </trkpt>
      <trkpt lat="47.27862" lon="4.97105">
        <ele>420</ele>
        <time>2012-12-11T13:15:16.1Z</time>
      </trkpt>
      <trkpt lat="47.27863" lon="4.97102">
        <ele>420</ele>
        <time>2012-12-11T13:15:18.1Z</time>
      </trkpt>
      <trkpt lat="47.27864" lon="4.97098">
        <ele>420</ele>
        <time>2012-12-11T13:15:20.1Z</time>
      </trkpt>
      <trkpt lat="47.27865" lon="4.97095">
        <ele>421</ele>
        <time>2012-12-11T13:15:22.1Z</time>
      </trkpt>
      <trkpt lat="47.27866" lon="4.97092">
        <ele>421</ele>
        <time>2012-12-11T13:15:24.1Z</time>
      </trkpt>
      <trkpt lat="47.27866" lon="4.97089">
        <ele>421</ele>
        <time>2012-12-11T13:15:26.1Z</time>
      </trkpt>
      <trkpt lat="47.27868" lon="4.97084">
        <ele>421</ele>
        <time>2012-12-11T13:15:28.1Z</time>
      </trkpt>
      <trkpt lat="47.27869" lon="4.97081">
        <ele>421</ele>
        <time>2012-12-11T13:15:31.1Z</time>
      </trkpt>
      <trkpt lat="47.27871" lon="4.97078">
        <ele>421</ele>
        <time>2012-12-11T13:15:33.1Z</time>
      </trkpt>
      <trkpt lat="47.27872" lon="4.97075">
        <ele>421</ele>
        <time>2012-12-11T13:15:35.1Z</time>
      </trkpt>
      <trkpt lat="47.27873" lon="4.97072">
        <ele>421</ele>
        <time>2012-12-11T13:15:37.1Z</time>
      </trkpt>
      <trkpt lat="47.27874" lon="4.97067">
        <ele>421</ele>
        <time>2012-12-11T13:15:39.1Z</time>
      </trkpt>
      <trkpt lat="47.27875" lon="4.97064">
        <ele>422</ele>
        <time>2012-12-11T13:15:41.1Z</time>
      </trkpt>
      <trkpt lat="47.27877" lon="4.97061">
        <ele>422</ele>
        <time>2012-12-11T13:15:44.1Z</time>
      </trkpt>
      <trkpt lat="47.27878" lon="4.97059">
        <ele>422</ele>
        <time>2012-12-11T13:15:46.1Z</time>
      </trkpt>
      <trkpt lat="47.27879" lon="4.97056">
        <ele>423</ele>
        <time>2012-12-11T13:15:48.1Z</time>
      </trkpt>
      <trkpt lat="47.2788" lon="4.97052">
        <ele>422</ele>
        <time>2012-12-11T13:15:50.1Z</time>
      </trkpt>
      <trkpt lat="47.27882" lon="4.97048">
        <ele>423</ele>
        <time>2012-12-11T13:15:52.1Z</time>
      </trkpt>
      <trkpt lat="47.27883" lon="4.97045">
        <ele>423</ele>
        <time>2012-12-11T13:15:54.1Z</time>
      </trkpt>
      <trkpt lat="47.27884" lon="4.97042">
        <ele>423</ele>
        <time>2012-12-11T13:15:56.1Z</time>
      </trkpt>
      <trkpt lat="47.27885" lon="4.9704">
        <ele>423</ele>
        <time>2012-12-11T13:15:59.1Z</time>
      </trkpt>
      <trkpt lat="47.27886" lon="4.97037">
        <ele>423</ele>
        <time>2012-12-11T13:16:01.1Z</time>
      </trkpt>
      <trkpt lat="47.27887" lon="4.97034">
        <ele>423</ele>
        <time>2012-12-11T13:16:03.1Z</time>
      </trkpt>
      <trkpt lat="47.27888" lon="4.97032">
        <ele>423</ele>
        <time>2012-12-11T13:16:05.1Z</time>
      </trkpt>
      <trkpt lat="47.2789" lon="4.97029">
        <ele>423</ele>
        <time>2012-12-11T13:16:07.1Z</time>
      </trkpt>
      <trkpt lat="47.2789" lon="4.97027">
        <ele>423</ele>
        <time>2012-12-11T13:16:09.1Z</time>
      </trkpt>
      <trkpt lat="47.27892" lon="4.97025">
        <ele>423</ele>
        <time>2012-12-11T13:16:11.1Z</time>
      </trkpt>
      <trkpt lat="47.27892" lon="4.97022">
        <ele>423</ele>
        <time>2012-12-11T13:16:13.1Z</time>
      </trkpt>
      <trkpt lat="47.27893" lon="4.9702">
        <ele>423</ele>
        <time>2012-12-11T13:16:15.1Z</time>
      </trkpt>
      <trkpt lat="47.27894" lon="4.97017">
        <ele>424</ele>
        <time>2012-12-11T13:16:17.1Z</time>
      </trkpt>
      <trkpt lat="47.27894" lon="4.97015">
        <ele>424</ele>
        <time>2012-12-11T13:16:19.1Z</time>
      </trkpt>
      <trkpt lat="47.27895" lon="4.97012">
        <ele>424</ele>
        <time>2012-12-11T13:16:21.1Z</time>
      </trkpt>
      <trkpt lat="47.27896" lon="4.9701">
        <ele>424</ele>
        <time>2012-12-11T13:16:23.1Z</time>
      </trkpt>
      <trkpt lat="47.27897" lon="4.97007">
        <ele>424</ele>
        <time>2012-12-11T13:16:26.1Z</time>
      </trkpt>
      <trkpt lat="47.27897" lon="4.97004">
        <ele>424</ele>
        <time>2012-12-11T13:16:28.1Z</time>
      </trkpt>
      <trkpt lat="47.27898" lon="4.97">
        <ele>424</ele>
        <time>2012-12-11T13:16:30.1Z</time>
      </trkpt>
      <trkpt lat="47.27898" lon="4.96997">
        <ele>424</ele>
        <time>2012-12-11T13:16:32.1Z</time>
      </trkpt>
      <trkpt lat="47.27899" lon="4.96994">
        <ele>424</ele>
        <time>2012-12-11T13:16:34.1Z</time>
      </trkpt>
      <trkpt lat="47.279" lon="4.96991">
        <ele>424</ele>
        <time>2012-12-11T13:16:36.1Z</time>
      </trkpt>
      <trkpt lat="47.27901" lon="4.96988">
        <ele>424</ele>
        <time>2012-12-11T13:16:38.1Z</time>
      </trkpt>
      <trkpt lat="47.27902" lon="4.96985">
        <ele>425</ele>
        <time>2012-12-11T13:16:40.1Z</time>
      </trkpt>
      <trkpt lat="47.27903" lon="4.96982">
        <ele>424</ele>
        <time>2012-12-11T13:16:43.1Z</time>
      </trkpt>
      <trkpt lat="47.27903" lon="4.9698">
        <ele>424</ele>
        <time>2012-12-11T13:16:45.1Z</time>
      </trkpt>
      <trkpt lat="47.27904" lon="4.96977">
        <ele>424</ele>
        <time>2012-12-11T13:16:47.1Z</time>
      </trkpt>
      <trkpt lat="47.27905" lon="4.96974">
        <ele>424</ele>
        <time>2012-12-11T13:16:49.1Z</time>
      </trkpt>
      <trkpt lat="47.27905" lon="4.96972">
        <ele>424</ele>
        <time>2012-12-11T13:16:51.1Z</time>
      </trkpt>
      <trkpt lat="47.27906" lon="4.96969">
        <ele>424</ele>
        <time>2012-12-11T13:16:53.1Z</time>
      </trkpt>
      <trkpt lat="47.27907" lon="4.96967">
        <ele>425</ele>
        <time>2012-12-11T13:16:55.1Z</time>
      </trkpt>
      <trkpt lat="47.27908" lon="4.96964">
        <ele>425</ele>
        <time>2012-12-11T13:16:57.1Z</time>
      </trkpt>
      <trkpt lat="47.27909" lon="4.96961">
        <ele>425</ele>
        <time>2012-12-11T13:16:59.1Z</time>
      </trkpt>
      <trkpt lat="47.2791" lon="4.96958">
        <ele>425</ele>
        <time>2012-12-11T13:17:01.1Z</time>
      </trkpt>
      <trkpt lat="47.27911" lon="4.96955">
        <ele>425</ele>
        <time>2012-12-11T13:17:03.1Z</time>
      </trkpt>
      <trkpt lat="47.27912" lon="4.96953">
        <ele>425</ele>
        <time>2012-12-11T13:17:05.1Z</time>
      </trkpt>
      <trkpt lat="47.27913" lon="4.96952">
        <ele>425</ele>
        <time>2012-12-11T13:17:07.1Z</time>
      </trkpt>
      <trkpt lat="47.27913" lon="4.96949">
        <ele>425</ele>
        <time>2012-12-11T13:17:09.1Z</time>
      </trkpt>
      <trkpt lat="47.27915" lon="4.96944">
        <ele>425</ele>
        <time>2012-12-11T13:17:11.1Z</time>
      </trkpt>
      <trkpt lat="47.27916" lon="4.9694">
        <ele>425</ele>
        <time>2012-12-11T13:17:13.1Z</time>
      </trkpt>
      <trkpt lat="47.27917" lon="4.96936">
        <ele>425</ele>
        <time>2012-12-11T13:17:16.1Z</time>
      </trkpt>
      <trkpt lat="47.27918" lon="4.96933">
        <ele>426</ele>
        <time>2012-12-11T13:17:18.1Z</time>
      </trkpt>
      <trkpt lat="47.27919" lon="4.9693">
        <ele>426</ele>
        <time>2012-12-11T13:17:20.1Z</time>
      </trkpt>
      <trkpt lat="47.27919" lon="4.96926">
        <ele>426</ele>
        <time>2012-12-11T13:17:22.1Z</time>
      </trkpt>
      <trkpt lat="47.27921" lon="4.96921">
        <ele>426</ele>
        <time>2012-12-11T13:17:24.1Z</time>
      </trkpt>
      <trkpt lat="47.27922" lon="4.96917">
        <ele>426</ele>
        <time>2012-12-11T13:17:26.1Z</time>
      </trkpt>
      <trkpt lat="47.27924" lon="4.96914">
        <ele>426</ele>
        <time>2012-12-11T13:17:29.1Z</time>
      </trkpt>
      <trkpt lat="47.27925" lon="4.96911">
        <ele>426</ele>
        <time>2012-12-11T13:17:31.1Z</time>
      </trkpt>
      <trkpt lat="47.27925" lon="4.96907">
        <ele>426</ele>
        <time>2012-12-11T13:17:33.1Z</time>
      </trkpt>
      <trkpt lat="47.27927" lon="4.96903">
        <ele>426</ele>
        <time>2012-12-11T13:17:35.1Z</time>
      </trkpt>
      <trkpt lat="47.27928" lon="4.96901">
        <ele>427</ele>
        <time>2012-12-11T13:17:37.1Z</time>
      </trkpt>
      <trkpt lat="47.27929" lon="4.96898">
        <ele>427</ele>
        <time>2012-12-11T13:17:39.1Z</time>
      </trkpt>
      <trkpt lat="47.2793" lon="4.96895">
        <ele>426</ele>
        <time>2012-12-11T13:17:41.1Z</time>
      </trkpt>
      <trkpt lat="47.27931" lon="4.96891">
        <ele>427</ele>
        <time>2012-12-11T13:17:43.1Z</time>
      </trkpt>
      <trkpt lat="47.27932" lon="4.96888">
        <ele>427</ele>
        <time>2012-12-11T13:17:45.1Z</time>
      </trkpt>
      <trkpt lat="47.27933" lon="4.96883">
        <ele>427</ele>
        <time>2012-12-11T13:17:47.1Z</time>
      </trkpt>
      <trkpt lat="47.27934" lon="4.9688">
        <ele>427</ele>
        <time>2012-12-11T13:17:49.1Z</time>
      </trkpt>
      <trkpt lat="47.27935" lon="4.96877">
        <ele>427</ele>
        <time>2012-12-11T13:17:51.1Z</time>
      </trkpt>
      <trkpt lat="47.27936" lon="4.96873">
        <ele>427</ele>
        <time>2012-12-11T13:17:53.1Z</time>
      </trkpt>
      <trkpt lat="47.27936" lon="4.9687">
        <ele>427</ele>
        <time>2012-12-11T13:17:56.1Z</time>
      </trkpt>
      <trkpt lat="47.27937" lon="4.96867">
        <ele>427</ele>
        <time>2012-12-11T13:17:58.1Z</time>
      </trkpt>
      <trkpt lat="47.27938" lon="4.96864">
        <ele>427</ele>
        <time>2012-12-11T13:18:00.1Z</time>
      </trkpt>
      <trkpt lat="47.27938" lon="4.96861">
        <ele>427</ele>
        <time>2012-12-11T13:18:02.1Z</time>
      </trkpt>
      <trkpt lat="47.27939" lon="4.96858">
        <ele>427</ele>
        <time>2012-12-11T13:18:04.1Z</time>
      </trkpt>
      <trkpt lat="47.27939" lon="4.96855">
        <ele>428</ele>
        <time>2012-12-11T13:18:06.1Z</time>
      </trkpt>
      <trkpt lat="47.2794" lon="4.96851">
        <ele>428</ele>
        <time>2012-12-11T13:18:08.1Z</time>
      </trkpt>
      <trkpt lat="47.2794" lon="4.96849">
        <ele>428</ele>
        <time>2012-12-11T13:18:10.1Z</time>
      </trkpt>
      <trkpt lat="47.27941" lon="4.96846">
        <ele>428</ele>
        <time>2012-12-11T13:18:12.1Z</time>
      </trkpt>
      <trkpt lat="47.27942" lon="4.96844">
        <ele>428</ele>
        <time>2012-12-11T13:18:14.1Z</time>
      </trkpt>
      <trkpt lat="47.27943" lon="4.96841">
        <ele>428</ele>
        <time>2012-12-11T13:18:17.1Z</time>
      </trkpt>
      <trkpt lat="47.27944" lon="4.96837">
        <ele>429</ele>
        <time>2012-12-11T13:18:19.1Z</time>
      </trkpt>
      <trkpt lat="47.27944" lon="4.96834">
        <ele>429</ele>
        <time>2012-12-11T13:18:21.1Z</time>
      </trkpt>
      <trkpt lat="47.27945" lon="4.96831">
        <ele>429</ele>
        <time>2012-12-11T13:18:23.1Z</time>
      </trkpt>
      <trkpt lat="47.27946" lon="4.96829">
        <ele>430</ele>
        <time>2012-12-11T13:18:25.1Z</time>
      </trkpt>
      <trkpt lat="47.27946" lon="4.96826">
        <ele>431</ele>
        <time>2012-12-11T13:18:27.1Z</time>
      </trkpt>
      <trkpt lat="47.27948" lon="4.96823">
        <ele>431</ele>
        <time>2012-12-11T13:18:29.1Z</time>
      </trkpt>
      <trkpt lat="47.27949" lon="4.96821">
        <ele>431</ele>
        <time>2012-12-11T13:18:31.1Z</time>
      </trkpt>
      <trkpt lat="47.2795" lon="4.96818">
        <ele>432</ele>
        <time>2012-12-11T13:18:33.1Z</time>
      </trkpt>
      <trkpt lat="47.27951" lon="4.96815">
        <ele>432</ele>
        <time>2012-12-11T13:18:35.1Z</time>
      </trkpt>
      <trkpt lat="47.27953" lon="4.9681">
        <ele>432</ele>
        <time>2012-12-11T13:18:37.1Z</time>
      </trkpt>
      <trkpt lat="47.27954" lon="4.96807">
        <ele>432</ele>
        <time>2012-12-11T13:18:40.1Z</time>
      </trkpt>
      <trkpt lat="47.27955" lon="4.96804">
        <ele>432</ele>
        <time>2012-12-11T13:18:42.1Z</time>
      </trkpt>
      <trkpt lat="47.27956" lon="4.96801">
        <ele>432</ele>
        <time>2012-12-11T13:18:44.1Z</time>
      </trkpt>
      <trkpt lat="47.27957" lon="4.96798">
        <ele>432</ele>
        <time>2012-12-11T13:18:46.1Z</time>
      </trkpt>
      <trkpt lat="47.27959" lon="4.96794">
        <ele>431</ele>
        <time>2012-12-11T13:18:48.1Z</time>
      </trkpt>
      <trkpt lat="47.2796" lon="4.96791">
        <ele>431</ele>
        <time>2012-12-11T13:18:50.1Z</time>
      </trkpt>
      <trkpt lat="47.27961" lon="4.96788">
        <ele>431</ele>
        <time>2012-12-11T13:18:52.1Z</time>
      </trkpt>
      <trkpt lat="47.27962" lon="4.96785">
        <ele>431</ele>
        <time>2012-12-11T13:18:54.1Z</time>
      </trkpt>
      <trkpt lat="47.27963" lon="4.96781">
        <ele>431</ele>
        <time>2012-12-11T13:18:57.1Z</time>
      </trkpt>
      <trkpt lat="47.27964" lon="4.96779">
        <ele>431</ele>
        <time>2012-12-11T13:18:59.1Z</time>
      </trkpt>
      <trkpt lat="47.27965" lon="4.96776">
        <ele>431</ele>
        <time>2012-12-11T13:19:01.1Z</time>
      </trkpt>
      <trkpt lat="47.27966" lon="4.96773">
        <ele>432</ele>
        <time>2012-12-11T13:19:03.1Z</time>
      </trkpt>
      <trkpt lat="47.27967" lon="4.96771">
        <ele>432</ele>
        <time>2012-12-11T13:19:05.1Z</time>
      </trkpt>
      <trkpt lat="47.27969" lon="4.96769">
        <ele>432</ele>
        <time>2012-12-11T13:19:07.1Z</time>
      </trkpt>
      <trkpt lat="47.2797" lon="4.96767">
        <ele>432</ele>
        <time>2012-12-11T13:19:09.1Z</time>
      </trkpt>
      <trkpt lat="47.2797" lon="4.96764">
        <ele>433</ele>
        <time>2012-12-11T13:19:11.1Z</time>
      </trkpt>
      <trkpt lat="47.27971" lon="4.96761">
        <ele>433</ele>
        <time>2012-12-11T13:19:13.1Z</time>
      </trkpt>
      <trkpt lat="47.27973" lon="4.96757">
        <ele>433</ele>
        <time>2012-12-11T13:19:15.1Z</time>
      </trkpt>
      <trkpt lat="47.27973" lon="4.96754">
        <ele>433</ele>
        <time>2012-12-11T13:19:17.1Z</time>
      </trkpt>
      <trkpt lat="47.27974" lon="4.9675">
        <ele>433</ele>
        <time>2012-12-11T13:19:20.1Z</time>
      </trkpt>
      <trkpt lat="47.27975" lon="4.96747">
        <ele>433</ele>
        <time>2012-12-11T13:19:22.1Z</time>
      </trkpt>
      <trkpt lat="47.27975" lon="4.96744">
        <ele>433</ele>
        <time>2012-12-11T13:19:24.1Z</time>
      </trkpt>
      <trkpt lat="47.27975" lon="4.96742">
        <ele>433</ele>
        <time>2012-12-11T13:19:26.1Z</time>
      </trkpt>
      <trkpt lat="47.27976" lon="4.96738">
        <ele>433</ele>
        <time>2012-12-11T13:19:28.1Z</time>
      </trkpt>
      <trkpt lat="47.27977" lon="4.96735">
        <ele>433</ele>
        <time>2012-12-11T13:19:30.1Z</time>
      </trkpt>
      <trkpt lat="47.27977" lon="4.96732">
        <ele>433</ele>
        <time>2012-12-11T13:19:32.1Z</time>
      </trkpt>
      <trkpt lat="47.27978" lon="4.96729">
        <ele>434</ele>
        <time>2012-12-11T13:19:34.1Z</time>
      </trkpt>
      <trkpt lat="47.27978" lon="4.96725">
        <ele>434</ele>
        <time>2012-12-11T13:19:36.1Z</time>
      </trkpt>
      <trkpt lat="47.27979" lon="4.96722">
        <ele>434</ele>
        <time>2012-12-11T13:19:38.1Z</time>
      </trkpt>
      <trkpt lat="47.27979" lon="4.96719">
        <ele>434</ele>
        <time>2012-12-11T13:19:40.1Z</time>
      </trkpt>
      <trkpt lat="47.27979" lon="4.96715">
        <ele>433</ele>
        <time>2012-12-11T13:19:42.1Z</time>
      </trkpt>
      <trkpt lat="47.2798" lon="4.9671">
        <ele>433</ele>
        <time>2012-12-11T13:19:44.1Z</time>
      </trkpt>
      <trkpt lat="47.2798" lon="4.96706">
        <ele>433</ele>
        <time>2012-12-11T13:19:46.1Z</time>
      </trkpt>
      <trkpt lat="47.2798" lon="4.96703">
        <ele>434</ele>
        <time>2012-12-11T13:19:48.1Z</time>
      </trkpt>
      <trkpt lat="47.2798" lon="4.96699">
        <ele>433</ele>
        <time>2012-12-11T13:19:50.1Z</time>
      </trkpt>
      <trkpt lat="47.27981" lon="4.96697">
        <ele>434</ele>
        <time>2012-12-11T13:19:52.1Z</time>
      </trkpt>
      <trkpt lat="47.2798" lon="4.96694">
        <ele>434</ele>
        <time>2012-12-11T13:19:54.1Z</time>
      </trkpt>
      <trkpt lat="47.27981" lon="4.9669">
        <ele>434</ele>
        <time>2012-12-11T13:19:57.1Z</time>
      </trkpt>
      <trkpt lat="47.27981" lon="4.96687">
        <ele>434</ele>
        <time>2012-12-11T13:19:59.1Z</time>
      </trkpt>
      <trkpt lat="47.27981" lon="4.96684">
        <ele>434</ele>
        <time>2012-12-11T13:20:01.1Z</time>
      </trkpt>
      <trkpt lat="47.2798" lon="4.9668">
        <ele>434</ele>
        <time>2012-12-11T13:20:03.1Z</time>
      </trkpt>
      <trkpt lat="47.2798" lon="4.96677">
        <ele>434</ele>
        <time>2012-12-11T13:20:05.1Z</time>
      </trkpt>
      <trkpt lat="47.2798" lon="4.96674">
        <ele>435</ele>
        <time>2012-12-11T13:20:07.1Z</time>
      </trkpt>
      <trkpt lat="47.2798" lon="4.96672">
        <ele>435</ele>
        <time>2012-12-11T13:20:09.1Z</time>
      </trkpt>
      <trkpt lat="47.2798" lon="4.96668">
        <ele>435</ele>
        <time>2012-12-11T13:20:11.1Z</time>
      </trkpt>
      <trkpt lat="47.27981" lon="4.96663">
        <ele>435</ele>
        <time>2012-12-11T13:20:13.1Z</time>
      </trkpt>
      <trkpt lat="47.27981" lon="4.96661">
        <ele>435</ele>
        <time>2012-12-11T13:20:15.1Z</time>
      </trkpt>
      <trkpt lat="47.27982" lon="4.96658">
        <ele>435</ele>
        <time>2012-12-11T13:20:17.1Z</time>
      </trkpt>
      <trkpt lat="47.27982" lon="4.96655">
        <ele>435</ele>
        <time>2012-12-11T13:20:20.1Z</time>
      </trkpt>
      <trkpt lat="47.27983" lon="4.96652">
        <ele>435</ele>
        <time>2012-12-11T13:20:22.1Z</time>
      </trkpt>
      <trkpt lat="47.27983" lon="4.96649">
        <ele>435</ele>
        <time>2012-12-11T13:20:24.1Z</time>
      </trkpt>
      <trkpt lat="47.27983" lon="4.96646">
        <ele>435</ele>
        <time>2012-12-11T13:20:26.1Z</time>
      </trkpt>
      <trkpt lat="47.27983" lon="4.96643">
        <ele>435</ele>
        <time>2012-12-11T13:20:28.1Z</time>
      </trkpt>
      <trkpt lat="47.27983" lon="4.9664">
        <ele>435</ele>
        <time>2012-12-11T13:20:30.1Z</time>
      </trkpt>
      <trkpt lat="47.27983" lon="4.96637">
        <ele>436</ele>
        <time>2012-12-11T13:20:32.1Z</time>
      </trkpt>
      <trkpt lat="47.27983" lon="4.96634">
        <ele>436</ele>
        <time>2012-12-11T13:20:34.1Z</time>
      </trkpt>
      <trkpt lat="47.27984" lon="4.9663">
        <ele>436</ele>
        <time>2012-12-11T13:20:36.1Z</time>
      </trkpt>
      <trkpt lat="47.27984" lon="4.96627">
        <ele>436</ele>
        <time>2012-12-11T13:20:38.1Z</time>
      </trkpt>
      <trkpt lat="47.27984" lon="4.96623">
        <ele>436</ele>
        <time>2012-12-11T13:20:40.1Z</time>
      </trkpt>
      <trkpt lat="47.27984" lon="4.96619">
        <ele>436</ele>
        <time>2012-12-11T13:20:42.1Z</time>
      </trkpt>
      <trkpt lat="47.27984" lon="4.96615">
        <ele>436</ele>
        <time>2012-12-11T13:20:44.1Z</time>
      </trkpt>
      <trkpt lat="47.27985" lon="4.96611">
        <ele>436</ele>
        <time>2012-12-11T13:20:46.1Z</time>
      </trkpt>
      <trkpt lat="47.27985" lon="4.96608">
        <ele>436</ele>
        <time>2012-12-11T13:20:48.1Z</time>
      </trkpt>
      <trkpt lat="47.27985" lon="4.96605">
        <ele>436</ele>
        <time>2012-12-11T13:20:50.1Z</time>
      </trkpt>
      <trkpt lat="47.27986" lon="4.96601">
        <ele>436</ele>
        <time>2012-12-11T13:20:52.1Z</time>
      </trkpt>
      <trkpt lat="47.27987" lon="4.96598">
        <ele>436</ele>
        <time>2012-12-11T13:20:55.1Z</time>
      </trkpt>
      <trkpt lat="47.27987" lon="4.96596">
        <ele>436</ele>
        <time>2012-12-11T13:20:57.1Z</time>
      </trkpt>
      <trkpt lat="47.27987" lon="4.96592">
        <ele>436</ele>
        <time>2012-12-11T13:20:59.1Z</time>
      </trkpt>
      <trkpt lat="47.27987" lon="4.96589">
        <ele>436</ele>
        <time>2012-12-11T13:21:01.1Z</time>
      </trkpt>
      <trkpt lat="47.27988" lon="4.96586">
        <ele>436</ele>
        <time>2012-12-11T13:21:03.1Z</time>
      </trkpt>
      <trkpt lat="47.27988" lon="4.96583">
        <ele>436</ele>
        <time>2012-12-11T13:21:05.1Z</time>
      </trkpt>
      <trkpt lat="47.27988" lon="4.96579">
        <ele>436</ele>
        <time>2012-12-11T13:21:07.1Z</time>
      </trkpt>
      <trkpt lat="47.27988" lon="4.96576">
        <ele>437</ele>
        <time>2012-12-11T13:21:09.1Z</time>
      </trkpt>
      <trkpt lat="47.27989" lon="4.96573">
        <ele>437</ele>
        <time>2012-12-11T13:21:11.1Z</time>
      </trkpt>
      <trkpt lat="47.27989" lon="4.96569">
        <ele>437</ele>
        <time>2012-12-11T13:21:13.1Z</time>
      </trkpt>
      <trkpt lat="47.2799" lon="4.96566">
        <ele>437</ele>
        <time>2012-12-11T13:21:15.1Z</time>
      </trkpt>
      <trkpt lat="47.2799" lon="4.96563">
        <ele>437</ele>
        <time>2012-12-11T13:21:17.1Z</time>
      </trkpt>
      <trkpt lat="47.2799" lon="4.9656">
        <ele>437</ele>
        <time>2012-12-11T13:21:19.1Z</time>
      </trkpt>
      <trkpt lat="47.2799" lon="4.96557">
        <ele>437</ele>
        <time>2012-12-11T13:21:21.1Z</time>
      </trkpt>
      <trkpt lat="47.2799" lon="4.96551">
        <ele>437</ele>
        <time>2012-12-11T13:21:23.1Z</time>
      </trkpt>
      <trkpt lat="47.2799" lon="4.96548">
        <ele>437</ele>
        <time>2012-12-11T13:21:25.1Z</time>
      </trkpt>
      <trkpt lat="47.2799" lon="4.96544">
        <ele>437</ele>
        <time>2012-12-11T13:21:27.1Z</time>
      </trkpt>
      <trkpt lat="47.2799" lon="4.9654">
        <ele>437</ele>
        <time>2012-12-11T13:21:29.1Z</time>
      </trkpt>
      <trkpt lat="47.2799" lon="4.96537">
        <ele>437</ele>
        <time>2012-12-11T13:21:31.1Z</time>
      </trkpt>
      <trkpt lat="47.27989" lon="4.96534">
        <ele>437</ele>
        <time>2012-12-11T13:21:33.1Z</time>
      </trkpt>
      <trkpt lat="47.27989" lon="4.96531">
        <ele>437</ele>
        <time>2012-12-11T13:21:36.1Z</time>
      </trkpt>
      <trkpt lat="47.2799" lon="4.96527">
        <ele>437</ele>
        <time>2012-12-11T13:21:38.1Z</time>
      </trkpt>
      <trkpt lat="47.2799" lon="4.96524">
        <ele>437</ele>
        <time>2012-12-11T13:21:40.1Z</time>
      </trkpt>
      <trkpt lat="47.2799" lon="4.96521">
        <ele>437</ele>
        <time>2012-12-11T13:21:42.1Z</time>
      </trkpt>
      <trkpt lat="47.2799" lon="4.96517">
        <ele>437</ele>
        <time>2012-12-11T13:21:44.1Z</time>
      </trkpt>
      <trkpt lat="47.2799" lon="4.96514">
        <ele>437</ele>
        <time>2012-12-11T13:21:46.1Z</time>
      </trkpt>
      <trkpt lat="47.2799" lon="4.96511">
        <ele>437</ele>
        <time>2012-12-11T13:21:48.1Z</time>
      </trkpt>
      <trkpt lat="47.2799" lon="4.96509">
        <ele>437</ele>
        <time>2012-12-11T13:21:50.1Z</time>
      </trkpt>
      <trkpt lat="47.2799" lon="4.96506">
        <ele>437</ele>
        <time>2012-12-11T13:21:52.1Z</time>
      </trkpt>
      <trkpt lat="47.2799" lon="4.96503">
        <ele>438</ele>
        <time>2012-12-11T13:21:54.1Z</time>
      </trkpt>
      <trkpt lat="47.2799" lon="4.96497">
        <ele>437</ele>
        <time>2012-12-11T13:21:56.1Z</time>
      </trkpt>
      <trkpt lat="47.2799" lon="4.96494">
        <ele>438</ele>
        <time>2012-12-11T13:21:58.1Z</time>
      </trkpt>
      <trkpt lat="47.2799" lon="4.96491">
        <ele>437</ele>
        <time>2012-12-11T13:22:00.1Z</time>
      </trkpt>
      <trkpt lat="47.2799" lon="4.96489">
        <ele>437</ele>
        <time>2012-12-11T13:22:02.1Z</time>
      </trkpt>
      <trkpt lat="47.2799" lon="4.96487">
        <ele>437</ele>
        <time>2012-12-11T13:22:04.1Z</time>
      </trkpt>
      <trkpt lat="47.27989" lon="4.96485">
        <ele>437</ele>
        <time>2012-12-11T13:22:06.1Z</time>
      </trkpt>
      <trkpt lat="47.27987" lon="4.96482">
        <ele>437</ele>
        <time>2012-12-11T13:22:08.1Z</time>
      </trkpt>
      <trkpt lat="47.27986" lon="4.96481">
        <ele>437</ele>
        <time>2012-12-11T13:22:11.1Z</time>
      </trkpt>
      <trkpt lat="47.27985" lon="4.96479">
        <ele>437</ele>
        <time>2012-12-11T13:22:13.1Z</time>
      </trkpt>
      <trkpt lat="47.27983" lon="4.96478">
        <ele>438</ele>
        <time>2012-12-11T13:22:15.1Z</time>
      </trkpt>
      <trkpt lat="47.27982" lon="4.96477">
        <ele>438</ele>
        <time>2012-12-11T13:22:17.1Z</time>
      </trkpt>
      <trkpt lat="47.2798" lon="4.96476">
        <ele>438</ele>
        <time>2012-12-11T13:22:19.1Z</time>
      </trkpt>
      <trkpt lat="47.27979" lon="4.96475">
        <ele>439</ele>
        <time>2012-12-11T13:22:21.1Z</time>
      </trkpt>
      <trkpt lat="47.27977" lon="4.96474">
        <ele>439</ele>
        <time>2012-12-11T13:22:23.1Z</time>
      </trkpt>
      <trkpt lat="47.27976" lon="4.96473">
        <ele>439</ele>
        <time>2012-12-11T13:22:25.1Z</time>
      </trkpt>
      <trkpt lat="47.27974" lon="4.96471">
        <ele>439</ele>
        <time>2012-12-11T13:22:27.1Z</time>
      </trkpt>
      <trkpt lat="47.27972" lon="4.9647">
        <ele>439</ele>
        <time>2012-12-11T13:22:29.1Z</time>
      </trkpt>
      <trkpt lat="47.2797" lon="4.96468">
        <ele>439</ele>
        <time>2012-12-11T13:22:31.1Z</time>
      </trkpt>
      <trkpt lat="47.27967" lon="4.96467">
        <ele>439</ele>
        <time>2012-12-11T13:22:33.1Z</time>
      </trkpt>
      <trkpt lat="47.27965" lon="4.96467">
        <ele>439</ele>
        <time>2012-12-11T13:22:35.1Z</time>
      </trkpt>
      <trkpt lat="47.27964" lon="4.96466">
        <ele>440</ele>
        <time>2012-12-11T13:22:37.1Z</time>
      </trkpt>
      <trkpt lat="47.27962" lon="4.96464">
        <ele>440</ele>
        <time>2012-12-11T13:22:40.1Z</time>
      </trkpt>
      <trkpt lat="47.2796" lon="4.96463">
        <ele>440</ele>
        <time>2012-12-11T13:22:42.1Z</time>
      </trkpt>
      <trkpt lat="47.27959" lon="4.96462">
        <ele>440</ele>
        <time>2012-12-11T13:22:44.1Z</time>
      </trkpt>
      <trkpt lat="47.27957" lon="4.9646">
        <ele>441</ele>
        <time>2012-12-11T13:22:46.1Z</time>
      </trkpt>
      <trkpt lat="47.27956" lon="4.96459">
        <ele>441</ele>
        <time>2012-12-11T13:22:48.1Z</time>
      </trkpt>
      <trkpt lat="47.27954" lon="4.96457">
        <ele>441</ele>
        <time>2012-12-11T13:22:50.1Z</time>
      </trkpt>
      <trkpt lat="47.27952" lon="4.96455">
        <ele>441</ele>
        <time>2012-12-11T13:22:52.1Z</time>
      </trkpt>
      <trkpt lat="47.27951" lon="4.96454">
        <ele>442</ele>
        <time>2012-12-11T13:22:54.1Z</time>
      </trkpt>
      <trkpt lat="47.2795" lon="4.96453">
        <ele>442</ele>
        <time>2012-12-11T13:22:56.1Z</time>
      </trkpt>
      <trkpt lat="47.27949" lon="4.96452">
        <ele>443</ele>
        <time>2012-12-11T13:22:59.1Z</time>
      </trkpt>
      <trkpt lat="47.27948" lon="4.96451">
        <ele>443</ele>
        <time>2012-12-11T13:23:01.1Z</time>
      </trkpt>
      <trkpt lat="47.27946" lon="4.9645">
        <ele>443</ele>
        <time>2012-12-11T13:23:03.1Z</time>
      </trkpt>
      <trkpt lat="47.27944" lon="4.96448">
        <ele>444</ele>
        <time>2012-12-11T13:23:05.1Z</time>
      </trkpt>
      <trkpt lat="47.27942" lon="4.96448">
        <ele>444</ele>
        <time>2012-12-11T13:23:07.1Z</time>
      </trkpt>
      <trkpt lat="47.27941" lon="4.96447">
        <ele>444</ele>
        <time>2012-12-11T13:23:09.1Z</time>
      </trkpt>
      <trkpt lat="47.27939" lon="4.96447">
        <ele>444</ele>
        <time>2012-12-11T13:23:12.1Z</time>
      </trkpt>
      <trkpt lat="47.27937" lon="4.96446">
        <ele>445</ele>
        <time>2012-12-11T13:23:14.1Z</time>
      </trkpt>
      <trkpt lat="47.27936" lon="4.96444">
        <ele>445</ele>
        <time>2012-12-11T13:23:16.1Z</time>
      </trkpt>
      <trkpt lat="47.27934" lon="4.96443">
        <ele>445</ele>
        <time>2012-12-11T13:23:18.1Z</time>
      </trkpt>
      <trkpt lat="47.27934" lon="4.96443">
        <ele>445</ele>
        <time>2012-12-11T13:23:20.1Z</time>
      </trkpt>
      <trkpt lat="47.27933" lon="4.96443">
        <ele>445</ele>
        <time>2012-12-11T13:23:22.1Z</time>
      </trkpt>
      <trkpt lat="47.27932" lon="4.96442">
        <ele>445</ele>
        <time>2012-12-11T13:23:24.1Z</time>
      </trkpt>
      <trkpt lat="47.27932" lon="4.96442">
        <ele>445</ele>
        <time>2012-12-11T13:23:26.1Z</time>
      </trkpt>
      <trkpt lat="47.27932" lon="4.96441">
        <ele>445</ele>
        <time>2012-12-11T13:23:28.1Z</time>
      </trkpt>
      <trkpt lat="47.27931" lon="4.96441">
        <ele>445</ele>
        <time>2012-12-11T13:23:30.1Z</time>
      </trkpt>
      <trkpt lat="47.27931" lon="4.96441">
        <ele>445</ele>
        <time>2012-12-11T13:23:32.1Z</time>
      </trkpt>
      <trkpt lat="47.27931" lon="4.96441">
        <ele>445</ele>
        <time>2012-12-11T13:23:34.1Z</time>
      </trkpt>
      <trkpt lat="47.2793" lon="4.9644">
        <ele>445</ele>
        <time>2012-12-11T13:23:36.1Z</time>
      </trkpt>
      <trkpt lat="47.2793" lon="4.96441">
        <ele>445</ele>
        <time>2012-12-11T13:23:38.1Z</time>
      </trkpt>
      <trkpt lat="47.27931" lon="4.96441">
        <ele>445</ele>
        <time>2012-12-11T13:23:41.1Z</time>
      </trkpt>
      <trkpt lat="47.2793" lon="4.9644">
        <ele>446</ele>
        <time>2012-12-11T13:23:43.1Z</time>
      </trkpt>
      <trkpt lat="47.2793" lon="4.9644">
        <ele>446</ele>
        <time>2012-12-11T13:23:45.1Z</time>
      </trkpt>
      <trkpt lat="47.2793" lon="4.96439">
        <ele>446</ele>
        <time>2012-12-11T13:23:47.1Z</time>
      </trkpt>
      <trkpt lat="47.2793" lon="4.96438">
        <ele>446</ele>
        <time>2012-12-11T13:23:49.1Z</time>
      </trkpt>
      <trkpt lat="47.27931" lon="4.96436">
        <ele>445</ele>
        <time>2012-12-11T13:23:51.1Z</time>
      </trkpt>
      <trkpt lat="47.27932" lon="4.96434">
        <ele>445</ele>
        <time>2012-12-11T13:23:53.1Z</time>
      </trkpt>
      <trkpt lat="47.27932" lon="4.96432">
        <ele>445</ele>
        <time>2012-12-11T13:23:56.1Z</time>
      </trkpt>
      <trkpt lat="47.27933" lon="4.9643">
        <ele>445</ele>
        <time>2012-12-11T13:23:58.1Z</time>
      </trkpt>
      <trkpt lat="47.27933" lon="4.96429">
        <ele>445</ele>
        <time>2012-12-11T13:24:00.1Z</time>
      </trkpt>
      <trkpt lat="47.27933" lon="4.96427">
        <ele>445</ele>
        <time>2012-12-11T13:24:02.1Z</time>
      </trkpt>
      <trkpt lat="47.27933" lon="4.96424">
        <ele>445</ele>
        <time>2012-12-11T13:24:04.1Z</time>
      </trkpt>
      <trkpt lat="47.27934" lon="4.96422">
        <ele>445</ele>
        <time>2012-12-11T13:24:06.1Z</time>
      </trkpt>
      <trkpt lat="47.27934" lon="4.9642">
        <ele>445</ele>
        <time>2012-12-11T13:24:08.1Z</time>
      </trkpt>
      <trkpt lat="47.27934" lon="4.96418">
        <ele>445</ele>
        <time>2012-12-11T13:24:10.1Z</time>
      </trkpt>
      <trkpt lat="47.27935" lon="4.96415">
        <ele>445</ele>
        <time>2012-12-11T13:24:12.1Z</time>
      </trkpt>
      <trkpt lat="47.27935" lon="4.96412">
        <ele>445</ele>
        <time>2012-12-11T13:24:14.1Z</time>
      </trkpt>
      <trkpt lat="47.27937" lon="4.9641">
        <ele>445</ele>
        <time>2012-12-11T13:24:16.1Z</time>
      </trkpt>
      <trkpt lat="47.27937" lon="4.96407">
        <ele>444</ele>
        <time>2012-12-11T13:24:18.1Z</time>
      </trkpt>
      <trkpt lat="47.27938" lon="4.96405">
        <ele>444</ele>
        <time>2012-12-11T13:24:20.1Z</time>
      </trkpt>
      <trkpt lat="47.27938" lon="4.96402">
        <ele>444</ele>
        <time>2012-12-11T13:24:23.1Z</time>
      </trkpt>
      <trkpt lat="47.2794" lon="4.96399">
        <ele>444</ele>
        <time>2012-12-11T13:24:25.1Z</time>
      </trkpt>
      <trkpt lat="47.2794" lon="4.96396">
        <ele>444</ele>
        <time>2012-12-11T13:24:27.1Z</time>
      </trkpt>
      <trkpt lat="47.27941" lon="4.96394">
        <ele>444</ele>
        <time>2012-12-11T13:24:29.1Z</time>
      </trkpt>
      <trkpt lat="47.27941" lon="4.96392">
        <ele>444</ele>
        <time>2012-12-11T13:24:31.1Z</time>
      </trkpt>
      <trkpt lat="47.27942" lon="4.9639">
        <ele>444</ele>
        <time>2012-12-11T13:24:33.1Z</time>
      </trkpt>
      <trkpt lat="47.27942" lon="4.96387">
        <ele>444</ele>
        <time>2012-12-11T13:24:35.1Z</time>
      </trkpt>
      <trkpt lat="47.27943" lon="4.96385">
        <ele>443</ele>
        <time>2012-12-11T13:24:37.1Z</time>
      </trkpt>
      <trkpt lat="47.27944" lon="4.96381">
        <ele>443</ele>
        <time>2012-12-11T13:24:39.1Z</time>
      </trkpt>
      <trkpt lat="47.27944" lon="4.96378">
        <ele>443</ele>
        <time>2012-12-11T13:24:41.1Z</time>
      </trkpt>
      <trkpt lat="47.27945" lon="4.96376">
        <ele>443</ele>
        <time>2012-12-11T13:24:43.1Z</time>
      </trkpt>
      <trkpt lat="47.27946" lon="4.96374">
        <ele>442</ele>
        <time>2012-12-11T13:24:45.1Z</time>
      </trkpt>
      <trkpt lat="47.27947" lon="4.96372">
        <ele>442</ele>
        <time>2012-12-11T13:24:47.1Z</time>
      </trkpt>
      <trkpt lat="47.27947" lon="4.9637">
        <ele>442</ele>
        <time>2012-12-11T13:24:49.1Z</time>
      </trkpt>
      <trkpt lat="47.27948" lon="4.96367">
        <ele>442</ele>
        <time>2012-12-11T13:24:51.1Z</time>
      </trkpt>
      <trkpt lat="47.27948" lon="4.96365">
        <ele>442</ele>
        <time>2012-12-11T13:24:53.1Z</time>
      </trkpt>
      <trkpt lat="47.27948" lon="4.96363">
        <ele>442</ele>
        <time>2012-12-11T13:24:55.1Z</time>
      </trkpt>
      <trkpt lat="47.27948" lon="4.9636">
        <ele>442</ele>
        <time>2012-12-11T13:24:58.1Z</time>
      </trkpt>
      <trkpt lat="47.27949" lon="4.96358">
        <ele>442</ele>
        <time>2012-12-11T13:25:00.1Z</time>
      </trkpt>
      <trkpt lat="47.2795" lon="4.96355">
        <ele>441</ele>
        <time>2012-12-11T13:25:02.1Z</time>
      </trkpt>
      <trkpt lat="47.2795" lon="4.96353">
        <ele>442</ele>
        <time>2012-12-11T13:25:04.1Z</time>
      </trkpt>
      <trkpt lat="47.2795" lon="4.96351">
        <ele>441</ele>
        <time>2012-12-11T13:25:06.1Z</time>
      </trkpt>
      <trkpt lat="47.27951" lon="4.96348">
        <ele>441</ele>
        <time>2012-12-11T13:25:08.1Z</time>
      </trkpt>
      <trkpt lat="47.27952" lon="4.96346">
        <ele>441</ele>
        <time>2012-12-11T13:25:10.1Z</time>
      </trkpt>
      <trkpt lat="47.27952" lon="4.96344">
        <ele>441</ele>
        <time>2012-12-11T13:25:12.1Z</time>
      </trkpt>
      <trkpt lat="47.27953" lon="4.96338">
        <ele>441</ele>
        <time>2012-12-11T13:25:14.1Z</time>
      </trkpt>
      <trkpt lat="47.27953" lon="4.96335">
        <ele>441</ele>
        <time>2012-12-11T13:25:16.1Z</time>
      </trkpt>
      <trkpt lat="47.27954" lon="4.96332">
        <ele>441</ele>
        <time>2012-12-11T13:25:19.1Z</time>
      </trkpt>
      <trkpt lat="47.27955" lon="4.96329">
        <ele>440</ele>
        <time>2012-12-11T13:25:21.1Z</time>
      </trkpt>
      <trkpt lat="47.27956" lon="4.96326">
        <ele>440</ele>
        <time>2012-12-11T13:25:23.1Z</time>
      </trkpt>
      <trkpt lat="47.27956" lon="4.96322">
        <ele>440</ele>
        <time>2012-12-11T13:25:25.1Z</time>
      </trkpt>
      <trkpt lat="47.27957" lon="4.96319">
        <ele>440</ele>
        <time>2012-12-11T13:25:27.1Z</time>
      </trkpt>
      <trkpt lat="47.27957" lon="4.96314">
        <ele>440</ele>
        <time>2012-12-11T13:25:29.1Z</time>
      </trkpt>
      <trkpt lat="47.27958" lon="4.96311">
        <ele>440</ele>
        <time>2012-12-11T13:25:31.1Z</time>
      </trkpt>
      <trkpt lat="47.27959" lon="4.96308">
        <ele>440</ele>
        <time>2012-12-11T13:25:33.1Z</time>
      </trkpt>
      <trkpt lat="47.27959" lon="4.96305">
        <ele>440</ele>
        <time>2012-12-11T13:25:36.1Z</time>
      </trkpt>
      <trkpt lat="47.27961" lon="4.96302">
        <ele>440</ele>
        <time>2012-12-11T13:25:38.1Z</time>
      </trkpt>
      <trkpt lat="47.27961" lon="4.96298">
        <ele>440</ele>
        <time>2012-12-11T13:25:40.1Z</time>
      </trkpt>
      <trkpt lat="47.27962" lon="4.96295">
        <ele>440</ele>
        <time>2012-12-11T13:25:42.1Z</time>
      </trkpt>
      <trkpt lat="47.27963" lon="4.96292">
        <ele>439</ele>
        <time>2012-12-11T13:25:44.1Z</time>
      </trkpt>
      <trkpt lat="47.27963" lon="4.96287">
        <ele>439</ele>
        <time>2012-12-11T13:25:46.1Z</time>
      </trkpt>
      <trkpt lat="47.27964" lon="4.96285">
        <ele>439</ele>
        <time>2012-12-11T13:25:48.1Z</time>
      </trkpt>
      <trkpt lat="47.27965" lon="4.96283">
        <ele>439</ele>
        <time>2012-12-11T13:25:51.1Z</time>
      </trkpt>
      <trkpt lat="47.27966" lon="4.9628">
        <ele>439</ele>
        <time>2012-12-11T13:25:53.1Z</time>
      </trkpt>
      <trkpt lat="47.27966" lon="4.96278">
        <ele>439</ele>
        <time>2012-12-11T13:25:55.1Z</time>
      </trkpt>
      <trkpt lat="47.27967" lon="4.96278">
        <ele>439</ele>
        <time>2012-12-11T13:25:57.1Z</time>
      </trkpt>
      <trkpt lat="47.27967" lon="4.96276">
        <ele>439</ele>
        <time>2012-12-11T13:25:59.1Z</time>
      </trkpt>
      <trkpt lat="47.27968" lon="4.96274">
        <ele>439</ele>
        <time>2012-12-11T13:26:01.1Z</time>
      </trkpt>
      <trkpt lat="47.27968" lon="4.96273">
        <ele>439</ele>
        <time>2012-12-11T13:26:03.1Z</time>
      </trkpt>
      <trkpt lat="47.27969" lon="4.9627">
        <ele>439</ele>
        <time>2012-12-11T13:26:05.1Z</time>
      </trkpt>
      <trkpt lat="47.2797" lon="4.96268">
        <ele>439</ele>
        <time>2012-12-11T13:26:08.1Z</time>
      </trkpt>
      <trkpt lat="47.27971" lon="4.96266">
        <ele>439</ele>
        <time>2012-12-11T13:26:10.1Z</time>
      </trkpt>
      <trkpt lat="47.27972" lon="4.96263">
        <ele>439</ele>
        <time>2012-12-11T13:26:12.1Z</time>
      </trkpt>
      <trkpt lat="47.27972" lon="4.9626">
        <ele>439</ele>
        <time>2012-12-11T13:26:14.1Z</time>
      </trkpt>
      <trkpt lat="47.27973" lon="4.96257">
        <ele>439</ele>
        <time>2012-12-11T13:26:16.1Z</time>
      </trkpt>
      <trkpt lat="47.27974" lon="4.96255">
        <ele>438</ele>
        <time>2012-12-11T13:26:18.1Z</time>
      </trkpt>
      <trkpt lat="47.27974" lon="4.96252">
        <ele>438</ele>
        <time>2012-12-11T13:26:20.1Z</time>
      </trkpt>
      <trkpt lat="47.27975" lon="4.96249">
        <ele>438</ele>
        <time>2012-12-11T13:26:22.1Z</time>
      </trkpt>
      <trkpt lat="47.27975" lon="4.96246">
        <ele>437</ele>
        <time>2012-12-11T13:26:24.1Z</time>
      </trkpt>
      <trkpt lat="47.27975" lon="4.96243">
        <ele>437</ele>
        <time>2012-12-11T13:26:26.1Z</time>
      </trkpt>
      <trkpt lat="47.27976" lon="4.96241">
        <ele>437</ele>
        <time>2012-12-11T13:26:28.1Z</time>
      </trkpt>
      <trkpt lat="47.27977" lon="4.96239">
        <ele>436</ele>
        <time>2012-12-11T13:26:30.1Z</time>
      </trkpt>
      <trkpt lat="47.27978" lon="4.96237">
        <ele>436</ele>
        <time>2012-12-11T13:26:33.1Z</time>
      </trkpt>
      <trkpt lat="47.27978" lon="4.96234">
        <ele>436</ele>
        <time>2012-12-11T13:26:35.1Z</time>
      </trkpt>
      <trkpt lat="47.27979" lon="4.96231">
        <ele>435</ele>
        <time>2012-12-11T13:26:37.1Z</time>
      </trkpt>
      <trkpt lat="47.2798" lon="4.96229">
        <ele>435</ele>
        <time>2012-12-11T13:26:39.1Z</time>
      </trkpt>
      <trkpt lat="47.27981" lon="4.96227">
        <ele>435</ele>
        <time>2012-12-11T13:26:41.1Z</time>
      </trkpt>
      <trkpt lat="47.27982" lon="4.96225">
        <ele>435</ele>
        <time>2012-12-11T13:26:43.1Z</time>
      </trkpt>
      <trkpt lat="47.27982" lon="4.96223">
        <ele>434</ele>
        <time>2012-12-11T13:26:45.1Z</time>
      </trkpt>
      <trkpt lat="47.27983" lon="4.96221">
        <ele>434</ele>
        <time>2012-12-11T13:26:47.1Z</time>
      </trkpt>
      <trkpt lat="47.27983" lon="4.96219">
        <ele>434</ele>
        <time>2012-12-11T13:26:49.1Z</time>
      </trkpt>
      <trkpt lat="47.27983" lon="4.96217">
        <ele>434</ele>
        <time>2012-12-11T13:26:51.1Z</time>
      </trkpt>
      <trkpt lat="47.27984" lon="4.96215">
        <ele>434</ele>
        <time>2012-12-11T13:26:53.1Z</time>
      </trkpt>
      <trkpt lat="47.27985" lon="4.96213">
        <ele>433</ele>
        <time>2012-12-11T13:26:55.1Z</time>
      </trkpt>
      <trkpt lat="47.27985" lon="4.96212">
        <ele>433</ele>
        <time>2012-12-11T13:26:57.1Z</time>
      </trkpt>
      <trkpt lat="47.27986" lon="4.96209">
        <ele>433</ele>
        <time>2012-12-11T13:26:59.1Z</time>
      </trkpt>
      <trkpt lat="47.27987" lon="4.96206">
        <ele>433</ele>
        <time>2012-12-11T13:27:01.1Z</time>
      </trkpt>
      <trkpt lat="47.27987" lon="4.96203">
        <ele>433</ele>
        <time>2012-12-11T13:27:03.1Z</time>
      </trkpt>
      <trkpt lat="47.27987" lon="4.96202">
        <ele>433</ele>
        <time>2012-12-11T13:27:05.1Z</time>
      </trkpt>
      <trkpt lat="47.27987" lon="4.962">
        <ele>432</ele>
        <time>2012-12-11T13:27:07.1Z</time>
      </trkpt>
      <trkpt lat="47.27988" lon="4.96199">
        <ele>432</ele>
        <time>2012-12-11T13:27:09.1Z</time>
      </trkpt>
      <trkpt lat="47.27988" lon="4.96197">
        <ele>432</ele>
        <time>2012-12-11T13:27:12.1Z</time>
      </trkpt>
      <trkpt lat="47.27988" lon="4.96196">
        <ele>432</ele>
        <time>2012-12-11T13:27:14.1Z</time>
      </trkpt>
      <trkpt lat="47.27989" lon="4.96193">
        <ele>432</ele>
        <time>2012-12-11T13:27:16.1Z</time>
      </trkpt>
      <trkpt lat="47.2799" lon="4.96192">
        <ele>432</ele>
        <time>2012-12-11T13:27:18.1Z</time>
      </trkpt>
      <trkpt lat="47.2799" lon="4.96191">
        <ele>432</ele>
        <time>2012-12-11T13:27:20.1Z</time>
      </trkpt>
      <trkpt lat="47.2799" lon="4.96189">
        <ele>431</ele>
        <time>2012-12-11T13:27:22.1Z</time>
      </trkpt>
      <trkpt lat="47.27991" lon="4.96187">
        <ele>431</ele>
        <time>2012-12-11T13:27:24.1Z</time>
      </trkpt>
      <trkpt lat="47.27992" lon="4.96185">
        <ele>431</ele>
        <time>2012-12-11T13:27:26.1Z</time>
      </trkpt>
      <trkpt lat="47.27992" lon="4.96184">
        <ele>430</ele>
        <time>2012-12-11T13:27:28.1Z</time>
      </trkpt>
      <trkpt lat="47.27993" lon="4.96182">
        <ele>430</ele>
        <time>2012-12-11T13:27:30.1Z</time>
      </trkpt>
      <trkpt lat="47.27993" lon="4.9618">
        <ele>430</ele>
        <time>2012-12-11T13:27:32.1Z</time>
      </trkpt>
      <trkpt lat="47.27993" lon="4.96178">
        <ele>430</ele>
        <time>2012-12-11T13:27:34.1Z</time>
      </trkpt>
      <trkpt lat="47.27993" lon="4.96176">
        <ele>430</ele>
        <time>2012-12-11T13:27:36.1Z</time>
      </trkpt>
      <trkpt lat="47.27994" lon="4.96175">
        <ele>429</ele>
        <time>2012-12-11T13:27:38.1Z</time>
      </trkpt>
      <trkpt lat="47.27994" lon="4.96174">
        <ele>429</ele>
        <time>2012-12-11T13:27:40.1Z</time>
      </trkpt>
      <trkpt lat="47.27995" lon="4.96173">
        <ele>429</ele>
        <time>2012-12-11T13:27:43.1Z</time>
      </trkpt>
      <trkpt lat="47.27996" lon="4.96171">
        <ele>429</ele>
        <time>2012-12-11T13:27:45.1Z</time>
      </trkpt>
      <trkpt lat="47.27996" lon="4.9617">
        <ele>429</ele>
        <time>2012-12-11T13:27:47.1Z</time>
      </trkpt>
      <trkpt lat="47.27996" lon="4.96168">
        <ele>428</ele>
        <time>2012-12-11T13:27:49.1Z</time>
      </trkpt>
      <trkpt lat="47.27997" lon="4.96166">
        <ele>428</ele>
        <time>2012-12-11T13:27:51.1Z</time>
      </trkpt>
      <trkpt lat="47.27998" lon="4.96165">
        <ele>427</ele>
        <time>2012-12-11T13:27:53.1Z</time>
      </trkpt>
      <trkpt lat="47.27998" lon="4.96163">
        <ele>427</ele>
        <time>2012-12-11T13:27:55.1Z</time>
      </trkpt>
      <trkpt lat="47.27999" lon="4.9616">
        <ele>426</ele>
        <time>2012-12-11T13:27:57.1Z</time>
      </trkpt>
      <trkpt lat="47.27999" lon="4.9616">
        <ele>426</ele>
        <time>2012-12-11T13:27:59.1Z</time>
      </trkpt>
      <trkpt lat="47.27999" lon="4.96159">
        <ele>426</ele>
        <time>2012-12-11T13:28:01.1Z</time>
      </trkpt>
      <trkpt lat="47.28" lon="4.96158">
        <ele>426</ele>
        <time>2012-12-11T13:28:03.1Z</time>
      </trkpt>
      <trkpt lat="47.28" lon="4.96157">
        <ele>426</ele>
        <time>2012-12-11T13:28:06.1Z</time>
      </trkpt>
      <trkpt lat="47.28" lon="4.96156">
        <ele>426</ele>
        <time>2012-12-11T13:28:08.1Z</time>
      </trkpt>
      <trkpt lat="47.28" lon="4.96154">
        <ele>426</ele>
        <time>2012-12-11T13:28:10.1Z</time>
      </trkpt>
      <trkpt lat="47.28001" lon="4.96153">
        <ele>426</ele>
        <time>2012-12-11T13:28:12.1Z</time>
      </trkpt>
      <trkpt lat="47.28001" lon="4.96151">
        <ele>425</ele>
        <time>2012-12-11T13:28:14.1Z</time>
      </trkpt>
      <trkpt lat="47.28001" lon="4.96149">
        <ele>425</ele>
        <time>2012-12-11T13:28:16.1Z</time>
      </trkpt>
      <trkpt lat="47.28002" lon="4.96148">
        <ele>424</ele>
        <time>2012-12-11T13:28:18.1Z</time>
      </trkpt>
      <trkpt lat="47.28002" lon="4.96147">
        <ele>424</ele>
        <time>2012-12-11T13:28:20.1Z</time>
      </trkpt>
      <trkpt lat="47.28003" lon="4.96147">
        <ele>424</ele>
        <time>2012-12-11T13:28:22.1Z</time>
      </trkpt>
      <trkpt lat="47.28003" lon="4.96146">
        <ele>423</ele>
        <time>2012-12-11T13:28:24.1Z</time>
      </trkpt>
      <trkpt lat="47.28003" lon="4.96146">
        <ele>423</ele>
        <time>2012-12-11T13:28:26.1Z</time>
      </trkpt>
      <trkpt lat="47.28003" lon="4.96145">
        <ele>423</ele>
        <time>2012-12-11T13:28:28.1Z</time>
      </trkpt>
      <trkpt lat="47.28004" lon="4.96144">
        <ele>423</ele>
        <time>2012-12-11T13:28:30.1Z</time>
      </trkpt>
      <trkpt lat="47.28005" lon="4.96143">
        <ele>422</ele>
        <time>2012-12-11T13:28:32.1Z</time>
      </trkpt>
      <trkpt lat="47.28005" lon="4.96142">
        <ele>422</ele>
        <time>2012-12-11T13:28:34.1Z</time>
      </trkpt>
      <trkpt lat="47.28006" lon="4.9614">
        <ele>422</ele>
        <time>2012-12-11T13:28:36.1Z</time>
      </trkpt>
      <trkpt lat="47.28006" lon="4.96138">
        <ele>422</ele>
        <time>2012-12-11T13:28:38.1Z</time>
      </trkpt>
      <trkpt lat="47.28006" lon="4.96136">
        <ele>422</ele>
        <time>2012-12-11T13:28:40.1Z</time>
      </trkpt>
      <trkpt lat="47.28007" lon="4.96134">
        <ele>421</ele>
        <time>2012-12-11T13:28:43.1Z</time>
      </trkpt>
      <trkpt lat="47.28007" lon="4.96133">
        <ele>420</ele>
        <time>2012-12-11T13:28:45.1Z</time>
      </trkpt>
      <trkpt lat="47.28008" lon="4.96132">
        <ele>420</ele>
        <time>2012-12-11T13:28:47.1Z</time>
      </trkpt>
      <trkpt lat="47.28008" lon="4.96131">
        <ele>419</ele>
        <time>2012-12-11T13:28:49.1Z</time>
      </trkpt>
      <trkpt lat="47.28008" lon="4.9613">
        <ele>419</ele>
        <time>2012-12-11T13:28:51.1Z</time>
      </trkpt>
      <trkpt lat="47.28008" lon="4.9613">
        <ele>419</ele>
        <time>2012-12-11T13:28:53.1Z</time>
      </trkpt>
      <trkpt lat="47.28008" lon="4.96128">
        <ele>419</ele>
        <time>2012-12-11T13:28:55.1Z</time>
      </trkpt>
      <trkpt lat="47.28008" lon="4.96127">
        <ele>419</ele>
        <time>2012-12-11T13:28:57.1Z</time>
      </trkpt>
      <trkpt lat="47.28009" lon="4.96125">
        <ele>418</ele>
        <time>2012-12-11T13:28:59.1Z</time>
      </trkpt>
      <trkpt lat="47.2801" lon="4.96125">
        <ele>418</ele>
        <time>2012-12-11T13:29:01.1Z</time>
      </trkpt>
      <trkpt lat="47.2801" lon="4.96124">
        <ele>418</ele>
        <time>2012-12-11T13:29:04.1Z</time>
      </trkpt>
      <trkpt lat="47.28009" lon="4.96123">
        <ele>417</ele>
        <time>2012-12-11T13:29:06.1Z</time>
      </trkpt>
      <trkpt lat="47.2801" lon="4.96122">
        <ele>417</ele>
        <time>2012-12-11T13:29:08.1Z</time>
      </trkpt>
      <trkpt lat="47.2801" lon="4.96121">
        <ele>417</ele>
        <time>2012-12-11T13:29:10.1Z</time>
      </trkpt>
      <trkpt lat="47.2801" lon="4.96121">
        <ele>417</ele>
        <time>2012-12-11T13:29:12.1Z</time>
      </trkpt>
      <trkpt lat="47.2801" lon="4.96121">
        <ele>417</ele>
        <time>2012-12-11T13:29:14.1Z</time>
      </trkpt>
      <trkpt lat="47.2801" lon="4.96121">
        <ele>416</ele>
        <time>2012-12-11T13:29:16.1Z</time>
      </trkpt>
      <trkpt lat="47.2801" lon="4.9612">
        <ele>416</ele>
        <time>2012-12-11T13:29:19.1Z</time>
      </trkpt>
      <trkpt lat="47.28011" lon="4.96119">
        <ele>416</ele>
        <time>2012-12-11T13:29:21.1Z</time>
      </trkpt>
      <trkpt lat="47.28011" lon="4.96119">
        <ele>415</ele>
        <time>2012-12-11T13:29:23.1Z</time>
      </trkpt>
      <trkpt lat="47.28011" lon="4.96118">
        <ele>415</ele>
        <time>2012-12-11T13:29:25.1Z</time>
      </trkpt>
      <trkpt lat="47.28012" lon="4.96117">
        <ele>415</ele>
        <time>2012-12-11T13:29:27.1Z</time>
      </trkpt>
      <trkpt lat="47.28012" lon="4.96117">
        <ele>415</ele>
        <time>2012-12-11T13:29:29.1Z</time>
      </trkpt>
      <trkpt lat="47.28013" lon="4.96116">
        <ele>414</ele>
        <time>2012-12-11T13:29:31.1Z</time>
      </trkpt>
      <trkpt lat="47.28013" lon="4.96116">
        <ele>414</ele>
        <time>2012-12-11T13:29:34.1Z</time>
      </trkpt>
      <trkpt lat="47.28013" lon="4.96116">
        <ele>414</ele>
        <time>2012-12-11T13:29:36.1Z</time>
      </trkpt>
      <trkpt lat="47.28014" lon="4.96115">
        <ele>413</ele>
        <time>2012-12-11T13:29:38.1Z</time>
      </trkpt>
      <trkpt lat="47.28014" lon="4.96114">
        <ele>413</ele>
        <time>2012-12-11T13:29:40.1Z</time>
      </trkpt>
      <trkpt lat="47.28015" lon="4.96114">
        <ele>413</ele>
        <time>2012-12-11T13:29:42.1Z</time>
      </trkpt>
      <trkpt lat="47.28015" lon="4.96113">
        <ele>412</ele>
        <time>2012-12-11T13:29:44.1Z</time>
      </trkpt>
      <trkpt lat="47.28016" lon="4.9611">
        <ele>412</ele>
        <time>2012-12-11T13:29:46.1Z</time>
      </trkpt>
      <trkpt lat="47.28016" lon="4.96109">
        <ele>412</ele>
        <time>2012-12-11T13:29:48.1Z</time>
      </trkpt>
      <trkpt lat="47.28016" lon="4.96107">
        <ele>411</ele>
        <time>2012-12-11T13:29:50.1Z</time>
      </trkpt>
      <trkpt lat="47.28016" lon="4.96105">
        <ele>411</ele>
        <time>2012-12-11T13:29:53.1Z</time>
      </trkpt>
      <trkpt lat="47.28016" lon="4.96104">
        <ele>410</ele>
        <time>2012-12-11T13:29:55.1Z</time>
      </trkpt>
      <trkpt lat="47.28016" lon="4.96104">
        <ele>410</ele>
        <time>2012-12-11T13:29:57.1Z</time>
      </trkpt>
      <trkpt lat="47.28016" lon="4.96103">
        <ele>410</ele>
        <time>2012-12-11T13:29:59.1Z</time>
      </trkpt>
      <trkpt lat="47.28017" lon="4.96102">
        <ele>410</ele>
        <time>2012-12-11T13:30:01.1Z</time>
      </trkpt>
      <trkpt lat="47.28017" lon="4.961">
        <ele>409</ele>
        <time>2012-12-11T13:30:03.1Z</time>
      </trkpt>
      <trkpt lat="47.28018" lon="4.96099">
        <ele>408</ele>
        <time>2012-12-11T13:30:06.1Z</time>
      </trkpt>
      <trkpt lat="47.28018" lon="4.96096">
        <ele>408</ele>
        <time>2012-12-11T13:30:08.1Z</time>
      </trkpt>
      <trkpt lat="47.28018" lon="4.96095">
        <ele>407</ele>
        <time>2012-12-11T13:30:10.1Z</time>
      </trkpt>
      <trkpt lat="47.28019" lon="4.96094">
        <ele>407</ele>
        <time>2012-12-11T13:30:12.1Z</time>
      </trkpt>
      <trkpt lat="47.2802" lon="4.96093">
        <ele>407</ele>
        <time>2012-12-11T13:30:14.1Z</time>
      </trkpt>
      <trkpt lat="47.2802" lon="4.96092">
        <ele>406</ele>
        <time>2012-12-11T13:30:16.1Z</time>
      </trkpt>
      <trkpt lat="47.28021" lon="4.9609">
        <ele>406</ele>
        <time>2012-12-11T13:30:18.1Z</time>
      </trkpt>
      <trkpt lat="47.28021" lon="4.96089">
        <ele>405</ele>
        <time>2012-12-11T13:30:21.1Z</time>
      </trkpt>
      <trkpt lat="47.28022" lon="4.96087">
        <ele>405</ele>
        <time>2012-12-11T13:30:23.1Z</time>
      </trkpt>
      <trkpt lat="47.28023" lon="4.96085">
        <ele>404</ele>
        <time>2012-12-11T13:30:25.1Z</time>
      </trkpt>
      <trkpt lat="47.28024" lon="4.96083">
        <ele>404</ele>
        <time>2012-12-11T13:30:27.1Z</time>
      </trkpt>
      <trkpt lat="47.28025" lon="4.96082">
        <ele>403</ele>
        <time>2012-12-11T13:30:29.1Z</time>
      </trkpt>
      <trkpt lat="47.28025" lon="4.9608">
        <ele>403</ele>
        <time>2012-12-11T13:30:31.1Z</time>
      </trkpt>
      <trkpt lat="47.28026" lon="4.96079">
        <ele>403</ele>
        <time>2012-12-11T13:30:33.1Z</time>
      </trkpt>
      <trkpt lat="47.28026" lon="4.96077">
        <ele>403</ele>
        <time>2012-12-11T13:30:35.1Z</time>
      </trkpt>
      <trkpt lat="47.28026" lon="4.96075">
        <ele>402</ele>
        <time>2012-12-11T13:30:37.1Z</time>
      </trkpt>
      <trkpt lat="47.28027" lon="4.96072">
        <ele>402</ele>
        <time>2012-12-11T13:30:39.1Z</time>
      </trkpt>
      <trkpt lat="47.28027" lon="4.9607">
        <ele>401</ele>
        <time>2012-12-11T13:30:42.1Z</time>
      </trkpt>
      <trkpt lat="47.28027" lon="4.96069">
        <ele>400</ele>
        <time>2012-12-11T13:30:44.1Z</time>
      </trkpt>
      <trkpt lat="47.28028" lon="4.96067">
        <ele>400</ele>
        <time>2012-12-11T13:30:46.1Z</time>
      </trkpt>
      <trkpt lat="47.28029" lon="4.96065">
        <ele>400</ele>
        <time>2012-12-11T13:30:48.1Z</time>
      </trkpt>
      <trkpt lat="47.28029" lon="4.96063">
        <ele>400</ele>
        <time>2012-12-11T13:30:50.1Z</time>
      </trkpt>
      <trkpt lat="47.28029" lon="4.96062">
        <ele>399</ele>
        <time>2012-12-11T13:30:52.1Z</time>
      </trkpt>
      <trkpt lat="47.2803" lon="4.9606">
        <ele>399</ele>
        <time>2012-12-11T13:30:54.1Z</time>
      </trkpt>
      <trkpt lat="47.2803" lon="4.96058">
        <ele>398</ele>
        <time>2012-12-11T13:30:56.1Z</time>
      </trkpt>
      <trkpt lat="47.2803" lon="4.96056">
        <ele>398</ele>
        <time>2012-12-11T13:30:58.1Z</time>
      </trkpt>
      <trkpt lat="47.28031" lon="4.96055">
        <ele>398</ele>
        <time>2012-12-11T13:31:01.1Z</time>
      </trkpt>
      <trkpt lat="47.28031" lon="4.96053">
        <ele>397</ele>
        <time>2012-12-11T13:31:03.1Z</time>
      </trkpt>
      <trkpt lat="47.28031" lon="4.96051">
        <ele>397</ele>
        <time>2012-12-11T13:31:05.1Z</time>
      </trkpt>
      <trkpt lat="47.28031" lon="4.96049">
        <ele>396</ele>
        <time>2012-12-11T13:31:07.1Z</time>
      </trkpt>
      <trkpt lat="47.28032" lon="4.96048">
        <ele>396</ele>
        <time>2012-12-11T13:31:09.1Z</time>
      </trkpt>
      <trkpt lat="47.28032" lon="4.96046">
        <ele>396</ele>
        <time>2012-12-11T13:31:11.1Z</time>
      </trkpt>
      <trkpt lat="47.28032" lon="4.96045">
        <ele>396</ele>
        <time>2012-12-11T13:31:14.1Z</time>
      </trkpt>
      <trkpt lat="47.28032" lon="4.96043">
        <ele>395</ele>
        <time>2012-12-11T13:31:16.1Z</time>
      </trkpt>
      <trkpt lat="47.28033" lon="4.96042">
        <ele>395</ele>
        <time>2012-12-11T13:31:18.1Z</time>
      </trkpt>
      <trkpt lat="47.28033" lon="4.96041">
        <ele>395</ele>
        <time>2012-12-11T13:31:20.1Z</time>
      </trkpt>
      <trkpt lat="47.28033" lon="4.96039">
        <ele>394</ele>
        <time>2012-12-11T13:31:22.1Z</time>
      </trkpt>
      <trkpt lat="47.28033" lon="4.96037">
        <ele>394</ele>
        <time>2012-12-11T13:31:24.1Z</time>
      </trkpt>
      <trkpt lat="47.28033" lon="4.96037">
        <ele>394</ele>
        <time>2012-12-11T13:31:26.1Z</time>
      </trkpt>
      <trkpt lat="47.28034" lon="4.96036">
        <ele>394</ele>
        <time>2012-12-11T13:31:28.1Z</time>
      </trkpt>
      <trkpt lat="47.28034" lon="4.96034">
        <ele>394</ele>
        <time>2012-12-11T13:31:31.1Z</time>
      </trkpt>
      <trkpt lat="47.28035" lon="4.96033">
        <ele>393</ele>
        <time>2012-12-11T13:31:33.1Z</time>
      </trkpt>
      <trkpt lat="47.28035" lon="4.96031">
        <ele>393</ele>
        <time>2012-12-11T13:31:35.1Z</time>
      </trkpt>
      <trkpt lat="47.28035" lon="4.9603">
        <ele>393</ele>
        <time>2012-12-11T13:31:37.1Z</time>
      </trkpt>
      <trkpt lat="47.28035" lon="4.96028">
        <ele>392</ele>
        <time>2012-12-11T13:31:39.1Z</time>
      </trkpt>
      <trkpt lat="47.28035" lon="4.96027">
        <ele>392</ele>
        <time>2012-12-11T13:31:41.1Z</time>
      </trkpt>
      <trkpt lat="47.28036" lon="4.96026">
        <ele>392</ele>
        <time>2012-12-11T13:31:43.1Z</time>
      </trkpt>
      <trkpt lat="47.28035" lon="4.96024">
        <ele>391</ele>
        <time>2012-12-11T13:31:45.1Z</time>
      </trkpt>
      <trkpt lat="47.28036" lon="4.96023">
        <ele>391</ele>
        <time>2012-12-11T13:31:47.1Z</time>
      </trkpt>
      <trkpt lat="47.28036" lon="4.96022">
        <ele>390</ele>
        <time>2012-12-11T13:31:49.1Z</time>
      </trkpt>
      <trkpt lat="47.28037" lon="4.96022">
        <ele>390</ele>
        <time>2012-12-11T13:31:51.1Z</time>
      </trkpt>
      <trkpt lat="47.28037" lon="4.96022">
        <ele>389</ele>
        <time>2012-12-11T13:31:54.1Z</time>
      </trkpt>
      <trkpt lat="47.28038" lon="4.96021">
        <ele>389</ele>
        <time>2012-12-11T13:31:56.1Z</time>
      </trkpt>
      <trkpt lat="47.28038" lon="4.9602">
        <ele>388</ele>
        <time>2012-12-11T13:31:58.1Z</time>
      </trkpt>
      <trkpt lat="47.28038" lon="4.9602">
        <ele>388</ele>
        <time>2012-12-11T13:32:00.1Z</time>
      </trkpt>
      <trkpt lat="47.28039" lon="4.96019">
        <ele>388</ele>
        <time>2012-12-11T13:32:02.1Z</time>
      </trkpt>
      <trkpt lat="47.28039" lon="4.96018">
        <ele>387</ele>
        <time>2012-12-11T13:32:04.1Z</time>
      </trkpt>
      <trkpt lat="47.28039" lon="4.96017">
        <ele>387</ele>
        <time>2012-12-11T13:32:06.1Z</time>
      </trkpt>
      <trkpt lat="47.28039" lon="4.96016">
        <ele>387</ele>
        <time>2012-12-11T13:32:08.1Z</time>
      </trkpt>
      <trkpt lat="47.2804" lon="4.96015">
        <ele>386</ele>
        <time>2012-12-11T13:32:10.1Z</time>
      </trkpt>
      <trkpt lat="47.28041" lon="4.96013">
        <ele>386</ele>
        <time>2012-12-11T13:32:12.1Z</time>
      </trkpt>
      <trkpt lat="47.28041" lon="4.96011">
        <ele>386</ele>
        <time>2012-12-11T13:32:14.1Z</time>
      </trkpt>
      <trkpt lat="47.28041" lon="4.96009">
        <ele>385</ele>
        <time>2012-12-11T13:32:17.1Z</time>
      </trkpt>
      <trkpt lat="47.28042" lon="4.96008">
        <ele>385</ele>
        <time>2012-12-11T13:32:19.1Z</time>
      </trkpt>
      <trkpt lat="47.28042" lon="4.96006">
        <ele>385</ele>
        <time>2012-12-11T13:32:21.1Z</time>
      </trkpt>
      <trkpt lat="47.28043" lon="4.96005">
        <ele>384</ele>
        <time>2012-12-11T13:32:23.1Z</time>
      </trkpt>
      <trkpt lat="47.28043" lon="4.96003">
        <ele>384</ele>
        <time>2012-12-11T13:32:25.1Z</time>
      </trkpt>
      <trkpt lat="47.28044" lon="4.96001">
        <ele>384</ele>
        <time>2012-12-11T13:32:27.1Z</time>
      </trkpt>
      <trkpt lat="47.28044" lon="4.95999">
        <ele>383</ele>
        <time>2012-12-11T13:32:29.1Z</time>
      </trkpt>
      <trkpt lat="47.28045" lon="4.95997">
        <ele>383</ele>
        <time>2012-12-11T13:32:31.1Z</time>
      </trkpt>
      <trkpt lat="47.28046" lon="4.95997">
        <ele>382</ele>
        <time>2012-12-11T13:32:33.1Z</time>
      </trkpt>
      <trkpt lat="47.28047" lon="4.95997">
        <ele>382</ele>
        <time>2012-12-11T13:32:36.1Z</time>
      </trkpt>
      <trkpt lat="47.28047" lon="4.95995">
        <ele>381</ele>
        <time>2012-12-11T13:32:38.1Z</time>
      </trkpt>
      <trkpt lat="47.28047" lon="4.95994">
        <ele>381</ele>
        <time>2012-12-11T13:32:40.1Z</time>
      </trkpt>
      <trkpt lat="47.28048" lon="4.95992">
        <ele>380</ele>
        <time>2012-12-11T13:32:42.1Z</time>
      </trkpt>
      <trkpt lat="47.28049" lon="4.95989">
        <ele>380</ele>
        <time>2012-12-11T13:32:44.1Z</time>
      </trkpt>
      <trkpt lat="47.2805" lon="4.95988">
        <ele>380</ele>
        <time>2012-12-11T13:32:46.1Z</time>
      </trkpt>
      <trkpt lat="47.2805" lon="4.95986">
        <ele>379</ele>
        <time>2012-12-11T13:32:48.1Z</time>
      </trkpt>
      <trkpt lat="47.28051" lon="4.95985">
        <ele>379</ele>
        <time>2012-12-11T13:32:50.1Z</time>
      </trkpt>
      <trkpt lat="47.28051" lon="4.95983">
        <ele>378</ele>
        <time>2012-12-11T13:32:52.1Z</time>
      </trkpt>
      <trkpt lat="47.28051" lon="4.95983">
        <ele>378</ele>
        <time>2012-12-11T13:32:54.1Z</time>
      </trkpt>
      <trkpt lat="47.28052" lon="4.95983">
        <ele>377</ele>
        <time>2012-12-11T13:32:57.1Z</time>
      </trkpt>
      <trkpt lat="47.28053" lon="4.95982">
        <ele>377</ele>
        <time>2012-12-11T13:32:59.1Z</time>
      </trkpt>
      <trkpt lat="47.28053" lon="4.95981">
        <ele>376</ele>
        <time>2012-12-11T13:33:01.1Z</time>
      </trkpt>
      <trkpt lat="47.28054" lon="4.95981">
        <ele>376</ele>
        <time>2012-12-11T13:33:03.1Z</time>
      </trkpt>
      <trkpt lat="47.28053" lon="4.9598">
        <ele>376</ele>
        <time>2012-12-11T13:33:05.1Z</time>
      </trkpt>
      <trkpt lat="47.28053" lon="4.95979">
        <ele>376</ele>
        <time>2012-12-11T13:33:07.1Z</time>
      </trkpt>
      <trkpt lat="47.28053" lon="4.95976">
        <ele>375</ele>
        <time>2012-12-11T13:33:09.1Z</time>
      </trkpt>
      <trkpt lat="47.28053" lon="4.95975">
        <ele>375</ele>
        <time>2012-12-11T13:33:11.1Z</time>
      </trkpt>
      <trkpt lat="47.28053" lon="4.95974">
        <ele>375</ele>
        <time>2012-12-11T13:33:14.1Z</time>
      </trkpt>
      <trkpt lat="47.28053" lon="4.95972">
        <ele>374</ele>
        <time>2012-12-11T13:33:16.1Z</time>
      </trkpt>
      <trkpt lat="47.28053" lon="4.95971">
        <ele>373</ele>
        <time>2012-12-11T13:33:18.1Z</time>
      </trkpt>
      <trkpt lat="47.28053" lon="4.9597">
        <ele>373</ele>
        <time>2012-12-11T13:33:20.1Z</time>
      </trkpt>
      <trkpt lat="47.28054" lon="4.95969">
        <ele>373</ele>
        <time>2012-12-11T13:33:22.1Z</time>
      </trkpt>
      <trkpt lat="47.28054" lon="4.95967">
        <ele>373</ele>
        <time>2012-12-11T13:33:24.1Z</time>
      </trkpt>
      <trkpt lat="47.28054" lon="4.95965">
        <ele>372</ele>
        <time>2012-12-11T13:33:26.1Z</time>
      </trkpt>
      <trkpt lat="47.28054" lon="4.95963">
        <ele>372</ele>
        <time>2012-12-11T13:33:28.1Z</time>
      </trkpt>
      <trkpt lat="47.28054" lon="4.95961">
        <ele>371</ele>
        <time>2012-12-11T13:33:30.1Z</time>
      </trkpt>
      <trkpt lat="47.28054" lon="4.9596">
        <ele>371</ele>
        <time>2012-12-11T13:33:32.1Z</time>
      </trkpt>
      <trkpt lat="47.28054" lon="4.95959">
        <ele>371</ele>
        <time>2012-12-11T13:33:34.1Z</time>
      </trkpt>
      <trkpt lat="47.28054" lon="4.95959">
        <ele>370</ele>
        <time>2012-12-11T13:33:36.1Z</time>
      </trkpt>
      <trkpt lat="47.28054" lon="4.95958">
        <ele>370</ele>
        <time>2012-12-11T13:33:39.1Z</time>
      </trkpt>
      <trkpt lat="47.28054" lon="4.95957">
        <ele>370</ele>
        <time>2012-12-11T13:33:41.1Z</time>
      </trkpt>
      <trkpt lat="47.28056" lon="4.95956">
        <ele>370</ele>
        <time>2012-12-11T13:33:43.1Z</time>
      </trkpt>
      <trkpt lat="47.28056" lon="4.95954">
        <ele>369</ele>
        <time>2012-12-11T13:33:45.1Z</time>
      </trkpt>
      <trkpt lat="47.28057" lon="4.95953">
        <ele>369</ele>
        <time>2012-12-11T13:33:47.1Z</time>
      </trkpt>
      <trkpt lat="47.28057" lon="4.95951">
        <ele>368</ele>
        <time>2012-12-11T13:33:49.1Z</time>
      </trkpt>
      <trkpt lat="47.28058" lon="4.9595">
        <ele>367</ele>
        <time>2012-12-11T13:33:51.1Z</time>
      </trkpt>
      <trkpt lat="47.28058" lon="4.95949">
        <ele>367</ele>
        <time>2012-12-11T13:33:54.1Z</time>
      </trkpt>
      <trkpt lat="47.28058" lon="4.95947">
        <ele>366</ele>
        <time>2012-12-11T13:33:56.1Z</time>
      </trkpt>
      <trkpt lat="47.28059" lon="4.95943">
        <ele>365</ele>
        <time>2012-12-11T13:33:58.1Z</time>
      </trkpt>
      <trkpt lat="47.28059" lon="4.95941">
        <ele>365</ele>
        <time>2012-12-11T13:34:00.1Z</time>
      </trkpt>
      <trkpt lat="47.28059" lon="4.9594">
        <ele>365</ele>
        <time>2012-12-11T13:34:02.1Z</time>
      </trkpt>
      <trkpt lat="47.2806" lon="4.95939">
        <ele>365</ele>
        <time>2012-12-11T13:34:05.1Z</time>
      </trkpt>
      <trkpt lat="47.28061" lon="4.95939">
        <ele>365</ele>
        <time>2012-12-11T13:34:07.1Z</time>
      </trkpt>
      <trkpt lat="47.28061" lon="4.95937">
        <ele>364</ele>
        <time>2012-12-11T13:34:09.1Z</time>
      </trkpt>
      <trkpt lat="47.28062" lon="4.95934">
        <ele>363</ele>
        <time>2012-12-11T13:34:11.1Z</time>
      </trkpt>
      <trkpt lat="47.28062" lon="4.95932">
        <ele>363</ele>
        <time>2012-12-11T13:34:13.1Z</time>
      </trkpt>
      <trkpt lat="47.28062" lon="4.95931">
        <ele>362</ele>
        <time>2012-12-11T13:34:15.1Z</time>
      </trkpt>
      <trkpt lat="47.28062" lon="4.95929">
        <ele>362</ele>
        <time>2012-12-11T13:34:17.1Z</time>
      </trkpt>
      <trkpt lat="47.28062" lon="4.95928">
        <ele>362</ele>
        <time>2012-12-11T13:34:19.1Z</time>
      </trkpt>
      <trkpt lat="47.28061" lon="4.95927">
        <ele>361</ele>
        <time>2012-12-11T13:34:22.1Z</time>
      </trkpt>
      <trkpt lat="47.28061" lon="4.95927">
        <ele>361</ele>
        <time>2012-12-11T13:34:24.1Z</time>
      </trkpt>
      <trkpt lat="47.28062" lon="4.95925">
        <ele>361</ele>
        <time>2012-12-11T13:34:26.1Z</time>
      </trkpt>
      <trkpt lat="47.28062" lon="4.95923">
        <ele>361</ele>
        <time>2012-12-11T13:34:28.1Z</time>
      </trkpt>
      <trkpt lat="47.28062" lon="4.95921">
        <ele>360</ele>
        <time>2012-12-11T13:34:30.1Z</time>
      </trkpt>
      <trkpt lat="47.28062" lon="4.95919">
        <ele>360</ele>
        <time>2012-12-11T13:34:32.1Z</time>
      </trkpt>
      <trkpt lat="47.28062" lon="4.95918">
        <ele>360</ele>
        <time>2012-12-11T13:34:34.1Z</time>
      </trkpt>
      <trkpt lat="47.28063" lon="4.95918">
        <ele>359</ele>
        <time>2012-12-11T13:34:36.1Z</time>
      </trkpt>
      <trkpt lat="47.28063" lon="4.95917">
        <ele>359</ele>
        <time>2012-12-11T13:34:38.1Z</time>
      </trkpt>
      <trkpt lat="47.28063" lon="4.95917">
        <ele>359</ele>
        <time>2012-12-11T13:34:41.1Z</time>
      </trkpt>
      <trkpt lat="47.28062" lon="4.95915">
        <ele>358</ele>
        <time>2012-12-11T13:34:43.1Z</time>
      </trkpt>
      <trkpt lat="47.28062" lon="4.95913">
        <ele>357</ele>
        <time>2012-12-11T13:34:45.1Z</time>
      </trkpt>
      <trkpt lat="47.28062" lon="4.9591">
        <ele>357</ele>
        <time>2012-12-11T13:34:47.1Z</time>
      </trkpt>
      <trkpt lat="47.28063" lon="4.9591">
        <ele>357</ele>
        <time>2012-12-11T13:34:49.1Z</time>
      </trkpt>
      <trkpt lat="47.28063" lon="4.95908">
        <ele>356</ele>
        <time>2012-12-11T13:34:51.1Z</time>
      </trkpt>
      <trkpt lat="47.28063" lon="4.95906">
        <ele>356</ele>
        <time>2012-12-11T13:34:53.1Z</time>
      </trkpt>
      <trkpt lat="47.28064" lon="4.95905">
        <ele>356</ele>
        <time>2012-12-11T13:34:55.1Z</time>
      </trkpt>
      <trkpt lat="47.28064" lon="4.95903">
        <ele>356</ele>
        <time>2012-12-11T13:34:57.1Z</time>
      </trkpt>
      <trkpt lat="47.28065" lon="4.95902">
        <ele>356</ele>
        <time>2012-12-11T13:34:59.1Z</time>
      </trkpt>
      <trkpt lat="47.28065" lon="4.95901">
        <ele>355</ele>
        <time>2012-12-11T13:35:02.1Z</time>
      </trkpt>
      <trkpt lat="47.28065" lon="4.959">
        <ele>355</ele>
        <time>2012-12-11T13:35:04.1Z</time>
      </trkpt>
      <trkpt lat="47.28065" lon="4.95899">
        <ele>354</ele>
        <time>2012-12-11T13:35:06.1Z</time>
      </trkpt>
      <trkpt lat="47.28066" lon="4.95898">
        <ele>354</ele>
        <time>2012-12-11T13:35:08.1Z</time>
      </trkpt>
      <trkpt lat="47.28067" lon="4.95897">
        <ele>354</ele>
        <time>2012-12-11T13:35:10.1Z</time>
      </trkpt>
      <trkpt lat="47.28069" lon="4.95896">
        <ele>354</ele>
        <time>2012-12-11T13:35:12.1Z</time>
      </trkpt>
      <trkpt lat="47.2807" lon="4.95895">
        <ele>354</ele>
        <time>2012-12-11T13:35:14.1Z</time>
      </trkpt>
      <trkpt lat="47.2807" lon="4.95894">
        <ele>354</ele>
        <time>2012-12-11T13:35:16.1Z</time>
      </trkpt>
      <trkpt lat="47.2807" lon="4.95894">
        <ele>354</ele>
        <time>2012-12-11T13:35:18.1Z</time>
      </trkpt>
      <trkpt lat="47.28069" lon="4.95893">
        <ele>353</ele>
        <time>2012-12-11T13:35:20.1Z</time>
      </trkpt>
      <trkpt lat="47.28069" lon="4.95893">
        <ele>353</ele>
        <time>2012-12-11T13:35:23.1Z</time>
      </trkpt>
      <trkpt lat="47.28069" lon="4.95892">
        <ele>353</ele>
        <time>2012-12-11T13:35:25.1Z</time>
      </trkpt>
      <trkpt lat="47.28069" lon="4.95893">
        <ele>353</ele>
        <time>2012-12-11T13:35:27.1Z</time>
      </trkpt>
      <trkpt lat="47.2807" lon="4.95893">
        <ele>353</ele>
        <time>2012-12-11T13:35:29.1Z</time>
      </trkpt>
      <trkpt lat="47.2807" lon="4.95894">
        <ele>353</ele>
        <time>2012-12-11T13:35:31.1Z</time>
      </trkpt>
      <trkpt lat="47.2807" lon="4.95895">
        <ele>353</ele>
        <time>2012-12-11T13:35:33.1Z</time>
      </trkpt>
      <trkpt lat="47.2807" lon="4.95897">
        <ele>353</ele>
        <time>2012-12-11T13:35:35.1Z</time>
      </trkpt>
      <trkpt lat="47.2807" lon="4.95897">
        <ele>353</ele>
        <time>2012-12-11T13:35:37.1Z</time>
      </trkpt>
      <trkpt lat="47.2807" lon="4.95897">
        <ele>353</ele>
        <time>2012-12-11T13:35:39.1Z</time>
      </trkpt>
      <trkpt lat="47.28071" lon="4.95896">
        <ele>353</ele>
        <time>2012-12-11T13:35:41.1Z</time>
      </trkpt>
      <trkpt lat="47.28071" lon="4.95895">
        <ele>353</ele>
        <time>2012-12-11T13:35:44.1Z</time>
      </trkpt>
      <trkpt lat="47.2807" lon="4.95894">
        <ele>353</ele>
        <time>2012-12-11T13:35:46.1Z</time>
      </trkpt>
      <trkpt lat="47.2807" lon="4.95894">
        <ele>353</ele>
        <time>2012-12-11T13:35:48.1Z</time>
      </trkpt>
      <trkpt lat="47.28071" lon="4.95893">
        <ele>353</ele>
        <time>2012-12-11T13:35:50.1Z</time>
      </trkpt>
      <trkpt lat="47.28071" lon="4.95892">
        <ele>353</ele>
        <time>2012-12-11T13:35:52.1Z</time>
      </trkpt>
      <trkpt lat="47.28071" lon="4.95892">
        <ele>353</ele>
        <time>2012-12-11T13:35:54.1Z</time>
      </trkpt>
      <trkpt lat="47.28072" lon="4.95892">
        <ele>353</ele>
        <time>2012-12-11T13:35:56.1Z</time>
      </trkpt>
      <trkpt lat="47.28072" lon="4.95892">
        <ele>353</ele>
        <time>2012-12-11T13:35:59.1Z</time>
      </trkpt>
      <trkpt lat="47.28072" lon="4.95892">
        <ele>353</ele>
        <time>2012-12-11T13:36:01.1Z</time>
      </trkpt>
      <trkpt lat="47.28071" lon="4.95892">
        <ele>353</ele>
        <time>2012-12-11T13:36:03.1Z</time>
      </trkpt>
      <trkpt lat="47.28071" lon="4.95892">
        <ele>353</ele>
        <time>2012-12-11T13:36:05.1Z</time>
      </trkpt>
      <trkpt lat="47.28071" lon="4.95892">
        <ele>353</ele>
        <time>2012-12-11T13:36:07.1Z</time>
      </trkpt>
      <trkpt lat="47.28071" lon="4.95891">
        <ele>353</ele>
        <time>2012-12-11T13:36:09.1Z</time>
      </trkpt>
      <trkpt lat="47.2807" lon="4.95891">
        <ele>353</ele>
        <time>2012-12-11T13:36:11.1Z</time>
      </trkpt>
      <trkpt lat="47.28069" lon="4.95891">
        <ele>353</ele>
        <time>2012-12-11T13:36:13.1Z</time>
      </trkpt>
      <trkpt lat="47.28068" lon="4.95891">
        <ele>353</ele>
        <time>2012-12-11T13:36:15.1Z</time>
      </trkpt>
      <trkpt lat="47.28067" lon="4.95892">
        <ele>353</ele>
        <time>2012-12-11T13:36:17.1Z</time>
      </trkpt>
      <trkpt lat="47.28066" lon="4.95892">
        <ele>353</ele>
        <time>2012-12-11T13:36:19.1Z</time>
      </trkpt>
      <trkpt lat="47.28065" lon="4.95892">
        <ele>353</ele>
        <time>2012-12-11T13:36:21.1Z</time>
      </trkpt>
      <trkpt lat="47.28065" lon="4.95892">
        <ele>353</ele>
        <time>2012-12-11T13:36:24.1Z</time>
      </trkpt>
      <trkpt lat="47.28065" lon="4.95892">
        <ele>353</ele>
        <time>2012-12-11T13:36:26.1Z</time>
      </trkpt>
      <trkpt lat="47.28065" lon="4.95893">
        <ele>353</ele>
        <time>2012-12-11T13:36:28.1Z</time>
      </trkpt>
      <trkpt lat="47.28065" lon="4.95894">
        <ele>353</ele>
        <time>2012-12-11T13:36:30.1Z</time>
      </trkpt>
      <trkpt lat="47.28065" lon="4.95893">
        <ele>353</ele>
        <time>2012-12-11T13:36:32.1Z</time>
      </trkpt>
      <trkpt lat="47.28065" lon="4.95894">
        <ele>353</ele>
        <time>2012-12-11T13:36:34.1Z</time>
      </trkpt>
      <trkpt lat="47.28065" lon="4.95893">
        <ele>353</ele>
        <time>2012-12-11T13:36:36.1Z</time>
      </trkpt>
      <trkpt lat="47.28065" lon="4.95892">
        <ele>353</ele>
        <time>2012-12-11T13:36:38.1Z</time>
      </trkpt>
      <trkpt lat="47.28066" lon="4.95891">
        <ele>353</ele>
        <time>2012-12-11T13:36:40.1Z</time>
      </trkpt>
      <trkpt lat="47.28066" lon="4.95891">
        <ele>353</ele>
        <time>2012-12-11T13:36:42.1Z</time>
      </trkpt>
      <trkpt lat="47.28065" lon="4.9589">
        <ele>352</ele>
        <time>2012-12-11T13:36:44.1Z</time>
      </trkpt>
      <trkpt lat="47.28065" lon="4.95889">
        <ele>352</ele>
        <time>2012-12-11T13:36:46.1Z</time>
      </trkpt>
      <trkpt lat="47.28064" lon="4.95888">
        <ele>352</ele>
        <time>2012-12-11T13:36:48.1Z</time>
      </trkpt>
      <trkpt lat="47.28063" lon="4.95887">
        <ele>352</ele>
        <time>2012-12-11T13:36:50.1Z</time>
      </trkpt>
      <trkpt lat="47.28062" lon="4.95887">
        <ele>353</ele>
        <time>2012-12-11T13:36:53.1Z</time>
      </trkpt>
      <trkpt lat="47.28062" lon="4.95886">
        <ele>352</ele>
        <time>2012-12-11T13:36:55.1Z</time>
      </trkpt>
      <trkpt lat="47.2806" lon="4.95885">
        <ele>352</ele>
        <time>2012-12-11T13:36:57.1Z</time>
      </trkpt>
      <trkpt lat="47.28059" lon="4.95884">
        <ele>352</ele>
        <time>2012-12-11T13:36:59.1Z</time>
      </trkpt>
      <trkpt lat="47.28057" lon="4.95883">
        <ele>352</ele>
        <time>2012-12-11T13:37:01.1Z</time>
      </trkpt>
      <trkpt lat="47.28055" lon="4.95883">
        <ele>353</ele>
        <time>2012-12-11T13:37:03.1Z</time>
      </trkpt>
      <trkpt lat="47.28053" lon="4.95882">
        <ele>353</ele>
        <time>2012-12-11T13:37:05.1Z</time>
      </trkpt>
      <trkpt lat="47.28051" lon="4.95881">
        <ele>353</ele>
        <time>2012-12-11T13:37:07.1Z</time>
      </trkpt>
      <trkpt lat="47.2805" lon="4.95879">
        <ele>353</ele>
        <time>2012-12-11T13:37:09.1Z</time>
      </trkpt>
      <trkpt lat="47.28049" lon="4.95878">
        <ele>353</ele>
        <time>2012-12-11T13:37:12.1Z</time>
      </trkpt>
      <trkpt lat="47.28048" lon="4.95877">
        <ele>353</ele>
        <time>2012-12-11T13:37:14.1Z</time>
      </trkpt>
      <trkpt lat="47.28047" lon="4.95876">
        <ele>354</ele>
        <time>2012-12-11T13:37:16.1Z</time>
      </trkpt>
      <trkpt lat="47.28046" lon="4.95873">
        <ele>354</ele>
        <time>2012-12-11T13:37:18.1Z</time>
      </trkpt>
      <trkpt lat="47.28045" lon="4.95871">
        <ele>354</ele>
        <time>2012-12-11T13:37:20.1Z</time>
      </trkpt>
      <trkpt lat="47.28043" lon="4.9587">
        <ele>354</ele>
        <time>2012-12-11T13:37:22.1Z</time>
      </trkpt>
      <trkpt lat="47.28042" lon="4.95869">
        <ele>354</ele>
        <time>2012-12-11T13:37:24.1Z</time>
      </trkpt>
      <trkpt lat="47.28042" lon="4.95867">
        <ele>354</ele>
        <time>2012-12-11T13:37:27.1Z</time>
      </trkpt>
      <trkpt lat="47.28041" lon="4.95865">
        <ele>354</ele>
        <time>2012-12-11T13:37:29.1Z</time>
      </trkpt>
      <trkpt lat="47.28041" lon="4.95862">
        <ele>354</ele>
        <time>2012-12-11T13:37:31.1Z</time>
      </trkpt>
      <trkpt lat="47.2804" lon="4.9586">
        <ele>354</ele>
        <time>2012-12-11T13:37:33.1Z</time>
      </trkpt>
      <trkpt lat="47.28039" lon="4.95858">
        <ele>354</ele>
        <time>2012-12-11T13:37:35.1Z</time>
      </trkpt>
      <trkpt lat="47.28038" lon="4.95855">
        <ele>355</ele>
        <time>2012-12-11T13:37:37.1Z</time>
      </trkpt>
      <trkpt lat="47.28037" lon="4.95852">
        <ele>355</ele>
        <time>2012-12-11T13:37:39.1Z</time>
      </trkpt>
      <trkpt lat="47.28035" lon="4.9585">
        <ele>355</ele>
        <time>2012-12-11T13:37:41.1Z</time>
      </trkpt>
      <trkpt lat="47.28034" lon="4.95847">
        <ele>355</ele>
        <time>2012-12-11T13:37:43.1Z</time>
      </trkpt>
      <trkpt lat="47.28033" lon="4.95845">
        <ele>355</ele>
        <time>2012-12-11T13:37:45.1Z</time>
      </trkpt>
      <trkpt lat="47.28032" lon="4.95843">
        <ele>355</ele>
        <time>2012-12-11T13:37:48.1Z</time>
      </trkpt>
      <trkpt lat="47.2803" lon="4.95841">
        <ele>355</ele>
        <time>2012-12-11T13:37:50.1Z</time>
      </trkpt>
      <trkpt lat="47.28029" lon="4.95839">
        <ele>355</ele>
        <time>2012-12-11T13:37:52.1Z</time>
      </trkpt>
      <trkpt lat="47.28027" lon="4.95837">
        <ele>355</ele>
        <time>2012-12-11T13:37:54.1Z</time>
      </trkpt>
      <trkpt lat="47.28025" lon="4.95834">
        <ele>355</ele>
        <time>2012-12-11T13:37:56.1Z</time>
      </trkpt>
      <trkpt lat="47.28024" lon="4.95832">
        <ele>356</ele>
        <time>2012-12-11T13:37:58.1Z</time>
      </trkpt>
      <trkpt lat="47.28022" lon="4.9583">
        <ele>356</ele>
        <time>2012-12-11T13:38:00.1Z</time>
      </trkpt>
      <trkpt lat="47.2802" lon="4.95828">
        <ele>356</ele>
        <time>2012-12-11T13:38:02.1Z</time>
      </trkpt>
      <trkpt lat="47.28019" lon="4.95826">
        <ele>356</ele>
        <time>2012-12-11T13:38:04.1Z</time>
      </trkpt>
      <trkpt lat="47.28017" lon="4.95823">
        <ele>356</ele>
        <time>2012-12-11T13:38:07.1Z</time>
      </trkpt>
      <trkpt lat="47.28015" lon="4.9582">
        <ele>356</ele>
        <time>2012-12-11T13:38:09.1Z</time>
      </trkpt>
      <trkpt lat="47.28014" lon="4.95818">
        <ele>356</ele>
        <time>2012-12-11T13:38:11.1Z</time>
      </trkpt>
      <trkpt lat="47.2801" lon="4.95816">
        <ele>357</ele>
        <time>2012-12-11T13:38:13.1Z</time>
      </trkpt>
      <trkpt lat="47.28009" lon="4.95814">
        <ele>357</ele>
        <time>2012-12-11T13:38:15.1Z</time>
      </trkpt>
      <trkpt lat="47.28007" lon="4.95811">
        <ele>357</ele>
        <time>2012-12-11T13:38:18.1Z</time>
      </trkpt>
      <trkpt lat="47.28006" lon="4.9581">
        <ele>357</ele>
        <time>2012-12-11T13:38:20.1Z</time>
      </trkpt>
      <trkpt lat="47.28005" lon="4.95807">
        <ele>357</ele>
        <time>2012-12-11T13:38:22.1Z</time>
      </trkpt>
      <trkpt lat="47.28003" lon="4.95804">
        <ele>357</ele>
        <time>2012-12-11T13:38:24.1Z</time>
      </trkpt>
      <trkpt lat="47.28001" lon="4.95801">
        <ele>357</ele>
        <time>2012-12-11T13:38:26.1Z</time>
      </trkpt>
      <trkpt lat="47.27999" lon="4.95799">
        <ele>357</ele>
        <time>2012-12-11T13:38:28.1Z</time>
      </trkpt>
      <trkpt lat="47.27998" lon="4.95797">
        <ele>357</ele>
        <time>2012-12-11T13:38:30.1Z</time>
      </trkpt>
      <trkpt lat="47.27997" lon="4.95795">
        <ele>357</ele>
        <time>2012-12-11T13:38:32.1Z</time>
      </trkpt>
      <trkpt lat="47.27995" lon="4.95794">
        <ele>358</ele>
        <time>2012-12-11T13:38:35.1Z</time>
      </trkpt>
      <trkpt lat="47.27994" lon="4.95792">
        <ele>358</ele>
        <time>2012-12-11T13:38:37.1Z</time>
      </trkpt>
      <trkpt lat="47.27992" lon="4.95789">
        <ele>358</ele>
        <time>2012-12-11T13:38:39.1Z</time>
      </trkpt>
      <trkpt lat="47.27991" lon="4.95787">
        <ele>358</ele>
        <time>2012-12-11T13:38:41.1Z</time>
      </trkpt>
      <trkpt lat="47.27989" lon="4.95785">
        <ele>359</ele>
        <time>2012-12-11T13:38:43.1Z</time>
      </trkpt>
      <trkpt lat="47.27987" lon="4.95783">
        <ele>359</ele>
        <time>2012-12-11T13:38:45.1Z</time>
      </trkpt>
      <trkpt lat="47.27985" lon="4.95781">
        <ele>359</ele>
        <time>2012-12-11T13:38:48.1Z</time>
      </trkpt>
      <trkpt lat="47.27984" lon="4.9578">
        <ele>359</ele>
        <time>2012-12-11T13:38:50.1Z</time>
      </trkpt>
      <trkpt lat="47.27982" lon="4.95778">
        <ele>359</ele>
        <time>2012-12-11T13:38:52.1Z</time>
      </trkpt>
      <trkpt lat="47.2798" lon="4.95775">
        <ele>359</ele>
        <time>2012-12-11T13:38:54.1Z</time>
      </trkpt>
      <trkpt lat="47.27978" lon="4.95772">
        <ele>359</ele>
        <time>2012-12-11T13:38:56.1Z</time>
      </trkpt>
      <trkpt lat="47.27976" lon="4.9577">
        <ele>359</ele>
        <time>2012-12-11T13:38:58.1Z</time>
      </trkpt>
      <trkpt lat="47.27974" lon="4.95768">
        <ele>359</ele>
        <time>2012-12-11T13:39:00.1Z</time>
      </trkpt>
      <trkpt lat="47.27972" lon="4.95767">
        <ele>359</ele>
        <time>2012-12-11T13:39:02.1Z</time>
      </trkpt>
      <trkpt lat="47.27971" lon="4.95765">
        <ele>360</ele>
        <time>2012-12-11T13:39:04.1Z</time>
      </trkpt>
      <trkpt lat="47.27969" lon="4.95762">
        <ele>360</ele>
        <time>2012-12-11T13:39:06.1Z</time>
      </trkpt>
      <trkpt lat="47.27968" lon="4.9576">
        <ele>360</ele>
        <time>2012-12-11T13:39:08.1Z</time>
      </trkpt>
      <trkpt lat="47.27967" lon="4.95757">
        <ele>360</ele>
        <time>2012-12-11T13:39:10.1Z</time>
      </trkpt>
      <trkpt lat="47.27965" lon="4.95754">
        <ele>360</ele>
        <time>2012-12-11T13:39:12.1Z</time>
      </trkpt>
      <trkpt lat="47.27964" lon="4.95751">
        <ele>360</ele>
        <time>2012-12-11T13:39:15.1Z</time>
      </trkpt>
      <trkpt lat="47.27962" lon="4.95749">
        <ele>360</ele>
        <time>2012-12-11T13:39:17.1Z</time>
      </trkpt>
      <trkpt lat="47.27959" lon="4.95744">
        <ele>360</ele>
        <time>2012-12-11T13:39:19.1Z</time>
      </trkpt>
      <trkpt lat="47.27958" lon="4.95742">
        <ele>360</ele>
        <time>2012-12-11T13:39:21.1Z</time>
      </trkpt>
      <trkpt lat="47.27956" lon="4.95741">
        <ele>360</ele>
        <time>2012-12-11T13:39:23.1Z</time>
      </trkpt>
      <trkpt lat="47.27953" lon="4.95739">
        <ele>361</ele>
        <time>2012-12-11T13:39:25.1Z</time>
      </trkpt>
      <trkpt lat="47.27952" lon="4.95736">
        <ele>361</ele>
        <time>2012-12-11T13:39:27.1Z</time>
      </trkpt>
      <trkpt lat="47.2795" lon="4.95732">
        <ele>361</ele>
        <time>2012-12-11T13:39:29.1Z</time>
      </trkpt>
      <trkpt lat="47.27948" lon="4.9573">
        <ele>361</ele>
        <time>2012-12-11T13:39:31.1Z</time>
      </trkpt>
      <trkpt lat="47.27946" lon="4.95727">
        <ele>361</ele>
        <time>2012-12-11T13:39:33.1Z</time>
      </trkpt>
      <trkpt lat="47.27944" lon="4.95725">
        <ele>361</ele>
        <time>2012-12-11T13:39:35.1Z</time>
      </trkpt>
      <trkpt lat="47.27942" lon="4.95722">
        <ele>362</ele>
        <time>2012-12-11T13:39:37.1Z</time>
      </trkpt>
      <trkpt lat="47.2794" lon="4.9572">
        <ele>362</ele>
        <time>2012-12-11T13:39:39.1Z</time>
      </trkpt>
      <trkpt lat="47.27938" lon="4.95718">
        <ele>362</ele>
        <time>2012-12-11T13:39:42.1Z</time>
      </trkpt>
      <trkpt lat="47.27937" lon="4.95715">
        <ele>362</ele>
        <time>2012-12-11T13:39:44.1Z</time>
      </trkpt>
      <trkpt lat="47.27936" lon="4.95712">
        <ele>362</ele>
        <time>2012-12-11T13:39:46.1Z</time>
      </trkpt>
      <trkpt lat="47.27934" lon="4.95709">
        <ele>362</ele>
        <time>2012-12-11T13:39:48.1Z</time>
      </trkpt>
      <trkpt lat="47.27931" lon="4.95705">
        <ele>362</ele>
        <time>2012-12-11T13:39:50.1Z</time>
      </trkpt>
      <trkpt lat="47.2793" lon="4.95703">
        <ele>362</ele>
        <time>2012-12-11T13:39:52.1Z</time>
      </trkpt>
      <trkpt lat="47.27928" lon="4.95701">
        <ele>362</ele>
        <time>2012-12-11T13:39:54.1Z</time>
      </trkpt>
      <trkpt lat="47.27927" lon="4.95698">
        <ele>363</ele>
        <time>2012-12-11T13:39:56.1Z</time>
      </trkpt>
      <trkpt lat="47.27925" lon="4.95696">
        <ele>363</ele>
        <time>2012-12-11T13:39:58.1Z</time>
      </trkpt>
      <trkpt lat="47.27923" lon="4.95694">
        <ele>363</ele>
        <time>2012-12-11T13:40:00.1Z</time>
      </trkpt>
      <trkpt lat="47.27921" lon="4.95692">
        <ele>363</ele>
        <time>2012-12-11T13:40:02.1Z</time>
      </trkpt>
      <trkpt lat="47.27919" lon="4.95691">
        <ele>363</ele>
        <time>2012-12-11T13:40:04.1Z</time>
      </trkpt>
      <trkpt lat="47.27918" lon="4.95689">
        <ele>364</ele>
        <time>2012-12-11T13:40:06.1Z</time>
      </trkpt>
      <trkpt lat="47.27915" lon="4.95688">
        <ele>364</ele>
        <time>2012-12-11T13:40:08.1Z</time>
      </trkpt>
      <trkpt lat="47.27913" lon="4.95686">
        <ele>364</ele>
        <time>2012-12-11T13:40:10.1Z</time>
      </trkpt>
      <trkpt lat="47.27911" lon="4.95684">
        <ele>364</ele>
        <time>2012-12-11T13:40:13.1Z</time>
      </trkpt>
      <trkpt lat="47.27909" lon="4.95683">
        <ele>364</ele>
        <time>2012-12-11T13:40:15.1Z</time>
      </trkpt>
      <trkpt lat="47.27907" lon="4.95681">
        <ele>364</ele>
        <time>2012-12-11T13:40:17.1Z</time>
      </trkpt>
      <trkpt lat="47.27905" lon="4.95681">
        <ele>364</ele>
        <time>2012-12-11T13:40:19.1Z</time>
      </trkpt>
      <trkpt lat="47.27902" lon="4.95681">
        <ele>364</ele>
        <time>2012-12-11T13:40:21.1Z</time>
      </trkpt>
      <trkpt lat="47.27901" lon="4.95681">
        <ele>364</ele>
        <time>2012-12-11T13:40:23.1Z</time>
      </trkpt>
      <trkpt lat="47.279" lon="4.95681">
        <ele>364</ele>
        <time>2012-12-11T13:40:25.1Z</time>
      </trkpt>
      <trkpt lat="47.27899" lon="4.9568">
        <ele>365</ele>
        <time>2012-12-11T13:40:27.1Z</time>
      </trkpt>
      <trkpt lat="47.27898" lon="4.95679">
        <ele>365</ele>
        <time>2012-12-11T13:40:29.1Z</time>
      </trkpt>
      <trkpt lat="47.27897" lon="4.95677">
        <ele>366</ele>
        <time>2012-12-11T13:40:31.1Z</time>
      </trkpt>
      <trkpt lat="47.27897" lon="4.95675">
        <ele>366</ele>
        <time>2012-12-11T13:40:34.1Z</time>
      </trkpt>
      <trkpt lat="47.27897" lon="4.95673">
        <ele>366</ele>
        <time>2012-12-11T13:40:36.1Z</time>
      </trkpt>
      <trkpt lat="47.27897" lon="4.95671">
        <ele>366</ele>
        <time>2012-12-11T13:40:38.1Z</time>
      </trkpt>
      <trkpt lat="47.27895" lon="4.95669">
        <ele>365</ele>
        <time>2012-12-11T13:40:40.1Z</time>
      </trkpt>
      <trkpt lat="47.27893" lon="4.95667">
        <ele>365</ele>
        <time>2012-12-11T13:40:42.1Z</time>
      </trkpt>
      <trkpt lat="47.27891" lon="4.95665">
        <ele>366</ele>
        <time>2012-12-11T13:40:44.1Z</time>
      </trkpt>
      <trkpt lat="47.27888" lon="4.95664">
        <ele>365</ele>
        <time>2012-12-11T13:40:46.1Z</time>
      </trkpt>
      <trkpt lat="47.27887" lon="4.95663">
        <ele>366</ele>
        <time>2012-12-11T13:40:48.1Z</time>
      </trkpt>
      <trkpt lat="47.27885" lon="4.95662">
        <ele>366</ele>
        <time>2012-12-11T13:40:50.1Z</time>
      </trkpt>
      <trkpt lat="47.27884" lon="4.95661">
        <ele>366</ele>
        <time>2012-12-11T13:40:52.1Z</time>
      </trkpt>
      <trkpt lat="47.27882" lon="4.95661">
        <ele>366</ele>
        <time>2012-12-11T13:40:54.1Z</time>
      </trkpt>
      <trkpt lat="47.2788" lon="4.95659">
        <ele>367</ele>
        <time>2012-12-11T13:40:56.1Z</time>
      </trkpt>
      <trkpt lat="47.27878" lon="4.95658">
        <ele>367</ele>
        <time>2012-12-11T13:40:58.1Z</time>
      </trkpt>
      <trkpt lat="47.27876" lon="4.95656">
        <ele>367</ele>
        <time>2012-12-11T13:41:00.1Z</time>
      </trkpt>
      <trkpt lat="47.27875" lon="4.95655">
        <ele>367</ele>
        <time>2012-12-11T13:41:03.1Z</time>
      </trkpt>
      <trkpt lat="47.27873" lon="4.95653">
        <ele>367</ele>
        <time>2012-12-11T13:41:05.1Z</time>
      </trkpt>
      <trkpt lat="47.27871" lon="4.95651">
        <ele>367</ele>
        <time>2012-12-11T13:41:07.1Z</time>
      </trkpt>
      <trkpt lat="47.27869" lon="4.95649">
        <ele>368</ele>
        <time>2012-12-11T13:41:09.1Z</time>
      </trkpt>
      <trkpt lat="47.27867" lon="4.95646">
        <ele>368</ele>
        <time>2012-12-11T13:41:11.1Z</time>
      </trkpt>
      <trkpt lat="47.27865" lon="4.95644">
        <ele>368</ele>
        <time>2012-12-11T13:41:13.1Z</time>
      </trkpt>
      <trkpt lat="47.27864" lon="4.95642">
        <ele>368</ele>
        <time>2012-12-11T13:41:15.1Z</time>
      </trkpt>
      <trkpt lat="47.27862" lon="4.9564">
        <ele>368</ele>
        <time>2012-12-11T13:41:17.1Z</time>
      </trkpt>
      <trkpt lat="47.27861" lon="4.95638">
        <ele>369</ele>
        <time>2012-12-11T13:41:19.1Z</time>
      </trkpt>
      <trkpt lat="47.27858" lon="4.95637">
        <ele>369</ele>
        <time>2012-12-11T13:41:21.1Z</time>
      </trkpt>
      <trkpt lat="47.27856" lon="4.95636">
        <ele>369</ele>
        <time>2012-12-11T13:41:24.1Z</time>
      </trkpt>
      <trkpt lat="47.27855" lon="4.95634">
        <ele>369</ele>
        <time>2012-12-11T13:41:26.1Z</time>
      </trkpt>
      <trkpt lat="47.27852" lon="4.95632">
        <ele>369</ele>
        <time>2012-12-11T13:41:28.1Z</time>
      </trkpt>
      <trkpt lat="47.2785" lon="4.9563">
        <ele>370</ele>
        <time>2012-12-11T13:41:30.1Z</time>
      </trkpt>
      <trkpt lat="47.27849" lon="4.95628">
        <ele>369</ele>
        <time>2012-12-11T13:41:32.1Z</time>
      </trkpt>
      <trkpt lat="47.27847" lon="4.95626">
        <ele>370</ele>
        <time>2012-12-11T13:41:34.1Z</time>
      </trkpt>
      <trkpt lat="47.27845" lon="4.95625">
        <ele>370</ele>
        <time>2012-12-11T13:41:36.1Z</time>
      </trkpt>
      <trkpt lat="47.27842" lon="4.95622">
        <ele>370</ele>
        <time>2012-12-11T13:41:38.1Z</time>
      </trkpt>
      <trkpt lat="47.2784" lon="4.9562">
        <ele>370</ele>
        <time>2012-12-11T13:41:40.1Z</time>
      </trkpt>
      <trkpt lat="47.27839" lon="4.95618">
        <ele>370</ele>
        <time>2012-12-11T13:41:42.1Z</time>
      </trkpt>
      <trkpt lat="47.27836" lon="4.95617">
        <ele>370</ele>
        <time>2012-12-11T13:41:44.1Z</time>
      </trkpt>
      <trkpt lat="47.27834" lon="4.95615">
        <ele>371</ele>
        <time>2012-12-11T13:41:47.1Z</time>
      </trkpt>
      <trkpt lat="47.27833" lon="4.95613">
        <ele>371</ele>
        <time>2012-12-11T13:41:49.1Z</time>
      </trkpt>
      <trkpt lat="47.2783" lon="4.95611">
        <ele>371</ele>
        <time>2012-12-11T13:41:51.1Z</time>
      </trkpt>
      <trkpt lat="47.27827" lon="4.95608">
        <ele>371</ele>
        <time>2012-12-11T13:41:53.1Z</time>
      </trkpt>
      <trkpt lat="47.27825" lon="4.95606">
        <ele>372</ele>
        <time>2012-12-11T13:41:55.1Z</time>
      </trkpt>
      <trkpt lat="47.27823" lon="4.95604">
        <ele>372</ele>
        <time>2012-12-11T13:41:57.1Z</time>
      </trkpt>
      <trkpt lat="47.27822" lon="4.95603">
        <ele>372</ele>
        <time>2012-12-11T13:41:59.1Z</time>
      </trkpt>
      <trkpt lat="47.2782" lon="4.95601">
        <ele>372</ele>
        <time>2012-12-11T13:42:01.1Z</time>
      </trkpt>
      <trkpt lat="47.27818" lon="4.95599">
        <ele>372</ele>
        <time>2012-12-11T13:42:04.1Z</time>
      </trkpt>
      <trkpt lat="47.27816" lon="4.95597">
        <ele>373</ele>
        <time>2012-12-11T13:42:06.1Z</time>
      </trkpt>
      <trkpt lat="47.27815" lon="4.95596">
        <ele>373</ele>
        <time>2012-12-11T13:42:08.1Z</time>
      </trkpt>
      <trkpt lat="47.27812" lon="4.95595">
        <ele>373</ele>
        <time>2012-12-11T13:42:10.1Z</time>
      </trkpt>
      <trkpt lat="47.2781" lon="4.95592">
        <ele>374</ele>
        <time>2012-12-11T13:42:12.1Z</time>
      </trkpt>
      <trkpt lat="47.27808" lon="4.95591">
        <ele>374</ele>
        <time>2012-12-11T13:42:14.1Z</time>
      </trkpt>
      <trkpt lat="47.27806" lon="4.95591">
        <ele>374</ele>
        <time>2012-12-11T13:42:16.1Z</time>
      </trkpt>
      <trkpt lat="47.27804" lon="4.9559">
        <ele>374</ele>
        <time>2012-12-11T13:42:19.1Z</time>
      </trkpt>
      <trkpt lat="47.27802" lon="4.95589">
        <ele>374</ele>
        <time>2012-12-11T13:42:21.1Z</time>
      </trkpt>
      <trkpt lat="47.278" lon="4.95588">
        <ele>374</ele>
        <time>2012-12-11T13:42:23.1Z</time>
      </trkpt>
      <trkpt lat="47.27798" lon="4.95586">
        <ele>375</ele>
        <time>2012-12-11T13:42:25.1Z</time>
      </trkpt>
      <trkpt lat="47.27796" lon="4.95584">
        <ele>375</ele>
        <time>2012-12-11T13:42:27.1Z</time>
      </trkpt>
      <trkpt lat="47.27794" lon="4.95583">
        <ele>375</ele>
        <time>2012-12-11T13:42:29.1Z</time>
      </trkpt>
      <trkpt lat="47.27793" lon="4.95582">
        <ele>375</ele>
        <time>2012-12-11T13:42:31.1Z</time>
      </trkpt>
      <trkpt lat="47.27791" lon="4.95581">
        <ele>376</ele>
        <time>2012-12-11T13:42:33.1Z</time>
      </trkpt>
      <trkpt lat="47.27789" lon="4.9558">
        <ele>376</ele>
        <time>2012-12-11T13:42:35.1Z</time>
      </trkpt>
      <trkpt lat="47.27788" lon="4.95578">
        <ele>376</ele>
        <time>2012-12-11T13:42:37.1Z</time>
      </trkpt>
      <trkpt lat="47.27787" lon="4.95577">
        <ele>376</ele>
        <time>2012-12-11T13:42:39.1Z</time>
      </trkpt>
      <trkpt lat="47.27785" lon="4.95576">
        <ele>376</ele>
        <time>2012-12-11T13:42:41.1Z</time>
      </trkpt>
      <trkpt lat="47.27784" lon="4.95576">
        <ele>376</ele>
        <time>2012-12-11T13:42:44.1Z</time>
      </trkpt>
      <trkpt lat="47.27783" lon="4.95574">
        <ele>376</ele>
        <time>2012-12-11T13:42:46.1Z</time>
      </trkpt>
      <trkpt lat="47.2778" lon="4.95571">
        <ele>377</ele>
        <time>2012-12-11T13:42:48.1Z</time>
      </trkpt>
      <trkpt lat="47.27779" lon="4.9557">
        <ele>377</ele>
        <time>2012-12-11T13:42:50.1Z</time>
      </trkpt>
      <trkpt lat="47.27777" lon="4.95568">
        <ele>377</ele>
        <time>2012-12-11T13:42:52.1Z</time>
      </trkpt>
      <trkpt lat="47.27775" lon="4.95566">
        <ele>377</ele>
        <time>2012-12-11T13:42:54.1Z</time>
      </trkpt>
      <trkpt lat="47.27773" lon="4.95565">
        <ele>378</ele>
        <time>2012-12-11T13:42:56.1Z</time>
      </trkpt>
      <trkpt lat="47.27771" lon="4.95564">
        <ele>378</ele>
        <time>2012-12-11T13:42:59.1Z</time>
      </trkpt>
      <trkpt lat="47.27769" lon="4.95563">
        <ele>378</ele>
        <time>2012-12-11T13:43:01.1Z</time>
      </trkpt>
      <trkpt lat="47.27768" lon="4.95561">
        <ele>378</ele>
        <time>2012-12-11T13:43:03.1Z</time>
      </trkpt>
      <trkpt lat="47.27765" lon="4.95557">
        <ele>378</ele>
        <time>2012-12-11T13:43:05.1Z</time>
      </trkpt>
      <trkpt lat="47.27763" lon="4.95556">
        <ele>379</ele>
        <time>2012-12-11T13:43:07.1Z</time>
      </trkpt>
      <trkpt lat="47.27762" lon="4.95553">
        <ele>379</ele>
        <time>2012-12-11T13:43:09.1Z</time>
      </trkpt>
      <trkpt lat="47.2776" lon="4.95553">
        <ele>380</ele>
        <time>2012-12-11T13:43:11.1Z</time>
      </trkpt>
      <trkpt lat="47.27759" lon="4.95551">
        <ele>380</ele>
        <time>2012-12-11T13:43:13.1Z</time>
      </trkpt>
      <trkpt lat="47.27757" lon="4.9555">
        <ele>380</ele>
        <time>2012-12-11T13:43:15.1Z</time>
      </trkpt>
      <trkpt lat="47.27755" lon="4.95548">
        <ele>380</ele>
        <time>2012-12-11T13:43:17.1Z</time>
      </trkpt>
      <trkpt lat="47.27753" lon="4.95547">
        <ele>380</ele>
        <time>2012-12-11T13:43:20.1Z</time>
      </trkpt>
      <trkpt lat="47.27751" lon="4.95546">
        <ele>380</ele>
        <time>2012-12-11T13:43:22.1Z</time>
      </trkpt>
      <trkpt lat="47.2775" lon="4.95545">
        <ele>381</ele>
        <time>2012-12-11T13:43:24.1Z</time>
      </trkpt>
      <trkpt lat="47.27747" lon="4.95544">
        <ele>381</ele>
        <time>2012-12-11T13:43:26.1Z</time>
      </trkpt>
      <trkpt lat="47.27745" lon="4.95543">
        <ele>382</ele>
        <time>2012-12-11T13:43:28.1Z</time>
      </trkpt>
      <trkpt lat="47.27742" lon="4.95541">
        <ele>382</ele>
        <time>2012-12-11T13:43:30.1Z</time>
      </trkpt>
      <trkpt lat="47.27741" lon="4.9554">
        <ele>383</ele>
        <time>2012-12-11T13:43:32.1Z</time>
      </trkpt>
      <trkpt lat="47.27739" lon="4.95538">
        <ele>383</ele>
        <time>2012-12-11T13:43:34.1Z</time>
      </trkpt>
      <trkpt lat="47.27737" lon="4.95536">
        <ele>383</ele>
        <time>2012-12-11T13:43:36.1Z</time>
      </trkpt>
      <trkpt lat="47.27735" lon="4.95534">
        <ele>383</ele>
        <time>2012-12-11T13:43:38.1Z</time>
      </trkpt>
      <trkpt lat="47.27733" lon="4.95531">
        <ele>383</ele>
        <time>2012-12-11T13:43:40.1Z</time>
      </trkpt>
      <trkpt lat="47.27732" lon="4.95529">
        <ele>384</ele>
        <time>2012-12-11T13:43:42.1Z</time>
      </trkpt>
      <trkpt lat="47.2773" lon="4.95527">
        <ele>384</ele>
        <time>2012-12-11T13:43:44.1Z</time>
      </trkpt>
      <trkpt lat="47.27729" lon="4.95525">
        <ele>384</ele>
        <time>2012-12-11T13:43:47.1Z</time>
      </trkpt>
      <trkpt lat="47.27727" lon="4.95523">
        <ele>385</ele>
        <time>2012-12-11T13:43:49.1Z</time>
      </trkpt>
      <trkpt lat="47.27724" lon="4.9552">
        <ele>385</ele>
        <time>2012-12-11T13:43:51.1Z</time>
      </trkpt>
      <trkpt lat="47.27722" lon="4.95517">
        <ele>385</ele>
        <time>2012-12-11T13:43:53.1Z</time>
      </trkpt>
      <trkpt lat="47.2772" lon="4.95515">
        <ele>386</ele>
        <time>2012-12-11T13:43:55.1Z</time>
      </trkpt>
      <trkpt lat="47.27718" lon="4.95513">
        <ele>386</ele>
        <time>2012-12-11T13:43:57.1Z</time>
      </trkpt>
      <trkpt lat="47.27717" lon="4.95512">
        <ele>386</ele>
        <time>2012-12-11T13:43:59.1Z</time>
      </trkpt>
      <trkpt lat="47.27715" lon="4.9551">
        <ele>386</ele>
        <time>2012-12-11T13:44:01.1Z</time>
      </trkpt>
      <trkpt lat="47.27713" lon="4.95508">
        <ele>386</ele>
        <time>2012-12-11T13:44:03.1Z</time>
      </trkpt>
      <trkpt lat="47.27711" lon="4.95506">
        <ele>386</ele>
        <time>2012-12-11T13:44:05.1Z</time>
      </trkpt>
      <trkpt lat="47.2771" lon="4.95503">
        <ele>387</ele>
        <time>2012-12-11T13:44:07.1Z</time>
      </trkpt>
      <trkpt lat="47.27708" lon="4.95501">
        <ele>387</ele>
        <time>2012-12-11T13:44:10.1Z</time>
      </trkpt>
      <trkpt lat="47.27707" lon="4.95498">
        <ele>387</ele>
        <time>2012-12-11T13:44:12.1Z</time>
      </trkpt>
      <trkpt lat="47.27706" lon="4.95495">
        <ele>388</ele>
        <time>2012-12-11T13:44:14.1Z</time>
      </trkpt>
      <trkpt lat="47.27704" lon="4.95492">
        <ele>388</ele>
        <time>2012-12-11T13:44:16.1Z</time>
      </trkpt>
      <trkpt lat="47.27702" lon="4.9549">
        <ele>388</ele>
        <time>2012-12-11T13:44:18.1Z</time>
      </trkpt>
      <trkpt lat="47.277" lon="4.95487">
        <ele>388</ele>
        <time>2012-12-11T13:44:20.1Z</time>
      </trkpt>
      <trkpt lat="47.27698" lon="4.95484">
        <ele>388</ele>
        <time>2012-12-11T13:44:22.1Z</time>
      </trkpt>
      <trkpt lat="47.27696" lon="4.95483">
        <ele>389</ele>
        <time>2012-12-11T13:44:24.1Z</time>
      </trkpt>
      <trkpt lat="47.27695" lon="4.95482">
        <ele>389</ele>
        <time>2012-12-11T13:44:26.1Z</time>
      </trkpt>
      <trkpt lat="47.27693" lon="4.9548">
        <ele>389</ele>
        <time>2012-12-11T13:44:28.1Z</time>
      </trkpt>
      <trkpt lat="47.27692" lon="4.95478">
        <ele>390</ele>
        <time>2012-12-11T13:44:31.1Z</time>
      </trkpt>
      <trkpt lat="47.2769" lon="4.95475">
        <ele>390</ele>
        <time>2012-12-11T13:44:33.1Z</time>
      </trkpt>
      <trkpt lat="47.27688" lon="4.95472">
        <ele>391</ele>
        <time>2012-12-11T13:44:35.1Z</time>
      </trkpt>
      <trkpt lat="47.27686" lon="4.9547">
        <ele>391</ele>
        <time>2012-12-11T13:44:37.1Z</time>
      </trkpt>
      <trkpt lat="47.27684" lon="4.95468">
        <ele>391</ele>
        <time>2012-12-11T13:44:39.1Z</time>
      </trkpt>
      <trkpt lat="47.27682" lon="4.95465">
        <ele>392</ele>
        <time>2012-12-11T13:44:41.1Z</time>
      </trkpt>
      <trkpt lat="47.2768" lon="4.95462">
        <ele>392</ele>
        <time>2012-12-11T13:44:44.1Z</time>
      </trkpt>
      <trkpt lat="47.27678" lon="4.9546">
        <ele>392</ele>
        <time>2012-12-11T13:44:46.1Z</time>
      </trkpt>
      <trkpt lat="47.27675" lon="4.95457">
        <ele>392</ele>
        <time>2012-12-11T13:44:48.1Z</time>
      </trkpt>
      <trkpt lat="47.27673" lon="4.95456">
        <ele>393</ele>
        <time>2012-12-11T13:44:50.1Z</time>
      </trkpt>
      <trkpt lat="47.27671" lon="4.95453">
        <ele>393</ele>
        <time>2012-12-11T13:44:52.1Z</time>
      </trkpt>
      <trkpt lat="47.27669" lon="4.95451">
        <ele>393</ele>
        <time>2012-12-11T13:44:54.1Z</time>
      </trkpt>
      <trkpt lat="47.27667" lon="4.95449">
        <ele>394</ele>
        <time>2012-12-11T13:44:57.1Z</time>
      </trkpt>
      <trkpt lat="47.27666" lon="4.95447">
        <ele>394</ele>
        <time>2012-12-11T13:44:59.1Z</time>
      </trkpt>
      <trkpt lat="47.27665" lon="4.95445">
        <ele>395</ele>
        <time>2012-12-11T13:45:01.1Z</time>
      </trkpt>
      <trkpt lat="47.27663" lon="4.95443">
        <ele>395</ele>
        <time>2012-12-11T13:45:03.1Z</time>
      </trkpt>
      <trkpt lat="47.27661" lon="4.9544">
        <ele>394</ele>
        <time>2012-12-11T13:45:05.1Z</time>
      </trkpt>
      <trkpt lat="47.27659" lon="4.95439">
        <ele>394</ele>
        <time>2012-12-11T13:45:07.1Z</time>
      </trkpt>
      <trkpt lat="47.27657" lon="4.95439">
        <ele>395</ele>
        <time>2012-12-11T13:45:09.1Z</time>
      </trkpt>
      <trkpt lat="47.27655" lon="4.95438">
        <ele>395</ele>
        <time>2012-12-11T13:45:11.1Z</time>
      </trkpt>
      <trkpt lat="47.27654" lon="4.95437">
        <ele>395</ele>
        <time>2012-12-11T13:45:13.1Z</time>
      </trkpt>
      <trkpt lat="47.27652" lon="4.95435">
        <ele>396</ele>
        <time>2012-12-11T13:45:15.1Z</time>
      </trkpt>
      <trkpt lat="47.2765" lon="4.95434">
        <ele>396</ele>
        <time>2012-12-11T13:45:17.1Z</time>
      </trkpt>
      <trkpt lat="47.27649" lon="4.95432">
        <ele>396</ele>
        <time>2012-12-11T13:45:19.1Z</time>
      </trkpt>
      <trkpt lat="47.27647" lon="4.95431">
        <ele>396</ele>
        <time>2012-12-11T13:45:21.1Z</time>
      </trkpt>
      <trkpt lat="47.27645" lon="4.95429">
        <ele>397</ele>
        <time>2012-12-11T13:45:23.1Z</time>
      </trkpt>
      <trkpt lat="47.27644" lon="4.95428">
        <ele>397</ele>
        <time>2012-12-11T13:45:25.1Z</time>
      </trkpt>
      <trkpt lat="47.27642" lon="4.95427">
        <ele>397</ele>
        <time>2012-12-11T13:45:27.1Z</time>
      </trkpt>
      <trkpt lat="47.27639" lon="4.95425">
        <ele>397</ele>
        <time>2012-12-11T13:45:30.1Z</time>
      </trkpt>
      <trkpt lat="47.27637" lon="4.95424">
        <ele>397</ele>
        <time>2012-12-11T13:45:32.1Z</time>
      </trkpt>
      <trkpt lat="47.27635" lon="4.95421">
        <ele>397</ele>
        <time>2012-12-11T13:45:34.1Z</time>
      </trkpt>
      <trkpt lat="47.27633" lon="4.95419">
        <ele>397</ele>
        <time>2012-12-11T13:45:36.1Z</time>
      </trkpt>
      <trkpt lat="47.27631" lon="4.95419">
        <ele>398</ele>
        <time>2012-12-11T13:45:38.1Z</time>
      </trkpt>
      <trkpt lat="47.2763" lon="4.95417">
        <ele>398</ele>
        <time>2012-12-11T13:45:40.1Z</time>
      </trkpt>
      <trkpt lat="47.27629" lon="4.95415">
        <ele>399</ele>
        <time>2012-12-11T13:45:42.1Z</time>
      </trkpt>
      <trkpt lat="47.27628" lon="4.95414">
        <ele>399</ele>
        <time>2012-12-11T13:45:45.1Z</time>
      </trkpt>
      <trkpt lat="47.27626" lon="4.95412">
        <ele>400</ele>
        <time>2012-12-11T13:45:47.1Z</time>
      </trkpt>
      <trkpt lat="47.27625" lon="4.9541">
        <ele>400</ele>
        <time>2012-12-11T13:45:49.1Z</time>
      </trkpt>
      <trkpt lat="47.27623" lon="4.95407">
        <ele>400</ele>
        <time>2012-12-11T13:45:51.1Z</time>
      </trkpt>
      <trkpt lat="47.27622" lon="4.95406">
        <ele>400</ele>
        <time>2012-12-11T13:45:53.1Z</time>
      </trkpt>
      <trkpt lat="47.27621" lon="4.95404">
        <ele>400</ele>
        <time>2012-12-11T13:45:55.1Z</time>
      </trkpt>
      <trkpt lat="47.27619" lon="4.95403">
        <ele>400</ele>
        <time>2012-12-11T13:45:57.1Z</time>
      </trkpt>
      <trkpt lat="47.27618" lon="4.95401">
        <ele>401</ele>
        <time>2012-12-11T13:45:59.1Z</time>
      </trkpt>
      <trkpt lat="47.27617" lon="4.95398">
        <ele>401</ele>
        <time>2012-12-11T13:46:01.1Z</time>
      </trkpt>
      <trkpt lat="47.27616" lon="4.95396">
        <ele>401</ele>
        <time>2012-12-11T13:46:03.1Z</time>
      </trkpt>
      <trkpt lat="47.27615" lon="4.95394">
        <ele>402</ele>
        <time>2012-12-11T13:46:05.1Z</time>
      </trkpt>
      <trkpt lat="47.27613" lon="4.95393">
        <ele>402</ele>
        <time>2012-12-11T13:46:08.1Z</time>
      </trkpt>
      <trkpt lat="47.27612" lon="4.95392">
        <ele>402</ele>
        <time>2012-12-11T13:46:10.1Z</time>
      </trkpt>
      <trkpt lat="47.27611" lon="4.95389">
        <ele>402</ele>
        <time>2012-12-11T13:46:12.1Z</time>
      </trkpt>
      <trkpt lat="47.27609" lon="4.95386">
        <ele>403</ele>
        <time>2012-12-11T13:46:14.1Z</time>
      </trkpt>
      <trkpt lat="47.27608" lon="4.95385">
        <ele>403</ele>
        <time>2012-12-11T13:46:16.1Z</time>
      </trkpt>
      <trkpt lat="47.27607" lon="4.95383">
        <ele>403</ele>
        <time>2012-12-11T13:46:18.1Z</time>
      </trkpt>
      <trkpt lat="47.27607" lon="4.95381">
        <ele>403</ele>
        <time>2012-12-11T13:46:20.1Z</time>
      </trkpt>
      <trkpt lat="47.27605" lon="4.9538">
        <ele>404</ele>
        <time>2012-12-11T13:46:22.1Z</time>
      </trkpt>
      <trkpt lat="47.27604" lon="4.95378">
        <ele>404</ele>
        <time>2012-12-11T13:46:24.1Z</time>
      </trkpt>
      <trkpt lat="47.27604" lon="4.95376">
        <ele>404</ele>
        <time>2012-12-11T13:46:26.1Z</time>
      </trkpt>
      <trkpt lat="47.27603" lon="4.95374">
        <ele>404</ele>
        <time>2012-12-11T13:46:28.1Z</time>
      </trkpt>
      <trkpt lat="47.27602" lon="4.95371">
        <ele>405</ele>
        <time>2012-12-11T13:46:30.1Z</time>
      </trkpt>
      <trkpt lat="47.27601" lon="4.95369">
        <ele>405</ele>
        <time>2012-12-11T13:46:33.1Z</time>
      </trkpt>
      <trkpt lat="47.276" lon="4.95367">
        <ele>405</ele>
        <time>2012-12-11T13:46:35.1Z</time>
      </trkpt>
      <trkpt lat="47.27599" lon="4.95364">
        <ele>406</ele>
        <time>2012-12-11T13:46:37.1Z</time>
      </trkpt>
      <trkpt lat="47.27597" lon="4.95361">
        <ele>406</ele>
        <time>2012-12-11T13:46:39.1Z</time>
      </trkpt>
      <trkpt lat="47.27597" lon="4.95358">
        <ele>407</ele>
        <time>2012-12-11T13:46:41.1Z</time>
      </trkpt>
      <trkpt lat="47.27595" lon="4.95354">
        <ele>407</ele>
        <time>2012-12-11T13:46:43.1Z</time>
      </trkpt>
      <trkpt lat="47.27594" lon="4.95351">
        <ele>407</ele>
        <time>2012-12-11T13:46:45.1Z</time>
      </trkpt>
      <trkpt lat="47.27591" lon="4.95347">
        <ele>407</ele>
        <time>2012-12-11T13:46:47.1Z</time>
      </trkpt>
      <trkpt lat="47.2759" lon="4.95344">
        <ele>408</ele>
        <time>2012-12-11T13:46:49.1Z</time>
      </trkpt>
      <trkpt lat="47.27589" lon="4.95342">
        <ele>408</ele>
        <time>2012-12-11T13:46:51.1Z</time>
      </trkpt>
      <trkpt lat="47.27588" lon="4.95339">
        <ele>408</ele>
        <time>2012-12-11T13:46:53.1Z</time>
      </trkpt>
      <trkpt lat="47.27587" lon="4.95337">
        <ele>408</ele>
        <time>2012-12-11T13:46:55.1Z</time>
      </trkpt>
      <trkpt lat="47.27586" lon="4.95335">
        <ele>408</ele>
        <time>2012-12-11T13:46:58.1Z</time>
      </trkpt>
      <trkpt lat="47.27584" lon="4.95333">
        <ele>408</ele>
        <time>2012-12-11T13:47:00.1Z</time>
      </trkpt>
      <trkpt lat="47.27582" lon="4.95329">
        <ele>408</ele>
        <time>2012-12-11T13:47:02.1Z</time>
      </trkpt>
      <trkpt lat="47.27581" lon="4.95326">
        <ele>409</ele>
        <time>2012-12-11T13:47:04.1Z</time>
      </trkpt>
      <trkpt lat="47.27579" lon="4.95323">
        <ele>409</ele>
        <time>2012-12-11T13:47:06.1Z</time>
      </trkpt>
      <trkpt lat="47.27578" lon="4.95321">
        <ele>409</ele>
        <time>2012-12-11T13:47:08.1Z</time>
      </trkpt>
      <trkpt lat="47.27576" lon="4.9532">
        <ele>409</ele>
        <time>2012-12-11T13:47:10.1Z</time>
      </trkpt>
      <trkpt lat="47.27574" lon="4.95318">
        <ele>410</ele>
        <time>2012-12-11T13:47:12.1Z</time>
      </trkpt>
      <trkpt lat="47.27573" lon="4.95316">
        <ele>410</ele>
        <time>2012-12-11T13:47:14.1Z</time>
      </trkpt>
      <trkpt lat="47.27571" lon="4.95314">
        <ele>410</ele>
        <time>2012-12-11T13:47:17.1Z</time>
      </trkpt>
      <trkpt lat="47.2757" lon="4.95313">
        <ele>411</ele>
        <time>2012-12-11T13:47:19.1Z</time>
      </trkpt>
      <trkpt lat="47.27567" lon="4.95309">
        <ele>411</ele>
        <time>2012-12-11T13:47:21.1Z</time>
      </trkpt>
      <trkpt lat="47.27566" lon="4.95308">
        <ele>411</ele>
        <time>2012-12-11T13:47:23.1Z</time>
      </trkpt>
      <trkpt lat="47.27564" lon="4.95306">
        <ele>411</ele>
        <time>2012-12-11T13:47:25.1Z</time>
      </trkpt>
      <trkpt lat="47.27562" lon="4.95304">
        <ele>412</ele>
        <time>2012-12-11T13:47:27.1Z</time>
      </trkpt>
      <trkpt lat="47.27562" lon="4.95302">
        <ele>412</ele>
        <time>2012-12-11T13:47:29.1Z</time>
      </trkpt>
      <trkpt lat="47.2756" lon="4.953">
        <ele>413</ele>
        <time>2012-12-11T13:47:32.1Z</time>
      </trkpt>
      <trkpt lat="47.27558" lon="4.95297">
        <ele>413</ele>
        <time>2012-12-11T13:47:34.1Z</time>
      </trkpt>
      <trkpt lat="47.27555" lon="4.95293">
        <ele>413</ele>
        <time>2012-12-11T13:47:36.1Z</time>
      </trkpt>
      <trkpt lat="47.27554" lon="4.95291">
        <ele>414</ele>
        <time>2012-12-11T13:47:38.1Z</time>
      </trkpt>
      <trkpt lat="47.27554" lon="4.9529">
        <ele>414</ele>
        <time>2012-12-11T13:47:40.1Z</time>
      </trkpt>
      <trkpt lat="47.27553" lon="4.95289">
        <ele>414</ele>
        <time>2012-12-11T13:47:42.1Z</time>
      </trkpt>
      <trkpt lat="47.27552" lon="4.95287">
        <ele>415</ele>
        <time>2012-12-11T13:47:44.1Z</time>
      </trkpt>
      <trkpt lat="47.27551" lon="4.95286">
        <ele>415</ele>
        <time>2012-12-11T13:47:46.1Z</time>
      </trkpt>
      <trkpt lat="47.27549" lon="4.95284">
        <ele>416</ele>
        <time>2012-12-11T13:47:48.1Z</time>
      </trkpt>
      <trkpt lat="47.27547" lon="4.95283">
        <ele>416</ele>
        <time>2012-12-11T13:47:50.1Z</time>
      </trkpt>
      <trkpt lat="47.27545" lon="4.95281">
        <ele>416</ele>
        <time>2012-12-11T13:47:52.1Z</time>
      </trkpt>
      <trkpt lat="47.27544" lon="4.95279">
        <ele>417</ele>
        <time>2012-12-11T13:47:54.1Z</time>
      </trkpt>
      <trkpt lat="47.27543" lon="4.95279">
        <ele>417</ele>
        <time>2012-12-11T13:47:56.1Z</time>
      </trkpt>
      <trkpt lat="47.27542" lon="4.95278">
        <ele>418</ele>
        <time>2012-12-11T13:47:58.1Z</time>
      </trkpt>
      <trkpt lat="47.27542" lon="4.95278">
        <ele>418</ele>
        <time>2012-12-11T13:48:00.1Z</time>
      </trkpt>
      <trkpt lat="47.27541" lon="4.95276">
        <ele>419</ele>
        <time>2012-12-11T13:48:02.1Z</time>
      </trkpt>
      <trkpt lat="47.27541" lon="4.95276">
        <ele>419</ele>
        <time>2012-12-11T13:48:05.1Z</time>
      </trkpt>
      <trkpt lat="47.2754" lon="4.95275">
        <ele>419</ele>
        <time>2012-12-11T13:48:07.1Z</time>
      </trkpt>
      <trkpt lat="47.27539" lon="4.95274">
        <ele>420</ele>
        <time>2012-12-11T13:48:09.1Z</time>
      </trkpt>
      <trkpt lat="47.27538" lon="4.95274">
        <ele>420</ele>
        <time>2012-12-11T13:48:11.1Z</time>
      </trkpt>
      <trkpt lat="47.27537" lon="4.95273">
        <ele>419</ele>
        <time>2012-12-11T13:48:13.1Z</time>
      </trkpt>
      <trkpt lat="47.27536" lon="4.95273">
        <ele>419</ele>
        <time>2012-12-11T13:48:15.1Z</time>
      </trkpt>
      <trkpt lat="47.27535" lon="4.95272">
        <ele>420</ele>
        <time>2012-12-11T13:48:17.1Z</time>
      </trkpt>
      <trkpt lat="47.27534" lon="4.95271">
        <ele>420</ele>
        <time>2012-12-11T13:48:20.1Z</time>
      </trkpt>
      <trkpt lat="47.27533" lon="4.95271">
        <ele>421</ele>
        <time>2012-12-11T13:48:22.1Z</time>
      </trkpt>
      <trkpt lat="47.27532" lon="4.9527">
        <ele>421</ele>
        <time>2012-12-11T13:48:24.1Z</time>
      </trkpt>
      <trkpt lat="47.27533" lon="4.9527">
        <ele>422</ele>
        <time>2012-12-11T13:48:26.1Z</time>
      </trkpt>
      <trkpt lat="47.27533" lon="4.95269">
        <ele>422</ele>
        <time>2012-12-11T13:48:28.1Z</time>
      </trkpt>
      <trkpt lat="47.27533" lon="4.95269">
        <ele>421</ele>
        <time>2012-12-11T13:48:30.1Z</time>
      </trkpt>
      <trkpt lat="47.27534" lon="4.95269">
        <ele>421</ele>
        <time>2012-12-11T13:48:33.1Z</time>
      </trkpt>
      <trkpt lat="47.27533" lon="4.95269">
        <ele>421</ele>
        <time>2012-12-11T13:48:35.1Z</time>
      </trkpt>
      <trkpt lat="47.27533" lon="4.95268">
        <ele>422</ele>
        <time>2012-12-11T13:48:37.1Z</time>
      </trkpt>
      <trkpt lat="47.27533" lon="4.95268">
        <ele>422</ele>
        <time>2012-12-11T13:48:39.1Z</time>
      </trkpt>
      <trkpt lat="47.27532" lon="4.95267">
        <ele>423</ele>
        <time>2012-12-11T13:48:41.1Z</time>
      </trkpt>
      <trkpt lat="47.27532" lon="4.95266">
        <ele>423</ele>
        <time>2012-12-11T13:48:43.1Z</time>
      </trkpt>
      <trkpt lat="47.27532" lon="4.95265">
        <ele>423</ele>
        <time>2012-12-11T13:48:45.1Z</time>
      </trkpt>
      <trkpt lat="47.27531" lon="4.95263">
        <ele>423</ele>
        <time>2012-12-11T13:48:47.1Z</time>
      </trkpt>
      <trkpt lat="47.27531" lon="4.95262">
        <ele>423</ele>
        <time>2012-12-11T13:48:49.1Z</time>
      </trkpt>
      <trkpt lat="47.27529" lon="4.95261">
        <ele>423</ele>
        <time>2012-12-11T13:48:51.1Z</time>
      </trkpt>
      <trkpt lat="47.27528" lon="4.9526">
        <ele>422</ele>
        <time>2012-12-11T13:48:53.1Z</time>
      </trkpt>
      <trkpt lat="47.27525" lon="4.95259">
        <ele>422</ele>
        <time>2012-12-11T13:48:55.1Z</time>
      </trkpt>
      <trkpt lat="47.27524" lon="4.95257">
        <ele>423</ele>
        <time>2012-12-11T13:48:57.1Z</time>
      </trkpt>
      <trkpt lat="47.27522" lon="4.95255">
        <ele>423</ele>
        <time>2012-12-11T13:49:00.1Z</time>
      </trkpt>
      <trkpt lat="47.27521" lon="4.95253">
        <ele>423</ele>
        <time>2012-12-11T13:49:02.1Z</time>
      </trkpt>
      <trkpt lat="47.27518" lon="4.95251">
        <ele>423</ele>
        <time>2012-12-11T13:49:04.1Z</time>
      </trkpt>
      <trkpt lat="47.27517" lon="4.9525">
        <ele>423</ele>
        <time>2012-12-11T13:49:06.1Z</time>
      </trkpt>
      <trkpt lat="47.27515" lon="4.95248">
        <ele>424</ele>
        <time>2012-12-11T13:49:08.1Z</time>
      </trkpt>
      <trkpt lat="47.27513" lon="4.95246">
        <ele>424</ele>
        <time>2012-12-11T13:49:10.1Z</time>
      </trkpt>
      <trkpt lat="47.27512" lon="4.95245">
        <ele>424</ele>
        <time>2012-12-11T13:49:12.1Z</time>
      </trkpt>
      <trkpt lat="47.2751" lon="4.95245">
        <ele>425</ele>
        <time>2012-12-11T13:49:14.1Z</time>
      </trkpt>
      <trkpt lat="47.27508" lon="4.95245">
        <ele>425</ele>
        <time>2012-12-11T13:49:16.1Z</time>
      </trkpt>
      <trkpt lat="47.27506" lon="4.95244">
        <ele>425</ele>
        <time>2012-12-11T13:49:18.1Z</time>
      </trkpt>
      <trkpt lat="47.27505" lon="4.95243">
        <ele>425</ele>
        <time>2012-12-11T13:49:20.1Z</time>
      </trkpt>
      <trkpt lat="47.27504" lon="4.95241">
        <ele>425</ele>
        <time>2012-12-11T13:49:22.1Z</time>
      </trkpt>
      <trkpt lat="47.27503" lon="4.9524">
        <ele>426</ele>
        <time>2012-12-11T13:49:24.1Z</time>
      </trkpt>
      <trkpt lat="47.27503" lon="4.95238">
        <ele>426</ele>
        <time>2012-12-11T13:49:26.1Z</time>
      </trkpt>
      <trkpt lat="47.27504" lon="4.95236">
        <ele>427</ele>
        <time>2012-12-11T13:49:28.1Z</time>
      </trkpt>
      <trkpt lat="47.27504" lon="4.95234">
        <ele>428</ele>
        <time>2012-12-11T13:49:30.1Z</time>
      </trkpt>
      <trkpt lat="47.27504" lon="4.95233">
        <ele>428</ele>
        <time>2012-12-11T13:49:33.1Z</time>
      </trkpt>
      <trkpt lat="47.27504" lon="4.95232">
        <ele>429</ele>
        <time>2012-12-11T13:49:35.1Z</time>
      </trkpt>
      <trkpt lat="47.27502" lon="4.9523">
        <ele>429</ele>
        <time>2012-12-11T13:49:37.1Z</time>
      </trkpt>
      <trkpt lat="47.27502" lon="4.95228">
        <ele>430</ele>
        <time>2012-12-11T13:49:39.1Z</time>
      </trkpt>
      <trkpt lat="47.27502" lon="4.95228">
        <ele>430</ele>
        <time>2012-12-11T13:49:41.1Z</time>
      </trkpt>
      <trkpt lat="47.27502" lon="4.95227">
        <ele>430</ele>
        <time>2012-12-11T13:49:43.1Z</time>
      </trkpt>
      <trkpt lat="47.27502" lon="4.95226">
        <ele>430</ele>
        <time>2012-12-11T13:49:45.1Z</time>
      </trkpt>
      <trkpt lat="47.27502" lon="4.95226">
        <ele>430</ele>
        <time>2012-12-11T13:49:48.1Z</time>
      </trkpt>
      <trkpt lat="47.27502" lon="4.95226">
        <ele>430</ele>
        <time>2012-12-11T13:49:50.1Z</time>
      </trkpt>
      <trkpt lat="47.27503" lon="4.95224">
        <ele>429</ele>
        <time>2012-12-11T13:49:52.1Z</time>
      </trkpt>
      <trkpt lat="47.27503" lon="4.95224">
        <ele>430</ele>
        <time>2012-12-11T13:49:54.1Z</time>
      </trkpt>
      <trkpt lat="47.27502" lon="4.95223">
        <ele>429</ele>
        <time>2012-12-11T13:49:56.1Z</time>
      </trkpt>
      <trkpt lat="47.27502" lon="4.95223">
        <ele>430</ele>
        <time>2012-12-11T13:49:58.1Z</time>
      </trkpt>
      <trkpt lat="47.27502" lon="4.95223">
        <ele>430</ele>
        <time>2012-12-11T13:50:00.1Z</time>
      </trkpt>
      <trkpt lat="47.27501" lon="4.95222">
        <ele>430</ele>
        <time>2012-12-11T13:50:02.1Z</time>
      </trkpt>
      <trkpt lat="47.27501" lon="4.95222">
        <ele>430</ele>
        <time>2012-12-11T13:50:04.1Z</time>
      </trkpt>
      <trkpt lat="47.27501" lon="4.95222">
        <ele>430</ele>
        <time>2012-12-11T13:50:06.1Z</time>
      </trkpt>
      <trkpt lat="47.27501" lon="4.95222">
        <ele>430</ele>
        <time>2012-12-11T13:50:08.1Z</time>
      </trkpt>
      <trkpt lat="47.27501" lon="4.95222">
        <ele>430</ele>
        <time>2012-12-11T13:50:10.1Z</time>
      </trkpt>
      <trkpt lat="47.27501" lon="4.95222">
        <ele>430</ele>
        <time>2012-12-11T13:50:12.1Z</time>
      </trkpt>
      <trkpt lat="47.275" lon="4.95222">
        <ele>430</ele>
        <time>2012-12-11T13:50:14.1Z</time>
      </trkpt>
      <trkpt lat="47.27499" lon="4.95222">
        <ele>430</ele>
        <time>2012-12-11T13:50:17.1Z</time>
      </trkpt>
      <trkpt lat="47.27499" lon="4.95221">
        <ele>430</ele>
        <time>2012-12-11T13:50:19.1Z</time>
      </trkpt>
      <trkpt lat="47.27498" lon="4.95221">
        <ele>430</ele>
        <time>2012-12-11T13:50:21.1Z</time>
      </trkpt>
      <trkpt lat="47.27498" lon="4.95221">
        <ele>430</ele>
        <time>2012-12-11T13:50:23.1Z</time>
      </trkpt>
      <trkpt lat="47.27498" lon="4.9522">
        <ele>430</ele>
        <time>2012-12-11T13:50:25.1Z</time>
      </trkpt>
      <trkpt lat="47.27497" lon="4.95221">
        <ele>430</ele>
        <time>2012-12-11T13:50:28.1Z</time>
      </trkpt>
      <trkpt lat="47.27497" lon="4.95221">
        <ele>429</ele>
        <time>2012-12-11T13:50:30.1Z</time>
      </trkpt>
      <trkpt lat="47.27496" lon="4.95221">
        <ele>429</ele>
        <time>2012-12-11T13:50:32.1Z</time>
      </trkpt>
      <trkpt lat="47.27496" lon="4.95222">
        <ele>429</ele>
        <time>2012-12-11T13:50:34.1Z</time>
      </trkpt>
      <trkpt lat="47.27496" lon="4.95222">
        <ele>430</ele>
        <time>2012-12-11T13:50:36.1Z</time>
      </trkpt>
      <trkpt lat="47.27496" lon="4.95223">
        <ele>430</ele>
        <time>2012-12-11T13:50:38.1Z</time>
      </trkpt>
      <trkpt lat="47.27495" lon="4.95222">
        <ele>430</ele>
        <time>2012-12-11T13:50:40.1Z</time>
      </trkpt>
      <trkpt lat="47.27495" lon="4.95222">
        <ele>430</ele>
        <time>2012-12-11T13:50:42.1Z</time>
      </trkpt>
      <trkpt lat="47.27495" lon="4.95221">
        <ele>430</ele>
        <time>2012-12-11T13:50:44.1Z</time>
      </trkpt>
      <trkpt lat="47.27495" lon="4.95221">
        <ele>430</ele>
        <time>2012-12-11T13:50:46.1Z</time>
      </trkpt>
      <trkpt lat="47.27496" lon="4.95221">
        <ele>430</ele>
        <time>2012-12-11T13:50:48.1Z</time>
      </trkpt>
      <trkpt lat="47.27496" lon="4.95221">
        <ele>430</ele>
        <time>2012-12-11T13:50:50.1Z</time>
      </trkpt>
      <trkpt lat="47.27496" lon="4.9522">
        <ele>430</ele>
        <time>2012-12-11T13:50:53.1Z</time>
      </trkpt>
      <trkpt lat="47.27496" lon="4.95219">
        <ele>430</ele>
        <time>2012-12-11T13:50:55.1Z</time>
      </trkpt>
      <trkpt lat="47.27496" lon="4.95217">
        <ele>430</ele>
        <time>2012-12-11T13:50:57.1Z</time>
      </trkpt>
      <trkpt lat="47.27497" lon="4.95217">
        <ele>430</ele>
        <time>2012-12-11T13:50:59.1Z</time>
      </trkpt>
      <trkpt lat="47.27497" lon="4.95217">
        <ele>430</ele>
        <time>2012-12-11T13:51:01.1Z</time>
      </trkpt>
      <trkpt lat="47.27497" lon="4.95218">
        <ele>430</ele>
        <time>2012-12-11T13:51:03.1Z</time>
      </trkpt>
      <trkpt lat="47.27501" lon="4.95211">
        <ele>429</ele>
        <time>2012-12-11T13:51:05.1Z</time>
      </trkpt>
      <trkpt lat="47.27501" lon="4.95208">
        <ele>429</ele>
        <time>2012-12-11T13:51:08.1Z</time>
      </trkpt>
      <trkpt lat="47.27502" lon="4.95206">
        <ele>429</ele>
        <time>2012-12-11T13:51:10.1Z</time>
      </trkpt>
      <trkpt lat="47.27502" lon="4.95204">
        <ele>429</ele>
        <time>2012-12-11T13:51:12.1Z</time>
      </trkpt>
      <trkpt lat="47.27503" lon="4.95203">
        <ele>429</ele>
        <time>2012-12-11T13:51:14.1Z</time>
      </trkpt>
      <trkpt lat="47.27503" lon="4.95202">
        <ele>429</ele>
        <time>2012-12-11T13:51:16.1Z</time>
      </trkpt>
      <trkpt lat="47.27502" lon="4.95201">
        <ele>429</ele>
        <time>2012-12-11T13:51:18.1Z</time>
      </trkpt>
      <trkpt lat="47.27502" lon="4.95199">
        <ele>430</ele>
        <time>2012-12-11T13:51:20.1Z</time>
      </trkpt>
      <trkpt lat="47.27501" lon="4.95197">
        <ele>430</ele>
        <time>2012-12-11T13:51:22.1Z</time>
      </trkpt>
      <trkpt lat="47.27501" lon="4.95195">
        <ele>430</ele>
        <time>2012-12-11T13:51:24.1Z</time>
      </trkpt>
      <trkpt lat="47.275" lon="4.95194">
        <ele>430</ele>
        <time>2012-12-11T13:51:27.1Z</time>
      </trkpt>
      <trkpt lat="47.275" lon="4.95192">
        <ele>431</ele>
        <time>2012-12-11T13:51:29.1Z</time>
      </trkpt>
      <trkpt lat="47.27499" lon="4.9519">
        <ele>431</ele>
        <time>2012-12-11T13:51:31.1Z</time>
      </trkpt>
      <trkpt lat="47.27499" lon="4.95189">
        <ele>431</ele>
        <time>2012-12-11T13:51:33.1Z</time>
      </trkpt>
      <trkpt lat="47.27498" lon="4.95187">
        <ele>431</ele>
        <time>2012-12-11T13:51:35.1Z</time>
      </trkpt>
      <trkpt lat="47.27498" lon="4.95184">
        <ele>432</ele>
        <time>2012-12-11T13:51:37.1Z</time>
      </trkpt>
      <trkpt lat="47.27498" lon="4.95182">
        <ele>432</ele>
        <time>2012-12-11T13:51:39.1Z</time>
      </trkpt>
      <trkpt lat="47.27497" lon="4.95181">
        <ele>432</ele>
        <time>2012-12-11T13:51:42.1Z</time>
      </trkpt>
      <trkpt lat="47.27497" lon="4.95179">
        <ele>432</ele>
        <time>2012-12-11T13:51:44.1Z</time>
      </trkpt>
      <trkpt lat="47.27497" lon="4.95176">
        <ele>432</ele>
        <time>2012-12-11T13:51:46.1Z</time>
      </trkpt>
      <trkpt lat="47.27497" lon="4.95175">
        <ele>433</ele>
        <time>2012-12-11T13:51:48.1Z</time>
      </trkpt>
      <trkpt lat="47.27497" lon="4.95173">
        <ele>433</ele>
        <time>2012-12-11T13:51:50.1Z</time>
      </trkpt>
      <trkpt lat="47.27497" lon="4.9517">
        <ele>433</ele>
        <time>2012-12-11T13:51:52.1Z</time>
      </trkpt>
      <trkpt lat="47.27497" lon="4.95166">
        <ele>434</ele>
        <time>2012-12-11T13:51:54.1Z</time>
      </trkpt>
      <trkpt lat="47.27496" lon="4.95162">
        <ele>434</ele>
        <time>2012-12-11T13:51:56.1Z</time>
      </trkpt>
      <trkpt lat="47.27496" lon="4.95159">
        <ele>434</ele>
        <time>2012-12-11T13:51:58.1Z</time>
      </trkpt>
      <trkpt lat="47.27496" lon="4.95156">
        <ele>435</ele>
        <time>2012-12-11T13:52:00.1Z</time>
      </trkpt>
      <trkpt lat="47.27496" lon="4.95153">
        <ele>435</ele>
        <time>2012-12-11T13:52:03.1Z</time>
      </trkpt>
      <trkpt lat="47.27496" lon="4.9515">
        <ele>435</ele>
        <time>2012-12-11T13:52:05.1Z</time>
      </trkpt>
      <trkpt lat="47.27496" lon="4.95148">
        <ele>435</ele>
        <time>2012-12-11T13:52:07.1Z</time>
      </trkpt>
      <trkpt lat="47.27496" lon="4.95146">
        <ele>435</ele>
        <time>2012-12-11T13:52:09.1Z</time>
      </trkpt>
      <trkpt lat="47.27497" lon="4.95144">
        <ele>435</ele>
        <time>2012-12-11T13:52:11.1Z</time>
      </trkpt>
      <trkpt lat="47.27497" lon="4.95142">
        <ele>436</ele>
        <time>2012-12-11T13:52:13.1Z</time>
      </trkpt>
      <trkpt lat="47.27497" lon="4.95138">
        <ele>436</ele>
        <time>2012-12-11T13:52:15.1Z</time>
      </trkpt>
      <trkpt lat="47.27497" lon="4.95135">
        <ele>436</ele>
        <time>2012-12-11T13:52:17.1Z</time>
      </trkpt>
      <trkpt lat="47.27497" lon="4.95135">
        <ele>437</ele>
        <time>2012-12-11T13:52:19.1Z</time>
      </trkpt>
      <trkpt lat="47.27496" lon="4.95133">
        <ele>437</ele>
        <time>2012-12-11T13:52:21.1Z</time>
      </trkpt>
      <trkpt lat="47.27496" lon="4.9513">
        <ele>437</ele>
        <time>2012-12-11T13:52:23.1Z</time>
      </trkpt>
      <trkpt lat="47.27496" lon="4.95127">
        <ele>437</ele>
        <time>2012-12-11T13:52:25.1Z</time>
      </trkpt>
      <trkpt lat="47.27496" lon="4.95125">
        <ele>437</ele>
        <time>2012-12-11T13:52:27.1Z</time>
      </trkpt>
      <trkpt lat="47.27496" lon="4.95121">
        <ele>437</ele>
        <time>2012-12-11T13:52:30.1Z</time>
      </trkpt>
      <trkpt lat="47.27495" lon="4.95119">
        <ele>437</ele>
        <time>2012-12-11T13:52:32.1Z</time>
      </trkpt>
      <trkpt lat="47.27495" lon="4.95116">
        <ele>438</ele>
        <time>2012-12-11T13:52:34.1Z</time>
      </trkpt>
      <trkpt lat="47.27494" lon="4.95112">
        <ele>438</ele>
        <time>2012-12-11T13:52:36.1Z</time>
      </trkpt>
      <trkpt lat="47.27494" lon="4.9511">
        <ele>438</ele>
        <time>2012-12-11T13:52:38.1Z</time>
      </trkpt>
      <trkpt lat="47.27493" lon="4.95107">
        <ele>438</ele>
        <time>2012-12-11T13:52:40.1Z</time>
      </trkpt>
      <trkpt lat="47.27492" lon="4.95105">
        <ele>438</ele>
        <time>2012-12-11T13:52:42.1Z</time>
      </trkpt>
      <trkpt lat="47.27492" lon="4.95102">
        <ele>439</ele>
        <time>2012-12-11T13:52:44.1Z</time>
      </trkpt>
      <trkpt lat="47.27491" lon="4.95099">
        <ele>439</ele>
        <time>2012-12-11T13:52:46.1Z</time>
      </trkpt>
      <trkpt lat="47.27491" lon="4.95093">
        <ele>439</ele>
        <time>2012-12-11T13:52:48.1Z</time>
      </trkpt>
      <trkpt lat="47.27491" lon="4.9509">
        <ele>439</ele>
        <time>2012-12-11T13:52:50.1Z</time>
      </trkpt>
      <trkpt lat="47.2749" lon="4.95087">
        <ele>440</ele>
        <time>2012-12-11T13:52:53.1Z</time>
      </trkpt>
      <trkpt lat="47.2749" lon="4.95084">
        <ele>440</ele>
        <time>2012-12-11T13:52:55.1Z</time>
      </trkpt>
      <trkpt lat="47.27489" lon="4.95081">
        <ele>440</ele>
        <time>2012-12-11T13:52:57.1Z</time>
      </trkpt>
      <trkpt lat="47.27489" lon="4.95079">
        <ele>440</ele>
        <time>2012-12-11T13:52:59.1Z</time>
      </trkpt>
      <trkpt lat="47.27489" lon="4.95074">
        <ele>441</ele>
        <time>2012-12-11T13:53:01.1Z</time>
      </trkpt>
      <trkpt lat="47.27489" lon="4.95071">
        <ele>441</ele>
        <time>2012-12-11T13:53:03.1Z</time>
      </trkpt>
      <trkpt lat="47.27488" lon="4.95067">
        <ele>441</ele>
        <time>2012-12-11T13:53:06.1Z</time>
      </trkpt>
      <trkpt lat="47.27488" lon="4.95064">
        <ele>441</ele>
        <time>2012-12-11T13:53:08.1Z</time>
      </trkpt>
      <trkpt lat="47.27488" lon="4.9506">
        <ele>442</ele>
        <time>2012-12-11T13:53:10.1Z</time>
      </trkpt>
      <trkpt lat="47.27487" lon="4.95058">
        <ele>442</ele>
        <time>2012-12-11T13:53:12.1Z</time>
      </trkpt>
      <trkpt lat="47.27487" lon="4.95055">
        <ele>442</ele>
        <time>2012-12-11T13:53:14.1Z</time>
      </trkpt>
      <trkpt lat="47.27487" lon="4.95053">
        <ele>443</ele>
        <time>2012-12-11T13:53:16.1Z</time>
      </trkpt>
      <trkpt lat="47.27487" lon="4.95051">
        <ele>443</ele>
        <time>2012-12-11T13:53:18.1Z</time>
      </trkpt>
      <trkpt lat="47.27487" lon="4.95049">
        <ele>443</ele>
        <time>2012-12-11T13:53:20.1Z</time>
      </trkpt>
      <trkpt lat="47.27486" lon="4.95046">
        <ele>444</ele>
        <time>2012-12-11T13:53:22.1Z</time>
      </trkpt>
      <trkpt lat="47.27486" lon="4.95045">
        <ele>444</ele>
        <time>2012-12-11T13:53:24.1Z</time>
      </trkpt>
      <trkpt lat="47.27485" lon="4.95043">
        <ele>444</ele>
        <time>2012-12-11T13:53:26.1Z</time>
      </trkpt>
      <trkpt lat="47.27485" lon="4.95042">
        <ele>445</ele>
        <time>2012-12-11T13:53:28.1Z</time>
      </trkpt>
      <trkpt lat="47.27484" lon="4.9504">
        <ele>445</ele>
        <time>2012-12-11T13:53:30.1Z</time>
      </trkpt>
      <trkpt lat="47.27483" lon="4.95037">
        <ele>445</ele>
        <time>2012-12-11T13:53:32.1Z</time>
      </trkpt>
      <trkpt lat="47.27481" lon="4.95034">
        <ele>446</ele>
        <time>2012-12-11T13:53:34.1Z</time>
      </trkpt>
      <trkpt lat="47.2748" lon="4.95032">
        <ele>446</ele>
        <time>2012-12-11T13:53:36.1Z</time>
      </trkpt>
      <trkpt lat="47.2748" lon="4.95029">
        <ele>446</ele>
        <time>2012-12-11T13:53:39.1Z</time>
      </trkpt>
      <trkpt lat="47.2748" lon="4.95027">
        <ele>447</ele>
        <time>2012-12-11T13:53:41.1Z</time>
      </trkpt>
      <trkpt lat="47.27479" lon="4.95024">
        <ele>447</ele>
        <time>2012-12-11T13:53:43.1Z</time>
      </trkpt>
      <trkpt lat="47.27479" lon="4.95022">
        <ele>447</ele>
        <time>2012-12-11T13:53:45.1Z</time>
      </trkpt>
      <trkpt lat="47.27479" lon="4.95019">
        <ele>448</ele>
        <time>2012-12-11T13:53:47.1Z</time>
      </trkpt>
      <trkpt lat="47.27479" lon="4.95014">
        <ele>448</ele>
        <time>2012-12-11T13:53:49.1Z</time>
      </trkpt>
      <trkpt lat="47.27479" lon="4.95012">
        <ele>448</ele>
        <time>2012-12-11T13:53:51.1Z</time>
      </trkpt>
      <trkpt lat="47.27479" lon="4.95011">
        <ele>448</ele>
        <time>2012-12-11T13:53:53.1Z</time>
      </trkpt>
      <trkpt lat="47.27479" lon="4.95008">
        <ele>449</ele>
        <time>2012-12-11T13:53:55.1Z</time>
      </trkpt>
      <trkpt lat="47.27479" lon="4.95005">
        <ele>449</ele>
        <time>2012-12-11T13:53:57.1Z</time>
      </trkpt>
      <trkpt lat="47.27479" lon="4.95002">
        <ele>450</ele>
        <time>2012-12-11T13:53:59.1Z</time>
      </trkpt>
      <trkpt lat="47.27479" lon="4.94999">
        <ele>451</ele>
        <time>2012-12-11T13:54:01.1Z</time>
      </trkpt>
      <trkpt lat="47.27478" lon="4.94996">
        <ele>451</ele>
        <time>2012-12-11T13:54:03.1Z</time>
      </trkpt>
      <trkpt lat="47.27478" lon="4.94993">
        <ele>451</ele>
        <time>2012-12-11T13:54:06.1Z</time>
      </trkpt>
      <trkpt lat="47.27478" lon="4.94991">
        <ele>451</ele>
        <time>2012-12-11T13:54:08.1Z</time>
      </trkpt>
      <trkpt lat="47.27478" lon="4.94989">
        <ele>451</ele>
        <time>2012-12-11T13:54:10.1Z</time>
      </trkpt>
      <trkpt lat="47.27478" lon="4.94986">
        <ele>452</ele>
        <time>2012-12-11T13:54:12.1Z</time>
      </trkpt>
      <trkpt lat="47.27478" lon="4.94983">
        <ele>452</ele>
        <time>2012-12-11T13:54:14.1Z</time>
      </trkpt>
      <trkpt lat="47.27478" lon="4.9498">
        <ele>452</ele>
        <time>2012-12-11T13:54:16.1Z</time>
      </trkpt>
      <trkpt lat="47.27477" lon="4.94977">
        <ele>453</ele>
        <time>2012-12-11T13:54:18.1Z</time>
      </trkpt>
      <trkpt lat="47.27476" lon="4.94974">
        <ele>453</ele>
        <time>2012-12-11T13:54:20.1Z</time>
      </trkpt>
      <trkpt lat="47.27475" lon="4.9497">
        <ele>453</ele>
        <time>2012-12-11T13:54:22.1Z</time>
      </trkpt>
      <trkpt lat="47.27475" lon="4.94966">
        <ele>454</ele>
        <time>2012-12-11T13:54:24.1Z</time>
      </trkpt>
      <trkpt lat="47.27473" lon="4.94962">
        <ele>454</ele>
        <time>2012-12-11T13:54:26.1Z</time>
      </trkpt>
      <trkpt lat="47.27472" lon="4.94958">
        <ele>454</ele>
        <time>2012-12-11T13:54:28.1Z</time>
      </trkpt>
      <trkpt lat="47.27471" lon="4.94955">
        <ele>454</ele>
        <time>2012-12-11T13:54:30.1Z</time>
      </trkpt>
      <trkpt lat="47.2747" lon="4.94952">
        <ele>453</ele>
        <time>2012-12-11T13:54:32.1Z</time>
      </trkpt>
      <trkpt lat="47.2747" lon="4.94948">
        <ele>454</ele>
        <time>2012-12-11T13:54:34.1Z</time>
      </trkpt>
      <trkpt lat="47.27469" lon="4.94946">
        <ele>454</ele>
        <time>2012-12-11T13:54:36.1Z</time>
      </trkpt>
      <trkpt lat="47.27469" lon="4.94944">
        <ele>454</ele>
        <time>2012-12-11T13:54:38.1Z</time>
      </trkpt>
      <trkpt lat="47.27469" lon="4.94943">
        <ele>454</ele>
        <time>2012-12-11T13:54:41.1Z</time>
      </trkpt>
      <trkpt lat="47.27469" lon="4.94942">
        <ele>454</ele>
        <time>2012-12-11T13:54:43.1Z</time>
      </trkpt>
      <trkpt lat="47.27469" lon="4.94941">
        <ele>454</ele>
        <time>2012-12-11T13:54:45.1Z</time>
      </trkpt>
      <trkpt lat="47.27469" lon="4.9494">
        <ele>454</ele>
        <time>2012-12-11T13:54:47.1Z</time>
      </trkpt>
      <trkpt lat="47.27468" lon="4.94939">
        <ele>454</ele>
        <time>2012-12-11T13:54:49.1Z</time>
      </trkpt>
      <trkpt lat="47.27468" lon="4.94937">
        <ele>454</ele>
        <time>2012-12-11T13:54:51.1Z</time>
      </trkpt>
      <trkpt lat="47.27468" lon="4.94935">
        <ele>454</ele>
        <time>2012-12-11T13:54:53.1Z</time>
      </trkpt>
      <trkpt lat="47.27468" lon="4.94932">
        <ele>454</ele>
        <time>2012-12-11T13:54:55.1Z</time>
      </trkpt>
      <trkpt lat="47.27469" lon="4.94929">
        <ele>455</ele>
        <time>2012-12-11T13:54:57.1Z</time>
      </trkpt>
      <trkpt lat="47.27469" lon="4.94926">
        <ele>455</ele>
        <time>2012-12-11T13:54:59.1Z</time>
      </trkpt>
      <trkpt lat="47.27469" lon="4.94923">
        <ele>455</ele>
        <time>2012-12-11T13:55:01.1Z</time>
      </trkpt>
      <trkpt lat="47.27468" lon="4.9492">
        <ele>455</ele>
        <time>2012-12-11T13:55:03.1Z</time>
      </trkpt>
      <trkpt lat="47.27468" lon="4.94918">
        <ele>455</ele>
        <time>2012-12-11T13:55:05.1Z</time>
      </trkpt>
      <trkpt lat="47.27467" lon="4.94915">
        <ele>455</ele>
        <time>2012-12-11T13:55:08.1Z</time>
      </trkpt>
      <trkpt lat="47.27467" lon="4.94913">
        <ele>456</ele>
        <time>2012-12-11T13:55:10.1Z</time>
      </trkpt>
      <trkpt lat="47.27466" lon="4.94911">
        <ele>456</ele>
        <time>2012-12-11T13:55:12.1Z</time>
      </trkpt>
      <trkpt lat="47.27465" lon="4.94908">
        <ele>456</ele>
        <time>2012-12-11T13:55:14.1Z</time>
      </trkpt>
      <trkpt lat="47.27465" lon="4.94905">
        <ele>456</ele>
        <time>2012-12-11T13:55:16.1Z</time>
      </trkpt>
      <trkpt lat="47.27465" lon="4.94902">
        <ele>456</ele>
        <time>2012-12-11T13:55:18.1Z</time>
      </trkpt>
      <trkpt lat="47.27466" lon="4.94898">
        <ele>456</ele>
        <time>2012-12-11T13:55:20.1Z</time>
      </trkpt>
      <trkpt lat="47.27466" lon="4.94893">
        <ele>456</ele>
        <time>2012-12-11T13:55:22.1Z</time>
      </trkpt>
      <trkpt lat="47.27467" lon="4.94889">
        <ele>456</ele>
        <time>2012-12-11T13:55:24.1Z</time>
      </trkpt>
      <trkpt lat="47.27466" lon="4.94885">
        <ele>457</ele>
        <time>2012-12-11T13:55:27.1Z</time>
      </trkpt>
      <trkpt lat="47.27466" lon="4.94881">
        <ele>457</ele>
        <time>2012-12-11T13:55:29.1Z</time>
      </trkpt>
      <trkpt lat="47.27465" lon="4.94879">
        <ele>457</ele>
        <time>2012-12-11T13:55:31.1Z</time>
      </trkpt>
      <trkpt lat="47.27463" lon="4.94876">
        <ele>457</ele>
        <time>2012-12-11T13:55:33.1Z</time>
      </trkpt>
      <trkpt lat="47.27461" lon="4.94874">
        <ele>457</ele>
        <time>2012-12-11T13:55:35.1Z</time>
      </trkpt>
      <trkpt lat="47.27459" lon="4.94871">
        <ele>457</ele>
        <time>2012-12-11T13:55:37.1Z</time>
      </trkpt>
      <trkpt lat="47.27457" lon="4.94868">
        <ele>457</ele>
        <time>2012-12-11T13:55:39.1Z</time>
      </trkpt>
      <trkpt lat="47.27456" lon="4.94866">
        <ele>457</ele>
        <time>2012-12-11T13:55:41.1Z</time>
      </trkpt>
      <trkpt lat="47.27454" lon="4.94865">
        <ele>457</ele>
        <time>2012-12-11T13:55:43.1Z</time>
      </trkpt>
      <trkpt lat="47.27452" lon="4.94862">
        <ele>457</ele>
        <time>2012-12-11T13:55:45.1Z</time>
      </trkpt>
      <trkpt lat="47.2745" lon="4.9486">
        <ele>457</ele>
        <time>2012-12-11T13:55:47.1Z</time>
      </trkpt>
      <trkpt lat="47.27448" lon="4.94858">
        <ele>457</ele>
        <time>2012-12-11T13:55:49.1Z</time>
      </trkpt>
      <trkpt lat="47.27446" lon="4.94856">
        <ele>457</ele>
        <time>2012-12-11T13:55:51.1Z</time>
      </trkpt>
      <trkpt lat="47.27444" lon="4.94855">
        <ele>457</ele>
        <time>2012-12-11T13:55:53.1Z</time>
      </trkpt>
      <trkpt lat="47.27442" lon="4.94853">
        <ele>458</ele>
        <time>2012-12-11T13:55:56.1Z</time>
      </trkpt>
      <trkpt lat="47.2744" lon="4.94851">
        <ele>458</ele>
        <time>2012-12-11T13:55:58.1Z</time>
      </trkpt>
      <trkpt lat="47.27438" lon="4.94848">
        <ele>458</ele>
        <time>2012-12-11T13:56:00.1Z</time>
      </trkpt>
      <trkpt lat="47.27436" lon="4.94844">
        <ele>459</ele>
        <time>2012-12-11T13:56:02.1Z</time>
      </trkpt>
      <trkpt lat="47.27435" lon="4.9484">
        <ele>459</ele>
        <time>2012-12-11T13:56:04.1Z</time>
      </trkpt>
      <trkpt lat="47.27433" lon="4.94835">
        <ele>459</ele>
        <time>2012-12-11T13:56:06.1Z</time>
      </trkpt>
      <trkpt lat="47.27432" lon="4.94831">
        <ele>459</ele>
        <time>2012-12-11T13:56:08.1Z</time>
      </trkpt>
      <trkpt lat="47.27431" lon="4.94828">
        <ele>460</ele>
        <time>2012-12-11T13:56:10.1Z</time>
      </trkpt>
      <trkpt lat="47.2743" lon="4.94825">
        <ele>460</ele>
        <time>2012-12-11T13:56:12.1Z</time>
      </trkpt>
      <trkpt lat="47.27428" lon="4.94822">
        <ele>460</ele>
        <time>2012-12-11T13:56:14.1Z</time>
      </trkpt>
      <trkpt lat="47.27428" lon="4.94818">
        <ele>460</ele>
        <time>2012-12-11T13:56:16.1Z</time>
      </trkpt>
      <trkpt lat="47.27427" lon="4.94815">
        <ele>460</ele>
        <time>2012-12-11T13:56:18.1Z</time>
      </trkpt>
      <trkpt lat="47.27425" lon="4.94812">
        <ele>460</ele>
        <time>2012-12-11T13:56:20.1Z</time>
      </trkpt>
      <trkpt lat="47.27425" lon="4.94809">
        <ele>460</ele>
        <time>2012-12-11T13:56:22.1Z</time>
      </trkpt>
      <trkpt lat="47.27424" lon="4.94806">
        <ele>461</ele>
        <time>2012-12-11T13:56:24.1Z</time>
      </trkpt>
      <trkpt lat="47.27423" lon="4.94803">
        <ele>461</ele>
        <time>2012-12-11T13:56:27.1Z</time>
      </trkpt>
      <trkpt lat="47.27422" lon="4.94799">
        <ele>461</ele>
        <time>2012-12-11T13:56:29.1Z</time>
      </trkpt>
      <trkpt lat="47.27422" lon="4.94796">
        <ele>461</ele>
        <time>2012-12-11T13:56:31.1Z</time>
      </trkpt>
      <trkpt lat="47.27421" lon="4.94793">
        <ele>461</ele>
        <time>2012-12-11T13:56:33.1Z</time>
      </trkpt>
      <trkpt lat="47.2742" lon="4.94789">
        <ele>461</ele>
        <time>2012-12-11T13:56:35.1Z</time>
      </trkpt>
      <trkpt lat="47.27419" lon="4.94785">
        <ele>461</ele>
        <time>2012-12-11T13:56:37.1Z</time>
      </trkpt>
      <trkpt lat="47.27418" lon="4.94781">
        <ele>461</ele>
        <time>2012-12-11T13:56:39.1Z</time>
      </trkpt>
      <trkpt lat="47.27417" lon="4.94778">
        <ele>461</ele>
        <time>2012-12-11T13:56:42.1Z</time>
      </trkpt>
      <trkpt lat="47.27415" lon="4.94775">
        <ele>462</ele>
        <time>2012-12-11T13:56:44.1Z</time>
      </trkpt>
      <trkpt lat="47.27414" lon="4.94773">
        <ele>462</ele>
        <time>2012-12-11T13:56:46.1Z</time>
      </trkpt>
      <trkpt lat="47.27413" lon="4.9477">
        <ele>463</ele>
        <time>2012-12-11T13:56:48.1Z</time>
      </trkpt>
      <trkpt lat="47.27411" lon="4.94767">
        <ele>463</ele>
        <time>2012-12-11T13:56:50.1Z</time>
      </trkpt>
      <trkpt lat="47.27409" lon="4.94763">
        <ele>463</ele>
        <time>2012-12-11T13:56:52.1Z</time>
      </trkpt>
      <trkpt lat="47.27408" lon="4.94761">
        <ele>463</ele>
        <time>2012-12-11T13:56:54.1Z</time>
      </trkpt>
      <trkpt lat="47.27406" lon="4.94758">
        <ele>463</ele>
        <time>2012-12-11T13:56:56.1Z</time>
      </trkpt>
      <trkpt lat="47.27405" lon="4.94755">
        <ele>463</ele>
        <time>2012-12-11T13:56:58.1Z</time>
      </trkpt>
      <trkpt lat="47.27404" lon="4.94752">
        <ele>464</ele>
        <time>2012-12-11T13:57:00.1Z</time>
      </trkpt>
      <trkpt lat="47.27402" lon="4.94749">
        <ele>464</ele>
        <time>2012-12-11T13:57:02.1Z</time>
      </trkpt>
      <trkpt lat="47.27401" lon="4.94746">
        <ele>465</ele>
        <time>2012-12-11T13:57:04.1Z</time>
      </trkpt>
      <trkpt lat="47.274" lon="4.94744">
        <ele>465</ele>
        <time>2012-12-11T13:57:07.1Z</time>
      </trkpt>
      <trkpt lat="47.27399" lon="4.94742">
        <ele>465</ele>
        <time>2012-12-11T13:57:09.1Z</time>
      </trkpt>
      <trkpt lat="47.27398" lon="4.9474">
        <ele>465</ele>
        <time>2012-12-11T13:57:11.1Z</time>
      </trkpt>
      <trkpt lat="47.27397" lon="4.94738">
        <ele>466</ele>
        <time>2012-12-11T13:57:13.1Z</time>
      </trkpt>
      <trkpt lat="47.27396" lon="4.94737">
        <ele>466</ele>
        <time>2012-12-11T13:57:15.1Z</time>
      </trkpt>
      <trkpt lat="47.27395" lon="4.94735">
        <ele>466</ele>
        <time>2012-12-11T13:57:17.1Z</time>
      </trkpt>
      <trkpt lat="47.27394" lon="4.94735">
        <ele>466</ele>
        <time>2012-12-11T13:57:19.1Z</time>
      </trkpt>
      <trkpt lat="47.27393" lon="4.94734">
        <ele>467</ele>
        <time>2012-12-11T13:57:21.1Z</time>
      </trkpt>
      <trkpt lat="47.27392" lon="4.94733">
        <ele>467</ele>
        <time>2012-12-11T13:57:23.1Z</time>
      </trkpt>
      <trkpt lat="47.27391" lon="4.94732">
        <ele>467</ele>
        <time>2012-12-11T13:57:25.1Z</time>
      </trkpt>
      <trkpt lat="47.2739" lon="4.94731">
        <ele>467</ele>
        <time>2012-12-11T13:57:28.1Z</time>
      </trkpt>
      <trkpt lat="47.27389" lon="4.9473">
        <ele>467</ele>
        <time>2012-12-11T13:57:30.1Z</time>
      </trkpt>
      <trkpt lat="47.2739" lon="4.94729">
        <ele>467</ele>
        <time>2012-12-11T13:57:32.1Z</time>
      </trkpt>
      <trkpt lat="47.2739" lon="4.94728">
        <ele>467</ele>
        <time>2012-12-11T13:57:34.1Z</time>
      </trkpt>
      <trkpt lat="47.2739" lon="4.94727">
        <ele>467</ele>
        <time>2012-12-11T13:57:36.1Z</time>
      </trkpt>
      <trkpt lat="47.27389" lon="4.94725">
        <ele>467</ele>
        <time>2012-12-11T13:57:38.1Z</time>
      </trkpt>
      <trkpt lat="47.27389" lon="4.94724">
        <ele>467</ele>
        <time>2012-12-11T13:57:40.1Z</time>
      </trkpt>
      <trkpt lat="47.27389" lon="4.94724">
        <ele>467</ele>
        <time>2012-12-11T13:57:42.1Z</time>
      </trkpt>
      <trkpt lat="47.27389" lon="4.94723">
        <ele>467</ele>
        <time>2012-12-11T13:57:45.1Z</time>
      </trkpt>
      <trkpt lat="47.27388" lon="4.94721">
        <ele>467</ele>
        <time>2012-12-11T13:57:47.1Z</time>
      </trkpt>
      <trkpt lat="47.27386" lon="4.94719">
        <ele>467</ele>
        <time>2012-12-11T13:57:49.1Z</time>
      </trkpt>
      <trkpt lat="47.27384" lon="4.94719">
        <ele>467</ele>
        <time>2012-12-11T13:57:51.1Z</time>
      </trkpt>
      <trkpt lat="47.2738" lon="4.94719">
        <ele>467</ele>
        <time>2012-12-11T13:57:53.1Z</time>
      </trkpt>
      <trkpt lat="47.27378" lon="4.94719">
        <ele>467</ele>
        <time>2012-12-11T13:57:55.1Z</time>
      </trkpt>
      <trkpt lat="47.27376" lon="4.94719">
        <ele>467</ele>
        <time>2012-12-11T13:57:58.1Z</time>
      </trkpt>
      <trkpt lat="47.27374" lon="4.94717">
        <ele>467</ele>
        <time>2012-12-11T13:58:00.1Z</time>
      </trkpt>
      <trkpt lat="47.27373" lon="4.94715">
        <ele>467</ele>
        <time>2012-12-11T13:58:02.1Z</time>
      </trkpt>
      <trkpt lat="47.27372" lon="4.94712">
        <ele>467</ele>
        <time>2012-12-11T13:58:04.1Z</time>
      </trkpt>
      <trkpt lat="47.27372" lon="4.9471">
        <ele>468</ele>
        <time>2012-12-11T13:58:06.1Z</time>
      </trkpt>
      <trkpt lat="47.27371" lon="4.94708">
        <ele>468</ele>
        <time>2012-12-11T13:58:08.1Z</time>
      </trkpt>
      <trkpt lat="47.27371" lon="4.94706">
        <ele>468</ele>
        <time>2012-12-11T13:58:10.1Z</time>
      </trkpt>
      <trkpt lat="47.2737" lon="4.94703">
        <ele>467</ele>
        <time>2012-12-11T13:58:12.1Z</time>
      </trkpt>
      <trkpt lat="47.2737" lon="4.94701">
        <ele>467</ele>
        <time>2012-12-11T13:58:14.1Z</time>
      </trkpt>
      <trkpt lat="47.27369" lon="4.947">
        <ele>467</ele>
        <time>2012-12-11T13:58:16.1Z</time>
      </trkpt>
      <trkpt lat="47.27367" lon="4.94696">
        <ele>467</ele>
        <time>2012-12-11T13:58:19.1Z</time>
      </trkpt>
      <trkpt lat="47.27367" lon="4.94693">
        <ele>468</ele>
        <time>2012-12-11T13:58:21.1Z</time>
      </trkpt>
      <trkpt lat="47.27366" lon="4.94691">
        <ele>468</ele>
        <time>2012-12-11T13:58:23.1Z</time>
      </trkpt>
      <trkpt lat="47.27366" lon="4.94688">
        <ele>468</ele>
        <time>2012-12-11T13:58:25.1Z</time>
      </trkpt>
      <trkpt lat="47.27365" lon="4.94684">
        <ele>468</ele>
        <time>2012-12-11T13:58:27.1Z</time>
      </trkpt>
      <trkpt lat="47.27364" lon="4.94681">
        <ele>468</ele>
        <time>2012-12-11T13:58:29.1Z</time>
      </trkpt>
      <trkpt lat="47.27364" lon="4.94678">
        <ele>468</ele>
        <time>2012-12-11T13:58:31.1Z</time>
      </trkpt>
      <trkpt lat="47.27362" lon="4.94676">
        <ele>469</ele>
        <time>2012-12-11T13:58:33.1Z</time>
      </trkpt>
      <trkpt lat="47.27362" lon="4.94673">
        <ele>469</ele>
        <time>2012-12-11T13:58:35.1Z</time>
      </trkpt>
      <trkpt lat="47.27362" lon="4.9467">
        <ele>469</ele>
        <time>2012-12-11T13:58:37.1Z</time>
      </trkpt>
      <trkpt lat="47.27362" lon="4.94667">
        <ele>469</ele>
        <time>2012-12-11T13:58:39.1Z</time>
      </trkpt>
      <trkpt lat="47.27363" lon="4.94664">
        <ele>469</ele>
        <time>2012-12-11T13:58:41.1Z</time>
      </trkpt>
      <trkpt lat="47.27364" lon="4.94661">
        <ele>469</ele>
        <time>2012-12-11T13:58:44.1Z</time>
      </trkpt>
      <trkpt lat="47.27364" lon="4.94659">
        <ele>469</ele>
        <time>2012-12-11T13:58:46.1Z</time>
      </trkpt>
      <trkpt lat="47.27364" lon="4.94656">
        <ele>469</ele>
        <time>2012-12-11T13:58:48.1Z</time>
      </trkpt>
      <trkpt lat="47.27364" lon="4.94652">
        <ele>468</ele>
        <time>2012-12-11T13:58:50.1Z</time>
      </trkpt>
      <trkpt lat="47.27365" lon="4.9465">
        <ele>469</ele>
        <time>2012-12-11T13:58:52.1Z</time>
      </trkpt>
      <trkpt lat="47.27365" lon="4.94647">
        <ele>469</ele>
        <time>2012-12-11T13:58:54.1Z</time>
      </trkpt>
      <trkpt lat="47.27366" lon="4.94644">
        <ele>469</ele>
        <time>2012-12-11T13:58:56.1Z</time>
      </trkpt>
      <trkpt lat="47.27366" lon="4.94641">
        <ele>469</ele>
        <time>2012-12-11T13:58:58.1Z</time>
      </trkpt>
      <trkpt lat="47.27366" lon="4.94637">
        <ele>469</ele>
        <time>2012-12-11T13:59:00.1Z</time>
      </trkpt>
      <trkpt lat="47.27365" lon="4.94634">
        <ele>470</ele>
        <time>2012-12-11T13:59:02.1Z</time>
      </trkpt>
      <trkpt lat="47.27364" lon="4.9463">
        <ele>469</ele>
        <time>2012-12-11T13:59:04.1Z</time>
      </trkpt>
      <trkpt lat="47.27364" lon="4.94628">
        <ele>469</ele>
        <time>2012-12-11T13:59:06.1Z</time>
      </trkpt>
      <trkpt lat="47.27364" lon="4.94625">
        <ele>469</ele>
        <time>2012-12-11T13:59:09.1Z</time>
      </trkpt>
      <trkpt lat="47.27362" lon="4.94623">
        <ele>470</ele>
        <time>2012-12-11T13:59:11.1Z</time>
      </trkpt>
      <trkpt lat="47.27362" lon="4.9462">
        <ele>470</ele>
        <time>2012-12-11T13:59:13.1Z</time>
      </trkpt>
      <trkpt lat="47.27362" lon="4.94618">
        <ele>471</ele>
        <time>2012-12-11T13:59:15.1Z</time>
      </trkpt>
      <trkpt lat="47.27362" lon="4.94616">
        <ele>471</ele>
        <time>2012-12-11T13:59:17.1Z</time>
      </trkpt>
      <trkpt lat="47.27362" lon="4.94611">
        <ele>472</ele>
        <time>2012-12-11T13:59:19.1Z</time>
      </trkpt>
      <trkpt lat="47.27363" lon="4.94609">
        <ele>472</ele>
        <time>2012-12-11T13:59:22.1Z</time>
      </trkpt>
      <trkpt lat="47.27362" lon="4.94606">
        <ele>472</ele>
        <time>2012-12-11T13:59:24.1Z</time>
      </trkpt>
      <trkpt lat="47.27362" lon="4.94604">
        <ele>472</ele>
        <time>2012-12-11T13:59:26.1Z</time>
      </trkpt>
      <trkpt lat="47.27361" lon="4.94601">
        <ele>472</ele>
        <time>2012-12-11T13:59:28.1Z</time>
      </trkpt>
      <trkpt lat="47.2736" lon="4.94599">
        <ele>472</ele>
        <time>2012-12-11T13:59:30.1Z</time>
      </trkpt>
      <trkpt lat="47.27359" lon="4.94598">
        <ele>471</ele>
        <time>2012-12-11T13:59:32.1Z</time>
      </trkpt>
      <trkpt lat="47.27356" lon="4.94597">
        <ele>471</ele>
        <time>2012-12-11T13:59:34.1Z</time>
      </trkpt>
      <trkpt lat="47.27354" lon="4.94598">
        <ele>471</ele>
        <time>2012-12-11T13:59:36.1Z</time>
      </trkpt>
      <trkpt lat="47.27353" lon="4.94599">
        <ele>471</ele>
        <time>2012-12-11T13:59:38.1Z</time>
      </trkpt>
      <trkpt lat="47.27351" lon="4.946">
        <ele>471</ele>
        <time>2012-12-11T13:59:40.1Z</time>
      </trkpt>
      <trkpt lat="47.2735" lon="4.94601">
        <ele>471</ele>
        <time>2012-12-11T13:59:42.1Z</time>
      </trkpt>
      <trkpt lat="47.27348" lon="4.94603">
        <ele>472</ele>
        <time>2012-12-11T13:59:44.1Z</time>
      </trkpt>
      <trkpt lat="47.27347" lon="4.94604">
        <ele>472</ele>
        <time>2012-12-11T13:59:47.1Z</time>
      </trkpt>
      <trkpt lat="47.27345" lon="4.94606">
        <ele>472</ele>
        <time>2012-12-11T13:59:49.1Z</time>
      </trkpt>
      <trkpt lat="47.27344" lon="4.94608">
        <ele>472</ele>
        <time>2012-12-11T13:59:51.1Z</time>
      </trkpt>
      <trkpt lat="47.27343" lon="4.94611">
        <ele>471</ele>
        <time>2012-12-11T13:59:53.1Z</time>
      </trkpt>
      <trkpt lat="47.27341" lon="4.94613">
        <ele>471</ele>
        <time>2012-12-11T13:59:55.1Z</time>
      </trkpt>
      <trkpt lat="47.2734" lon="4.94616">
        <ele>471</ele>
        <time>2012-12-11T13:59:57.1Z</time>
      </trkpt>
      <trkpt lat="47.27339" lon="4.9462">
        <ele>471</ele>
        <time>2012-12-11T13:59:59.1Z</time>
      </trkpt>
      <trkpt lat="47.27338" lon="4.94622">
        <ele>471</ele>
        <time>2012-12-11T14:00:01.1Z</time>
      </trkpt>
      <trkpt lat="47.27338" lon="4.94624">
        <ele>471</ele>
        <time>2012-12-11T14:00:03.1Z</time>
      </trkpt>
      <trkpt lat="47.27338" lon="4.94627">
        <ele>471</ele>
        <time>2012-12-11T14:00:05.1Z</time>
      </trkpt>
      <trkpt lat="47.27337" lon="4.9463">
        <ele>471</ele>
        <time>2012-12-11T14:00:08.1Z</time>
      </trkpt>
      <trkpt lat="47.27337" lon="4.94633">
        <ele>471</ele>
        <time>2012-12-11T14:00:10.1Z</time>
      </trkpt>
      <trkpt lat="47.27337" lon="4.94636">
        <ele>471</ele>
        <time>2012-12-11T14:00:12.1Z</time>
      </trkpt>
      <trkpt lat="47.27336" lon="4.9464">
        <ele>471</ele>
        <time>2012-12-11T14:00:14.1Z</time>
      </trkpt>
      <trkpt lat="47.27336" lon="4.94642">
        <ele>471</ele>
        <time>2012-12-11T14:00:16.1Z</time>
      </trkpt>
      <trkpt lat="47.27335" lon="4.94645">
        <ele>471</ele>
        <time>2012-12-11T14:00:18.1Z</time>
      </trkpt>
      <trkpt lat="47.27335" lon="4.94648">
        <ele>471</ele>
        <time>2012-12-11T14:00:20.1Z</time>
      </trkpt>
      <trkpt lat="47.27335" lon="4.94651">
        <ele>471</ele>
        <time>2012-12-11T14:00:23.1Z</time>
      </trkpt>
      <trkpt lat="47.27335" lon="4.94654">
        <ele>471</ele>
        <time>2012-12-11T14:00:25.1Z</time>
      </trkpt>
      <trkpt lat="47.27335" lon="4.94657">
        <ele>471</ele>
        <time>2012-12-11T14:00:27.1Z</time>
      </trkpt>
      <trkpt lat="47.27335" lon="4.9466">
        <ele>471</ele>
        <time>2012-12-11T14:00:29.1Z</time>
      </trkpt>
      <trkpt lat="47.27335" lon="4.94663">
        <ele>471</ele>
        <time>2012-12-11T14:00:31.1Z</time>
      </trkpt>
      <trkpt lat="47.27334" lon="4.94667">
        <ele>471</ele>
        <time>2012-12-11T14:00:33.1Z</time>
      </trkpt>
      <trkpt lat="47.27333" lon="4.94671">
        <ele>471</ele>
        <time>2012-12-11T14:00:36.1Z</time>
      </trkpt>
      <trkpt lat="47.27333" lon="4.94673">
        <ele>471</ele>
        <time>2012-12-11T14:00:38.1Z</time>
      </trkpt>
      <trkpt lat="47.27333" lon="4.94676">
        <ele>471</ele>
        <time>2012-12-11T14:00:40.1Z</time>
      </trkpt>
      <trkpt lat="47.27332" lon="4.94681">
        <ele>471</ele>
        <time>2012-12-11T14:00:42.1Z</time>
      </trkpt>
      <trkpt lat="47.27332" lon="4.94684">
        <ele>471</ele>
        <time>2012-12-11T14:00:44.1Z</time>
      </trkpt>
      <trkpt lat="47.27332" lon="4.94688">
        <ele>471</ele>
        <time>2012-12-11T14:00:46.1Z</time>
      </trkpt>
      <trkpt lat="47.27332" lon="4.94691">
        <ele>470</ele>
        <time>2012-12-11T14:00:48.1Z</time>
      </trkpt>
      <trkpt lat="47.27332" lon="4.94694">
        <ele>470</ele>
        <time>2012-12-11T14:00:50.1Z</time>
      </trkpt>
      <trkpt lat="47.27332" lon="4.94697">
        <ele>471</ele>
        <time>2012-12-11T14:00:52.1Z</time>
      </trkpt>
      <trkpt lat="47.27331" lon="4.947">
        <ele>471</ele>
        <time>2012-12-11T14:00:54.1Z</time>
      </trkpt>
      <trkpt lat="47.27331" lon="4.94704">
        <ele>470</ele>
        <time>2012-12-11T14:00:56.1Z</time>
      </trkpt>
      <trkpt lat="47.27331" lon="4.94707">
        <ele>470</ele>
        <time>2012-12-11T14:00:58.1Z</time>
      </trkpt>
      <trkpt lat="47.27331" lon="4.9471">
        <ele>470</ele>
        <time>2012-12-11T14:01:01.1Z</time>
      </trkpt>
      <trkpt lat="47.2733" lon="4.94713">
        <ele>470</ele>
        <time>2012-12-11T14:01:03.1Z</time>
      </trkpt>
      <trkpt lat="47.2733" lon="4.94717">
        <ele>470</ele>
        <time>2012-12-11T14:01:05.1Z</time>
      </trkpt>
      <trkpt lat="47.2733" lon="4.9472">
        <ele>470</ele>
        <time>2012-12-11T14:01:07.1Z</time>
      </trkpt>
      <trkpt lat="47.27329" lon="4.94724">
        <ele>470</ele>
        <time>2012-12-11T14:01:09.1Z</time>
      </trkpt>
      <trkpt lat="47.27328" lon="4.94727">
        <ele>470</ele>
        <time>2012-12-11T14:01:11.1Z</time>
      </trkpt>
      <trkpt lat="47.27328" lon="4.94731">
        <ele>470</ele>
        <time>2012-12-11T14:01:13.1Z</time>
      </trkpt>
      <trkpt lat="47.27328" lon="4.94734">
        <ele>470</ele>
        <time>2012-12-11T14:01:15.1Z</time>
      </trkpt>
      <trkpt lat="47.27327" lon="4.94737">
        <ele>470</ele>
        <time>2012-12-11T14:01:18.1Z</time>
      </trkpt>
      <trkpt lat="47.27327" lon="4.94741">
        <ele>470</ele>
        <time>2012-12-11T14:01:20.1Z</time>
      </trkpt>
      <trkpt lat="47.27327" lon="4.94744">
        <ele>470</ele>
        <time>2012-12-11T14:01:22.1Z</time>
      </trkpt>
      <trkpt lat="47.27326" lon="4.94749">
        <ele>470</ele>
        <time>2012-12-11T14:01:24.1Z</time>
      </trkpt>
      <trkpt lat="47.27325" lon="4.94752">
        <ele>470</ele>
        <time>2012-12-11T14:01:26.1Z</time>
      </trkpt>
      <trkpt lat="47.27325" lon="4.94755">
        <ele>470</ele>
        <time>2012-12-11T14:01:29.1Z</time>
      </trkpt>
      <trkpt lat="47.27325" lon="4.94757">
        <ele>470</ele>
        <time>2012-12-11T14:01:31.1Z</time>
      </trkpt>
      <trkpt lat="47.27324" lon="4.94759">
        <ele>470</ele>
        <time>2012-12-11T14:01:33.1Z</time>
      </trkpt>
      <trkpt lat="47.27324" lon="4.94762">
        <ele>470</ele>
        <time>2012-12-11T14:01:35.1Z</time>
      </trkpt>
      <trkpt lat="47.27324" lon="4.94765">
        <ele>470</ele>
        <time>2012-12-11T14:01:37.1Z</time>
      </trkpt>
      <trkpt lat="47.27323" lon="4.94768">
        <ele>470</ele>
        <time>2012-12-11T14:01:39.1Z</time>
      </trkpt>
      <trkpt lat="47.27322" lon="4.94771">
        <ele>470</ele>
        <time>2012-12-11T14:01:41.1Z</time>
      </trkpt>
      <trkpt lat="47.27321" lon="4.94775">
        <ele>469</ele>
        <time>2012-12-11T14:01:43.1Z</time>
      </trkpt>
      <trkpt lat="47.2732" lon="4.94778">
        <ele>470</ele>
        <time>2012-12-11T14:01:45.1Z</time>
      </trkpt>
      <trkpt lat="47.2732" lon="4.94782">
        <ele>470</ele>
        <time>2012-12-11T14:01:47.1Z</time>
      </trkpt>
      <trkpt lat="47.27319" lon="4.94785">
        <ele>470</ele>
        <time>2012-12-11T14:01:49.1Z</time>
      </trkpt>
      <trkpt lat="47.27319" lon="4.94788">
        <ele>470</ele>
        <time>2012-12-11T14:01:51.1Z</time>
      </trkpt>
      <trkpt lat="47.27318" lon="4.9479">
        <ele>470</ele>
        <time>2012-12-11T14:01:53.1Z</time>
      </trkpt>
      <trkpt lat="47.27317" lon="4.94793">
        <ele>470</ele>
        <time>2012-12-11T14:01:55.1Z</time>
      </trkpt>
      <trkpt lat="47.27316" lon="4.94795">
        <ele>469</ele>
        <time>2012-12-11T14:01:57.1Z</time>
      </trkpt>
      <trkpt lat="47.27315" lon="4.94798">
        <ele>469</ele>
        <time>2012-12-11T14:01:59.1Z</time>
      </trkpt>
      <trkpt lat="47.27314" lon="4.94801">
        <ele>469</ele>
        <time>2012-12-11T14:02:02.1Z</time>
      </trkpt>
      <trkpt lat="47.27313" lon="4.94804">
        <ele>469</ele>
        <time>2012-12-11T14:02:04.1Z</time>
      </trkpt>
      <trkpt lat="47.27311" lon="4.94807">
        <ele>470</ele>
        <time>2012-12-11T14:02:06.1Z</time>
      </trkpt>
      <trkpt lat="47.2731" lon="4.9481">
        <ele>470</ele>
        <time>2012-12-11T14:02:08.1Z</time>
      </trkpt>
      <trkpt lat="47.27308" lon="4.94814">
        <ele>470</ele>
        <time>2012-12-11T14:02:10.1Z</time>
      </trkpt>
      <trkpt lat="47.27307" lon="4.94817">
        <ele>469</ele>
        <time>2012-12-11T14:02:12.1Z</time>
      </trkpt>
      <trkpt lat="47.27306" lon="4.94819">
        <ele>469</ele>
        <time>2012-12-11T14:02:14.1Z</time>
      </trkpt>
      <trkpt lat="47.27304" lon="4.94822">
        <ele>469</ele>
        <time>2012-12-11T14:02:16.1Z</time>
      </trkpt>
      <trkpt lat="47.27303" lon="4.94825">
        <ele>469</ele>
        <time>2012-12-11T14:02:18.1Z</time>
      </trkpt>
      <trkpt lat="47.27301" lon="4.94828">
        <ele>469</ele>
        <time>2012-12-11T14:02:21.1Z</time>
      </trkpt>
      <trkpt lat="47.273" lon="4.94832">
        <ele>470</ele>
        <time>2012-12-11T14:02:23.1Z</time>
      </trkpt>
      <trkpt lat="47.27298" lon="4.94835">
        <ele>470</ele>
        <time>2012-12-11T14:02:25.1Z</time>
      </trkpt>
      <trkpt lat="47.27297" lon="4.94838">
        <ele>470</ele>
        <time>2012-12-11T14:02:27.1Z</time>
      </trkpt>
      <trkpt lat="47.27295" lon="4.94841">
        <ele>469</ele>
        <time>2012-12-11T14:02:29.1Z</time>
      </trkpt>
      <trkpt lat="47.27293" lon="4.94846">
        <ele>469</ele>
        <time>2012-12-11T14:02:31.1Z</time>
      </trkpt>
      <trkpt lat="47.27292" lon="4.94848">
        <ele>469</ele>
        <time>2012-12-11T14:02:33.1Z</time>
      </trkpt>
      <trkpt lat="47.2729" lon="4.9485">
        <ele>469</ele>
        <time>2012-12-11T14:02:35.1Z</time>
      </trkpt>
      <trkpt lat="47.27289" lon="4.94853">
        <ele>470</ele>
        <time>2012-12-11T14:02:37.1Z</time>
      </trkpt>
      <trkpt lat="47.27287" lon="4.94855">
        <ele>470</ele>
        <time>2012-12-11T14:02:39.1Z</time>
      </trkpt>
      <trkpt lat="47.27286" lon="4.94858">
        <ele>469</ele>
        <time>2012-12-11T14:02:42.1Z</time>
      </trkpt>
      <trkpt lat="47.27284" lon="4.94861">
        <ele>469</ele>
        <time>2012-12-11T14:02:44.1Z</time>
      </trkpt>
      <trkpt lat="47.27282" lon="4.94864">
        <ele>470</ele>
        <time>2012-12-11T14:02:46.1Z</time>
      </trkpt>
      <trkpt lat="47.2728" lon="4.94868">
        <ele>469</ele>
        <time>2012-12-11T14:02:48.1Z</time>
      </trkpt>
      <trkpt lat="47.27279" lon="4.9487">
        <ele>470</ele>
        <time>2012-12-11T14:02:50.1Z</time>
      </trkpt>
      <trkpt lat="47.27277" lon="4.94873">
        <ele>470</ele>
        <time>2012-12-11T14:02:52.1Z</time>
      </trkpt>
      <trkpt lat="47.27276" lon="4.94876">
        <ele>470</ele>
        <time>2012-12-11T14:02:54.1Z</time>
      </trkpt>
      <trkpt lat="47.27274" lon="4.9488">
        <ele>470</ele>
        <time>2012-12-11T14:02:56.1Z</time>
      </trkpt>
      <trkpt lat="47.27273" lon="4.94883">
        <ele>470</ele>
        <time>2012-12-11T14:02:58.1Z</time>
      </trkpt>
      <trkpt lat="47.27272" lon="4.94887">
        <ele>470</ele>
        <time>2012-12-11T14:03:00.1Z</time>
      </trkpt>
      <trkpt lat="47.2727" lon="4.94891">
        <ele>470</ele>
        <time>2012-12-11T14:03:02.1Z</time>
      </trkpt>
      <trkpt lat="47.27269" lon="4.94895">
        <ele>470</ele>
        <time>2012-12-11T14:03:04.1Z</time>
      </trkpt>
      <trkpt lat="47.27268" lon="4.94899">
        <ele>471</ele>
        <time>2012-12-11T14:03:06.1Z</time>
      </trkpt>
      <trkpt lat="47.27266" lon="4.94903">
        <ele>471</ele>
        <time>2012-12-11T14:03:08.1Z</time>
      </trkpt>
      <trkpt lat="47.27265" lon="4.94907">
        <ele>471</ele>
        <time>2012-12-11T14:03:10.1Z</time>
      </trkpt>
      <trkpt lat="47.27264" lon="4.9491">
        <ele>471</ele>
        <time>2012-12-11T14:03:13.1Z</time>
      </trkpt>
      <trkpt lat="47.27262" lon="4.94914">
        <ele>471</ele>
        <time>2012-12-11T14:03:15.1Z</time>
      </trkpt>
      <trkpt lat="47.2726" lon="4.9492">
        <ele>471</ele>
        <time>2012-12-11T14:03:17.1Z</time>
      </trkpt>
      <trkpt lat="47.27258" lon="4.94924">
        <ele>471</ele>
        <time>2012-12-11T14:03:19.1Z</time>
      </trkpt>
      <trkpt lat="47.27257" lon="4.94929">
        <ele>471</ele>
        <time>2012-12-11T14:03:21.1Z</time>
      </trkpt>
      <trkpt lat="47.27255" lon="4.94933">
        <ele>471</ele>
        <time>2012-12-11T14:03:23.1Z</time>
      </trkpt>
      <trkpt lat="47.27253" lon="4.94937">
        <ele>471</ele>
        <time>2012-12-11T14:03:25.1Z</time>
      </trkpt>
      <trkpt lat="47.27251" lon="4.94941">
        <ele>471</ele>
        <time>2012-12-11T14:03:27.1Z</time>
      </trkpt>
      <trkpt lat="47.2725" lon="4.94945">
        <ele>471</ele>
        <time>2012-12-11T14:03:29.1Z</time>
      </trkpt>
      <trkpt lat="47.27247" lon="4.94949">
        <ele>471</ele>
        <time>2012-12-11T14:03:31.1Z</time>
      </trkpt>
      <trkpt lat="47.27245" lon="4.94953">
        <ele>471</ele>
        <time>2012-12-11T14:03:33.1Z</time>
      </trkpt>
      <trkpt lat="47.27243" lon="4.94957">
        <ele>471</ele>
        <time>2012-12-11T14:03:35.1Z</time>
      </trkpt>
      <trkpt lat="47.27241" lon="4.94961">
        <ele>471</ele>
        <time>2012-12-11T14:03:38.1Z</time>
      </trkpt>
      <trkpt lat="47.27239" lon="4.94964">
        <ele>471</ele>
        <time>2012-12-11T14:03:40.1Z</time>
      </trkpt>
      <trkpt lat="47.27237" lon="4.9497">
        <ele>470</ele>
        <time>2012-12-11T14:03:42.1Z</time>
      </trkpt>
      <trkpt lat="47.27235" lon="4.94973">
        <ele>470</ele>
        <time>2012-12-11T14:03:44.1Z</time>
      </trkpt>
      <trkpt lat="47.27233" lon="4.94976">
        <ele>470</ele>
        <time>2012-12-11T14:03:46.1Z</time>
      </trkpt>
      <trkpt lat="47.27231" lon="4.94979">
        <ele>470</ele>
        <time>2012-12-11T14:03:49.1Z</time>
      </trkpt>
      <trkpt lat="47.27229" lon="4.94982">
        <ele>470</ele>
        <time>2012-12-11T14:03:51.1Z</time>
      </trkpt>
      <trkpt lat="47.27227" lon="4.94986">
        <ele>470</ele>
        <time>2012-12-11T14:03:53.1Z</time>
      </trkpt>
      <trkpt lat="47.27225" lon="4.94991">
        <ele>470</ele>
        <time>2012-12-11T14:03:55.1Z</time>
      </trkpt>
      <trkpt lat="47.27223" lon="4.94995">
        <ele>470</ele>
        <time>2012-12-11T14:03:57.1Z</time>
      </trkpt>
      <trkpt lat="47.27221" lon="4.94999">
        <ele>470</ele>
        <time>2012-12-11T14:03:59.1Z</time>
      </trkpt>
      <trkpt lat="47.27219" lon="4.95002">
        <ele>470</ele>
        <time>2012-12-11T14:04:01.1Z</time>
      </trkpt>
      <trkpt lat="47.27217" lon="4.95006">
        <ele>470</ele>
        <time>2012-12-11T14:04:03.1Z</time>
      </trkpt>
      <trkpt lat="47.27215" lon="4.95008">
        <ele>469</ele>
        <time>2012-12-11T14:04:05.1Z</time>
      </trkpt>
      <trkpt lat="47.27213" lon="4.95011">
        <ele>469</ele>
        <time>2012-12-11T14:04:08.1Z</time>
      </trkpt>
      <trkpt lat="47.27211" lon="4.95014">
        <ele>469</ele>
        <time>2012-12-11T14:04:10.1Z</time>
      </trkpt>
      <trkpt lat="47.27209" lon="4.95017">
        <ele>469</ele>
        <time>2012-12-11T14:04:12.1Z</time>
      </trkpt>
      <trkpt lat="47.27207" lon="4.9502">
        <ele>469</ele>
        <time>2012-12-11T14:04:14.1Z</time>
      </trkpt>
      <trkpt lat="47.27204" lon="4.95025">
        <ele>469</ele>
        <time>2012-12-11T14:04:16.1Z</time>
      </trkpt>
      <trkpt lat="47.27202" lon="4.95029">
        <ele>469</ele>
        <time>2012-12-11T14:04:18.1Z</time>
      </trkpt>
      <trkpt lat="47.272" lon="4.95032">
        <ele>469</ele>
        <time>2012-12-11T14:04:20.1Z</time>
      </trkpt>
      <trkpt lat="47.27198" lon="4.95035">
        <ele>469</ele>
        <time>2012-12-11T14:04:22.1Z</time>
      </trkpt>
      <trkpt lat="47.27198" lon="4.95039">
        <ele>469</ele>
        <time>2012-12-11T14:04:24.1Z</time>
      </trkpt>
      <trkpt lat="47.27196" lon="4.95042">
        <ele>468</ele>
        <time>2012-12-11T14:04:26.1Z</time>
      </trkpt>
      <trkpt lat="47.27195" lon="4.95045">
        <ele>468</ele>
        <time>2012-12-11T14:04:28.1Z</time>
      </trkpt>
      <trkpt lat="47.27193" lon="4.95048">
        <ele>468</ele>
        <time>2012-12-11T14:04:30.1Z</time>
      </trkpt>
      <trkpt lat="47.27192" lon="4.9505">
        <ele>467</ele>
        <time>2012-12-11T14:04:32.1Z</time>
      </trkpt>
      <trkpt lat="47.27191" lon="4.95054">
        <ele>467</ele>
        <time>2012-12-11T14:04:34.1Z</time>
      </trkpt>
      <trkpt lat="47.2719" lon="4.95057">
        <ele>467</ele>
        <time>2012-12-11T14:04:37.1Z</time>
      </trkpt>
      <trkpt lat="47.27188" lon="4.9506">
        <ele>466</ele>
        <time>2012-12-11T14:04:39.1Z</time>
      </trkpt>
      <trkpt lat="47.27187" lon="4.95063">
        <ele>466</ele>
        <time>2012-12-11T14:04:41.1Z</time>
      </trkpt>
      <trkpt lat="47.27185" lon="4.95068">
        <ele>466</ele>
        <time>2012-12-11T14:04:43.1Z</time>
      </trkpt>
      <trkpt lat="47.27184" lon="4.95071">
        <ele>466</ele>
        <time>2012-12-11T14:04:45.1Z</time>
      </trkpt>
      <trkpt lat="47.27183" lon="4.95074">
        <ele>466</ele>
        <time>2012-12-11T14:04:47.1Z</time>
      </trkpt>
      <trkpt lat="47.27182" lon="4.95077">
        <ele>466</ele>
        <time>2012-12-11T14:04:49.1Z</time>
      </trkpt>
      <trkpt lat="47.2718" lon="4.95079">
        <ele>466</ele>
        <time>2012-12-11T14:04:51.1Z</time>
      </trkpt>
      <trkpt lat="47.27179" lon="4.95082">
        <ele>466</ele>
        <time>2012-12-11T14:04:53.1Z</time>
      </trkpt>
      <trkpt lat="47.27178" lon="4.95085">
        <ele>466</ele>
        <time>2012-12-11T14:04:55.1Z</time>
      </trkpt>
      <trkpt lat="47.27176" lon="4.95087">
        <ele>466</ele>
        <time>2012-12-11T14:04:57.1Z</time>
      </trkpt>
      <trkpt lat="47.27175" lon="4.9509">
        <ele>467</ele>
        <time>2012-12-11T14:04:59.1Z</time>
      </trkpt>
      <trkpt lat="47.27174" lon="4.95092">
        <ele>467</ele>
        <time>2012-12-11T14:05:01.1Z</time>
      </trkpt>
      <trkpt lat="47.27174" lon="4.95095">
        <ele>467</ele>
        <time>2012-12-11T14:05:03.1Z</time>
      </trkpt>
      <trkpt lat="47.27176" lon="4.95097">
        <ele>467</ele>
        <time>2012-12-11T14:05:05.1Z</time>
      </trkpt>
      <trkpt lat="47.27177" lon="4.95101">
        <ele>468</ele>
        <time>2012-12-11T14:05:08.1Z</time>
      </trkpt>
      <trkpt lat="47.27177" lon="4.95104">
        <ele>468</ele>
        <time>2012-12-11T14:05:10.1Z</time>
      </trkpt>
      <trkpt lat="47.27178" lon="4.95108">
        <ele>468</ele>
        <time>2012-12-11T14:05:12.1Z</time>
      </trkpt>
      <trkpt lat="47.27177" lon="4.95109">
        <ele>468</ele>
        <time>2012-12-11T14:05:14.1Z</time>
      </trkpt>
      <trkpt lat="47.27179" lon="4.95108">
        <ele>468</ele>
        <time>2012-12-11T14:05:16.1Z</time>
      </trkpt>
      <trkpt lat="47.27179" lon="4.95108">
        <ele>467</ele>
        <time>2012-12-11T14:05:18.1Z</time>
      </trkpt>
      <trkpt lat="47.2718" lon="4.95111">
        <ele>467</ele>
        <time>2012-12-11T14:05:20.1Z</time>
      </trkpt>
      <trkpt lat="47.2718" lon="4.95114">
        <ele>468</ele>
        <time>2012-12-11T14:05:22.1Z</time>
      </trkpt>
      <trkpt lat="47.27181" lon="4.95118">
        <ele>467</ele>
        <time>2012-12-11T14:05:24.1Z</time>
      </trkpt>
      <trkpt lat="47.27183" lon="4.95122">
        <ele>467</ele>
        <time>2012-12-11T14:05:26.1Z</time>
      </trkpt>
      <trkpt lat="47.27184" lon="4.95125">
        <ele>467</ele>
        <time>2012-12-11T14:05:29.1Z</time>
      </trkpt>
      <trkpt lat="47.27185" lon="4.95129">
        <ele>467</ele>
        <time>2012-12-11T14:05:31.1Z</time>
      </trkpt>
      <trkpt lat="47.27186" lon="4.95132">
        <ele>467</ele>
        <time>2012-12-11T14:05:33.1Z</time>
      </trkpt>
      <trkpt lat="47.27187" lon="4.95135">
        <ele>467</ele>
        <time>2012-12-11T14:05:35.1Z</time>
      </trkpt>
      <trkpt lat="47.27188" lon="4.95138">
        <ele>466</ele>
        <time>2012-12-11T14:05:37.1Z</time>
      </trkpt>
      <trkpt lat="47.27189" lon="4.95141">
        <ele>466</ele>
        <time>2012-12-11T14:05:39.1Z</time>
      </trkpt>
      <trkpt lat="47.2719" lon="4.95145">
        <ele>466</ele>
        <time>2012-12-11T14:05:41.1Z</time>
      </trkpt>
      <trkpt lat="47.27191" lon="4.95148">
        <ele>466</ele>
        <time>2012-12-11T14:05:43.1Z</time>
      </trkpt>
      <trkpt lat="47.27192" lon="4.95151">
        <ele>466</ele>
        <time>2012-12-11T14:05:45.1Z</time>
      </trkpt>
      <trkpt lat="47.27192" lon="4.95154">
        <ele>466</ele>
        <time>2012-12-11T14:05:47.1Z</time>
      </trkpt>
      <trkpt lat="47.27192" lon="4.95157">
        <ele>466</ele>
        <time>2012-12-11T14:05:49.1Z</time>
      </trkpt>
      <trkpt lat="47.27193" lon="4.9516">
        <ele>466</ele>
        <time>2012-12-11T14:05:51.1Z</time>
      </trkpt>
      <trkpt lat="47.27193" lon="4.95163">
        <ele>466</ele>
        <time>2012-12-11T14:05:53.1Z</time>
      </trkpt>
      <trkpt lat="47.27193" lon="4.95165">
        <ele>466</ele>
        <time>2012-12-11T14:05:55.1Z</time>
      </trkpt>
      <trkpt lat="47.27194" lon="4.9517">
        <ele>466</ele>
        <time>2012-12-11T14:05:57.1Z</time>
      </trkpt>
      <trkpt lat="47.27195" lon="4.95173">
        <ele>467</ele>
        <time>2012-12-11T14:06:00.1Z</time>
      </trkpt>
      <trkpt lat="47.27195" lon="4.95177">
        <ele>467</ele>
        <time>2012-12-11T14:06:02.1Z</time>
      </trkpt>
      <trkpt lat="47.27196" lon="4.9518">
        <ele>467</ele>
        <time>2012-12-11T14:06:04.1Z</time>
      </trkpt>
      <trkpt lat="47.27197" lon="4.95183">
        <ele>467</ele>
        <time>2012-12-11T14:06:06.1Z</time>
      </trkpt>
      <trkpt lat="47.27198" lon="4.95184">
        <ele>467</ele>
        <time>2012-12-11T14:06:08.1Z</time>
      </trkpt>
      <trkpt lat="47.27199" lon="4.95189">
        <ele>467</ele>
        <time>2012-12-11T14:06:11.1Z</time>
      </trkpt>
      <trkpt lat="47.272" lon="4.95191">
        <ele>467</ele>
        <time>2012-12-11T14:06:13.1Z</time>
      </trkpt>
      <trkpt lat="47.27202" lon="4.95194">
        <ele>467</ele>
        <time>2012-12-11T14:06:15.1Z</time>
      </trkpt>
      <trkpt lat="47.27203" lon="4.95196">
        <ele>468</ele>
        <time>2012-12-11T14:06:17.1Z</time>
      </trkpt>
      <trkpt lat="47.27204" lon="4.952">
        <ele>468</ele>
        <time>2012-12-11T14:06:19.1Z</time>
      </trkpt>
      <trkpt lat="47.27205" lon="4.95203">
        <ele>468</ele>
        <time>2012-12-11T14:06:21.1Z</time>
      </trkpt>
      <trkpt lat="47.27204" lon="4.95208">
        <ele>467</ele>
        <time>2012-12-11T14:06:23.1Z</time>
      </trkpt>
      <trkpt lat="47.27203" lon="4.9521">
        <ele>467</ele>
        <time>2012-12-11T14:06:26.1Z</time>
      </trkpt>
      <trkpt lat="47.27201" lon="4.95212">
        <ele>467</ele>
        <time>2012-12-11T14:06:28.1Z</time>
      </trkpt>
      <trkpt lat="47.272" lon="4.95214">
        <ele>467</ele>
        <time>2012-12-11T14:06:30.1Z</time>
      </trkpt>
      <trkpt lat="47.27198" lon="4.95217">
        <ele>468</ele>
        <time>2012-12-11T14:06:32.1Z</time>
      </trkpt>
      <trkpt lat="47.27196" lon="4.95219">
        <ele>468</ele>
        <time>2012-12-11T14:06:34.1Z</time>
      </trkpt>
      <trkpt lat="47.27195" lon="4.95221">
        <ele>468</ele>
        <time>2012-12-11T14:06:36.1Z</time>
      </trkpt>
      <trkpt lat="47.27192" lon="4.95225">
        <ele>468</ele>
        <time>2012-12-11T14:06:38.1Z</time>
      </trkpt>
      <trkpt lat="47.2719" lon="4.95228">
        <ele>468</ele>
        <time>2012-12-11T14:06:40.1Z</time>
      </trkpt>
      <trkpt lat="47.27189" lon="4.9523">
        <ele>468</ele>
        <time>2012-12-11T14:06:43.1Z</time>
      </trkpt>
      <trkpt lat="47.27187" lon="4.95233">
        <ele>468</ele>
        <time>2012-12-11T14:06:45.1Z</time>
      </trkpt>
      <trkpt lat="47.27185" lon="4.95235">
        <ele>468</ele>
        <time>2012-12-11T14:06:47.1Z</time>
      </trkpt>
      <trkpt lat="47.27183" lon="4.95238">
        <ele>468</ele>
        <time>2012-12-11T14:06:49.1Z</time>
      </trkpt>
      <trkpt lat="47.27181" lon="4.95241">
        <ele>468</ele>
        <time>2012-12-11T14:06:51.1Z</time>
      </trkpt>
      <trkpt lat="47.27178" lon="4.95245">
        <ele>468</ele>
        <time>2012-12-11T14:06:53.1Z</time>
      </trkpt>
      <trkpt lat="47.27176" lon="4.95247">
        <ele>468</ele>
        <time>2012-12-11T14:06:56.1Z</time>
      </trkpt>
      <trkpt lat="47.27174" lon="4.9525">
        <ele>468</ele>
        <time>2012-12-11T14:06:58.1Z</time>
      </trkpt>
      <trkpt lat="47.27172" lon="4.95252">
        <ele>468</ele>
        <time>2012-12-11T14:07:00.1Z</time>
      </trkpt>
      <trkpt lat="47.27171" lon="4.95254">
        <ele>468</ele>
        <time>2012-12-11T14:07:02.1Z</time>
      </trkpt>
      <trkpt lat="47.27169" lon="4.95257">
        <ele>469</ele>
        <time>2012-12-11T14:07:04.1Z</time>
      </trkpt>
      <trkpt lat="47.27167" lon="4.95259">
        <ele>469</ele>
        <time>2012-12-11T14:07:06.1Z</time>
      </trkpt>
      <trkpt lat="47.27165" lon="4.95261">
        <ele>469</ele>
        <time>2012-12-11T14:07:08.1Z</time>
      </trkpt>
      <trkpt lat="47.27163" lon="4.95264">
        <ele>469</ele>
        <time>2012-12-11T14:07:10.1Z</time>
      </trkpt>
      <trkpt lat="47.2716" lon="4.95268">
        <ele>469</ele>
        <time>2012-12-11T14:07:12.1Z</time>
      </trkpt>
      <trkpt lat="47.27158" lon="4.9527">
        <ele>469</ele>
        <time>2012-12-11T14:07:14.1Z</time>
      </trkpt>
      <trkpt lat="47.27156" lon="4.95273">
        <ele>469</ele>
        <time>2012-12-11T14:07:17.1Z</time>
      </trkpt>
      <trkpt lat="47.27154" lon="4.95274">
        <ele>469</ele>
        <time>2012-12-11T14:07:19.1Z</time>
      </trkpt>
      <trkpt lat="47.27152" lon="4.95277">
        <ele>469</ele>
        <time>2012-12-11T14:07:21.1Z</time>
      </trkpt>
      <trkpt lat="47.27149" lon="4.95279">
        <ele>469</ele>
        <time>2012-12-11T14:07:23.1Z</time>
      </trkpt>
      <trkpt lat="47.27147" lon="4.95282">
        <ele>469</ele>
        <time>2012-12-11T14:07:25.1Z</time>
      </trkpt>
      <trkpt lat="47.27145" lon="4.95284">
        <ele>469</ele>
        <time>2012-12-11T14:07:27.1Z</time>
      </trkpt>
      <trkpt lat="47.27143" lon="4.95286">
        <ele>470</ele>
        <time>2012-12-11T14:07:29.1Z</time>
      </trkpt>
      <trkpt lat="47.27141" lon="4.95289">
        <ele>470</ele>
        <time>2012-12-11T14:07:31.1Z</time>
      </trkpt>
      <trkpt lat="47.27139" lon="4.95291">
        <ele>470</ele>
        <time>2012-12-11T14:07:33.1Z</time>
      </trkpt>
      <trkpt lat="47.27137" lon="4.95294">
        <ele>470</ele>
        <time>2012-12-11T14:07:35.1Z</time>
      </trkpt>
      <trkpt lat="47.27133" lon="4.95297">
        <ele>470</ele>
        <time>2012-12-11T14:07:38.1Z</time>
      </trkpt>
      <trkpt lat="47.27132" lon="4.95298">
        <ele>470</ele>
        <time>2012-12-11T14:07:40.1Z</time>
      </trkpt>
      <trkpt lat="47.2713" lon="4.953">
        <ele>470</ele>
        <time>2012-12-11T14:07:42.1Z</time>
      </trkpt>
      <trkpt lat="47.27127" lon="4.95303">
        <ele>469</ele>
        <time>2012-12-11T14:07:44.1Z</time>
      </trkpt>
      <trkpt lat="47.27125" lon="4.95305">
        <ele>469</ele>
        <time>2012-12-11T14:07:46.1Z</time>
      </trkpt>
      <trkpt lat="47.27121" lon="4.95308">
        <ele>469</ele>
        <time>2012-12-11T14:07:48.1Z</time>
      </trkpt>
      <trkpt lat="47.27119" lon="4.95309">
        <ele>469</ele>
        <time>2012-12-11T14:07:50.1Z</time>
      </trkpt>
      <trkpt lat="47.27117" lon="4.9531">
        <ele>469</ele>
        <time>2012-12-11T14:07:53.1Z</time>
      </trkpt>
      <trkpt lat="47.27114" lon="4.95312">
        <ele>470</ele>
        <time>2012-12-11T14:07:55.1Z</time>
      </trkpt>
      <trkpt lat="47.27112" lon="4.95314">
        <ele>470</ele>
        <time>2012-12-11T14:07:57.1Z</time>
      </trkpt>
      <trkpt lat="47.27109" lon="4.95316">
        <ele>470</ele>
        <time>2012-12-11T14:07:59.1Z</time>
      </trkpt>
      <trkpt lat="47.27107" lon="4.95318">
        <ele>470</ele>
        <time>2012-12-11T14:08:01.1Z</time>
      </trkpt>
      <trkpt lat="47.27105" lon="4.9532">
        <ele>470</ele>
        <time>2012-12-11T14:08:03.1Z</time>
      </trkpt>
      <trkpt lat="47.27103" lon="4.95324">
        <ele>470</ele>
        <time>2012-12-11T14:08:06.1Z</time>
      </trkpt>
      <trkpt lat="47.27101" lon="4.95326">
        <ele>470</ele>
        <time>2012-12-11T14:08:08.1Z</time>
      </trkpt>
      <trkpt lat="47.27099" lon="4.95329">
        <ele>470</ele>
        <time>2012-12-11T14:08:10.1Z</time>
      </trkpt>
      <trkpt lat="47.27097" lon="4.95332">
        <ele>470</ele>
        <time>2012-12-11T14:08:12.1Z</time>
      </trkpt>
      <trkpt lat="47.27095" lon="4.95335">
        <ele>470</ele>
        <time>2012-12-11T14:08:14.1Z</time>
      </trkpt>
      <trkpt lat="47.27094" lon="4.95338">
        <ele>470</ele>
        <time>2012-12-11T14:08:16.1Z</time>
      </trkpt>
      <trkpt lat="47.27092" lon="4.9534">
        <ele>470</ele>
        <time>2012-12-11T14:08:18.1Z</time>
      </trkpt>
      <trkpt lat="47.2709" lon="4.95342">
        <ele>470</ele>
        <time>2012-12-11T14:08:20.1Z</time>
      </trkpt>
      <trkpt lat="47.27087" lon="4.95345">
        <ele>470</ele>
        <time>2012-12-11T14:08:22.1Z</time>
      </trkpt>
      <trkpt lat="47.27084" lon="4.95348">
        <ele>470</ele>
        <time>2012-12-11T14:08:24.1Z</time>
      </trkpt>
      <trkpt lat="47.27083" lon="4.9535">
        <ele>470</ele>
        <time>2012-12-11T14:08:27.1Z</time>
      </trkpt>
      <trkpt lat="47.27081" lon="4.95352">
        <ele>470</ele>
        <time>2012-12-11T14:08:29.1Z</time>
      </trkpt>
      <trkpt lat="47.27079" lon="4.95354">
        <ele>470</ele>
        <time>2012-12-11T14:08:31.1Z</time>
      </trkpt>
      <trkpt lat="47.27077" lon="4.95357">
        <ele>470</ele>
        <time>2012-12-11T14:08:33.1Z</time>
      </trkpt>
      <trkpt lat="47.27076" lon="4.9536">
        <ele>469</ele>
        <time>2012-12-11T14:08:35.1Z</time>
      </trkpt>
      <trkpt lat="47.27074" lon="4.95363">
        <ele>469</ele>
        <time>2012-12-11T14:08:37.1Z</time>
      </trkpt>
      <trkpt lat="47.27072" lon="4.95365">
        <ele>469</ele>
        <time>2012-12-11T14:08:39.1Z</time>
      </trkpt>
      <trkpt lat="47.2707" lon="4.95368">
        <ele>469</ele>
        <time>2012-12-11T14:08:41.1Z</time>
      </trkpt>
      <trkpt lat="47.27068" lon="4.9537">
        <ele>469</ele>
        <time>2012-12-11T14:08:43.1Z</time>
      </trkpt>
      <trkpt lat="47.27067" lon="4.95372">
        <ele>469</ele>
        <time>2012-12-11T14:08:45.1Z</time>
      </trkpt>
      <trkpt lat="47.27064" lon="4.95376">
        <ele>469</ele>
        <time>2012-12-11T14:08:47.1Z</time>
      </trkpt>
      <trkpt lat="47.27062" lon="4.95379">
        <ele>469</ele>
        <time>2012-12-11T14:08:50.1Z</time>
      </trkpt>
      <trkpt lat="47.2706" lon="4.95381">
        <ele>469</ele>
        <time>2012-12-11T14:08:52.1Z</time>
      </trkpt>
      <trkpt lat="47.27058" lon="4.95384">
        <ele>469</ele>
        <time>2012-12-11T14:08:54.1Z</time>
      </trkpt>
      <trkpt lat="47.27056" lon="4.95387">
        <ele>469</ele>
        <time>2012-12-11T14:08:56.1Z</time>
      </trkpt>
      <trkpt lat="47.27053" lon="4.95389">
        <ele>469</ele>
        <time>2012-12-11T14:08:58.1Z</time>
      </trkpt>
      <trkpt lat="47.27052" lon="4.95392">
        <ele>468</ele>
        <time>2012-12-11T14:09:00.1Z</time>
      </trkpt>
      <trkpt lat="47.2705" lon="4.95394">
        <ele>468</ele>
        <time>2012-12-11T14:09:02.1Z</time>
      </trkpt>
      <trkpt lat="47.27048" lon="4.95396">
        <ele>468</ele>
        <time>2012-12-11T14:09:04.1Z</time>
      </trkpt>
      <trkpt lat="47.27046" lon="4.95399">
        <ele>469</ele>
        <time>2012-12-11T14:09:06.1Z</time>
      </trkpt>
      <trkpt lat="47.27043" lon="4.95403">
        <ele>469</ele>
        <time>2012-12-11T14:09:08.1Z</time>
      </trkpt>
      <trkpt lat="47.27041" lon="4.95405">
        <ele>469</ele>
        <time>2012-12-11T14:09:11.1Z</time>
      </trkpt>
      <trkpt lat="47.27039" lon="4.95408">
        <ele>468</ele>
        <time>2012-12-11T14:09:13.1Z</time>
      </trkpt>
      <trkpt lat="47.27037" lon="4.9541">
        <ele>468</ele>
        <time>2012-12-11T14:09:15.1Z</time>
      </trkpt>
      <trkpt lat="47.27035" lon="4.95413">
        <ele>468</ele>
        <time>2012-12-11T14:09:17.1Z</time>
      </trkpt>
      <trkpt lat="47.27033" lon="4.95416">
        <ele>468</ele>
        <time>2012-12-11T14:09:19.1Z</time>
      </trkpt>
      <trkpt lat="47.2703" lon="4.95419">
        <ele>468</ele>
        <time>2012-12-11T14:09:21.1Z</time>
      </trkpt>
      <trkpt lat="47.27028" lon="4.95422">
        <ele>468</ele>
        <time>2012-12-11T14:09:23.1Z</time>
      </trkpt>
      <trkpt lat="47.27026" lon="4.95425">
        <ele>468</ele>
        <time>2012-12-11T14:09:25.1Z</time>
      </trkpt>
      <trkpt lat="47.27024" lon="4.95428">
        <ele>468</ele>
        <time>2012-12-11T14:09:28.1Z</time>
      </trkpt>
      <trkpt lat="47.27022" lon="4.9543">
        <ele>468</ele>
        <time>2012-12-11T14:09:30.1Z</time>
      </trkpt>
      <trkpt lat="47.2702" lon="4.95433">
        <ele>468</ele>
        <time>2012-12-11T14:09:32.1Z</time>
      </trkpt>
      <trkpt lat="47.27018" lon="4.95435">
        <ele>468</ele>
        <time>2012-12-11T14:09:34.1Z</time>
      </trkpt>
      <trkpt lat="47.27016" lon="4.95438">
        <ele>467</ele>
        <time>2012-12-11T14:09:36.1Z</time>
      </trkpt>
      <trkpt lat="47.27014" lon="4.9544">
        <ele>467</ele>
        <time>2012-12-11T14:09:38.1Z</time>
      </trkpt>
      <trkpt lat="47.27012" lon="4.95442">
        <ele>467</ele>
        <time>2012-12-11T14:09:40.1Z</time>
      </trkpt>
      <trkpt lat="47.2701" lon="4.95445">
        <ele>467</ele>
        <time>2012-12-11T14:09:42.1Z</time>
      </trkpt>
      <trkpt lat="47.27007" lon="4.95448">
        <ele>467</ele>
        <time>2012-12-11T14:09:45.1Z</time>
      </trkpt>
      <trkpt lat="47.27005" lon="4.95451">
        <ele>467</ele>
        <time>2012-12-11T14:09:47.1Z</time>
      </trkpt>
      <trkpt lat="47.27003" lon="4.95454">
        <ele>467</ele>
        <time>2012-12-11T14:09:49.1Z</time>
      </trkpt>
      <trkpt lat="47.27001" lon="4.95457">
        <ele>467</ele>
        <time>2012-12-11T14:09:51.1Z</time>
      </trkpt>
      <trkpt lat="47.26999" lon="4.9546">
        <ele>467</ele>
        <time>2012-12-11T14:09:53.1Z</time>
      </trkpt>
      <trkpt lat="47.26997" lon="4.95462">
        <ele>466</ele>
        <time>2012-12-11T14:09:55.1Z</time>
      </trkpt>
      <trkpt lat="47.26995" lon="4.95466">
        <ele>466</ele>
        <time>2012-12-11T14:09:57.1Z</time>
      </trkpt>
      <trkpt lat="47.26994" lon="4.95469">
        <ele>466</ele>
        <time>2012-12-11T14:09:59.1Z</time>
      </trkpt>
      <trkpt lat="47.26992" lon="4.95473">
        <ele>466</ele>
        <time>2012-12-11T14:10:01.1Z</time>
      </trkpt>
      <trkpt lat="47.2699" lon="4.95477">
        <ele>466</ele>
        <time>2012-12-11T14:10:03.1Z</time>
      </trkpt>
      <trkpt lat="47.26989" lon="4.9548">
        <ele>465</ele>
        <time>2012-12-11T14:10:06.1Z</time>
      </trkpt>
      <trkpt lat="47.26987" lon="4.95483">
        <ele>465</ele>
        <time>2012-12-11T14:10:08.1Z</time>
      </trkpt>
      <trkpt lat="47.26986" lon="4.95486">
        <ele>465</ele>
        <time>2012-12-11T14:10:10.1Z</time>
      </trkpt>
      <trkpt lat="47.26984" lon="4.95489">
        <ele>465</ele>
        <time>2012-12-11T14:10:12.1Z</time>
      </trkpt>
      <trkpt lat="47.26983" lon="4.95491">
        <ele>465</ele>
        <time>2012-12-11T14:10:14.1Z</time>
      </trkpt>
      <trkpt lat="47.26981" lon="4.95494">
        <ele>465</ele>
        <time>2012-12-11T14:10:16.1Z</time>
      </trkpt>
      <trkpt lat="47.2698" lon="4.95495">
        <ele>465</ele>
        <time>2012-12-11T14:10:19.1Z</time>
      </trkpt>
      <trkpt lat="47.26979" lon="4.95497">
        <ele>465</ele>
        <time>2012-12-11T14:10:21.1Z</time>
      </trkpt>
      <trkpt lat="47.26977" lon="4.95499">
        <ele>465</ele>
        <time>2012-12-11T14:10:23.1Z</time>
      </trkpt>
      <trkpt lat="47.26976" lon="4.95502">
        <ele>466</ele>
        <time>2012-12-11T14:10:25.1Z</time>
      </trkpt>
      <trkpt lat="47.26974" lon="4.95505">
        <ele>466</ele>
        <time>2012-12-11T14:10:27.1Z</time>
      </trkpt>
      <trkpt lat="47.26973" lon="4.95507">
        <ele>466</ele>
        <time>2012-12-11T14:10:29.1Z</time>
      </trkpt>
      <trkpt lat="47.26971" lon="4.95511">
        <ele>466</ele>
        <time>2012-12-11T14:10:31.1Z</time>
      </trkpt>
      <trkpt lat="47.2697" lon="4.95514">
        <ele>466</ele>
        <time>2012-12-11T14:10:33.1Z</time>
      </trkpt>
      <trkpt lat="47.26968" lon="4.95518">
        <ele>466</ele>
        <time>2012-12-11T14:10:35.1Z</time>
      </trkpt>
      <trkpt lat="47.26966" lon="4.9552">
        <ele>466</ele>
        <time>2012-12-11T14:10:37.1Z</time>
      </trkpt>
      <trkpt lat="47.26965" lon="4.95523">
        <ele>466</ele>
        <time>2012-12-11T14:10:40.1Z</time>
      </trkpt>
      <trkpt lat="47.26963" lon="4.95526">
        <ele>466</ele>
        <time>2012-12-11T14:10:42.1Z</time>
      </trkpt>
      <trkpt lat="47.26962" lon="4.95529">
        <ele>466</ele>
        <time>2012-12-11T14:10:44.1Z</time>
      </trkpt>
      <trkpt lat="47.2696" lon="4.95532">
        <ele>466</ele>
        <time>2012-12-11T14:10:46.1Z</time>
      </trkpt>
      <trkpt lat="47.26959" lon="4.95534">
        <ele>466</ele>
        <time>2012-12-11T14:10:48.1Z</time>
      </trkpt>
      <trkpt lat="47.26957" lon="4.95536">
        <ele>466</ele>
        <time>2012-12-11T14:10:50.1Z</time>
      </trkpt>
      <trkpt lat="47.26955" lon="4.95539">
        <ele>466</ele>
        <time>2012-12-11T14:10:52.1Z</time>
      </trkpt>
      <trkpt lat="47.26954" lon="4.95541">
        <ele>466</ele>
        <time>2012-12-11T14:10:54.1Z</time>
      </trkpt>
      <trkpt lat="47.26952" lon="4.95543">
        <ele>466</ele>
        <time>2012-12-11T14:10:56.1Z</time>
      </trkpt>
      <trkpt lat="47.2695" lon="4.95546">
        <ele>466</ele>
        <time>2012-12-11T14:10:58.1Z</time>
      </trkpt>
      <trkpt lat="47.26949" lon="4.95548">
        <ele>466</ele>
        <time>2012-12-11T14:11:00.1Z</time>
      </trkpt>
      <trkpt lat="47.26947" lon="4.9555">
        <ele>466</ele>
        <time>2012-12-11T14:11:02.1Z</time>
      </trkpt>
      <trkpt lat="47.26945" lon="4.95553">
        <ele>466</ele>
        <time>2012-12-11T14:11:04.1Z</time>
      </trkpt>
      <trkpt lat="47.26942" lon="4.95557">
        <ele>466</ele>
        <time>2012-12-11T14:11:06.1Z</time>
      </trkpt>
      <trkpt lat="47.26941" lon="4.95559">
        <ele>466</ele>
        <time>2012-12-11T14:11:09.1Z</time>
      </trkpt>
      <trkpt lat="47.26939" lon="4.95562">
        <ele>466</ele>
        <time>2012-12-11T14:11:11.1Z</time>
      </trkpt>
      <trkpt lat="47.26937" lon="4.95564">
        <ele>466</ele>
        <time>2012-12-11T14:11:13.1Z</time>
      </trkpt>
      <trkpt lat="47.26935" lon="4.95566">
        <ele>466</ele>
        <time>2012-12-11T14:11:15.1Z</time>
      </trkpt>
      <trkpt lat="47.26933" lon="4.95569">
        <ele>466</ele>
        <time>2012-12-11T14:11:17.1Z</time>
      </trkpt>
      <trkpt lat="47.26931" lon="4.95571">
        <ele>466</ele>
        <time>2012-12-11T14:11:19.1Z</time>
      </trkpt>
      <trkpt lat="47.26929" lon="4.95573">
        <ele>466</ele>
        <time>2012-12-11T14:11:21.1Z</time>
      </trkpt>
      <trkpt lat="47.26927" lon="4.95575">
        <ele>466</ele>
        <time>2012-12-11T14:11:23.1Z</time>
      </trkpt>
      <trkpt lat="47.26925" lon="4.95577">
        <ele>466</ele>
        <time>2012-12-11T14:11:25.1Z</time>
      </trkpt>
      <trkpt lat="47.26923" lon="4.95578">
        <ele>466</ele>
        <time>2012-12-11T14:11:27.1Z</time>
      </trkpt>
      <trkpt lat="47.26921" lon="4.9558">
        <ele>466</ele>
        <time>2012-12-11T14:11:29.1Z</time>
      </trkpt>
      <trkpt lat="47.26918" lon="4.95582">
        <ele>467</ele>
        <time>2012-12-11T14:11:31.1Z</time>
      </trkpt>
      <trkpt lat="47.26916" lon="4.95584">
        <ele>467</ele>
        <time>2012-12-11T14:11:33.1Z</time>
      </trkpt>
      <trkpt lat="47.26913" lon="4.95586">
        <ele>467</ele>
        <time>2012-12-11T14:11:35.1Z</time>
      </trkpt>
      <trkpt lat="47.26911" lon="4.95588">
        <ele>467</ele>
        <time>2012-12-11T14:11:38.1Z</time>
      </trkpt>
      <trkpt lat="47.26909" lon="4.9559">
        <ele>467</ele>
        <time>2012-12-11T14:11:40.1Z</time>
      </trkpt>
      <trkpt lat="47.26907" lon="4.95592">
        <ele>467</ele>
        <time>2012-12-11T14:11:42.1Z</time>
      </trkpt>
      <trkpt lat="47.26905" lon="4.95594">
        <ele>467</ele>
        <time>2012-12-11T14:11:44.1Z</time>
      </trkpt>
      <trkpt lat="47.26903" lon="4.95596">
        <ele>467</ele>
        <time>2012-12-11T14:11:46.1Z</time>
      </trkpt>
      <trkpt lat="47.269" lon="4.95599">
        <ele>467</ele>
        <time>2012-12-11T14:11:48.1Z</time>
      </trkpt>
      <trkpt lat="47.26899" lon="4.95599">
        <ele>468</ele>
        <time>2012-12-11T14:11:51.1Z</time>
      </trkpt>
      <trkpt lat="47.26898" lon="4.956">
        <ele>468</ele>
        <time>2012-12-11T14:11:53.1Z</time>
      </trkpt>
      <trkpt lat="47.26898" lon="4.95601">
        <ele>468</ele>
        <time>2012-12-11T14:11:55.1Z</time>
      </trkpt>
      <trkpt lat="47.26897" lon="4.95602">
        <ele>468</ele>
        <time>2012-12-11T14:11:57.1Z</time>
      </trkpt>
      <trkpt lat="47.26895" lon="4.95603">
        <ele>468</ele>
        <time>2012-12-11T14:11:59.1Z</time>
      </trkpt>
      <trkpt lat="47.26893" lon="4.95605">
        <ele>467</ele>
        <time>2012-12-11T14:12:01.1Z</time>
      </trkpt>
      <trkpt lat="47.26891" lon="4.95607">
        <ele>468</ele>
        <time>2012-12-11T14:12:03.1Z</time>
      </trkpt>
      <trkpt lat="47.26889" lon="4.95609">
        <ele>468</ele>
        <time>2012-12-11T14:12:05.1Z</time>
      </trkpt>
      <trkpt lat="47.26888" lon="4.95611">
        <ele>468</ele>
        <time>2012-12-11T14:12:07.1Z</time>
      </trkpt>
      <trkpt lat="47.26886" lon="4.95613">
        <ele>468</ele>
        <time>2012-12-11T14:12:09.1Z</time>
      </trkpt>
      <trkpt lat="47.26883" lon="4.95615">
        <ele>468</ele>
        <time>2012-12-11T14:12:11.1Z</time>
      </trkpt>
      <trkpt lat="47.26881" lon="4.95617">
        <ele>468</ele>
        <time>2012-12-11T14:12:13.1Z</time>
      </trkpt>
      <trkpt lat="47.26879" lon="4.95619">
        <ele>468</ele>
        <time>2012-12-11T14:12:15.1Z</time>
      </trkpt>
      <trkpt lat="47.26876" lon="4.95621">
        <ele>469</ele>
        <time>2012-12-11T14:12:18.1Z</time>
      </trkpt>
      <trkpt lat="47.26875" lon="4.95624">
        <ele>469</ele>
        <time>2012-12-11T14:12:20.1Z</time>
      </trkpt>
      <trkpt lat="47.26873" lon="4.95626">
        <ele>469</ele>
        <time>2012-12-11T14:12:22.1Z</time>
      </trkpt>
      <trkpt lat="47.2687" lon="4.95628">
        <ele>469</ele>
        <time>2012-12-11T14:12:24.1Z</time>
      </trkpt>
      <trkpt lat="47.26868" lon="4.9563">
        <ele>469</ele>
        <time>2012-12-11T14:12:26.1Z</time>
      </trkpt>
      <trkpt lat="47.26867" lon="4.95633">
        <ele>469</ele>
        <time>2012-12-11T14:12:28.1Z</time>
      </trkpt>
      <trkpt lat="47.26865" lon="4.95635">
        <ele>469</ele>
        <time>2012-12-11T14:12:30.1Z</time>
      </trkpt>
      <trkpt lat="47.26862" lon="4.95637">
        <ele>469</ele>
        <time>2012-12-11T14:12:32.1Z</time>
      </trkpt>
      <trkpt lat="47.26861" lon="4.9564">
        <ele>469</ele>
        <time>2012-12-11T14:12:34.1Z</time>
      </trkpt>
      <trkpt lat="47.26859" lon="4.95643">
        <ele>469</ele>
        <time>2012-12-11T14:12:36.1Z</time>
      </trkpt>
      <trkpt lat="47.26857" lon="4.95646">
        <ele>469</ele>
        <time>2012-12-11T14:12:38.1Z</time>
      </trkpt>
      <trkpt lat="47.26856" lon="4.95648">
        <ele>469</ele>
        <time>2012-12-11T14:12:40.1Z</time>
      </trkpt>
      <trkpt lat="47.26854" lon="4.95651">
        <ele>469</ele>
        <time>2012-12-11T14:12:42.1Z</time>
      </trkpt>
      <trkpt lat="47.26852" lon="4.95654">
        <ele>469</ele>
        <time>2012-12-11T14:12:44.1Z</time>
      </trkpt>
      <trkpt lat="47.26851" lon="4.95657">
        <ele>470</ele>
        <time>2012-12-11T14:12:46.1Z</time>
      </trkpt>
      <trkpt lat="47.26849" lon="4.95662">
        <ele>470</ele>
        <time>2012-12-11T14:12:48.1Z</time>
      </trkpt>
      <trkpt lat="47.26847" lon="4.95665">
        <ele>469</ele>
        <time>2012-12-11T14:12:50.1Z</time>
      </trkpt>
      <trkpt lat="47.26845" lon="4.95668">
        <ele>469</ele>
        <time>2012-12-11T14:12:53.1Z</time>
      </trkpt>
      <trkpt lat="47.26844" lon="4.9567">
        <ele>469</ele>
        <time>2012-12-11T14:12:55.1Z</time>
      </trkpt>
      <trkpt lat="47.26842" lon="4.95673">
        <ele>469</ele>
        <time>2012-12-11T14:12:57.1Z</time>
      </trkpt>
      <trkpt lat="47.26841" lon="4.95675">
        <ele>470</ele>
        <time>2012-12-11T14:12:59.1Z</time>
      </trkpt>
      <trkpt lat="47.26839" lon="4.95679">
        <ele>470</ele>
        <time>2012-12-11T14:13:01.1Z</time>
      </trkpt>
      <trkpt lat="47.26838" lon="4.95682">
        <ele>470</ele>
        <time>2012-12-11T14:13:04.1Z</time>
      </trkpt>
      <trkpt lat="47.26836" lon="4.95684">
        <ele>469</ele>
        <time>2012-12-11T14:13:06.1Z</time>
      </trkpt>
      <trkpt lat="47.26835" lon="4.95686">
        <ele>470</ele>
        <time>2012-12-11T14:13:08.1Z</time>
      </trkpt>
      <trkpt lat="47.26835" lon="4.95688">
        <ele>470</ele>
        <time>2012-12-11T14:13:10.1Z</time>
      </trkpt>
      <trkpt lat="47.26834" lon="4.9569">
        <ele>470</ele>
        <time>2012-12-11T14:13:12.1Z</time>
      </trkpt>
      <trkpt lat="47.26833" lon="4.95692">
        <ele>470</ele>
        <time>2012-12-11T14:13:14.1Z</time>
      </trkpt>
      <trkpt lat="47.26831" lon="4.95695">
        <ele>470</ele>
        <time>2012-12-11T14:13:16.1Z</time>
      </trkpt>
      <trkpt lat="47.2683" lon="4.95697">
        <ele>470</ele>
        <time>2012-12-11T14:13:19.1Z</time>
      </trkpt>
      <trkpt lat="47.26828" lon="4.95699">
        <ele>470</ele>
        <time>2012-12-11T14:13:21.1Z</time>
      </trkpt>
      <trkpt lat="47.26827" lon="4.95701">
        <ele>470</ele>
        <time>2012-12-11T14:13:23.1Z</time>
      </trkpt>
      <trkpt lat="47.26825" lon="4.95703">
        <ele>470</ele>
        <time>2012-12-11T14:13:25.1Z</time>
      </trkpt>
      <trkpt lat="47.26823" lon="4.95705">
        <ele>470</ele>
        <time>2012-12-11T14:13:27.1Z</time>
      </trkpt>
      <trkpt lat="47.2682" lon="4.95707">
        <ele>470</ele>
        <time>2012-12-11T14:13:29.1Z</time>
      </trkpt>
      <trkpt lat="47.26818" lon="4.95708">
        <ele>470</ele>
        <time>2012-12-11T14:13:31.1Z</time>
      </trkpt>
      <trkpt lat="47.26817" lon="4.9571">
        <ele>470</ele>
        <time>2012-12-11T14:13:34.1Z</time>
      </trkpt>
      <trkpt lat="47.26815" lon="4.95712">
        <ele>470</ele>
        <time>2012-12-11T14:13:36.1Z</time>
      </trkpt>
      <trkpt lat="47.26814" lon="4.95715">
        <ele>470</ele>
        <time>2012-12-11T14:13:38.1Z</time>
      </trkpt>
      <trkpt lat="47.26812" lon="4.95717">
        <ele>470</ele>
        <time>2012-12-11T14:13:40.1Z</time>
      </trkpt>
      <trkpt lat="47.26811" lon="4.9572">
        <ele>470</ele>
        <time>2012-12-11T14:13:42.1Z</time>
      </trkpt>
      <trkpt lat="47.26809" lon="4.95723">
        <ele>470</ele>
        <time>2012-12-11T14:13:44.1Z</time>
      </trkpt>
      <trkpt lat="47.26808" lon="4.95726">
        <ele>470</ele>
        <time>2012-12-11T14:13:46.1Z</time>
      </trkpt>
      <trkpt lat="47.26807" lon="4.95729">
        <ele>470</ele>
        <time>2012-12-11T14:13:48.1Z</time>
      </trkpt>
      <trkpt lat="47.26805" lon="4.95732">
        <ele>470</ele>
        <time>2012-12-11T14:13:50.1Z</time>
      </trkpt>
      <trkpt lat="47.26804" lon="4.95735">
        <ele>470</ele>
        <time>2012-12-11T14:13:52.1Z</time>
      </trkpt>
      <trkpt lat="47.26802" lon="4.95738">
        <ele>469</ele>
        <time>2012-12-11T14:13:54.1Z</time>
      </trkpt>
      <trkpt lat="47.26801" lon="4.95742">
        <ele>469</ele>
        <time>2012-12-11T14:13:56.1Z</time>
      </trkpt>
      <trkpt lat="47.268" lon="4.95745">
        <ele>470</ele>
        <time>2012-12-11T14:13:58.1Z</time>
      </trkpt>
      <trkpt lat="47.26799" lon="4.95748">
        <ele>469</ele>
        <time>2012-12-11T14:14:00.1Z</time>
      </trkpt>
      <trkpt lat="47.26798" lon="4.95751">
        <ele>470</ele>
        <time>2012-12-11T14:14:02.1Z</time>
      </trkpt>
      <trkpt lat="47.26796" lon="4.95755">
        <ele>470</ele>
        <time>2012-12-11T14:14:04.1Z</time>
      </trkpt>
      <trkpt lat="47.26795" lon="4.95758">
        <ele>470</ele>
        <time>2012-12-11T14:14:06.1Z</time>
      </trkpt>
      <trkpt lat="47.26794" lon="4.95761">
        <ele>470</ele>
        <time>2012-12-11T14:14:08.1Z</time>
      </trkpt>
      <trkpt lat="47.26793" lon="4.95764">
        <ele>470</ele>
        <time>2012-12-11T14:14:11.1Z</time>
      </trkpt>
      <trkpt lat="47.26791" lon="4.95767">
        <ele>470</ele>
        <time>2012-12-11T14:14:13.1Z</time>
      </trkpt>
      <trkpt lat="47.2679" lon="4.95771">
        <ele>470</ele>
        <time>2012-12-11T14:14:15.1Z</time>
      </trkpt>
      <trkpt lat="47.26788" lon="4.95774">
        <ele>470</ele>
        <time>2012-12-11T14:14:17.1Z</time>
      </trkpt>
      <trkpt lat="47.26787" lon="4.95777">
        <ele>470</ele>
        <time>2012-12-11T14:14:19.1Z</time>
      </trkpt>
      <trkpt lat="47.26786" lon="4.9578">
        <ele>470</ele>
        <time>2012-12-11T14:14:21.1Z</time>
      </trkpt>
      <trkpt lat="47.26784" lon="4.95783">
        <ele>470</ele>
        <time>2012-12-11T14:14:23.1Z</time>
      </trkpt>
      <trkpt lat="47.26782" lon="4.95785">
        <ele>469</ele>
        <time>2012-12-11T14:14:25.1Z</time>
      </trkpt>
      <trkpt lat="47.26781" lon="4.95788">
        <ele>470</ele>
        <time>2012-12-11T14:14:27.1Z</time>
      </trkpt>
      <trkpt lat="47.26779" lon="4.95789">
        <ele>470</ele>
        <time>2012-12-11T14:14:29.1Z</time>
      </trkpt>
      <trkpt lat="47.26778" lon="4.95791">
        <ele>470</ele>
        <time>2012-12-11T14:14:31.1Z</time>
      </trkpt>
      <trkpt lat="47.26775" lon="4.95795">
        <ele>470</ele>
        <time>2012-12-11T14:14:33.1Z</time>
      </trkpt>
      <trkpt lat="47.26773" lon="4.95797">
        <ele>470</ele>
        <time>2012-12-11T14:14:36.1Z</time>
      </trkpt>
      <trkpt lat="47.26771" lon="4.95798">
        <ele>470</ele>
        <time>2012-12-11T14:14:38.1Z</time>
      </trkpt>
      <trkpt lat="47.26769" lon="4.95799">
        <ele>470</ele>
        <time>2012-12-11T14:14:40.1Z</time>
      </trkpt>
      <trkpt lat="47.26767" lon="4.958">
        <ele>470</ele>
        <time>2012-12-11T14:14:42.1Z</time>
      </trkpt>
      <trkpt lat="47.26765" lon="4.95801">
        <ele>470</ele>
        <time>2012-12-11T14:14:44.1Z</time>
      </trkpt>
      <trkpt lat="47.26763" lon="4.95803">
        <ele>469</ele>
        <time>2012-12-11T14:14:46.1Z</time>
      </trkpt>
      <trkpt lat="47.26761" lon="4.95805">
        <ele>469</ele>
        <time>2012-12-11T14:14:48.1Z</time>
      </trkpt>
      <trkpt lat="47.26759" lon="4.95807">
        <ele>469</ele>
        <time>2012-12-11T14:14:50.1Z</time>
      </trkpt>
      <trkpt lat="47.26757" lon="4.95808">
        <ele>469</ele>
        <time>2012-12-11T14:14:52.1Z</time>
      </trkpt>
      <trkpt lat="47.26755" lon="4.95809">
        <ele>470</ele>
        <time>2012-12-11T14:14:54.1Z</time>
      </trkpt>
      <trkpt lat="47.26752" lon="4.95811">
        <ele>470</ele>
        <time>2012-12-11T14:14:56.1Z</time>
      </trkpt>
      <trkpt lat="47.2675" lon="4.95812">
        <ele>470</ele>
        <time>2012-12-11T14:14:58.1Z</time>
      </trkpt>
      <trkpt lat="47.26748" lon="4.95813">
        <ele>469</ele>
        <time>2012-12-11T14:15:00.1Z</time>
      </trkpt>
      <trkpt lat="47.26746" lon="4.95813">
        <ele>469</ele>
        <time>2012-12-11T14:15:02.1Z</time>
      </trkpt>
      <trkpt lat="47.26744" lon="4.95814">
        <ele>469</ele>
        <time>2012-12-11T14:15:04.1Z</time>
      </trkpt>
      <trkpt lat="47.26742" lon="4.95814">
        <ele>469</ele>
        <time>2012-12-11T14:15:06.1Z</time>
      </trkpt>
      <trkpt lat="47.2674" lon="4.95814">
        <ele>469</ele>
        <time>2012-12-11T14:15:08.1Z</time>
      </trkpt>
      <trkpt lat="47.26738" lon="4.95813">
        <ele>470</ele>
        <time>2012-12-11T14:15:10.1Z</time>
      </trkpt>
      <trkpt lat="47.26736" lon="4.95812">
        <ele>469</ele>
        <time>2012-12-11T14:15:12.1Z</time>
      </trkpt>
      <trkpt lat="47.26736" lon="4.95813">
        <ele>469</ele>
        <time>2012-12-11T14:15:14.1Z</time>
      </trkpt>
      <trkpt lat="47.26736" lon="4.95813">
        <ele>469</ele>
        <time>2012-12-11T14:15:17.1Z</time>
      </trkpt>
      <trkpt lat="47.26736" lon="4.95813">
        <ele>469</ele>
        <time>2012-12-11T14:15:19.1Z</time>
      </trkpt>
      <trkpt lat="47.26735" lon="4.95813">
        <ele>469</ele>
        <time>2012-12-11T14:15:21.1Z</time>
      </trkpt>
      <trkpt lat="47.26735" lon="4.95813">
        <ele>470</ele>
        <time>2012-12-11T14:15:23.1Z</time>
      </trkpt>
      <trkpt lat="47.26735" lon="4.95813">
        <ele>470</ele>
        <time>2012-12-11T14:15:25.1Z</time>
      </trkpt>
      <trkpt lat="47.26735" lon="4.95812">
        <ele>470</ele>
        <time>2012-12-11T14:15:27.1Z</time>
      </trkpt>
      <trkpt lat="47.26734" lon="4.95812">
        <ele>470</ele>
        <time>2012-12-11T14:15:30.1Z</time>
      </trkpt>
      <trkpt lat="47.26734" lon="4.95812">
        <ele>470</ele>
        <time>2012-12-11T14:15:32.1Z</time>
      </trkpt>
      <trkpt lat="47.26733" lon="4.95812">
        <ele>469</ele>
        <time>2012-12-11T14:15:34.1Z</time>
      </trkpt>
      <trkpt lat="47.26734" lon="4.95812">
        <ele>469</ele>
        <time>2012-12-11T14:15:36.1Z</time>
      </trkpt>
      <trkpt lat="47.26733" lon="4.95812">
        <ele>469</ele>
        <time>2012-12-11T14:15:38.1Z</time>
      </trkpt>
      <trkpt lat="47.26734" lon="4.95812">
        <ele>469</ele>
        <time>2012-12-11T14:15:40.1Z</time>
      </trkpt>
      <trkpt lat="47.26733" lon="4.95812">
        <ele>469</ele>
        <time>2012-12-11T14:15:42.1Z</time>
      </trkpt>
      <trkpt lat="47.26734" lon="4.95812">
        <ele>469</ele>
        <time>2012-12-11T14:15:44.1Z</time>
      </trkpt>
      <trkpt lat="47.26734" lon="4.95812">
        <ele>469</ele>
        <time>2012-12-11T14:15:46.1Z</time>
      </trkpt>
      <trkpt lat="47.26733" lon="4.95812">
        <ele>469</ele>
        <time>2012-12-11T14:15:48.1Z</time>
      </trkpt>
      <trkpt lat="47.26734" lon="4.95812">
        <ele>469</ele>
        <time>2012-12-11T14:15:50.1Z</time>
      </trkpt>
      <trkpt lat="47.26734" lon="4.95812">
        <ele>470</ele>
        <time>2012-12-11T14:15:52.1Z</time>
      </trkpt>
      <trkpt lat="47.26733" lon="4.95812">
        <ele>469</ele>
        <time>2012-12-11T14:15:54.1Z</time>
      </trkpt>
      <trkpt lat="47.26733" lon="4.95812">
        <ele>470</ele>
        <time>2012-12-11T14:15:56.1Z</time>
      </trkpt>
      <trkpt lat="47.26733" lon="4.95812">
        <ele>470</ele>
        <time>2012-12-11T14:15:58.1Z</time>
      </trkpt>
      <trkpt lat="47.26734" lon="4.95812">
        <ele>470</ele>
        <time>2012-12-11T14:16:00.1Z</time>
      </trkpt>
      <trkpt lat="47.26733" lon="4.95812">
        <ele>469</ele>
        <time>2012-12-11T14:16:03.1Z</time>
      </trkpt>
      <trkpt lat="47.26734" lon="4.95811">
        <ele>469</ele>
        <time>2012-12-11T14:16:05.1Z</time>
      </trkpt>
      <trkpt lat="47.26733" lon="4.95812">
        <ele>470</ele>
        <time>2012-12-11T14:16:07.1Z</time>
      </trkpt>
      <trkpt lat="47.26733" lon="4.95812">
        <ele>470</ele>
        <time>2012-12-11T14:16:09.1Z</time>
      </trkpt>
      <trkpt lat="47.26734" lon="4.95811">
        <ele>470</ele>
        <time>2012-12-11T14:16:11.1Z</time>
      </trkpt>
      <trkpt lat="47.26734" lon="4.95811">
        <ele>469</ele>
        <time>2012-12-11T14:16:13.1Z</time>
      </trkpt>
      <trkpt lat="47.26734" lon="4.95811">
        <ele>469</ele>
        <time>2012-12-11T14:16:15.1Z</time>
      </trkpt>
      <trkpt lat="47.26734" lon="4.95811">
        <ele>469</ele>
        <time>2012-12-11T14:16:17.1Z</time>
      </trkpt>
      <trkpt lat="47.26734" lon="4.95811">
        <ele>469</ele>
        <time>2012-12-11T14:16:19.1Z</time>
      </trkpt>
      <trkpt lat="47.26734" lon="4.95811">
        <ele>469</ele>
        <time>2012-12-11T14:16:21.1Z</time>
      </trkpt>
      <trkpt lat="47.26734" lon="4.95811">
        <ele>469</ele>
        <time>2012-12-11T14:16:23.1Z</time>
      </trkpt>
      <trkpt lat="47.26734" lon="4.95812">
        <ele>469</ele>
        <time>2012-12-11T14:16:25.1Z</time>
      </trkpt>
      <trkpt lat="47.26735" lon="4.95811">
        <ele>469</ele>
        <time>2012-12-11T14:16:28.1Z</time>
      </trkpt>
      <trkpt lat="47.26734" lon="4.95811">
        <ele>469</ele>
        <time>2012-12-11T14:16:30.1Z</time>
      </trkpt>
      <trkpt lat="47.26735" lon="4.95811">
        <ele>469</ele>
        <time>2012-12-11T14:16:32.1Z</time>
      </trkpt>
      <trkpt lat="47.26734" lon="4.9581">
        <ele>470</ele>
        <time>2012-12-11T14:16:34.1Z</time>
      </trkpt>
      <trkpt lat="47.26734" lon="4.9581">
        <ele>470</ele>
        <time>2012-12-11T14:16:36.1Z</time>
      </trkpt>
      <trkpt lat="47.26734" lon="4.9581">
        <ele>470</ele>
        <time>2012-12-11T14:16:38.1Z</time>
      </trkpt>
      <trkpt lat="47.26734" lon="4.9581">
        <ele>470</ele>
        <time>2012-12-11T14:16:40.1Z</time>
      </trkpt>
      <trkpt lat="47.26734" lon="4.95809">
        <ele>470</ele>
        <time>2012-12-11T14:16:43.1Z</time>
      </trkpt>
      <trkpt lat="47.26733" lon="4.95808">
        <ele>470</ele>
        <time>2012-12-11T14:16:45.1Z</time>
      </trkpt>
      <trkpt lat="47.26733" lon="4.95807">
        <ele>470</ele>
        <time>2012-12-11T14:16:47.1Z</time>
      </trkpt>
      <trkpt lat="47.26731" lon="4.95805">
        <ele>470</ele>
        <time>2012-12-11T14:16:49.1Z</time>
      </trkpt>
      <trkpt lat="47.2673" lon="4.95803">
        <ele>470</ele>
        <time>2012-12-11T14:16:51.1Z</time>
      </trkpt>
      <trkpt lat="47.26728" lon="4.95801">
        <ele>470</ele>
        <time>2012-12-11T14:16:53.1Z</time>
      </trkpt>
      <trkpt lat="47.26728" lon="4.95798">
        <ele>470</ele>
        <time>2012-12-11T14:16:55.1Z</time>
      </trkpt>
      <trkpt lat="47.26727" lon="4.95795">
        <ele>470</ele>
        <time>2012-12-11T14:16:57.1Z</time>
      </trkpt>
      <trkpt lat="47.26726" lon="4.95792">
        <ele>470</ele>
        <time>2012-12-11T14:16:59.1Z</time>
      </trkpt>
      <trkpt lat="47.26725" lon="4.95789">
        <ele>470</ele>
        <time>2012-12-11T14:17:01.1Z</time>
      </trkpt>
      <trkpt lat="47.26725" lon="4.95787">
        <ele>470</ele>
        <time>2012-12-11T14:17:03.1Z</time>
      </trkpt>
      <trkpt lat="47.26723" lon="4.95784">
        <ele>470</ele>
        <time>2012-12-11T14:17:05.1Z</time>
      </trkpt>
      <trkpt lat="47.26722" lon="4.95782">
        <ele>470</ele>
        <time>2012-12-11T14:17:07.1Z</time>
      </trkpt>
      <trkpt lat="47.2672" lon="4.95778">
        <ele>470</ele>
        <time>2012-12-11T14:17:09.1Z</time>
      </trkpt>
      <trkpt lat="47.26718" lon="4.95775">
        <ele>470</ele>
        <time>2012-12-11T14:17:12.1Z</time>
      </trkpt>
      <trkpt lat="47.26717" lon="4.95772">
        <ele>471</ele>
        <time>2012-12-11T14:17:14.1Z</time>
      </trkpt>
      <trkpt lat="47.26715" lon="4.95769">
        <ele>471</ele>
        <time>2012-12-11T14:17:16.1Z</time>
      </trkpt>
      <trkpt lat="47.26714" lon="4.95766">
        <ele>471</ele>
        <time>2012-12-11T14:17:18.1Z</time>
      </trkpt>
      <trkpt lat="47.26712" lon="4.95764">
        <ele>471</ele>
        <time>2012-12-11T14:17:20.1Z</time>
      </trkpt>
      <trkpt lat="47.26712" lon="4.95761">
        <ele>471</ele>
        <time>2012-12-11T14:17:22.1Z</time>
      </trkpt>
      <trkpt lat="47.2671" lon="4.95757">
        <ele>471</ele>
        <time>2012-12-11T14:17:24.1Z</time>
      </trkpt>
      <trkpt lat="47.26709" lon="4.95754">
        <ele>471</ele>
        <time>2012-12-11T14:17:27.1Z</time>
      </trkpt>
      <trkpt lat="47.26708" lon="4.9575">
        <ele>471</ele>
        <time>2012-12-11T14:17:29.1Z</time>
      </trkpt>
      <trkpt lat="47.26708" lon="4.95747">
        <ele>471</ele>
        <time>2012-12-11T14:17:31.1Z</time>
      </trkpt>
      <trkpt lat="47.26707" lon="4.95744">
        <ele>471</ele>
        <time>2012-12-11T14:17:33.1Z</time>
      </trkpt>
      <trkpt lat="47.26707" lon="4.95741">
        <ele>471</ele>
        <time>2012-12-11T14:17:35.1Z</time>
      </trkpt>
      <trkpt lat="47.26707" lon="4.95737">
        <ele>472</ele>
        <time>2012-12-11T14:17:37.1Z</time>
      </trkpt>
      <trkpt lat="47.26706" lon="4.95734">
        <ele>472</ele>
        <time>2012-12-11T14:17:39.1Z</time>
      </trkpt>
      <trkpt lat="47.26706" lon="4.9573">
        <ele>472</ele>
        <time>2012-12-11T14:17:41.1Z</time>
      </trkpt>
      <trkpt lat="47.26706" lon="4.95727">
        <ele>472</ele>
        <time>2012-12-11T14:17:43.1Z</time>
      </trkpt>
      <trkpt lat="47.26706" lon="4.95723">
        <ele>472</ele>
        <time>2012-12-11T14:17:45.1Z</time>
      </trkpt>
      <trkpt lat="47.26706" lon="4.95721">
        <ele>472</ele>
        <time>2012-12-11T14:17:47.1Z</time>
      </trkpt>
      <trkpt lat="47.26705" lon="4.95717">
        <ele>472</ele>
        <time>2012-12-11T14:17:49.1Z</time>
      </trkpt>
      <trkpt lat="47.26705" lon="4.95714">
        <ele>472</ele>
        <time>2012-12-11T14:17:51.1Z</time>
      </trkpt>
      <trkpt lat="47.26704" lon="4.9571">
        <ele>472</ele>
        <time>2012-12-11T14:17:53.1Z</time>
      </trkpt>
      <trkpt lat="47.26704" lon="4.95707">
        <ele>472</ele>
        <time>2012-12-11T14:17:56.1Z</time>
      </trkpt>
      <trkpt lat="47.26703" lon="4.95704">
        <ele>472</ele>
        <time>2012-12-11T14:17:58.1Z</time>
      </trkpt>
      <trkpt lat="47.26703" lon="4.95701">
        <ele>472</ele>
        <time>2012-12-11T14:18:00.1Z</time>
      </trkpt>
      <trkpt lat="47.26703" lon="4.95698">
        <ele>472</ele>
        <time>2012-12-11T14:18:02.1Z</time>
      </trkpt>
      <trkpt lat="47.26704" lon="4.95695">
        <ele>472</ele>
        <time>2012-12-11T14:18:04.1Z</time>
      </trkpt>
      <trkpt lat="47.26704" lon="4.95693">
        <ele>472</ele>
        <time>2012-12-11T14:18:06.1Z</time>
      </trkpt>
      <trkpt lat="47.26705" lon="4.95691">
        <ele>472</ele>
        <time>2012-12-11T14:18:08.1Z</time>
      </trkpt>
      <trkpt lat="47.26706" lon="4.95689">
        <ele>472</ele>
        <time>2012-12-11T14:18:10.1Z</time>
      </trkpt>
      <trkpt lat="47.26706" lon="4.95687">
        <ele>472</ele>
        <time>2012-12-11T14:18:12.1Z</time>
      </trkpt>
      <trkpt lat="47.26707" lon="4.95685">
        <ele>473</ele>
        <time>2012-12-11T14:18:14.1Z</time>
      </trkpt>
      <trkpt lat="47.26708" lon="4.95682">
        <ele>473</ele>
        <time>2012-12-11T14:18:16.1Z</time>
      </trkpt>
      <trkpt lat="47.26709" lon="4.9568">
        <ele>473</ele>
        <time>2012-12-11T14:18:18.1Z</time>
      </trkpt>
      <trkpt lat="47.26709" lon="4.95677">
        <ele>473</ele>
        <time>2012-12-11T14:18:20.1Z</time>
      </trkpt>
      <trkpt lat="47.26709" lon="4.95673">
        <ele>473</ele>
        <time>2012-12-11T14:18:22.1Z</time>
      </trkpt>
      <trkpt lat="47.26709" lon="4.9567">
        <ele>473</ele>
        <time>2012-12-11T14:18:24.1Z</time>
      </trkpt>
      <trkpt lat="47.2671" lon="4.95667">
        <ele>473</ele>
        <time>2012-12-11T14:18:26.1Z</time>
      </trkpt>
      <trkpt lat="47.2671" lon="4.95664">
        <ele>473</ele>
        <time>2012-12-11T14:18:28.1Z</time>
      </trkpt>
      <trkpt lat="47.26709" lon="4.95659">
        <ele>473</ele>
        <time>2012-12-11T14:18:30.1Z</time>
      </trkpt>
      <trkpt lat="47.26709" lon="4.95656">
        <ele>473</ele>
        <time>2012-12-11T14:18:32.1Z</time>
      </trkpt>
      <trkpt lat="47.2671" lon="4.95653">
        <ele>473</ele>
        <time>2012-12-11T14:18:34.1Z</time>
      </trkpt>
      <trkpt lat="47.26711" lon="4.95651">
        <ele>473</ele>
        <time>2012-12-11T14:18:36.1Z</time>
      </trkpt>
      <trkpt lat="47.26711" lon="4.95648">
        <ele>473</ele>
        <time>2012-12-11T14:18:38.1Z</time>
      </trkpt>
      <trkpt lat="47.26712" lon="4.95645">
        <ele>473</ele>
        <time>2012-12-11T14:18:40.1Z</time>
      </trkpt>
      <trkpt lat="47.26712" lon="4.95642">
        <ele>473</ele>
        <time>2012-12-11T14:18:42.1Z</time>
      </trkpt>
      <trkpt lat="47.26712" lon="4.95638">
        <ele>473</ele>
        <time>2012-12-11T14:18:44.1Z</time>
      </trkpt>
      <trkpt lat="47.26712" lon="4.95635">
        <ele>474</ele>
        <time>2012-12-11T14:18:47.1Z</time>
      </trkpt>
      <trkpt lat="47.26711" lon="4.95632">
        <ele>474</ele>
        <time>2012-12-11T14:18:49.1Z</time>
      </trkpt>
      <trkpt lat="47.26711" lon="4.95628">
        <ele>474</ele>
        <time>2012-12-11T14:18:51.1Z</time>
      </trkpt>
      <trkpt lat="47.2671" lon="4.95624">
        <ele>474</ele>
        <time>2012-12-11T14:18:53.1Z</time>
      </trkpt>
      <trkpt lat="47.2671" lon="4.95621">
        <ele>474</ele>
        <time>2012-12-11T14:18:55.1Z</time>
      </trkpt>
      <trkpt lat="47.26709" lon="4.95617">
        <ele>474</ele>
        <time>2012-12-11T14:18:57.1Z</time>
      </trkpt>
      <trkpt lat="47.26709" lon="4.95613">
        <ele>474</ele>
        <time>2012-12-11T14:18:59.1Z</time>
      </trkpt>
      <trkpt lat="47.26709" lon="4.95608">
        <ele>474</ele>
        <time>2012-12-11T14:19:01.1Z</time>
      </trkpt>
      <trkpt lat="47.26709" lon="4.95604">
        <ele>474</ele>
        <time>2012-12-11T14:19:04.1Z</time>
      </trkpt>
      <trkpt lat="47.26709" lon="4.95601">
        <ele>474</ele>
        <time>2012-12-11T14:19:06.1Z</time>
      </trkpt>
      <trkpt lat="47.26709" lon="4.95597">
        <ele>474</ele>
        <time>2012-12-11T14:19:08.1Z</time>
      </trkpt>
      <trkpt lat="47.26709" lon="4.95594">
        <ele>474</ele>
        <time>2012-12-11T14:19:10.1Z</time>
      </trkpt>
      <trkpt lat="47.26709" lon="4.9559">
        <ele>474</ele>
        <time>2012-12-11T14:19:12.1Z</time>
      </trkpt>
      <trkpt lat="47.2671" lon="4.95587">
        <ele>474</ele>
        <time>2012-12-11T14:19:14.1Z</time>
      </trkpt>
      <trkpt lat="47.26711" lon="4.95583">
        <ele>474</ele>
        <time>2012-12-11T14:19:16.1Z</time>
      </trkpt>
      <trkpt lat="47.2671" lon="4.9558">
        <ele>474</ele>
        <time>2012-12-11T14:19:19.1Z</time>
      </trkpt>
      <trkpt lat="47.26709" lon="4.95577">
        <ele>474</ele>
        <time>2012-12-11T14:19:21.1Z</time>
      </trkpt>
      <trkpt lat="47.26707" lon="4.95575">
        <ele>474</ele>
        <time>2012-12-11T14:19:23.1Z</time>
      </trkpt>
      <trkpt lat="47.26705" lon="4.95572">
        <ele>474</ele>
        <time>2012-12-11T14:19:25.1Z</time>
      </trkpt>
      <trkpt lat="47.26704" lon="4.95569">
        <ele>474</ele>
        <time>2012-12-11T14:19:27.1Z</time>
      </trkpt>
      <trkpt lat="47.26702" lon="4.95567">
        <ele>474</ele>
        <time>2012-12-11T14:19:29.1Z</time>
      </trkpt>
      <trkpt lat="47.26701" lon="4.95564">
        <ele>474</ele>
        <time>2012-12-11T14:19:31.1Z</time>
      </trkpt>
      <trkpt lat="47.26699" lon="4.95562">
        <ele>474</ele>
        <time>2012-12-11T14:19:33.1Z</time>
      </trkpt>
      <trkpt lat="47.26698" lon="4.95559">
        <ele>475</ele>
        <time>2012-12-11T14:19:35.1Z</time>
      </trkpt>
      <trkpt lat="47.26697" lon="4.95556">
        <ele>475</ele>
        <time>2012-12-11T14:19:37.1Z</time>
      </trkpt>
      <trkpt lat="47.26695" lon="4.95553">
        <ele>475</ele>
        <time>2012-12-11T14:19:39.1Z</time>
      </trkpt>
      <trkpt lat="47.26694" lon="4.95551">
        <ele>475</ele>
        <time>2012-12-11T14:19:41.1Z</time>
      </trkpt>
      <trkpt lat="47.26693" lon="4.95549">
        <ele>475</ele>
        <time>2012-12-11T14:19:43.1Z</time>
      </trkpt>
      <trkpt lat="47.26691" lon="4.95547">
        <ele>475</ele>
        <time>2012-12-11T14:19:46.1Z</time>
      </trkpt>
      <trkpt lat="47.2669" lon="4.95545">
        <ele>475</ele>
        <time>2012-12-11T14:19:48.1Z</time>
      </trkpt>
      <trkpt lat="47.26688" lon="4.95544">
        <ele>475</ele>
        <time>2012-12-11T14:19:50.1Z</time>
      </trkpt>
      <trkpt lat="47.26687" lon="4.95542">
        <ele>475</ele>
        <time>2012-12-11T14:19:52.1Z</time>
      </trkpt>
      <trkpt lat="47.26685" lon="4.9554">
        <ele>475</ele>
        <time>2012-12-11T14:19:54.1Z</time>
      </trkpt>
      <trkpt lat="47.26684" lon="4.95538">
        <ele>475</ele>
        <time>2012-12-11T14:19:56.1Z</time>
      </trkpt>
      <trkpt lat="47.26682" lon="4.95536">
        <ele>475</ele>
        <time>2012-12-11T14:19:58.1Z</time>
      </trkpt>
      <trkpt lat="47.26681" lon="4.95534">
        <ele>475</ele>
        <time>2012-12-11T14:20:00.1Z</time>
      </trkpt>
      <trkpt lat="47.26679" lon="4.95532">
        <ele>475</ele>
        <time>2012-12-11T14:20:02.1Z</time>
      </trkpt>
      <trkpt lat="47.26678" lon="4.95529">
        <ele>475</ele>
        <time>2012-12-11T14:20:04.1Z</time>
      </trkpt>
      <trkpt lat="47.26677" lon="4.95526">
        <ele>476</ele>
        <time>2012-12-11T14:20:06.1Z</time>
      </trkpt>
      <trkpt lat="47.26675" lon="4.95523">
        <ele>476</ele>
        <time>2012-12-11T14:20:08.1Z</time>
      </trkpt>
      <trkpt lat="47.26673" lon="4.95519">
        <ele>476</ele>
        <time>2012-12-11T14:20:10.1Z</time>
      </trkpt>
      <trkpt lat="47.26672" lon="4.95517">
        <ele>476</ele>
        <time>2012-12-11T14:20:12.1Z</time>
      </trkpt>
      <trkpt lat="47.2667" lon="4.95514">
        <ele>476</ele>
        <time>2012-12-11T14:20:15.1Z</time>
      </trkpt>
      <trkpt lat="47.26668" lon="4.95512">
        <ele>476</ele>
        <time>2012-12-11T14:20:17.1Z</time>
      </trkpt>
      <trkpt lat="47.26666" lon="4.95509">
        <ele>476</ele>
        <time>2012-12-11T14:20:19.1Z</time>
      </trkpt>
      <trkpt lat="47.26664" lon="4.95507">
        <ele>476</ele>
        <time>2012-12-11T14:20:21.1Z</time>
      </trkpt>
      <trkpt lat="47.26663" lon="4.95504">
        <ele>476</ele>
        <time>2012-12-11T14:20:23.1Z</time>
      </trkpt>
      <trkpt lat="47.26661" lon="4.95501">
        <ele>476</ele>
        <time>2012-12-11T14:20:25.1Z</time>
      </trkpt>
      <trkpt lat="47.26659" lon="4.95497">
        <ele>476</ele>
        <time>2012-12-11T14:20:27.1Z</time>
      </trkpt>
      <trkpt lat="47.26657" lon="4.95495">
        <ele>476</ele>
        <time>2012-12-11T14:20:29.1Z</time>
      </trkpt>
      <trkpt lat="47.26654" lon="4.95493">
        <ele>476</ele>
        <time>2012-12-11T14:20:31.1Z</time>
      </trkpt>
      <trkpt lat="47.26652" lon="4.95491">
        <ele>476</ele>
        <time>2012-12-11T14:20:33.1Z</time>
      </trkpt>
      <trkpt lat="47.2665" lon="4.95489">
        <ele>476</ele>
        <time>2012-12-11T14:20:35.1Z</time>
      </trkpt>
      <trkpt lat="47.26648" lon="4.95487">
        <ele>476</ele>
        <time>2012-12-11T14:20:38.1Z</time>
      </trkpt>
      <trkpt lat="47.26646" lon="4.95485">
        <ele>476</ele>
        <time>2012-12-11T14:20:40.1Z</time>
      </trkpt>
      <trkpt lat="47.26644" lon="4.95482">
        <ele>476</ele>
        <time>2012-12-11T14:20:42.1Z</time>
      </trkpt>
      <trkpt lat="47.26643" lon="4.95479">
        <ele>476</ele>
        <time>2012-12-11T14:20:44.1Z</time>
      </trkpt>
      <trkpt lat="47.26641" lon="4.95476">
        <ele>476</ele>
        <time>2012-12-11T14:20:46.1Z</time>
      </trkpt>
      <trkpt lat="47.2664" lon="4.95474">
        <ele>476</ele>
        <time>2012-12-11T14:20:48.1Z</time>
      </trkpt>
      <trkpt lat="47.26638" lon="4.95471">
        <ele>476</ele>
        <time>2012-12-11T14:20:50.1Z</time>
      </trkpt>
      <trkpt lat="47.26637" lon="4.95468">
        <ele>477</ele>
        <time>2012-12-11T14:20:52.1Z</time>
      </trkpt>
      <trkpt lat="47.26636" lon="4.95465">
        <ele>477</ele>
        <time>2012-12-11T14:20:54.1Z</time>
      </trkpt>
      <trkpt lat="47.26633" lon="4.95463">
        <ele>477</ele>
        <time>2012-12-11T14:20:56.1Z</time>
      </trkpt>
      <trkpt lat="47.26631" lon="4.95461">
        <ele>477</ele>
        <time>2012-12-11T14:20:58.1Z</time>
      </trkpt>
      <trkpt lat="47.26629" lon="4.95459">
        <ele>477</ele>
        <time>2012-12-11T14:21:01.1Z</time>
      </trkpt>
      <trkpt lat="47.26627" lon="4.95457">
        <ele>477</ele>
        <time>2012-12-11T14:21:03.1Z</time>
      </trkpt>
      <trkpt lat="47.26625" lon="4.95455">
        <ele>477</ele>
        <time>2012-12-11T14:21:05.1Z</time>
      </trkpt>
      <trkpt lat="47.26624" lon="4.95452">
        <ele>477</ele>
        <time>2012-12-11T14:21:07.1Z</time>
      </trkpt>
      <trkpt lat="47.26622" lon="4.9545">
        <ele>477</ele>
        <time>2012-12-11T14:21:09.1Z</time>
      </trkpt>
      <trkpt lat="47.2662" lon="4.95447">
        <ele>477</ele>
        <time>2012-12-11T14:21:11.1Z</time>
      </trkpt>
      <trkpt lat="47.26618" lon="4.95445">
        <ele>477</ele>
        <time>2012-12-11T14:21:13.1Z</time>
      </trkpt>
      <trkpt lat="47.26617" lon="4.95443">
        <ele>477</ele>
        <time>2012-12-11T14:21:15.1Z</time>
      </trkpt>
      <trkpt lat="47.26614" lon="4.95438">
        <ele>477</ele>
        <time>2012-12-11T14:21:17.1Z</time>
      </trkpt>
      <trkpt lat="47.26614" lon="4.95435">
        <ele>477</ele>
        <time>2012-12-11T14:21:19.1Z</time>
      </trkpt>
      <trkpt lat="47.26613" lon="4.95431">
        <ele>477</ele>
        <time>2012-12-11T14:21:21.1Z</time>
      </trkpt>
      <trkpt lat="47.26611" lon="4.95429">
        <ele>477</ele>
        <time>2012-12-11T14:21:23.1Z</time>
      </trkpt>
      <trkpt lat="47.26609" lon="4.95427">
        <ele>477</ele>
        <time>2012-12-11T14:21:26.1Z</time>
      </trkpt>
      <trkpt lat="47.26608" lon="4.95425">
        <ele>477</ele>
        <time>2012-12-11T14:21:28.1Z</time>
      </trkpt>
      <trkpt lat="47.26606" lon="4.95423">
        <ele>477</ele>
        <time>2012-12-11T14:21:30.1Z</time>
      </trkpt>
      <trkpt lat="47.26604" lon="4.95421">
        <ele>477</ele>
        <time>2012-12-11T14:21:32.1Z</time>
      </trkpt>
      <trkpt lat="47.26602" lon="4.95418">
        <ele>477</ele>
        <time>2012-12-11T14:21:34.1Z</time>
      </trkpt>
      <trkpt lat="47.266" lon="4.95416">
        <ele>477</ele>
        <time>2012-12-11T14:21:36.1Z</time>
      </trkpt>
      <trkpt lat="47.26598" lon="4.95413">
        <ele>477</ele>
        <time>2012-12-11T14:21:38.1Z</time>
      </trkpt>
      <trkpt lat="47.26596" lon="4.95411">
        <ele>477</ele>
        <time>2012-12-11T14:21:40.1Z</time>
      </trkpt>
      <trkpt lat="47.26594" lon="4.9541">
        <ele>477</ele>
        <time>2012-12-11T14:21:43.1Z</time>
      </trkpt>
      <trkpt lat="47.26592" lon="4.95409">
        <ele>477</ele>
        <time>2012-12-11T14:21:45.1Z</time>
      </trkpt>
      <trkpt lat="47.2659" lon="4.95406">
        <ele>477</ele>
        <time>2012-12-11T14:21:47.1Z</time>
      </trkpt>
      <trkpt lat="47.26589" lon="4.95405">
        <ele>477</ele>
        <time>2012-12-11T14:21:49.1Z</time>
      </trkpt>
      <trkpt lat="47.26588" lon="4.95404">
        <ele>477</ele>
        <time>2012-12-11T14:21:51.1Z</time>
      </trkpt>
      <trkpt lat="47.26587" lon="4.95403">
        <ele>477</ele>
        <time>2012-12-11T14:21:53.1Z</time>
      </trkpt>
      <trkpt lat="47.26586" lon="4.95402">
        <ele>477</ele>
        <time>2012-12-11T14:21:55.1Z</time>
      </trkpt>
      <trkpt lat="47.26585" lon="4.954">
        <ele>477</ele>
        <time>2012-12-11T14:21:58.1Z</time>
      </trkpt>
      <trkpt lat="47.26585" lon="4.954">
        <ele>477</ele>
        <time>2012-12-11T14:22:00.1Z</time>
      </trkpt>
      <trkpt lat="47.26585" lon="4.954">
        <ele>477</ele>
        <time>2012-12-11T14:22:02.1Z</time>
      </trkpt>
      <trkpt lat="47.26584" lon="4.95399">
        <ele>477</ele>
        <time>2012-12-11T14:22:04.1Z</time>
      </trkpt>
      <trkpt lat="47.26584" lon="4.95399">
        <ele>477</ele>
        <time>2012-12-11T14:22:06.1Z</time>
      </trkpt>
      <trkpt lat="47.26584" lon="4.95399">
        <ele>477</ele>
        <time>2012-12-11T14:22:08.1Z</time>
      </trkpt>
      <trkpt lat="47.26583" lon="4.95399">
        <ele>477</ele>
        <time>2012-12-11T14:22:10.1Z</time>
      </trkpt>
      <trkpt lat="47.26583" lon="4.95399">
        <ele>477</ele>
        <time>2012-12-11T14:22:12.1Z</time>
      </trkpt>
      <trkpt lat="47.26583" lon="4.95399">
        <ele>477</ele>
        <time>2012-12-11T14:22:14.1Z</time>
      </trkpt>
      <trkpt lat="47.26582" lon="4.954">
        <ele>477</ele>
        <time>2012-12-11T14:22:16.1Z</time>
      </trkpt>
      <trkpt lat="47.26582" lon="4.954">
        <ele>477</ele>
        <time>2012-12-11T14:22:18.1Z</time>
      </trkpt>
      <trkpt lat="47.26582" lon="4.95399">
        <ele>477</ele>
        <time>2012-12-11T14:22:20.1Z</time>
      </trkpt>
      <trkpt lat="47.26582" lon="4.95399">
        <ele>477</ele>
        <time>2012-12-11T14:22:22.1Z</time>
      </trkpt>
      <trkpt lat="47.26582" lon="4.95399">
        <ele>477</ele>
        <time>2012-12-11T14:22:24.1Z</time>
      </trkpt>
      <trkpt lat="47.26582" lon="4.95398">
        <ele>477</ele>
        <time>2012-12-11T14:22:27.1Z</time>
      </trkpt>
      <trkpt lat="47.26582" lon="4.95398">
        <ele>477</ele>
        <time>2012-12-11T14:22:29.1Z</time>
      </trkpt>
      <trkpt lat="47.26582" lon="4.95398">
        <ele>477</ele>
        <time>2012-12-11T14:22:31.1Z</time>
      </trkpt>
      <trkpt lat="47.26582" lon="4.95398">
        <ele>477</ele>
        <time>2012-12-11T14:22:33.1Z</time>
      </trkpt>
      <trkpt lat="47.26581" lon="4.95398">
        <ele>477</ele>
        <time>2012-12-11T14:22:35.1Z</time>
      </trkpt>
      <trkpt lat="47.2658" lon="4.95398">
        <ele>477</ele>
        <time>2012-12-11T14:22:37.1Z</time>
      </trkpt>
      <trkpt lat="47.2658" lon="4.95398">
        <ele>477</ele>
        <time>2012-12-11T14:22:40.1Z</time>
      </trkpt>
      <trkpt lat="47.26579" lon="4.95396">
        <ele>477</ele>
        <time>2012-12-11T14:22:42.1Z</time>
      </trkpt>
      <trkpt lat="47.26579" lon="4.95394">
        <ele>477</ele>
        <time>2012-12-11T14:22:44.1Z</time>
      </trkpt>
      <trkpt lat="47.26577" lon="4.95392">
        <ele>477</ele>
        <time>2012-12-11T14:22:46.1Z</time>
      </trkpt>
      <trkpt lat="47.26576" lon="4.9539">
        <ele>477</ele>
        <time>2012-12-11T14:22:48.1Z</time>
      </trkpt>
      <trkpt lat="47.26574" lon="4.95388">
        <ele>477</ele>
        <time>2012-12-11T14:22:50.1Z</time>
      </trkpt>
      <trkpt lat="47.26573" lon="4.95386">
        <ele>477</ele>
        <time>2012-12-11T14:22:52.1Z</time>
      </trkpt>
      <trkpt lat="47.26572" lon="4.95384">
        <ele>477</ele>
        <time>2012-12-11T14:22:54.1Z</time>
      </trkpt>
      <trkpt lat="47.26571" lon="4.95382">
        <ele>477</ele>
        <time>2012-12-11T14:22:57.1Z</time>
      </trkpt>
      <trkpt lat="47.2657" lon="4.95381">
        <ele>477</ele>
        <time>2012-12-11T14:22:59.1Z</time>
      </trkpt>
      <trkpt lat="47.26569" lon="4.95379">
        <ele>477</ele>
        <time>2012-12-11T14:23:01.1Z</time>
      </trkpt>
      <trkpt lat="47.26568" lon="4.95377">
        <ele>477</ele>
        <time>2012-12-11T14:23:03.1Z</time>
      </trkpt>
      <trkpt lat="47.26567" lon="4.95375">
        <ele>477</ele>
        <time>2012-12-11T14:23:05.1Z</time>
      </trkpt>
      <trkpt lat="47.26565" lon="4.95374">
        <ele>477</ele>
        <time>2012-12-11T14:23:07.1Z</time>
      </trkpt>
      <trkpt lat="47.26563" lon="4.95373">
        <ele>477</ele>
        <time>2012-12-11T14:23:09.1Z</time>
      </trkpt>
      <trkpt lat="47.26561" lon="4.95371">
        <ele>477</ele>
        <time>2012-12-11T14:23:11.1Z</time>
      </trkpt>
      <trkpt lat="47.26559" lon="4.95369">
        <ele>478</ele>
        <time>2012-12-11T14:23:14.1Z</time>
      </trkpt>
      <trkpt lat="47.26558" lon="4.95367">
        <ele>478</ele>
        <time>2012-12-11T14:23:16.1Z</time>
      </trkpt>
      <trkpt lat="47.26556" lon="4.95365">
        <ele>478</ele>
        <time>2012-12-11T14:23:18.1Z</time>
      </trkpt>
      <trkpt lat="47.26555" lon="4.95363">
        <ele>478</ele>
        <time>2012-12-11T14:23:20.1Z</time>
      </trkpt>
      <trkpt lat="47.26553" lon="4.95362">
        <ele>478</ele>
        <time>2012-12-11T14:23:22.1Z</time>
      </trkpt>
      <trkpt lat="47.26549" lon="4.9536">
        <ele>478</ele>
        <time>2012-12-11T14:23:24.1Z</time>
      </trkpt>
      <trkpt lat="47.26548" lon="4.95358">
        <ele>478</ele>
        <time>2012-12-11T14:23:26.1Z</time>
      </trkpt>
      <trkpt lat="47.26545" lon="4.95356">
        <ele>477</ele>
        <time>2012-12-11T14:23:29.1Z</time>
      </trkpt>
      <trkpt lat="47.26543" lon="4.95354">
        <ele>477</ele>
        <time>2012-12-11T14:23:31.1Z</time>
      </trkpt>
      <trkpt lat="47.26541" lon="4.95352">
        <ele>478</ele>
        <time>2012-12-11T14:23:33.1Z</time>
      </trkpt>
      <trkpt lat="47.26539" lon="4.9535">
        <ele>478</ele>
        <time>2012-12-11T14:23:35.1Z</time>
      </trkpt>
      <trkpt lat="47.26538" lon="4.95349">
        <ele>478</ele>
        <time>2012-12-11T14:23:37.1Z</time>
      </trkpt>
      <trkpt lat="47.26536" lon="4.95348">
        <ele>478</ele>
        <time>2012-12-11T14:23:39.1Z</time>
      </trkpt>
      <trkpt lat="47.26534" lon="4.95346">
        <ele>478</ele>
        <time>2012-12-11T14:23:41.1Z</time>
      </trkpt>
      <trkpt lat="47.26532" lon="4.95345">
        <ele>478</ele>
        <time>2012-12-11T14:23:43.1Z</time>
      </trkpt>
      <trkpt lat="47.26529" lon="4.95343">
        <ele>478</ele>
        <time>2012-12-11T14:23:45.1Z</time>
      </trkpt>
      <trkpt lat="47.26527" lon="4.95342">
        <ele>478</ele>
        <time>2012-12-11T14:23:47.1Z</time>
      </trkpt>
      <trkpt lat="47.26525" lon="4.95339">
        <ele>478</ele>
        <time>2012-12-11T14:23:49.1Z</time>
      </trkpt>
      <trkpt lat="47.26523" lon="4.95337">
        <ele>478</ele>
        <time>2012-12-11T14:23:51.1Z</time>
      </trkpt>
      <trkpt lat="47.26521" lon="4.95335">
        <ele>478</ele>
        <time>2012-12-11T14:23:53.1Z</time>
      </trkpt>
      <trkpt lat="47.26519" lon="4.95333">
        <ele>478</ele>
        <time>2012-12-11T14:23:55.1Z</time>
      </trkpt>
      <trkpt lat="47.26517" lon="4.95332">
        <ele>478</ele>
        <time>2012-12-11T14:23:57.1Z</time>
      </trkpt>
      <trkpt lat="47.26515" lon="4.9533">
        <ele>478</ele>
        <time>2012-12-11T14:23:59.1Z</time>
      </trkpt>
      <trkpt lat="47.26513" lon="4.95329">
        <ele>478</ele>
        <time>2012-12-11T14:24:02.1Z</time>
      </trkpt>
      <trkpt lat="47.26511" lon="4.95328">
        <ele>478</ele>
        <time>2012-12-11T14:24:04.1Z</time>
      </trkpt>
      <trkpt lat="47.2651" lon="4.95326">
        <ele>478</ele>
        <time>2012-12-11T14:24:06.1Z</time>
      </trkpt>
      <trkpt lat="47.26508" lon="4.95325">
        <ele>478</ele>
        <time>2012-12-11T14:24:08.1Z</time>
      </trkpt>
      <trkpt lat="47.26506" lon="4.95323">
        <ele>478</ele>
        <time>2012-12-11T14:24:10.1Z</time>
      </trkpt>
      <trkpt lat="47.26504" lon="4.95321">
        <ele>478</ele>
        <time>2012-12-11T14:24:12.1Z</time>
      </trkpt>
      <trkpt lat="47.26503" lon="4.95319">
        <ele>478</ele>
        <time>2012-12-11T14:24:14.1Z</time>
      </trkpt>
      <trkpt lat="47.26501" lon="4.95318">
        <ele>479</ele>
        <time>2012-12-11T14:24:16.1Z</time>
      </trkpt>
      <trkpt lat="47.26499" lon="4.95317">
        <ele>478</ele>
        <time>2012-12-11T14:24:18.1Z</time>
      </trkpt>
      <trkpt lat="47.26497" lon="4.95315">
        <ele>478</ele>
        <time>2012-12-11T14:24:20.1Z</time>
      </trkpt>
      <trkpt lat="47.26494" lon="4.95313">
        <ele>478</ele>
        <time>2012-12-11T14:24:22.1Z</time>
      </trkpt>
      <trkpt lat="47.26492" lon="4.95312">
        <ele>478</ele>
        <time>2012-12-11T14:24:25.1Z</time>
      </trkpt>
      <trkpt lat="47.26491" lon="4.95312">
        <ele>479</ele>
        <time>2012-12-11T14:24:27.1Z</time>
      </trkpt>
      <trkpt lat="47.26489" lon="4.95311">
        <ele>479</ele>
        <time>2012-12-11T14:24:29.1Z</time>
      </trkpt>
      <trkpt lat="47.26487" lon="4.95311">
        <ele>479</ele>
        <time>2012-12-11T14:24:31.1Z</time>
      </trkpt>
      <trkpt lat="47.26485" lon="4.95309">
        <ele>479</ele>
        <time>2012-12-11T14:24:33.1Z</time>
      </trkpt>
      <trkpt lat="47.26483" lon="4.95308">
        <ele>479</ele>
        <time>2012-12-11T14:24:35.1Z</time>
      </trkpt>
      <trkpt lat="47.2648" lon="4.95305">
        <ele>479</ele>
        <time>2012-12-11T14:24:37.1Z</time>
      </trkpt>
      <trkpt lat="47.26477" lon="4.95304">
        <ele>479</ele>
        <time>2012-12-11T14:24:39.1Z</time>
      </trkpt>
      <trkpt lat="47.26475" lon="4.95302">
        <ele>479</ele>
        <time>2012-12-11T14:24:41.1Z</time>
      </trkpt>
      <trkpt lat="47.26473" lon="4.95301">
        <ele>479</ele>
        <time>2012-12-11T14:24:44.1Z</time>
      </trkpt>
      <trkpt lat="47.26471" lon="4.95299">
        <ele>479</ele>
        <time>2012-12-11T14:24:46.1Z</time>
      </trkpt>
      <trkpt lat="47.26469" lon="4.95298">
        <ele>479</ele>
        <time>2012-12-11T14:24:48.1Z</time>
      </trkpt>
      <trkpt lat="47.26467" lon="4.95296">
        <ele>479</ele>
        <time>2012-12-11T14:24:50.1Z</time>
      </trkpt>
      <trkpt lat="47.26466" lon="4.95294">
        <ele>479</ele>
        <time>2012-12-11T14:24:52.1Z</time>
      </trkpt>
      <trkpt lat="47.26464" lon="4.95292">
        <ele>479</ele>
        <time>2012-12-11T14:24:54.1Z</time>
      </trkpt>
      <trkpt lat="47.26463" lon="4.95289">
        <ele>479</ele>
        <time>2012-12-11T14:24:56.1Z</time>
      </trkpt>
      <trkpt lat="47.26461" lon="4.95288">
        <ele>479</ele>
        <time>2012-12-11T14:24:58.1Z</time>
      </trkpt>
      <trkpt lat="47.26458" lon="4.95288">
        <ele>479</ele>
        <time>2012-12-11T14:25:00.1Z</time>
      </trkpt>
      <trkpt lat="47.26456" lon="4.95287">
        <ele>479</ele>
        <time>2012-12-11T14:25:02.1Z</time>
      </trkpt>
      <trkpt lat="47.26453" lon="4.95286">
        <ele>479</ele>
        <time>2012-12-11T14:25:04.1Z</time>
      </trkpt>
      <trkpt lat="47.2645" lon="4.95285">
        <ele>479</ele>
        <time>2012-12-11T14:25:06.1Z</time>
      </trkpt>
      <trkpt lat="47.26448" lon="4.95283">
        <ele>479</ele>
        <time>2012-12-11T14:25:08.1Z</time>
      </trkpt>
      <trkpt lat="47.26446" lon="4.95282">
        <ele>479</ele>
        <time>2012-12-11T14:25:11.1Z</time>
      </trkpt>
      <trkpt lat="47.26445" lon="4.95281">
        <ele>479</ele>
        <time>2012-12-11T14:25:13.1Z</time>
      </trkpt>
      <trkpt lat="47.26443" lon="4.95281">
        <ele>479</ele>
        <time>2012-12-11T14:25:15.1Z</time>
      </trkpt>
      <trkpt lat="47.26442" lon="4.9528">
        <ele>479</ele>
        <time>2012-12-11T14:25:17.1Z</time>
      </trkpt>
      <trkpt lat="47.26439" lon="4.95278">
        <ele>479</ele>
        <time>2012-12-11T14:25:19.1Z</time>
      </trkpt>
      <trkpt lat="47.26437" lon="4.95277">
        <ele>480</ele>
        <time>2012-12-11T14:25:21.1Z</time>
      </trkpt>
      <trkpt lat="47.26435" lon="4.95276">
        <ele>479</ele>
        <time>2012-12-11T14:25:24.1Z</time>
      </trkpt>
      <trkpt lat="47.26433" lon="4.95274">
        <ele>479</ele>
        <time>2012-12-11T14:25:26.1Z</time>
      </trkpt>
      <trkpt lat="47.26432" lon="4.95271">
        <ele>480</ele>
        <time>2012-12-11T14:25:28.1Z</time>
      </trkpt>
      <trkpt lat="47.26431" lon="4.95268">
        <ele>480</ele>
        <time>2012-12-11T14:25:30.1Z</time>
      </trkpt>
      <trkpt lat="47.26431" lon="4.95265">
        <ele>480</ele>
        <time>2012-12-11T14:25:32.1Z</time>
      </trkpt>
      <trkpt lat="47.2643" lon="4.95262">
        <ele>480</ele>
        <time>2012-12-11T14:25:34.1Z</time>
      </trkpt>
      <trkpt lat="47.26429" lon="4.95259">
        <ele>480</ele>
        <time>2012-12-11T14:25:36.1Z</time>
      </trkpt>
      <trkpt lat="47.26428" lon="4.95256">
        <ele>479</ele>
        <time>2012-12-11T14:25:38.1Z</time>
      </trkpt>
      <trkpt lat="47.26426" lon="4.95253">
        <ele>480</ele>
        <time>2012-12-11T14:25:40.1Z</time>
      </trkpt>
      <trkpt lat="47.26425" lon="4.9525">
        <ele>479</ele>
        <time>2012-12-11T14:25:42.1Z</time>
      </trkpt>
      <trkpt lat="47.26425" lon="4.95246">
        <ele>479</ele>
        <time>2012-12-11T14:25:44.1Z</time>
      </trkpt>
      <trkpt lat="47.26425" lon="4.95243">
        <ele>479</ele>
        <time>2012-12-11T14:25:46.1Z</time>
      </trkpt>
      <trkpt lat="47.26425" lon="4.95239">
        <ele>480</ele>
        <time>2012-12-11T14:25:48.1Z</time>
      </trkpt>
      <trkpt lat="47.26425" lon="4.95236">
        <ele>480</ele>
        <time>2012-12-11T14:25:50.1Z</time>
      </trkpt>
      <trkpt lat="47.26426" lon="4.95231">
        <ele>480</ele>
        <time>2012-12-11T14:25:52.1Z</time>
      </trkpt>
      <trkpt lat="47.26425" lon="4.95228">
        <ele>480</ele>
        <time>2012-12-11T14:25:54.1Z</time>
      </trkpt>
      <trkpt lat="47.26425" lon="4.95224">
        <ele>480</ele>
        <time>2012-12-11T14:25:56.1Z</time>
      </trkpt>
      <trkpt lat="47.26424" lon="4.95221">
        <ele>480</ele>
        <time>2012-12-11T14:25:59.1Z</time>
      </trkpt>
      <trkpt lat="47.26424" lon="4.95218">
        <ele>480</ele>
        <time>2012-12-11T14:26:01.1Z</time>
      </trkpt>
      <trkpt lat="47.26424" lon="4.95215">
        <ele>480</ele>
        <time>2012-12-11T14:26:03.1Z</time>
      </trkpt>
      <trkpt lat="47.26423" lon="4.95212">
        <ele>480</ele>
        <time>2012-12-11T14:26:05.1Z</time>
      </trkpt>
      <trkpt lat="47.26422" lon="4.95209">
        <ele>480</ele>
        <time>2012-12-11T14:26:07.1Z</time>
      </trkpt>
      <trkpt lat="47.26422" lon="4.95205">
        <ele>480</ele>
        <time>2012-12-11T14:26:09.1Z</time>
      </trkpt>
      <trkpt lat="47.26422" lon="4.95203">
        <ele>480</ele>
        <time>2012-12-11T14:26:11.1Z</time>
      </trkpt>
      <trkpt lat="47.26422" lon="4.95201">
        <ele>481</ele>
        <time>2012-12-11T14:26:13.1Z</time>
      </trkpt>
      <trkpt lat="47.26423" lon="4.95198">
        <ele>481</ele>
        <time>2012-12-11T14:26:15.1Z</time>
      </trkpt>
      <trkpt lat="47.26423" lon="4.95194">
        <ele>481</ele>
        <time>2012-12-11T14:26:17.1Z</time>
      </trkpt>
      <trkpt lat="47.26423" lon="4.95191">
        <ele>481</ele>
        <time>2012-12-11T14:26:19.1Z</time>
      </trkpt>
      <trkpt lat="47.26422" lon="4.95188">
        <ele>481</ele>
        <time>2012-12-11T14:26:22.1Z</time>
      </trkpt>
      <trkpt lat="47.26423" lon="4.95185">
        <ele>481</ele>
        <time>2012-12-11T14:26:24.1Z</time>
      </trkpt>
      <trkpt lat="47.26423" lon="4.95181">
        <ele>481</ele>
        <time>2012-12-11T14:26:26.1Z</time>
      </trkpt>
      <trkpt lat="47.26424" lon="4.95178">
        <ele>482</ele>
        <time>2012-12-11T14:26:28.1Z</time>
      </trkpt>
      <trkpt lat="47.26425" lon="4.95175">
        <ele>481</ele>
        <time>2012-12-11T14:26:30.1Z</time>
      </trkpt>
      <trkpt lat="47.26426" lon="4.9517">
        <ele>482</ele>
        <time>2012-12-11T14:26:32.1Z</time>
      </trkpt>
      <trkpt lat="47.26427" lon="4.95165">
        <ele>482</ele>
        <time>2012-12-11T14:26:34.1Z</time>
      </trkpt>
      <trkpt lat="47.26428" lon="4.95162">
        <ele>481</ele>
        <time>2012-12-11T14:26:36.1Z</time>
      </trkpt>
      <trkpt lat="47.26428" lon="4.95159">
        <ele>481</ele>
        <time>2012-12-11T14:26:39.1Z</time>
      </trkpt>
      <trkpt lat="47.26428" lon="4.95155">
        <ele>481</ele>
        <time>2012-12-11T14:26:41.1Z</time>
      </trkpt>
      <trkpt lat="47.26429" lon="4.95153">
        <ele>482</ele>
        <time>2012-12-11T14:26:43.1Z</time>
      </trkpt>
      <trkpt lat="47.2643" lon="4.9515">
        <ele>482</ele>
        <time>2012-12-11T14:26:45.1Z</time>
      </trkpt>
      <trkpt lat="47.26431" lon="4.95147">
        <ele>482</ele>
        <time>2012-12-11T14:26:47.1Z</time>
      </trkpt>
      <trkpt lat="47.26431" lon="4.95142">
        <ele>482</ele>
        <time>2012-12-11T14:26:49.1Z</time>
      </trkpt>
      <trkpt lat="47.26431" lon="4.95139">
        <ele>482</ele>
        <time>2012-12-11T14:26:51.1Z</time>
      </trkpt>
      <trkpt lat="47.26429" lon="4.95137">
        <ele>482</ele>
        <time>2012-12-11T14:26:54.1Z</time>
      </trkpt>
      <trkpt lat="47.26427" lon="4.95135">
        <ele>482</ele>
        <time>2012-12-11T14:26:56.1Z</time>
      </trkpt>
      <trkpt lat="47.26426" lon="4.95133">
        <ele>482</ele>
        <time>2012-12-11T14:26:58.1Z</time>
      </trkpt>
      <trkpt lat="47.26424" lon="4.95132">
        <ele>482</ele>
        <time>2012-12-11T14:27:00.1Z</time>
      </trkpt>
      <trkpt lat="47.26422" lon="4.95131">
        <ele>482</ele>
        <time>2012-12-11T14:27:02.1Z</time>
      </trkpt>
      <trkpt lat="47.26421" lon="4.95128">
        <ele>481</ele>
        <time>2012-12-11T14:27:04.1Z</time>
      </trkpt>
      <trkpt lat="47.26419" lon="4.95125">
        <ele>482</ele>
        <time>2012-12-11T14:27:06.1Z</time>
      </trkpt>
      <trkpt lat="47.26417" lon="4.95123">
        <ele>482</ele>
        <time>2012-12-11T14:27:08.1Z</time>
      </trkpt>
      <trkpt lat="47.26415" lon="4.95121">
        <ele>482</ele>
        <time>2012-12-11T14:27:10.1Z</time>
      </trkpt>
      <trkpt lat="47.26413" lon="4.9512">
        <ele>482</ele>
        <time>2012-12-11T14:27:12.1Z</time>
      </trkpt>
      <trkpt lat="47.26411" lon="4.95119">
        <ele>482</ele>
        <time>2012-12-11T14:27:14.1Z</time>
      </trkpt>
      <trkpt lat="47.2641" lon="4.95118">
        <ele>482</ele>
        <time>2012-12-11T14:27:16.1Z</time>
      </trkpt>
      <trkpt lat="47.26407" lon="4.95117">
        <ele>482</ele>
        <time>2012-12-11T14:27:18.1Z</time>
      </trkpt>
      <trkpt lat="47.26405" lon="4.95117">
        <ele>482</ele>
        <time>2012-12-11T14:27:20.1Z</time>
      </trkpt>
      <trkpt lat="47.26401" lon="4.95116">
        <ele>482</ele>
        <time>2012-12-11T14:27:22.1Z</time>
      </trkpt>
      <trkpt lat="47.26399" lon="4.95116">
        <ele>482</ele>
        <time>2012-12-11T14:27:24.1Z</time>
      </trkpt>
      <trkpt lat="47.26397" lon="4.95115">
        <ele>482</ele>
        <time>2012-12-11T14:27:26.1Z</time>
      </trkpt>
      <trkpt lat="47.26395" lon="4.95114">
        <ele>482</ele>
        <time>2012-12-11T14:27:28.1Z</time>
      </trkpt>
      <trkpt lat="47.26393" lon="4.95113">
        <ele>482</ele>
        <time>2012-12-11T14:27:30.1Z</time>
      </trkpt>
      <trkpt lat="47.2639" lon="4.95111">
        <ele>482</ele>
        <time>2012-12-11T14:27:33.1Z</time>
      </trkpt>
      <trkpt lat="47.26389" lon="4.9511">
        <ele>482</ele>
        <time>2012-12-11T14:27:35.1Z</time>
      </trkpt>
      <trkpt lat="47.26386" lon="4.95109">
        <ele>482</ele>
        <time>2012-12-11T14:27:37.1Z</time>
      </trkpt>
      <trkpt lat="47.26384" lon="4.95108">
        <ele>481</ele>
        <time>2012-12-11T14:27:39.1Z</time>
      </trkpt>
      <trkpt lat="47.26382" lon="4.95106">
        <ele>481</ele>
        <time>2012-12-11T14:27:41.1Z</time>
      </trkpt>
      <trkpt lat="47.2638" lon="4.95105">
        <ele>481</ele>
        <time>2012-12-11T14:27:43.1Z</time>
      </trkpt>
      <trkpt lat="47.26378" lon="4.95104">
        <ele>481</ele>
        <time>2012-12-11T14:27:45.1Z</time>
      </trkpt>
      <trkpt lat="47.26376" lon="4.95103">
        <ele>481</ele>
        <time>2012-12-11T14:27:47.1Z</time>
      </trkpt>
      <trkpt lat="47.26374" lon="4.95101">
        <ele>481</ele>
        <time>2012-12-11T14:27:49.1Z</time>
      </trkpt>
      <trkpt lat="47.26371" lon="4.951">
        <ele>481</ele>
        <time>2012-12-11T14:27:51.1Z</time>
      </trkpt>
      <trkpt lat="47.26368" lon="4.95098">
        <ele>481</ele>
        <time>2012-12-11T14:27:53.1Z</time>
      </trkpt>
      <trkpt lat="47.26366" lon="4.95097">
        <ele>481</ele>
        <time>2012-12-11T14:27:55.1Z</time>
      </trkpt>
      <trkpt lat="47.26364" lon="4.95096">
        <ele>481</ele>
        <time>2012-12-11T14:27:58.1Z</time>
      </trkpt>
      <trkpt lat="47.26362" lon="4.95094">
        <ele>481</ele>
        <time>2012-12-11T14:28:00.1Z</time>
      </trkpt>
      <trkpt lat="47.26359" lon="4.95093">
        <ele>481</ele>
        <time>2012-12-11T14:28:02.1Z</time>
      </trkpt>
      <trkpt lat="47.26356" lon="4.95093">
        <ele>481</ele>
        <time>2012-12-11T14:28:04.1Z</time>
      </trkpt>
      <trkpt lat="47.26354" lon="4.95091">
        <ele>481</ele>
        <time>2012-12-11T14:28:06.1Z</time>
      </trkpt>
      <trkpt lat="47.26351" lon="4.95089">
        <ele>481</ele>
        <time>2012-12-11T14:28:08.1Z</time>
      </trkpt>
      <trkpt lat="47.26349" lon="4.95088">
        <ele>481</ele>
        <time>2012-12-11T14:28:10.1Z</time>
      </trkpt>
      <trkpt lat="47.26347" lon="4.95087">
        <ele>481</ele>
        <time>2012-12-11T14:28:12.1Z</time>
      </trkpt>
      <trkpt lat="47.26344" lon="4.95086">
        <ele>481</ele>
        <time>2012-12-11T14:28:14.1Z</time>
      </trkpt>
      <trkpt lat="47.26342" lon="4.95086">
        <ele>481</ele>
        <time>2012-12-11T14:28:16.1Z</time>
      </trkpt>
      <trkpt lat="47.2634" lon="4.95084">
        <ele>481</ele>
        <time>2012-12-11T14:28:18.1Z</time>
      </trkpt>
      <trkpt lat="47.26337" lon="4.95084">
        <ele>481</ele>
        <time>2012-12-11T14:28:21.1Z</time>
      </trkpt>
      <trkpt lat="47.26335" lon="4.95083">
        <ele>481</ele>
        <time>2012-12-11T14:28:23.1Z</time>
      </trkpt>
      <trkpt lat="47.26333" lon="4.95081">
        <ele>480</ele>
        <time>2012-12-11T14:28:25.1Z</time>
      </trkpt>
      <trkpt lat="47.26331" lon="4.9508">
        <ele>480</ele>
        <time>2012-12-11T14:28:27.1Z</time>
      </trkpt>
      <trkpt lat="47.26329" lon="4.95079">
        <ele>480</ele>
        <time>2012-12-11T14:28:29.1Z</time>
      </trkpt>
      <trkpt lat="47.26327" lon="4.95078">
        <ele>480</ele>
        <time>2012-12-11T14:28:31.1Z</time>
      </trkpt>
      <trkpt lat="47.26324" lon="4.95078">
        <ele>480</ele>
        <time>2012-12-11T14:28:33.1Z</time>
      </trkpt>
      <trkpt lat="47.26322" lon="4.95077">
        <ele>480</ele>
        <time>2012-12-11T14:28:35.1Z</time>
      </trkpt>
      <trkpt lat="47.2632" lon="4.95077">
        <ele>480</ele>
        <time>2012-12-11T14:28:37.1Z</time>
      </trkpt>
      <trkpt lat="47.26317" lon="4.95075">
        <ele>480</ele>
        <time>2012-12-11T14:28:39.1Z</time>
      </trkpt>
      <trkpt lat="47.26314" lon="4.95074">
        <ele>480</ele>
        <time>2012-12-11T14:28:41.1Z</time>
      </trkpt>
      <trkpt lat="47.26312" lon="4.95073">
        <ele>480</ele>
        <time>2012-12-11T14:28:43.1Z</time>
      </trkpt>
      <trkpt lat="47.2631" lon="4.95072">
        <ele>480</ele>
        <time>2012-12-11T14:28:46.1Z</time>
      </trkpt>
      <trkpt lat="47.26308" lon="4.95071">
        <ele>480</ele>
        <time>2012-12-11T14:28:48.1Z</time>
      </trkpt>
      <trkpt lat="47.26305" lon="4.9507">
        <ele>480</ele>
        <time>2012-12-11T14:28:50.1Z</time>
      </trkpt>
      <trkpt lat="47.26303" lon="4.9507">
        <ele>479</ele>
        <time>2012-12-11T14:28:52.1Z</time>
      </trkpt>
      <trkpt lat="47.263" lon="4.95069">
        <ele>479</ele>
        <time>2012-12-11T14:28:54.1Z</time>
      </trkpt>
      <trkpt lat="47.26297" lon="4.95067">
        <ele>479</ele>
        <time>2012-12-11T14:28:56.1Z</time>
      </trkpt>
      <trkpt lat="47.26294" lon="4.95066">
        <ele>479</ele>
        <time>2012-12-11T14:28:58.1Z</time>
      </trkpt>
      <trkpt lat="47.26292" lon="4.95065">
        <ele>479</ele>
        <time>2012-12-11T14:29:00.1Z</time>
      </trkpt>
      <trkpt lat="47.2629" lon="4.95064">
        <ele>479</ele>
        <time>2012-12-11T14:29:02.1Z</time>
      </trkpt>
      <trkpt lat="47.26288" lon="4.95063">
        <ele>479</ele>
        <time>2012-12-11T14:29:04.1Z</time>
      </trkpt>
      <trkpt lat="47.26286" lon="4.95063">
        <ele>479</ele>
        <time>2012-12-11T14:29:06.1Z</time>
      </trkpt>
      <trkpt lat="47.26284" lon="4.95062">
        <ele>479</ele>
        <time>2012-12-11T14:29:08.1Z</time>
      </trkpt>
      <trkpt lat="47.26281" lon="4.95062">
        <ele>479</ele>
        <time>2012-12-11T14:29:11.1Z</time>
      </trkpt>
      <trkpt lat="47.26279" lon="4.95061">
        <ele>479</ele>
        <time>2012-12-11T14:29:13.1Z</time>
      </trkpt>
      <trkpt lat="47.26277" lon="4.9506">
        <ele>479</ele>
        <time>2012-12-11T14:29:15.1Z</time>
      </trkpt>
      <trkpt lat="47.26275" lon="4.95059">
        <ele>479</ele>
        <time>2012-12-11T14:29:17.1Z</time>
      </trkpt>
      <trkpt lat="47.26273" lon="4.95058">
        <ele>478</ele>
        <time>2012-12-11T14:29:19.1Z</time>
      </trkpt>
      <trkpt lat="47.2627" lon="4.95057">
        <ele>478</ele>
        <time>2012-12-11T14:29:21.1Z</time>
      </trkpt>
      <trkpt lat="47.26268" lon="4.95056">
        <ele>478</ele>
        <time>2012-12-11T14:29:23.1Z</time>
      </trkpt>
      <trkpt lat="47.26265" lon="4.95054">
        <ele>478</ele>
        <time>2012-12-11T14:29:25.1Z</time>
      </trkpt>
      <trkpt lat="47.26263" lon="4.95053">
        <ele>478</ele>
        <time>2012-12-11T14:29:27.1Z</time>
      </trkpt>
      <trkpt lat="47.26261" lon="4.95051">
        <ele>478</ele>
        <time>2012-12-11T14:29:29.1Z</time>
      </trkpt>
      <trkpt lat="47.26259" lon="4.9505">
        <ele>478</ele>
        <time>2012-12-11T14:29:31.1Z</time>
      </trkpt>
      <trkpt lat="47.26257" lon="4.95049">
        <ele>478</ele>
        <time>2012-12-11T14:29:34.1Z</time>
      </trkpt>
      <trkpt lat="47.26255" lon="4.95048">
        <ele>478</ele>
        <time>2012-12-11T14:29:36.1Z</time>
      </trkpt>
      <trkpt lat="47.26253" lon="4.95047">
        <ele>478</ele>
        <time>2012-12-11T14:29:38.1Z</time>
      </trkpt>
      <trkpt lat="47.26251" lon="4.95046">
        <ele>478</ele>
        <time>2012-12-11T14:29:40.1Z</time>
      </trkpt>
      <trkpt lat="47.26249" lon="4.95045">
        <ele>477</ele>
        <time>2012-12-11T14:29:42.1Z</time>
      </trkpt>
      <trkpt lat="47.26247" lon="4.95043">
        <ele>477</ele>
        <time>2012-12-11T14:29:44.1Z</time>
      </trkpt>
      <trkpt lat="47.26245" lon="4.95042">
        <ele>477</ele>
        <time>2012-12-11T14:29:46.1Z</time>
      </trkpt>
      <trkpt lat="47.26244" lon="4.95042">
        <ele>477</ele>
        <time>2012-12-11T14:29:48.1Z</time>
      </trkpt>
      <trkpt lat="47.26242" lon="4.9504">
        <ele>477</ele>
        <time>2012-12-11T14:29:50.1Z</time>
      </trkpt>
      <trkpt lat="47.2624" lon="4.95039">
        <ele>477</ele>
        <time>2012-12-11T14:29:52.1Z</time>
      </trkpt>
      <trkpt lat="47.26238" lon="4.95038">
        <ele>477</ele>
        <time>2012-12-11T14:29:54.1Z</time>
      </trkpt>
      <trkpt lat="47.26236" lon="4.95036">
        <ele>477</ele>
        <time>2012-12-11T14:29:56.1Z</time>
      </trkpt>
      <trkpt lat="47.26234" lon="4.95034">
        <ele>477</ele>
        <time>2012-12-11T14:29:58.1Z</time>
      </trkpt>
      <trkpt lat="47.26232" lon="4.95032">
        <ele>476</ele>
        <time>2012-12-11T14:30:00.1Z</time>
      </trkpt>
      <trkpt lat="47.2623" lon="4.95031">
        <ele>476</ele>
        <time>2012-12-11T14:30:02.1Z</time>
      </trkpt>
      <trkpt lat="47.26228" lon="4.9503">
        <ele>476</ele>
        <time>2012-12-11T14:30:04.1Z</time>
      </trkpt>
      <trkpt lat="47.26227" lon="4.95028">
        <ele>476</ele>
        <time>2012-12-11T14:30:06.1Z</time>
      </trkpt>
      <trkpt lat="47.26226" lon="4.95027">
        <ele>476</ele>
        <time>2012-12-11T14:30:08.1Z</time>
      </trkpt>
      <trkpt lat="47.26224" lon="4.95027">
        <ele>476</ele>
        <time>2012-12-11T14:30:11.1Z</time>
      </trkpt>
      <trkpt lat="47.26222" lon="4.95027">
        <ele>476</ele>
        <time>2012-12-11T14:30:13.1Z</time>
      </trkpt>
      <trkpt lat="47.2622" lon="4.95027">
        <ele>476</ele>
        <time>2012-12-11T14:30:15.1Z</time>
      </trkpt>
      <trkpt lat="47.26217" lon="4.95025">
        <ele>476</ele>
        <time>2012-12-11T14:30:17.1Z</time>
      </trkpt>
      <trkpt lat="47.26215" lon="4.95024">
        <ele>476</ele>
        <time>2012-12-11T14:30:19.1Z</time>
      </trkpt>
      <trkpt lat="47.26213" lon="4.95023">
        <ele>475</ele>
        <time>2012-12-11T14:30:21.1Z</time>
      </trkpt>
      <trkpt lat="47.26212" lon="4.95022">
        <ele>475</ele>
        <time>2012-12-11T14:30:23.1Z</time>
      </trkpt>
      <trkpt lat="47.2621" lon="4.95022">
        <ele>475</ele>
        <time>2012-12-11T14:30:25.1Z</time>
      </trkpt>
      <trkpt lat="47.26207" lon="4.95021">
        <ele>475</ele>
        <time>2012-12-11T14:30:27.1Z</time>
      </trkpt>
      <trkpt lat="47.26205" lon="4.9502">
        <ele>475</ele>
        <time>2012-12-11T14:30:29.1Z</time>
      </trkpt>
      <trkpt lat="47.26203" lon="4.95019">
        <ele>475</ele>
        <time>2012-12-11T14:30:31.1Z</time>
      </trkpt>
      <trkpt lat="47.26201" lon="4.95018">
        <ele>475</ele>
        <time>2012-12-11T14:30:33.1Z</time>
      </trkpt>
      <trkpt lat="47.26199" lon="4.95017">
        <ele>475</ele>
        <time>2012-12-11T14:30:35.1Z</time>
      </trkpt>
      <trkpt lat="47.26196" lon="4.95015">
        <ele>474</ele>
        <time>2012-12-11T14:30:37.1Z</time>
      </trkpt>
      <trkpt lat="47.26194" lon="4.95012">
        <ele>474</ele>
        <time>2012-12-11T14:30:39.1Z</time>
      </trkpt>
      <trkpt lat="47.26193" lon="4.9501">
        <ele>475</ele>
        <time>2012-12-11T14:30:41.1Z</time>
      </trkpt>
      <trkpt lat="47.26192" lon="4.95007">
        <ele>474</ele>
        <time>2012-12-11T14:30:44.1Z</time>
      </trkpt>
      <trkpt lat="47.26192" lon="4.95004">
        <ele>474</ele>
        <time>2012-12-11T14:30:46.1Z</time>
      </trkpt>
      <trkpt lat="47.26191" lon="4.95001">
        <ele>474</ele>
        <time>2012-12-11T14:30:48.1Z</time>
      </trkpt>
      <trkpt lat="47.26191" lon="4.94998">
        <ele>474</ele>
        <time>2012-12-11T14:30:50.1Z</time>
      </trkpt>
      <trkpt lat="47.26191" lon="4.94997">
        <ele>474</ele>
        <time>2012-12-11T14:30:52.1Z</time>
      </trkpt>
      <trkpt lat="47.26192" lon="4.94994">
        <ele>474</ele>
        <time>2012-12-11T14:30:54.1Z</time>
      </trkpt>
      <trkpt lat="47.26192" lon="4.94991">
        <ele>474</ele>
        <time>2012-12-11T14:30:56.1Z</time>
      </trkpt>
      <trkpt lat="47.26192" lon="4.9499">
        <ele>475</ele>
        <time>2012-12-11T14:30:58.1Z</time>
      </trkpt>
      <trkpt lat="47.26193" lon="4.94987">
        <ele>475</ele>
        <time>2012-12-11T14:31:00.1Z</time>
      </trkpt>
      <trkpt lat="47.26193" lon="4.94985">
        <ele>475</ele>
        <time>2012-12-11T14:31:02.1Z</time>
      </trkpt>
      <trkpt lat="47.26194" lon="4.94983">
        <ele>475</ele>
        <time>2012-12-11T14:31:04.1Z</time>
      </trkpt>
      <trkpt lat="47.26194" lon="4.94979">
        <ele>475</ele>
        <time>2012-12-11T14:31:06.1Z</time>
      </trkpt>
      <trkpt lat="47.26195" lon="4.94976">
        <ele>475</ele>
        <time>2012-12-11T14:31:08.1Z</time>
      </trkpt>
      <trkpt lat="47.26197" lon="4.94972">
        <ele>476</ele>
        <time>2012-12-11T14:31:10.1Z</time>
      </trkpt>
      <trkpt lat="47.26197" lon="4.94969">
        <ele>475</ele>
        <time>2012-12-11T14:31:12.1Z</time>
      </trkpt>
      <trkpt lat="47.26198" lon="4.94966">
        <ele>475</ele>
        <time>2012-12-11T14:31:14.1Z</time>
      </trkpt>
      <trkpt lat="47.26198" lon="4.94964">
        <ele>476</ele>
        <time>2012-12-11T14:31:16.1Z</time>
      </trkpt>
      <trkpt lat="47.26199" lon="4.94961">
        <ele>475</ele>
        <time>2012-12-11T14:31:19.1Z</time>
      </trkpt>
      <trkpt lat="47.26199" lon="4.94957">
        <ele>475</ele>
        <time>2012-12-11T14:31:21.1Z</time>
      </trkpt>
      <trkpt lat="47.26198" lon="4.94955">
        <ele>475</ele>
        <time>2012-12-11T14:31:23.1Z</time>
      </trkpt>
      <trkpt lat="47.26197" lon="4.94954">
        <ele>475</ele>
        <time>2012-12-11T14:31:25.1Z</time>
      </trkpt>
      <trkpt lat="47.26195" lon="4.94952">
        <ele>475</ele>
        <time>2012-12-11T14:31:27.1Z</time>
      </trkpt>
      <trkpt lat="47.26194" lon="4.94951">
        <ele>475</ele>
        <time>2012-12-11T14:31:29.1Z</time>
      </trkpt>
      <trkpt lat="47.26192" lon="4.94949">
        <ele>475</ele>
        <time>2012-12-11T14:31:31.1Z</time>
      </trkpt>
      <trkpt lat="47.2619" lon="4.94947">
        <ele>475</ele>
        <time>2012-12-11T14:31:33.1Z</time>
      </trkpt>
      <trkpt lat="47.26189" lon="4.94946">
        <ele>475</ele>
        <time>2012-12-11T14:31:35.1Z</time>
      </trkpt>
      <trkpt lat="47.26187" lon="4.94945">
        <ele>474</ele>
        <time>2012-12-11T14:31:37.1Z</time>
      </trkpt>
      <trkpt lat="47.26185" lon="4.94944">
        <ele>474</ele>
        <time>2012-12-11T14:31:39.1Z</time>
      </trkpt>
      <trkpt lat="47.26183" lon="4.94943">
        <ele>474</ele>
        <time>2012-12-11T14:31:41.1Z</time>
      </trkpt>
      <trkpt lat="47.26181" lon="4.94942">
        <ele>474</ele>
        <time>2012-12-11T14:31:43.1Z</time>
      </trkpt>
      <trkpt lat="47.26178" lon="4.9494">
        <ele>474</ele>
        <time>2012-12-11T14:31:45.1Z</time>
      </trkpt>
      <trkpt lat="47.26176" lon="4.94938">
        <ele>473</ele>
        <time>2012-12-11T14:31:47.1Z</time>
      </trkpt>
      <trkpt lat="47.26174" lon="4.94937">
        <ele>473</ele>
        <time>2012-12-11T14:31:49.1Z</time>
      </trkpt>
      <trkpt lat="47.26172" lon="4.94937">
        <ele>473</ele>
        <time>2012-12-11T14:31:51.1Z</time>
      </trkpt>
      <trkpt lat="47.2617" lon="4.94936">
        <ele>473</ele>
        <time>2012-12-11T14:31:53.1Z</time>
      </trkpt>
      <trkpt lat="47.26168" lon="4.94935">
        <ele>473</ele>
        <time>2012-12-11T14:31:55.1Z</time>
      </trkpt>
      <trkpt lat="47.26166" lon="4.94933">
        <ele>473</ele>
        <time>2012-12-11T14:31:58.1Z</time>
      </trkpt>
      <trkpt lat="47.26164" lon="4.94932">
        <ele>473</ele>
        <time>2012-12-11T14:32:00.1Z</time>
      </trkpt>
      <trkpt lat="47.26162" lon="4.94931">
        <ele>473</ele>
        <time>2012-12-11T14:32:02.1Z</time>
      </trkpt>
      <trkpt lat="47.2616" lon="4.94931">
        <ele>473</ele>
        <time>2012-12-11T14:32:04.1Z</time>
      </trkpt>
      <trkpt lat="47.26156" lon="4.94928">
        <ele>472</ele>
        <time>2012-12-11T14:32:06.1Z</time>
      </trkpt>
      <trkpt lat="47.26154" lon="4.94928">
        <ele>472</ele>
        <time>2012-12-11T14:32:08.1Z</time>
      </trkpt>
      <trkpt lat="47.26152" lon="4.94927">
        <ele>472</ele>
        <time>2012-12-11T14:32:11.1Z</time>
      </trkpt>
      <trkpt lat="47.26149" lon="4.94926">
        <ele>472</ele>
        <time>2012-12-11T14:32:13.1Z</time>
      </trkpt>
      <trkpt lat="47.26147" lon="4.94924">
        <ele>472</ele>
        <time>2012-12-11T14:32:15.1Z</time>
      </trkpt>
      <trkpt lat="47.26145" lon="4.94923">
        <ele>472</ele>
        <time>2012-12-11T14:32:17.1Z</time>
      </trkpt>
      <trkpt lat="47.26143" lon="4.94923">
        <ele>472</ele>
        <time>2012-12-11T14:32:19.1Z</time>
      </trkpt>
      <trkpt lat="47.26141" lon="4.94922">
        <ele>472</ele>
        <time>2012-12-11T14:32:21.1Z</time>
      </trkpt>
      <trkpt lat="47.26139" lon="4.94921">
        <ele>471</ele>
        <time>2012-12-11T14:32:23.1Z</time>
      </trkpt>
      <trkpt lat="47.26137" lon="4.9492">
        <ele>471</ele>
        <time>2012-12-11T14:32:25.1Z</time>
      </trkpt>
      <trkpt lat="47.26136" lon="4.94919">
        <ele>471</ele>
        <time>2012-12-11T14:32:27.1Z</time>
      </trkpt>
      <trkpt lat="47.26134" lon="4.94918">
        <ele>471</ele>
        <time>2012-12-11T14:32:29.1Z</time>
      </trkpt>
      <trkpt lat="47.26131" lon="4.94917">
        <ele>471</ele>
        <time>2012-12-11T14:32:31.1Z</time>
      </trkpt>
      <trkpt lat="47.2613" lon="4.94915">
        <ele>471</ele>
        <time>2012-12-11T14:32:33.1Z</time>
      </trkpt>
      <trkpt lat="47.26126" lon="4.94913">
        <ele>470</ele>
        <time>2012-12-11T14:32:35.1Z</time>
      </trkpt>
      <trkpt lat="47.26124" lon="4.94912">
        <ele>470</ele>
        <time>2012-12-11T14:32:37.1Z</time>
      </trkpt>
      <trkpt lat="47.26122" lon="4.94911">
        <ele>471</ele>
        <time>2012-12-11T14:32:39.1Z</time>
      </trkpt>
      <trkpt lat="47.2612" lon="4.9491">
        <ele>470</ele>
        <time>2012-12-11T14:32:42.1Z</time>
      </trkpt>
      <trkpt lat="47.26118" lon="4.94908">
        <ele>470</ele>
        <time>2012-12-11T14:32:44.1Z</time>
      </trkpt>
      <trkpt lat="47.26116" lon="4.94907">
        <ele>470</ele>
        <time>2012-12-11T14:32:46.1Z</time>
      </trkpt>
      <trkpt lat="47.26114" lon="4.94905">
        <ele>470</ele>
        <time>2012-12-11T14:32:48.1Z</time>
      </trkpt>
      <trkpt lat="47.26112" lon="4.94904">
        <ele>469</ele>
        <time>2012-12-11T14:32:50.1Z</time>
      </trkpt>
      <trkpt lat="47.26109" lon="4.94903">
        <ele>469</ele>
        <time>2012-12-11T14:32:52.1Z</time>
      </trkpt>
      <trkpt lat="47.26107" lon="4.94902">
        <ele>469</ele>
        <time>2012-12-11T14:32:54.1Z</time>
      </trkpt>
      <trkpt lat="47.26105" lon="4.94901">
        <ele>469</ele>
        <time>2012-12-11T14:32:56.1Z</time>
      </trkpt>
      <trkpt lat="47.26103" lon="4.949">
        <ele>469</ele>
        <time>2012-12-11T14:32:58.1Z</time>
      </trkpt>
      <trkpt lat="47.26101" lon="4.94898">
        <ele>469</ele>
        <time>2012-12-11T14:33:00.1Z</time>
      </trkpt>
      <trkpt lat="47.26099" lon="4.94896">
        <ele>469</ele>
        <time>2012-12-11T14:33:02.1Z</time>
      </trkpt>
      <trkpt lat="47.26097" lon="4.94895">
        <ele>469</ele>
        <time>2012-12-11T14:33:04.1Z</time>
      </trkpt>
      <trkpt lat="47.26096" lon="4.94894">
        <ele>469</ele>
        <time>2012-12-11T14:33:06.1Z</time>
      </trkpt>
      <trkpt lat="47.26094" lon="4.94893">
        <ele>469</ele>
        <time>2012-12-11T14:33:08.1Z</time>
      </trkpt>
      <trkpt lat="47.26091" lon="4.94891">
        <ele>468</ele>
        <time>2012-12-11T14:33:10.1Z</time>
      </trkpt>
      <trkpt lat="47.26089" lon="4.94891">
        <ele>469</ele>
        <time>2012-12-11T14:33:12.1Z</time>
      </trkpt>
      <trkpt lat="47.26086" lon="4.9489">
        <ele>468</ele>
        <time>2012-12-11T14:33:14.1Z</time>
      </trkpt>
      <trkpt lat="47.26084" lon="4.94888">
        <ele>468</ele>
        <time>2012-12-11T14:33:16.1Z</time>
      </trkpt>
      <trkpt lat="47.26082" lon="4.94888">
        <ele>468</ele>
        <time>2012-12-11T14:33:19.1Z</time>
      </trkpt>
      <trkpt lat="47.2608" lon="4.9489">
        <ele>468</ele>
        <time>2012-12-11T14:33:21.1Z</time>
      </trkpt>
      <trkpt lat="47.26079" lon="4.94892">
        <ele>468</ele>
        <time>2012-12-11T14:33:23.1Z</time>
      </trkpt>
      <trkpt lat="47.26078" lon="4.94895">
        <ele>468</ele>
        <time>2012-12-11T14:33:25.1Z</time>
      </trkpt>
      <trkpt lat="47.26077" lon="4.94898">
        <ele>467</ele>
        <time>2012-12-11T14:33:27.1Z</time>
      </trkpt>
      <trkpt lat="47.26076" lon="4.94901">
        <ele>468</ele>
        <time>2012-12-11T14:33:29.1Z</time>
      </trkpt>
      <trkpt lat="47.26076" lon="4.94904">
        <ele>467</ele>
        <time>2012-12-11T14:33:31.1Z</time>
      </trkpt>
      <trkpt lat="47.26075" lon="4.94907">
        <ele>468</ele>
        <time>2012-12-11T14:33:33.1Z</time>
      </trkpt>
      <trkpt lat="47.26074" lon="4.9491">
        <ele>468</ele>
        <time>2012-12-11T14:33:35.1Z</time>
      </trkpt>
      <trkpt lat="47.26073" lon="4.94913">
        <ele>468</ele>
        <time>2012-12-11T14:33:37.1Z</time>
      </trkpt>
      <trkpt lat="47.26073" lon="4.94916">
        <ele>468</ele>
        <time>2012-12-11T14:33:39.1Z</time>
      </trkpt>
      <trkpt lat="47.26071" lon="4.9492">
        <ele>468</ele>
        <time>2012-12-11T14:33:41.1Z</time>
      </trkpt>
      <trkpt lat="47.26071" lon="4.94923">
        <ele>468</ele>
        <time>2012-12-11T14:33:44.1Z</time>
      </trkpt>
      <trkpt lat="47.2607" lon="4.94927">
        <ele>468</ele>
        <time>2012-12-11T14:33:46.1Z</time>
      </trkpt>
      <trkpt lat="47.2607" lon="4.9493">
        <ele>468</ele>
        <time>2012-12-11T14:33:48.1Z</time>
      </trkpt>
      <trkpt lat="47.26069" lon="4.94933">
        <ele>468</ele>
        <time>2012-12-11T14:33:50.1Z</time>
      </trkpt>
      <trkpt lat="47.26067" lon="4.94935">
        <ele>467</ele>
        <time>2012-12-11T14:33:52.1Z</time>
      </trkpt>
      <trkpt lat="47.26066" lon="4.94937">
        <ele>467</ele>
        <time>2012-12-11T14:33:54.1Z</time>
      </trkpt>
      <trkpt lat="47.26065" lon="4.94939">
        <ele>467</ele>
        <time>2012-12-11T14:33:56.1Z</time>
      </trkpt>
      <trkpt lat="47.26065" lon="4.94942">
        <ele>467</ele>
        <time>2012-12-11T14:33:58.1Z</time>
      </trkpt>
      <trkpt lat="47.26065" lon="4.94945">
        <ele>467</ele>
        <time>2012-12-11T14:34:00.1Z</time>
      </trkpt>
      <trkpt lat="47.26065" lon="4.94948">
        <ele>467</ele>
        <time>2012-12-11T14:34:02.1Z</time>
      </trkpt>
      <trkpt lat="47.26065" lon="4.94951">
        <ele>467</ele>
        <time>2012-12-11T14:34:04.1Z</time>
      </trkpt>
      <trkpt lat="47.26065" lon="4.94954">
        <ele>467</ele>
        <time>2012-12-11T14:34:06.1Z</time>
      </trkpt>
      <trkpt lat="47.26065" lon="4.94958">
        <ele>467</ele>
        <time>2012-12-11T14:34:08.1Z</time>
      </trkpt>
      <trkpt lat="47.26066" lon="4.94963">
        <ele>467</ele>
        <time>2012-12-11T14:34:10.1Z</time>
      </trkpt>
      <trkpt lat="47.26066" lon="4.94966">
        <ele>467</ele>
        <time>2012-12-11T14:34:12.1Z</time>
      </trkpt>
      <trkpt lat="47.26065" lon="4.94969">
        <ele>467</ele>
        <time>2012-12-11T14:34:14.1Z</time>
      </trkpt>
      <trkpt lat="47.26065" lon="4.94972">
        <ele>467</ele>
        <time>2012-12-11T14:34:16.1Z</time>
      </trkpt>
      <trkpt lat="47.26066" lon="4.94975">
        <ele>467</ele>
        <time>2012-12-11T14:34:18.1Z</time>
      </trkpt>
      <trkpt lat="47.26066" lon="4.94978">
        <ele>467</ele>
        <time>2012-12-11T14:34:20.1Z</time>
      </trkpt>
      <trkpt lat="47.26067" lon="4.94981">
        <ele>467</ele>
        <time>2012-12-11T14:34:23.1Z</time>
      </trkpt>
      <trkpt lat="47.26067" lon="4.94985">
        <ele>467</ele>
        <time>2012-12-11T14:34:25.1Z</time>
      </trkpt>
      <trkpt lat="47.26066" lon="4.94988">
        <ele>467</ele>
        <time>2012-12-11T14:34:27.1Z</time>
      </trkpt>
      <trkpt lat="47.26066" lon="4.94991">
        <ele>466</ele>
        <time>2012-12-11T14:34:29.1Z</time>
      </trkpt>
      <trkpt lat="47.26066" lon="4.94994">
        <ele>466</ele>
        <time>2012-12-11T14:34:31.1Z</time>
      </trkpt>
      <trkpt lat="47.26065" lon="4.94998">
        <ele>466</ele>
        <time>2012-12-11T14:34:33.1Z</time>
      </trkpt>
      <trkpt lat="47.26065" lon="4.95001">
        <ele>466</ele>
        <time>2012-12-11T14:34:35.1Z</time>
      </trkpt>
      <trkpt lat="47.26067" lon="4.95004">
        <ele>467</ele>
        <time>2012-12-11T14:34:37.1Z</time>
      </trkpt>
      <trkpt lat="47.26067" lon="4.95008">
        <ele>467</ele>
        <time>2012-12-11T14:34:39.1Z</time>
      </trkpt>
      <trkpt lat="47.26067" lon="4.95011">
        <ele>467</ele>
        <time>2012-12-11T14:34:41.1Z</time>
      </trkpt>
      <trkpt lat="47.26067" lon="4.95017">
        <ele>467</ele>
        <time>2012-12-11T14:34:43.1Z</time>
      </trkpt>
      <trkpt lat="47.26067" lon="4.9502">
        <ele>466</ele>
        <time>2012-12-11T14:34:45.1Z</time>
      </trkpt>
      <trkpt lat="47.26067" lon="4.95024">
        <ele>466</ele>
        <time>2012-12-11T14:34:48.1Z</time>
      </trkpt>
      <trkpt lat="47.26067" lon="4.95027">
        <ele>466</ele>
        <time>2012-12-11T14:34:50.1Z</time>
      </trkpt>
      <trkpt lat="47.26067" lon="4.95031">
        <ele>466</ele>
        <time>2012-12-11T14:34:52.1Z</time>
      </trkpt>
      <trkpt lat="47.26067" lon="4.95034">
        <ele>466</ele>
        <time>2012-12-11T14:34:54.1Z</time>
      </trkpt>
      <trkpt lat="47.26068" lon="4.95038">
        <ele>466</ele>
        <time>2012-12-11T14:34:56.1Z</time>
      </trkpt>
      <trkpt lat="47.26069" lon="4.95041">
        <ele>466</ele>
        <time>2012-12-11T14:34:58.1Z</time>
      </trkpt>
      <trkpt lat="47.2607" lon="4.95046">
        <ele>466</ele>
        <time>2012-12-11T14:35:00.1Z</time>
      </trkpt>
      <trkpt lat="47.2607" lon="4.95049">
        <ele>466</ele>
        <time>2012-12-11T14:35:02.1Z</time>
      </trkpt>
      <trkpt lat="47.2607" lon="4.95053">
        <ele>466</ele>
        <time>2012-12-11T14:35:05.1Z</time>
      </trkpt>
      <trkpt lat="47.2607" lon="4.95057">
        <ele>466</ele>
        <time>2012-12-11T14:35:07.1Z</time>
      </trkpt>
      <trkpt lat="47.26071" lon="4.9506">
        <ele>466</ele>
        <time>2012-12-11T14:35:09.1Z</time>
      </trkpt>
      <trkpt lat="47.26071" lon="4.95063">
        <ele>466</ele>
        <time>2012-12-11T14:35:11.1Z</time>
      </trkpt>
      <trkpt lat="47.26071" lon="4.95069">
        <ele>465</ele>
        <time>2012-12-11T14:35:13.1Z</time>
      </trkpt>
      <trkpt lat="47.26072" lon="4.95072">
        <ele>465</ele>
        <time>2012-12-11T14:35:15.1Z</time>
      </trkpt>
      <trkpt lat="47.26073" lon="4.95075">
        <ele>465</ele>
        <time>2012-12-11T14:35:18.1Z</time>
      </trkpt>
      <trkpt lat="47.26074" lon="4.95078">
        <ele>465</ele>
        <time>2012-12-11T14:35:20.1Z</time>
      </trkpt>
      <trkpt lat="47.26074" lon="4.95082">
        <ele>465</ele>
        <time>2012-12-11T14:35:22.1Z</time>
      </trkpt>
      <trkpt lat="47.26075" lon="4.95085">
        <ele>465</ele>
        <time>2012-12-11T14:35:24.1Z</time>
      </trkpt>
      <trkpt lat="47.26075" lon="4.95089">
        <ele>465</ele>
        <time>2012-12-11T14:35:26.1Z</time>
      </trkpt>
      <trkpt lat="47.26075" lon="4.95094">
        <ele>465</ele>
        <time>2012-12-11T14:35:28.1Z</time>
      </trkpt>
      <trkpt lat="47.26076" lon="4.95097">
        <ele>465</ele>
        <time>2012-12-11T14:35:30.1Z</time>
      </trkpt>
      <trkpt lat="47.26076" lon="4.95101">
        <ele>465</ele>
        <time>2012-12-11T14:35:32.1Z</time>
      </trkpt>
      <trkpt lat="47.26076" lon="4.95104">
        <ele>465</ele>
        <time>2012-12-11T14:35:34.1Z</time>
      </trkpt>
      <trkpt lat="47.26076" lon="4.95107">
        <ele>464</ele>
        <time>2012-12-11T14:35:36.1Z</time>
      </trkpt>
      <trkpt lat="47.26076" lon="4.95111">
        <ele>464</ele>
        <time>2012-12-11T14:35:38.1Z</time>
      </trkpt>
      <trkpt lat="47.26076" lon="4.95114">
        <ele>464</ele>
        <time>2012-12-11T14:35:40.1Z</time>
      </trkpt>
      <trkpt lat="47.26076" lon="4.95117">
        <ele>464</ele>
        <time>2012-12-11T14:35:43.1Z</time>
      </trkpt>
      <trkpt lat="47.26076" lon="4.95121">
        <ele>464</ele>
        <time>2012-12-11T14:35:45.1Z</time>
      </trkpt>
      <trkpt lat="47.26075" lon="4.95123">
        <ele>464</ele>
        <time>2012-12-11T14:35:47.1Z</time>
      </trkpt>
      <trkpt lat="47.26074" lon="4.95127">
        <ele>464</ele>
        <time>2012-12-11T14:35:49.1Z</time>
      </trkpt>
      <trkpt lat="47.26074" lon="4.9513">
        <ele>463</ele>
        <time>2012-12-11T14:35:51.1Z</time>
      </trkpt>
      <trkpt lat="47.26075" lon="4.95133">
        <ele>464</ele>
        <time>2012-12-11T14:35:53.1Z</time>
      </trkpt>
      <trkpt lat="47.26076" lon="4.95137">
        <ele>463</ele>
        <time>2012-12-11T14:35:55.1Z</time>
      </trkpt>
      <trkpt lat="47.26076" lon="4.95142">
        <ele>463</ele>
        <time>2012-12-11T14:35:57.1Z</time>
      </trkpt>
      <trkpt lat="47.26076" lon="4.95146">
        <ele>463</ele>
        <time>2012-12-11T14:35:59.1Z</time>
      </trkpt>
      <trkpt lat="47.26077" lon="4.9515">
        <ele>463</ele>
        <time>2012-12-11T14:36:01.1Z</time>
      </trkpt>
      <trkpt lat="47.26078" lon="4.95153">
        <ele>463</ele>
        <time>2012-12-11T14:36:03.1Z</time>
      </trkpt>
      <trkpt lat="47.26078" lon="4.95157">
        <ele>463</ele>
        <time>2012-12-11T14:36:06.1Z</time>
      </trkpt>
      <trkpt lat="47.26078" lon="4.9516">
        <ele>463</ele>
        <time>2012-12-11T14:36:08.1Z</time>
      </trkpt>
      <trkpt lat="47.26078" lon="4.95164">
        <ele>463</ele>
        <time>2012-12-11T14:36:10.1Z</time>
      </trkpt>
      <trkpt lat="47.26078" lon="4.95167">
        <ele>462</ele>
        <time>2012-12-11T14:36:12.1Z</time>
      </trkpt>
      <trkpt lat="47.26079" lon="4.95171">
        <ele>463</ele>
        <time>2012-12-11T14:36:14.1Z</time>
      </trkpt>
      <trkpt lat="47.26079" lon="4.95174">
        <ele>463</ele>
        <time>2012-12-11T14:36:16.1Z</time>
      </trkpt>
      <trkpt lat="47.26079" lon="4.95177">
        <ele>463</ele>
        <time>2012-12-11T14:36:18.1Z</time>
      </trkpt>
      <trkpt lat="47.26078" lon="4.95181">
        <ele>463</ele>
        <time>2012-12-11T14:36:20.1Z</time>
      </trkpt>
      <trkpt lat="47.26078" lon="4.95184">
        <ele>462</ele>
        <time>2012-12-11T14:36:22.1Z</time>
      </trkpt>
      <trkpt lat="47.26078" lon="4.95189">
        <ele>462</ele>
        <time>2012-12-11T14:36:24.1Z</time>
      </trkpt>
      <trkpt lat="47.26077" lon="4.95193">
        <ele>463</ele>
        <time>2012-12-11T14:36:26.1Z</time>
      </trkpt>
      <trkpt lat="47.26077" lon="4.95197">
        <ele>462</ele>
        <time>2012-12-11T14:36:28.1Z</time>
      </trkpt>
      <trkpt lat="47.26077" lon="4.95199">
        <ele>462</ele>
        <time>2012-12-11T14:36:30.1Z</time>
      </trkpt>
      <trkpt lat="47.26076" lon="4.95203">
        <ele>463</ele>
        <time>2012-12-11T14:36:32.1Z</time>
      </trkpt>
      <trkpt lat="47.26076" lon="4.95206">
        <ele>462</ele>
        <time>2012-12-11T14:36:34.1Z</time>
      </trkpt>
      <trkpt lat="47.26075" lon="4.95209">
        <ele>462</ele>
        <time>2012-12-11T14:36:36.1Z</time>
      </trkpt>
      <trkpt lat="47.26075" lon="4.95213">
        <ele>462</ele>
        <time>2012-12-11T14:36:39.1Z</time>
      </trkpt>
      <trkpt lat="47.26074" lon="4.95216">
        <ele>462</ele>
        <time>2012-12-11T14:36:41.1Z</time>
      </trkpt>
      <trkpt lat="47.26073" lon="4.95219">
        <ele>462</ele>
        <time>2012-12-11T14:36:43.1Z</time>
      </trkpt>
      <trkpt lat="47.26074" lon="4.95223">
        <ele>462</ele>
        <time>2012-12-11T14:36:45.1Z</time>
      </trkpt>
      <trkpt lat="47.26074" lon="4.95227">
        <ele>462</ele>
        <time>2012-12-11T14:36:47.1Z</time>
      </trkpt>
      <trkpt lat="47.26074" lon="4.9523">
        <ele>462</ele>
        <time>2012-12-11T14:36:49.1Z</time>
      </trkpt>
      <trkpt lat="47.26074" lon="4.95234">
        <ele>462</ele>
        <time>2012-12-11T14:36:51.1Z</time>
      </trkpt>
      <trkpt lat="47.26074" lon="4.95238">
        <ele>462</ele>
        <time>2012-12-11T14:36:53.1Z</time>
      </trkpt>
      <trkpt lat="47.26075" lon="4.95241">
        <ele>462</ele>
        <time>2012-12-11T14:36:55.1Z</time>
      </trkpt>
      <trkpt lat="47.26075" lon="4.95245">
        <ele>462</ele>
        <time>2012-12-11T14:36:57.1Z</time>
      </trkpt>
      <trkpt lat="47.26075" lon="4.95249">
        <ele>462</ele>
        <time>2012-12-11T14:36:59.1Z</time>
      </trkpt>
      <trkpt lat="47.26075" lon="4.95253">
        <ele>463</ele>
        <time>2012-12-11T14:37:01.1Z</time>
      </trkpt>
      <trkpt lat="47.26075" lon="4.95256">
        <ele>462</ele>
        <time>2012-12-11T14:37:03.1Z</time>
      </trkpt>
      <trkpt lat="47.26075" lon="4.9526">
        <ele>463</ele>
        <time>2012-12-11T14:37:05.1Z</time>
      </trkpt>
      <trkpt lat="47.26075" lon="4.95264">
        <ele>463</ele>
        <time>2012-12-11T14:37:07.1Z</time>
      </trkpt>
      <trkpt lat="47.26075" lon="4.95267">
        <ele>462</ele>
        <time>2012-12-11T14:37:09.1Z</time>
      </trkpt>
      <trkpt lat="47.26075" lon="4.95271">
        <ele>462</ele>
        <time>2012-12-11T14:37:11.1Z</time>
      </trkpt>
      <trkpt lat="47.26075" lon="4.95275">
        <ele>462</ele>
        <time>2012-12-11T14:37:14.1Z</time>
      </trkpt>
      <trkpt lat="47.26075" lon="4.95278">
        <ele>462</ele>
        <time>2012-12-11T14:37:16.1Z</time>
      </trkpt>
      <trkpt lat="47.26075" lon="4.9528">
        <ele>462</ele>
        <time>2012-12-11T14:37:18.1Z</time>
      </trkpt>
      <trkpt lat="47.26075" lon="4.95284">
        <ele>462</ele>
        <time>2012-12-11T14:37:20.1Z</time>
      </trkpt>
      <trkpt lat="47.26075" lon="4.95286">
        <ele>462</ele>
        <time>2012-12-11T14:37:22.1Z</time>
      </trkpt>
      <trkpt lat="47.26076" lon="4.95289">
        <ele>462</ele>
        <time>2012-12-11T14:37:24.1Z</time>
      </trkpt>
      <trkpt lat="47.26076" lon="4.95292">
        <ele>462</ele>
        <time>2012-12-11T14:37:26.1Z</time>
      </trkpt>
      <trkpt lat="47.26076" lon="4.95296">
        <ele>462</ele>
        <time>2012-12-11T14:37:28.1Z</time>
      </trkpt>
      <trkpt lat="47.26076" lon="4.95299">
        <ele>462</ele>
        <time>2012-12-11T14:37:30.1Z</time>
      </trkpt>
      <trkpt lat="47.26077" lon="4.95305">
        <ele>462</ele>
        <time>2012-12-11T14:37:32.1Z</time>
      </trkpt>
      <trkpt lat="47.26077" lon="4.95308">
        <ele>462</ele>
        <time>2012-12-11T14:37:34.1Z</time>
      </trkpt>
      <trkpt lat="47.26078" lon="4.95312">
        <ele>462</ele>
        <time>2012-12-11T14:37:37.1Z</time>
      </trkpt>
      <trkpt lat="47.26078" lon="4.95315">
        <ele>462</ele>
        <time>2012-12-11T14:37:39.1Z</time>
      </trkpt>
      <trkpt lat="47.26079" lon="4.95319">
        <ele>463</ele>
        <time>2012-12-11T14:37:41.1Z</time>
      </trkpt>
      <trkpt lat="47.2608" lon="4.95322">
        <ele>463</ele>
        <time>2012-12-11T14:37:43.1Z</time>
      </trkpt>
      <trkpt lat="47.26081" lon="4.95326">
        <ele>463</ele>
        <time>2012-12-11T14:37:45.1Z</time>
      </trkpt>
      <trkpt lat="47.26081" lon="4.95331">
        <ele>463</ele>
        <time>2012-12-11T14:37:47.1Z</time>
      </trkpt>
      <trkpt lat="47.26081" lon="4.95335">
        <ele>463</ele>
        <time>2012-12-11T14:37:49.1Z</time>
      </trkpt>
      <trkpt lat="47.26081" lon="4.95339">
        <ele>463</ele>
        <time>2012-12-11T14:37:52.1Z</time>
      </trkpt>
      <trkpt lat="47.26081" lon="4.95343">
        <ele>462</ele>
        <time>2012-12-11T14:37:54.1Z</time>
      </trkpt>
      <trkpt lat="47.2608" lon="4.95347">
        <ele>462</ele>
        <time>2012-12-11T14:37:56.1Z</time>
      </trkpt>
      <trkpt lat="47.2608" lon="4.9535">
        <ele>462</ele>
        <time>2012-12-11T14:37:58.1Z</time>
      </trkpt>
      <trkpt lat="47.2608" lon="4.95356">
        <ele>461</ele>
        <time>2012-12-11T14:38:00.1Z</time>
      </trkpt>
      <trkpt lat="47.2608" lon="4.9536">
        <ele>461</ele>
        <time>2012-12-11T14:38:02.1Z</time>
      </trkpt>
      <trkpt lat="47.2608" lon="4.95364">
        <ele>462</ele>
        <time>2012-12-11T14:38:05.1Z</time>
      </trkpt>
      <trkpt lat="47.2608" lon="4.95368">
        <ele>462</ele>
        <time>2012-12-11T14:38:07.1Z</time>
      </trkpt>
      <trkpt lat="47.2608" lon="4.95372">
        <ele>462</ele>
        <time>2012-12-11T14:38:09.1Z</time>
      </trkpt>
      <trkpt lat="47.26079" lon="4.95375">
        <ele>462</ele>
        <time>2012-12-11T14:38:11.1Z</time>
      </trkpt>
      <trkpt lat="47.26079" lon="4.95381">
        <ele>462</ele>
        <time>2012-12-11T14:38:13.1Z</time>
      </trkpt>
      <trkpt lat="47.26079" lon="4.95384">
        <ele>462</ele>
        <time>2012-12-11T14:38:16.1Z</time>
      </trkpt>
      <trkpt lat="47.26079" lon="4.95388">
        <ele>462</ele>
        <time>2012-12-11T14:38:18.1Z</time>
      </trkpt>
      <trkpt lat="47.26078" lon="4.95392">
        <ele>462</ele>
        <time>2012-12-11T14:38:20.1Z</time>
      </trkpt>
      <trkpt lat="47.26078" lon="4.95395">
        <ele>462</ele>
        <time>2012-12-11T14:38:22.1Z</time>
      </trkpt>
      <trkpt lat="47.26078" lon="4.954">
        <ele>462</ele>
        <time>2012-12-11T14:38:24.1Z</time>
      </trkpt>
      <trkpt lat="47.26078" lon="4.95404">
        <ele>462</ele>
        <time>2012-12-11T14:38:26.1Z</time>
      </trkpt>
      <trkpt lat="47.26078" lon="4.95408">
        <ele>462</ele>
        <time>2012-12-11T14:38:28.1Z</time>
      </trkpt>
      <trkpt lat="47.26078" lon="4.95412">
        <ele>462</ele>
        <time>2012-12-11T14:38:31.1Z</time>
      </trkpt>
      <trkpt lat="47.26078" lon="4.95416">
        <ele>462</ele>
        <time>2012-12-11T14:38:33.1Z</time>
      </trkpt>
      <trkpt lat="47.26078" lon="4.9542">
        <ele>462</ele>
        <time>2012-12-11T14:38:35.1Z</time>
      </trkpt>
      <trkpt lat="47.26078" lon="4.95424">
        <ele>462</ele>
        <time>2012-12-11T14:38:37.1Z</time>
      </trkpt>
      <trkpt lat="47.26077" lon="4.95429">
        <ele>462</ele>
        <time>2012-12-11T14:38:39.1Z</time>
      </trkpt>
      <trkpt lat="47.26077" lon="4.95433">
        <ele>462</ele>
        <time>2012-12-11T14:38:41.1Z</time>
      </trkpt>
      <trkpt lat="47.26077" lon="4.95435">
        <ele>462</ele>
        <time>2012-12-11T14:38:43.1Z</time>
      </trkpt>
      <trkpt lat="47.26077" lon="4.95436">
        <ele>462</ele>
        <time>2012-12-11T14:38:46.1Z</time>
      </trkpt>
      <trkpt lat="47.26078" lon="4.95438">
        <ele>462</ele>
        <time>2012-12-11T14:38:48.1Z</time>
      </trkpt>
      <trkpt lat="47.26078" lon="4.95442">
        <ele>462</ele>
        <time>2012-12-11T14:38:50.1Z</time>
      </trkpt>
      <trkpt lat="47.2608" lon="4.95446">
        <ele>462</ele>
        <time>2012-12-11T14:38:52.1Z</time>
      </trkpt>
      <trkpt lat="47.26081" lon="4.95449">
        <ele>462</ele>
        <time>2012-12-11T14:38:54.1Z</time>
      </trkpt>
      <trkpt lat="47.26081" lon="4.95455">
        <ele>462</ele>
        <time>2012-12-11T14:38:56.1Z</time>
      </trkpt>
      <trkpt lat="47.26081" lon="4.95459">
        <ele>462</ele>
        <time>2012-12-11T14:38:58.1Z</time>
      </trkpt>
      <trkpt lat="47.26081" lon="4.95462">
        <ele>462</ele>
        <time>2012-12-11T14:39:00.1Z</time>
      </trkpt>
      <trkpt lat="47.26082" lon="4.95466">
        <ele>462</ele>
        <time>2012-12-11T14:39:02.1Z</time>
      </trkpt>
      <trkpt lat="47.26083" lon="4.95469">
        <ele>462</ele>
        <time>2012-12-11T14:39:04.1Z</time>
      </trkpt>
      <trkpt lat="47.26083" lon="4.95473">
        <ele>462</ele>
        <time>2012-12-11T14:39:06.1Z</time>
      </trkpt>
      <trkpt lat="47.26083" lon="4.95476">
        <ele>462</ele>
        <time>2012-12-11T14:39:08.1Z</time>
      </trkpt>
      <trkpt lat="47.26083" lon="4.9548">
        <ele>462</ele>
        <time>2012-12-11T14:39:10.1Z</time>
      </trkpt>
      <trkpt lat="47.26083" lon="4.95483">
        <ele>462</ele>
        <time>2012-12-11T14:39:12.1Z</time>
      </trkpt>
      <trkpt lat="47.26083" lon="4.95485">
        <ele>462</ele>
        <time>2012-12-11T14:39:14.1Z</time>
      </trkpt>
      <trkpt lat="47.26084" lon="4.95488">
        <ele>462</ele>
        <time>2012-12-11T14:39:17.1Z</time>
      </trkpt>
      <trkpt lat="47.26084" lon="4.9549">
        <ele>462</ele>
        <time>2012-12-11T14:39:19.1Z</time>
      </trkpt>
      <trkpt lat="47.26085" lon="4.95492">
        <ele>462</ele>
        <time>2012-12-11T14:39:21.1Z</time>
      </trkpt>
      <trkpt lat="47.26085" lon="4.95495">
        <ele>462</ele>
        <time>2012-12-11T14:39:23.1Z</time>
      </trkpt>
      <trkpt lat="47.26085" lon="4.95498">
        <ele>462</ele>
        <time>2012-12-11T14:39:25.1Z</time>
      </trkpt>
      <trkpt lat="47.26085" lon="4.95501">
        <ele>462</ele>
        <time>2012-12-11T14:39:27.1Z</time>
      </trkpt>
      <trkpt lat="47.26085" lon="4.95506">
        <ele>462</ele>
        <time>2012-12-11T14:39:29.1Z</time>
      </trkpt>
      <trkpt lat="47.26084" lon="4.95508">
        <ele>462</ele>
        <time>2012-12-11T14:39:31.1Z</time>
      </trkpt>
      <trkpt lat="47.26084" lon="4.95511">
        <ele>462</ele>
        <time>2012-12-11T14:39:33.1Z</time>
      </trkpt>
      <trkpt lat="47.26083" lon="4.95513">
        <ele>462</ele>
        <time>2012-12-11T14:39:35.1Z</time>
      </trkpt>
      <trkpt lat="47.26082" lon="4.95516">
        <ele>462</ele>
        <time>2012-12-11T14:39:37.1Z</time>
      </trkpt>
      <trkpt lat="47.26081" lon="4.95518">
        <ele>462</ele>
        <time>2012-12-11T14:39:39.1Z</time>
      </trkpt>
      <trkpt lat="47.26081" lon="4.9552">
        <ele>461</ele>
        <time>2012-12-11T14:39:42.1Z</time>
      </trkpt>
      <trkpt lat="47.26081" lon="4.95524">
        <ele>461</ele>
        <time>2012-12-11T14:39:44.1Z</time>
      </trkpt>
      <trkpt lat="47.2608" lon="4.95527">
        <ele>461</ele>
        <time>2012-12-11T14:39:46.1Z</time>
      </trkpt>
      <trkpt lat="47.2608" lon="4.9553">
        <ele>461</ele>
        <time>2012-12-11T14:39:48.1Z</time>
      </trkpt>
      <trkpt lat="47.26079" lon="4.95533">
        <ele>461</ele>
        <time>2012-12-11T14:39:50.1Z</time>
      </trkpt>
      <trkpt lat="47.2608" lon="4.95538">
        <ele>461</ele>
        <time>2012-12-11T14:39:52.1Z</time>
      </trkpt>
      <trkpt lat="47.2608" lon="4.95541">
        <ele>462</ele>
        <time>2012-12-11T14:39:54.1Z</time>
      </trkpt>
      <trkpt lat="47.26081" lon="4.95544">
        <ele>461</ele>
        <time>2012-12-11T14:39:56.1Z</time>
      </trkpt>
      <trkpt lat="47.26082" lon="4.95547">
        <ele>462</ele>
        <time>2012-12-11T14:39:58.1Z</time>
      </trkpt>
      <trkpt lat="47.26083" lon="4.95551">
        <ele>462</ele>
        <time>2012-12-11T14:40:00.1Z</time>
      </trkpt>
      <trkpt lat="47.26083" lon="4.95554">
        <ele>461</ele>
        <time>2012-12-11T14:40:02.1Z</time>
      </trkpt>
      <trkpt lat="47.26083" lon="4.95558">
        <ele>461</ele>
        <time>2012-12-11T14:40:05.1Z</time>
      </trkpt>
      <trkpt lat="47.26083" lon="4.95562">
        <ele>462</ele>
        <time>2012-12-11T14:40:07.1Z</time>
      </trkpt>
      <trkpt lat="47.26084" lon="4.95565">
        <ele>461</ele>
        <time>2012-12-11T14:40:09.1Z</time>
      </trkpt>
      <trkpt lat="47.26085" lon="4.95568">
        <ele>462</ele>
        <time>2012-12-11T14:40:11.1Z</time>
      </trkpt>
      <trkpt lat="47.26086" lon="4.95571">
        <ele>462</ele>
        <time>2012-12-11T14:40:13.1Z</time>
      </trkpt>
      <trkpt lat="47.26086" lon="4.95574">
        <ele>461</ele>
        <time>2012-12-11T14:40:15.1Z</time>
      </trkpt>
      <trkpt lat="47.26086" lon="4.95576">
        <ele>461</ele>
        <time>2012-12-11T14:40:17.1Z</time>
      </trkpt>
      <trkpt lat="47.26087" lon="4.9558">
        <ele>461</ele>
        <time>2012-12-11T14:40:19.1Z</time>
      </trkpt>
      <trkpt lat="47.26088" lon="4.95583">
        <ele>461</ele>
        <time>2012-12-11T14:40:21.1Z</time>
      </trkpt>
      <trkpt lat="47.26089" lon="4.95588">
        <ele>462</ele>
        <time>2012-12-11T14:40:23.1Z</time>
      </trkpt>
      <trkpt lat="47.26089" lon="4.95591">
        <ele>462</ele>
        <time>2012-12-11T14:40:25.1Z</time>
      </trkpt>
      <trkpt lat="47.26089" lon="4.95594">
        <ele>461</ele>
        <time>2012-12-11T14:40:27.1Z</time>
      </trkpt>
      <trkpt lat="47.26089" lon="4.95597">
        <ele>461</ele>
        <time>2012-12-11T14:40:30.1Z</time>
      </trkpt>
      <trkpt lat="47.26088" lon="4.956">
        <ele>461</ele>
        <time>2012-12-11T14:40:32.1Z</time>
      </trkpt>
      <trkpt lat="47.26088" lon="4.95603">
        <ele>461</ele>
        <time>2012-12-11T14:40:34.1Z</time>
      </trkpt>
      <trkpt lat="47.26088" lon="4.95607">
        <ele>461</ele>
        <time>2012-12-11T14:40:36.1Z</time>
      </trkpt>
      <trkpt lat="47.26088" lon="4.9561">
        <ele>461</ele>
        <time>2012-12-11T14:40:38.1Z</time>
      </trkpt>
      <trkpt lat="47.26088" lon="4.95613">
        <ele>461</ele>
        <time>2012-12-11T14:40:40.1Z</time>
      </trkpt>
      <trkpt lat="47.26088" lon="4.95617">
        <ele>461</ele>
        <time>2012-12-11T14:40:42.1Z</time>
      </trkpt>
      <trkpt lat="47.26088" lon="4.95621">
        <ele>461</ele>
        <time>2012-12-11T14:40:44.1Z</time>
      </trkpt>
      <trkpt lat="47.26088" lon="4.95624">
        <ele>460</ele>
        <time>2012-12-11T14:40:46.1Z</time>
      </trkpt>
      <trkpt lat="47.26088" lon="4.9563">
        <ele>460</ele>
        <time>2012-12-11T14:40:48.1Z</time>
      </trkpt>
      <trkpt lat="47.26088" lon="4.95632">
        <ele>460</ele>
        <time>2012-12-11T14:40:50.1Z</time>
      </trkpt>
      <trkpt lat="47.26088" lon="4.95636">
        <ele>460</ele>
        <time>2012-12-11T14:40:52.1Z</time>
      </trkpt>
      <trkpt lat="47.26088" lon="4.95639">
        <ele>460</ele>
        <time>2012-12-11T14:40:54.1Z</time>
      </trkpt>
      <trkpt lat="47.26088" lon="4.95642">
        <ele>460</ele>
        <time>2012-12-11T14:40:56.1Z</time>
      </trkpt>
      <trkpt lat="47.26088" lon="4.95645">
        <ele>460</ele>
        <time>2012-12-11T14:40:58.1Z</time>
      </trkpt>
      <trkpt lat="47.26087" lon="4.95648">
        <ele>460</ele>
        <time>2012-12-11T14:41:00.1Z</time>
      </trkpt>
      <trkpt lat="47.26086" lon="4.95652">
        <ele>460</ele>
        <time>2012-12-11T14:41:02.1Z</time>
      </trkpt>
      <trkpt lat="47.26085" lon="4.95655">
        <ele>460</ele>
        <time>2012-12-11T14:41:04.1Z</time>
      </trkpt>
      <trkpt lat="47.26085" lon="4.95658">
        <ele>460</ele>
        <time>2012-12-11T14:41:07.1Z</time>
      </trkpt>
      <trkpt lat="47.26085" lon="4.95661">
        <ele>460</ele>
        <time>2012-12-11T14:41:09.1Z</time>
      </trkpt>
      <trkpt lat="47.26085" lon="4.95665">
        <ele>460</ele>
        <time>2012-12-11T14:41:11.1Z</time>
      </trkpt>
      <trkpt lat="47.26085" lon="4.95668">
        <ele>459</ele>
        <time>2012-12-11T14:41:13.1Z</time>
      </trkpt>
      <trkpt lat="47.26085" lon="4.95671">
        <ele>460</ele>
        <time>2012-12-11T14:41:15.1Z</time>
      </trkpt>
      <trkpt lat="47.26085" lon="4.95674">
        <ele>460</ele>
        <time>2012-12-11T14:41:17.1Z</time>
      </trkpt>
      <trkpt lat="47.26085" lon="4.95677">
        <ele>460</ele>
        <time>2012-12-11T14:41:19.1Z</time>
      </trkpt>
      <trkpt lat="47.26085" lon="4.9568">
        <ele>460</ele>
        <time>2012-12-11T14:41:21.1Z</time>
      </trkpt>
      <trkpt lat="47.26085" lon="4.95683">
        <ele>460</ele>
        <time>2012-12-11T14:41:23.1Z</time>
      </trkpt>
      <trkpt lat="47.26084" lon="4.95687">
        <ele>459</ele>
        <time>2012-12-11T14:41:25.1Z</time>
      </trkpt>
      <trkpt lat="47.26084" lon="4.95689">
        <ele>459</ele>
        <time>2012-12-11T14:41:27.1Z</time>
      </trkpt>
      <trkpt lat="47.26084" lon="4.95692">
        <ele>459</ele>
        <time>2012-12-11T14:41:29.1Z</time>
      </trkpt>
      <trkpt lat="47.26084" lon="4.95695">
        <ele>459</ele>
        <time>2012-12-11T14:41:31.1Z</time>
      </trkpt>
      <trkpt lat="47.26084" lon="4.95698">
        <ele>459</ele>
        <time>2012-12-11T14:41:33.1Z</time>
      </trkpt>
      <trkpt lat="47.26084" lon="4.95702">
        <ele>459</ele>
        <time>2012-12-11T14:41:35.1Z</time>
      </trkpt>
      <trkpt lat="47.26084" lon="4.95705">
        <ele>459</ele>
        <time>2012-12-11T14:41:37.1Z</time>
      </trkpt>
      <trkpt lat="47.26083" lon="4.95708">
        <ele>459</ele>
        <time>2012-12-11T14:41:39.1Z</time>
      </trkpt>
      <trkpt lat="47.26083" lon="4.95711">
        <ele>459</ele>
        <time>2012-12-11T14:41:42.1Z</time>
      </trkpt>
      <trkpt lat="47.26083" lon="4.95713">
        <ele>459</ele>
        <time>2012-12-11T14:41:44.1Z</time>
      </trkpt>
      <trkpt lat="47.26082" lon="4.95716">
        <ele>459</ele>
        <time>2012-12-11T14:41:46.1Z</time>
      </trkpt>
      <trkpt lat="47.26082" lon="4.95719">
        <ele>459</ele>
        <time>2012-12-11T14:41:48.1Z</time>
      </trkpt>
      <trkpt lat="47.26082" lon="4.95722">
        <ele>459</ele>
        <time>2012-12-11T14:41:50.1Z</time>
      </trkpt>
      <trkpt lat="47.26083" lon="4.95724">
        <ele>459</ele>
        <time>2012-12-11T14:41:52.1Z</time>
      </trkpt>
      <trkpt lat="47.26083" lon="4.95729">
        <ele>459</ele>
        <time>2012-12-11T14:41:54.1Z</time>
      </trkpt>
      <trkpt lat="47.26083" lon="4.95732">
        <ele>459</ele>
        <time>2012-12-11T14:41:56.1Z</time>
      </trkpt>
      <trkpt lat="47.26083" lon="4.95734">
        <ele>459</ele>
        <time>2012-12-11T14:41:59.1Z</time>
      </trkpt>
      <trkpt lat="47.26083" lon="4.95737">
        <ele>459</ele>
        <time>2012-12-11T14:42:01.1Z</time>
      </trkpt>
      <trkpt lat="47.26083" lon="4.95741">
        <ele>459</ele>
        <time>2012-12-11T14:42:03.1Z</time>
      </trkpt>
      <trkpt lat="47.26083" lon="4.95744">
        <ele>459</ele>
        <time>2012-12-11T14:42:05.1Z</time>
      </trkpt>
      <trkpt lat="47.26083" lon="4.95747">
        <ele>459</ele>
        <time>2012-12-11T14:42:07.1Z</time>
      </trkpt>
      <trkpt lat="47.26083" lon="4.9575">
        <ele>459</ele>
        <time>2012-12-11T14:42:09.1Z</time>
      </trkpt>
      <trkpt lat="47.26082" lon="4.95753">
        <ele>459</ele>
        <time>2012-12-11T14:42:11.1Z</time>
      </trkpt>
      <trkpt lat="47.26081" lon="4.95756">
        <ele>458</ele>
        <time>2012-12-11T14:42:14.1Z</time>
      </trkpt>
      <trkpt lat="47.26081" lon="4.95759">
        <ele>458</ele>
        <time>2012-12-11T14:42:16.1Z</time>
      </trkpt>
      <trkpt lat="47.26081" lon="4.95761">
        <ele>458</ele>
        <time>2012-12-11T14:42:18.1Z</time>
      </trkpt>
      <trkpt lat="47.2608" lon="4.95764">
        <ele>458</ele>
        <time>2012-12-11T14:42:20.1Z</time>
      </trkpt>
      <trkpt lat="47.2608" lon="4.95767">
        <ele>458</ele>
        <time>2012-12-11T14:42:22.1Z</time>
      </trkpt>
      <trkpt lat="47.26078" lon="4.9577">
        <ele>458</ele>
        <time>2012-12-11T14:42:24.1Z</time>
      </trkpt>
      <trkpt lat="47.26078" lon="4.95773">
        <ele>458</ele>
        <time>2012-12-11T14:42:26.1Z</time>
      </trkpt>
      <trkpt lat="47.26078" lon="4.95777">
        <ele>458</ele>
        <time>2012-12-11T14:42:28.1Z</time>
      </trkpt>
      <trkpt lat="47.26077" lon="4.9578">
        <ele>458</ele>
        <time>2012-12-11T14:42:30.1Z</time>
      </trkpt>
      <trkpt lat="47.26077" lon="4.95783">
        <ele>458</ele>
        <time>2012-12-11T14:42:32.1Z</time>
      </trkpt>
      <trkpt lat="47.26076" lon="4.95786">
        <ele>458</ele>
        <time>2012-12-11T14:42:34.1Z</time>
      </trkpt>
      <trkpt lat="47.26075" lon="4.95788">
        <ele>458</ele>
        <time>2012-12-11T14:42:37.1Z</time>
      </trkpt>
      <trkpt lat="47.26075" lon="4.95791">
        <ele>457</ele>
        <time>2012-12-11T14:42:39.1Z</time>
      </trkpt>
      <trkpt lat="47.26075" lon="4.95794">
        <ele>457</ele>
        <time>2012-12-11T14:42:41.1Z</time>
      </trkpt>
      <trkpt lat="47.26074" lon="4.95798">
        <ele>457</ele>
        <time>2012-12-11T14:42:43.1Z</time>
      </trkpt>
      <trkpt lat="47.26074" lon="4.958">
        <ele>457</ele>
        <time>2012-12-11T14:42:45.1Z</time>
      </trkpt>
      <trkpt lat="47.26073" lon="4.95803">
        <ele>457</ele>
        <time>2012-12-11T14:42:47.1Z</time>
      </trkpt>
      <trkpt lat="47.26072" lon="4.95806">
        <ele>456</ele>
        <time>2012-12-11T14:42:49.1Z</time>
      </trkpt>
      <trkpt lat="47.26071" lon="4.9581">
        <ele>457</ele>
        <time>2012-12-11T14:42:51.1Z</time>
      </trkpt>
      <trkpt lat="47.2607" lon="4.95813">
        <ele>457</ele>
        <time>2012-12-11T14:42:53.1Z</time>
      </trkpt>
      <trkpt lat="47.2607" lon="4.95816">
        <ele>456</ele>
        <time>2012-12-11T14:42:55.1Z</time>
      </trkpt>
      <trkpt lat="47.26069" lon="4.95819">
        <ele>456</ele>
        <time>2012-12-11T14:42:57.1Z</time>
      </trkpt>
      <trkpt lat="47.26068" lon="4.95824">
        <ele>457</ele>
        <time>2012-12-11T14:42:59.1Z</time>
      </trkpt>
      <trkpt lat="47.26067" lon="4.95828">
        <ele>457</ele>
        <time>2012-12-11T14:43:01.1Z</time>
      </trkpt>
      <trkpt lat="47.26066" lon="4.95831">
        <ele>457</ele>
        <time>2012-12-11T14:43:03.1Z</time>
      </trkpt>
      <trkpt lat="47.26066" lon="4.95835">
        <ele>456</ele>
        <time>2012-12-11T14:43:05.1Z</time>
      </trkpt>
      <trkpt lat="47.26066" lon="4.95838">
        <ele>456</ele>
        <time>2012-12-11T14:43:08.1Z</time>
      </trkpt>
      <trkpt lat="47.26066" lon="4.95841">
        <ele>456</ele>
        <time>2012-12-11T14:43:10.1Z</time>
      </trkpt>
      <trkpt lat="47.26065" lon="4.95845">
        <ele>456</ele>
        <time>2012-12-11T14:43:12.1Z</time>
      </trkpt>
      <trkpt lat="47.26065" lon="4.9585">
        <ele>456</ele>
        <time>2012-12-11T14:43:14.1Z</time>
      </trkpt>
      <trkpt lat="47.26065" lon="4.95853">
        <ele>456</ele>
        <time>2012-12-11T14:43:16.1Z</time>
      </trkpt>
      <trkpt lat="47.26065" lon="4.95856">
        <ele>456</ele>
        <time>2012-12-11T14:43:18.1Z</time>
      </trkpt>
      <trkpt lat="47.26064" lon="4.95858">
        <ele>456</ele>
        <time>2012-12-11T14:43:20.1Z</time>
      </trkpt>
      <trkpt lat="47.26064" lon="4.95861">
        <ele>456</ele>
        <time>2012-12-11T14:43:22.1Z</time>
      </trkpt>
      <trkpt lat="47.26062" lon="4.95863">
        <ele>455</ele>
        <time>2012-12-11T14:43:24.1Z</time>
      </trkpt>
      <trkpt lat="47.26061" lon="4.95863">
        <ele>455</ele>
        <time>2012-12-11T14:43:27.1Z</time>
      </trkpt>
      <trkpt lat="47.26059" lon="4.95863">
        <ele>456</ele>
        <time>2012-12-11T14:43:29.1Z</time>
      </trkpt>
      <trkpt lat="47.26057" lon="4.95862">
        <ele>456</ele>
        <time>2012-12-11T14:43:31.1Z</time>
      </trkpt>
      <trkpt lat="47.26055" lon="4.95862">
        <ele>456</ele>
        <time>2012-12-11T14:43:33.1Z</time>
      </trkpt>
      <trkpt lat="47.26053" lon="4.95861">
        <ele>456</ele>
        <time>2012-12-11T14:43:35.1Z</time>
      </trkpt>
      <trkpt lat="47.26051" lon="4.9586">
        <ele>456</ele>
        <time>2012-12-11T14:43:37.1Z</time>
      </trkpt>
      <trkpt lat="47.26048" lon="4.9586">
        <ele>455</ele>
        <time>2012-12-11T14:43:39.1Z</time>
      </trkpt>
      <trkpt lat="47.26046" lon="4.95859">
        <ele>455</ele>
        <time>2012-12-11T14:43:41.1Z</time>
      </trkpt>
      <trkpt lat="47.26043" lon="4.95858">
        <ele>455</ele>
        <time>2012-12-11T14:43:43.1Z</time>
      </trkpt>
      <trkpt lat="47.26041" lon="4.95858">
        <ele>456</ele>
        <time>2012-12-11T14:43:45.1Z</time>
      </trkpt>
      <trkpt lat="47.26039" lon="4.95858">
        <ele>456</ele>
        <time>2012-12-11T14:43:47.1Z</time>
      </trkpt>
      <trkpt lat="47.26036" lon="4.95858">
        <ele>456</ele>
        <time>2012-12-11T14:43:49.1Z</time>
      </trkpt>
      <trkpt lat="47.26033" lon="4.95857">
        <ele>455</ele>
        <time>2012-12-11T14:43:51.1Z</time>
      </trkpt>
      <trkpt lat="47.26031" lon="4.95856">
        <ele>455</ele>
        <time>2012-12-11T14:43:53.1Z</time>
      </trkpt>
      <trkpt lat="47.2603" lon="4.95856">
        <ele>455</ele>
        <time>2012-12-11T14:43:56.1Z</time>
      </trkpt>
      <trkpt lat="47.26028" lon="4.95855">
        <ele>455</ele>
        <time>2012-12-11T14:43:58.1Z</time>
      </trkpt>
      <trkpt lat="47.26025" lon="4.95854">
        <ele>455</ele>
        <time>2012-12-11T14:44:00.1Z</time>
      </trkpt>
      <trkpt lat="47.26023" lon="4.95853">
        <ele>455</ele>
        <time>2012-12-11T14:44:02.1Z</time>
      </trkpt>
      <trkpt lat="47.2602" lon="4.95852">
        <ele>455</ele>
        <time>2012-12-11T14:44:04.1Z</time>
      </trkpt>
      <trkpt lat="47.26019" lon="4.95851">
        <ele>455</ele>
        <time>2012-12-11T14:44:06.1Z</time>
      </trkpt>
      <trkpt lat="47.26017" lon="4.9585">
        <ele>455</ele>
        <time>2012-12-11T14:44:08.1Z</time>
      </trkpt>
      <trkpt lat="47.26014" lon="4.9585">
        <ele>455</ele>
        <time>2012-12-11T14:44:11.1Z</time>
      </trkpt>
      <trkpt lat="47.26012" lon="4.95849">
        <ele>454</ele>
        <time>2012-12-11T14:44:13.1Z</time>
      </trkpt>
      <trkpt lat="47.26009" lon="4.95848">
        <ele>454</ele>
        <time>2012-12-11T14:44:15.1Z</time>
      </trkpt>
      <trkpt lat="47.26007" lon="4.95846">
        <ele>454</ele>
        <time>2012-12-11T14:44:17.1Z</time>
      </trkpt>
      <trkpt lat="47.26006" lon="4.95845">
        <ele>454</ele>
        <time>2012-12-11T14:44:19.1Z</time>
      </trkpt>
      <trkpt lat="47.26004" lon="4.95844">
        <ele>454</ele>
        <time>2012-12-11T14:44:21.1Z</time>
      </trkpt>
      <trkpt lat="47.26002" lon="4.95843">
        <ele>454</ele>
        <time>2012-12-11T14:44:23.1Z</time>
      </trkpt>
      <trkpt lat="47.26" lon="4.95842">
        <ele>454</ele>
        <time>2012-12-11T14:44:25.1Z</time>
      </trkpt>
      <trkpt lat="47.25998" lon="4.95841">
        <ele>454</ele>
        <time>2012-12-11T14:44:27.1Z</time>
      </trkpt>
      <trkpt lat="47.25996" lon="4.95839">
        <ele>454</ele>
        <time>2012-12-11T14:44:29.1Z</time>
      </trkpt>
      <trkpt lat="47.25993" lon="4.95838">
        <ele>454</ele>
        <time>2012-12-11T14:44:32.1Z</time>
      </trkpt>
      <trkpt lat="47.25991" lon="4.95837">
        <ele>454</ele>
        <time>2012-12-11T14:44:34.1Z</time>
      </trkpt>
      <trkpt lat="47.25988" lon="4.95836">
        <ele>454</ele>
        <time>2012-12-11T14:44:36.1Z</time>
      </trkpt>
      <trkpt lat="47.25986" lon="4.95834">
        <ele>453</ele>
        <time>2012-12-11T14:44:38.1Z</time>
      </trkpt>
      <trkpt lat="47.25984" lon="4.95833">
        <ele>453</ele>
        <time>2012-12-11T14:44:40.1Z</time>
      </trkpt>
      <trkpt lat="47.25983" lon="4.95832">
        <ele>453</ele>
        <time>2012-12-11T14:44:42.1Z</time>
      </trkpt>
      <trkpt lat="47.2598" lon="4.95831">
        <ele>453</ele>
        <time>2012-12-11T14:44:44.1Z</time>
      </trkpt>
      <trkpt lat="47.25978" lon="4.9583">
        <ele>453</ele>
        <time>2012-12-11T14:44:46.1Z</time>
      </trkpt>
      <trkpt lat="47.25976" lon="4.95829">
        <ele>453</ele>
        <time>2012-12-11T14:44:48.1Z</time>
      </trkpt>
      <trkpt lat="47.25972" lon="4.95828">
        <ele>453</ele>
        <time>2012-12-11T14:44:50.1Z</time>
      </trkpt>
      <trkpt lat="47.2597" lon="4.95826">
        <ele>453</ele>
        <time>2012-12-11T14:44:52.1Z</time>
      </trkpt>
      <trkpt lat="47.25968" lon="4.95826">
        <ele>453</ele>
        <time>2012-12-11T14:44:54.1Z</time>
      </trkpt>
      <trkpt lat="47.25966" lon="4.95824">
        <ele>453</ele>
        <time>2012-12-11T14:44:56.1Z</time>
      </trkpt>
      <trkpt lat="47.25964" lon="4.95823">
        <ele>453</ele>
        <time>2012-12-11T14:44:58.1Z</time>
      </trkpt>
      <trkpt lat="47.25962" lon="4.95822">
        <ele>453</ele>
        <time>2012-12-11T14:45:00.1Z</time>
      </trkpt>
      <trkpt lat="47.2596" lon="4.95821">
        <ele>453</ele>
        <time>2012-12-11T14:45:03.1Z</time>
      </trkpt>
      <trkpt lat="47.25957" lon="4.9582">
        <ele>453</ele>
        <time>2012-12-11T14:45:05.1Z</time>
      </trkpt>
      <trkpt lat="47.25955" lon="4.95819">
        <ele>452</ele>
        <time>2012-12-11T14:45:07.1Z</time>
      </trkpt>
      <trkpt lat="47.25953" lon="4.95818">
        <ele>452</ele>
        <time>2012-12-11T14:45:09.1Z</time>
      </trkpt>
      <trkpt lat="47.25951" lon="4.95817">
        <ele>452</ele>
        <time>2012-12-11T14:45:11.1Z</time>
      </trkpt>
      <trkpt lat="47.25948" lon="4.95814">
        <ele>452</ele>
        <time>2012-12-11T14:45:13.1Z</time>
      </trkpt>
      <trkpt lat="47.25947" lon="4.95813">
        <ele>452</ele>
        <time>2012-12-11T14:45:15.1Z</time>
      </trkpt>
      <trkpt lat="47.25945" lon="4.95811">
        <ele>452</ele>
        <time>2012-12-11T14:45:18.1Z</time>
      </trkpt>
      <trkpt lat="47.25943" lon="4.9581">
        <ele>451</ele>
        <time>2012-12-11T14:45:20.1Z</time>
      </trkpt>
      <trkpt lat="47.25941" lon="4.95809">
        <ele>451</ele>
        <time>2012-12-11T14:45:22.1Z</time>
      </trkpt>
      <trkpt lat="47.2594" lon="4.95808">
        <ele>451</ele>
        <time>2012-12-11T14:45:24.1Z</time>
      </trkpt>
      <trkpt lat="47.25936" lon="4.95807">
        <ele>451</ele>
        <time>2012-12-11T14:45:26.1Z</time>
      </trkpt>
      <trkpt lat="47.25934" lon="4.95806">
        <ele>451</ele>
        <time>2012-12-11T14:45:28.1Z</time>
      </trkpt>
      <trkpt lat="47.25932" lon="4.95805">
        <ele>451</ele>
        <time>2012-12-11T14:45:30.1Z</time>
      </trkpt>
      <trkpt lat="47.2593" lon="4.95804">
        <ele>450</ele>
        <time>2012-12-11T14:45:32.1Z</time>
      </trkpt>
      <trkpt lat="47.25928" lon="4.95804">
        <ele>450</ele>
        <time>2012-12-11T14:45:34.1Z</time>
      </trkpt>
      <trkpt lat="47.25927" lon="4.95803">
        <ele>450</ele>
        <time>2012-12-11T14:45:36.1Z</time>
      </trkpt>
      <trkpt lat="47.25925" lon="4.95803">
        <ele>450</ele>
        <time>2012-12-11T14:45:38.1Z</time>
      </trkpt>
      <trkpt lat="47.25922" lon="4.95802">
        <ele>451</ele>
        <time>2012-12-11T14:45:41.1Z</time>
      </trkpt>
      <trkpt lat="47.2592" lon="4.958">
        <ele>450</ele>
        <time>2012-12-11T14:45:43.1Z</time>
      </trkpt>
      <trkpt lat="47.25919" lon="4.95799">
        <ele>450</ele>
        <time>2012-12-11T14:45:45.1Z</time>
      </trkpt>
      <trkpt lat="47.25917" lon="4.95799">
        <ele>450</ele>
        <time>2012-12-11T14:45:47.1Z</time>
      </trkpt>
      <trkpt lat="47.25915" lon="4.95797">
        <ele>450</ele>
        <time>2012-12-11T14:45:49.1Z</time>
      </trkpt>
      <trkpt lat="47.25913" lon="4.95797">
        <ele>450</ele>
        <time>2012-12-11T14:45:51.1Z</time>
      </trkpt>
      <trkpt lat="47.2591" lon="4.95796">
        <ele>449</ele>
        <time>2012-12-11T14:45:53.1Z</time>
      </trkpt>
      <trkpt lat="47.25908" lon="4.95797">
        <ele>449</ele>
        <time>2012-12-11T14:45:56.1Z</time>
      </trkpt>
      <trkpt lat="47.25907" lon="4.95797">
        <ele>449</ele>
        <time>2012-12-11T14:45:58.1Z</time>
      </trkpt>
      <trkpt lat="47.25905" lon="4.95798">
        <ele>449</ele>
        <time>2012-12-11T14:46:00.1Z</time>
      </trkpt>
      <trkpt lat="47.25903" lon="4.95799">
        <ele>449</ele>
        <time>2012-12-11T14:46:02.1Z</time>
      </trkpt>
      <trkpt lat="47.25901" lon="4.95799">
        <ele>449</ele>
        <time>2012-12-11T14:46:04.1Z</time>
      </trkpt>
      <trkpt lat="47.25899" lon="4.958">
        <ele>449</ele>
        <time>2012-12-11T14:46:06.1Z</time>
      </trkpt>
      <trkpt lat="47.25896" lon="4.95801">
        <ele>449</ele>
        <time>2012-12-11T14:46:08.1Z</time>
      </trkpt>
      <trkpt lat="47.25895" lon="4.95801">
        <ele>449</ele>
        <time>2012-12-11T14:46:10.1Z</time>
      </trkpt>
      <trkpt lat="47.25892" lon="4.95802">
        <ele>449</ele>
        <time>2012-12-11T14:46:12.1Z</time>
      </trkpt>
      <trkpt lat="47.2589" lon="4.95802">
        <ele>449</ele>
        <time>2012-12-11T14:46:14.1Z</time>
      </trkpt>
      <trkpt lat="47.25887" lon="4.95802">
        <ele>448</ele>
        <time>2012-12-11T14:46:16.1Z</time>
      </trkpt>
      <trkpt lat="47.25884" lon="4.95801">
        <ele>448</ele>
        <time>2012-12-11T14:46:18.1Z</time>
      </trkpt>
      <trkpt lat="47.25882" lon="4.95801">
        <ele>448</ele>
        <time>2012-12-11T14:46:21.1Z</time>
      </trkpt>
      <trkpt lat="47.2588" lon="4.95801">
        <ele>447</ele>
        <time>2012-12-11T14:46:23.1Z</time>
      </trkpt>
      <trkpt lat="47.25878" lon="4.95802">
        <ele>447</ele>
        <time>2012-12-11T14:46:25.1Z</time>
      </trkpt>
      <trkpt lat="47.25875" lon="4.95803">
        <ele>447</ele>
        <time>2012-12-11T14:46:27.1Z</time>
      </trkpt>
      <trkpt lat="47.25873" lon="4.95803">
        <ele>447</ele>
        <time>2012-12-11T14:46:29.1Z</time>
      </trkpt>
      <trkpt lat="47.2587" lon="4.95805">
        <ele>447</ele>
        <time>2012-12-11T14:46:31.1Z</time>
      </trkpt>
      <trkpt lat="47.25868" lon="4.95806">
        <ele>446</ele>
        <time>2012-12-11T14:46:33.1Z</time>
      </trkpt>
      <trkpt lat="47.25865" lon="4.95806">
        <ele>446</ele>
        <time>2012-12-11T14:46:35.1Z</time>
      </trkpt>
      <trkpt lat="47.25863" lon="4.95807">
        <ele>446</ele>
        <time>2012-12-11T14:46:37.1Z</time>
      </trkpt>
      <trkpt lat="47.2586" lon="4.95808">
        <ele>446</ele>
        <time>2012-12-11T14:46:39.1Z</time>
      </trkpt>
      <trkpt lat="47.25857" lon="4.95809">
        <ele>446</ele>
        <time>2012-12-11T14:46:41.1Z</time>
      </trkpt>
      <trkpt lat="47.25855" lon="4.95809">
        <ele>446</ele>
        <time>2012-12-11T14:46:43.1Z</time>
      </trkpt>
      <trkpt lat="47.25852" lon="4.95809">
        <ele>446</ele>
        <time>2012-12-11T14:46:45.1Z</time>
      </trkpt>
      <trkpt lat="47.25848" lon="4.95809">
        <ele>446</ele>
        <time>2012-12-11T14:46:47.1Z</time>
      </trkpt>
      <trkpt lat="47.25846" lon="4.9581">
        <ele>446</ele>
        <time>2012-12-11T14:46:49.1Z</time>
      </trkpt>
      <trkpt lat="47.25843" lon="4.9581">
        <ele>446</ele>
        <time>2012-12-11T14:46:52.1Z</time>
      </trkpt>
      <trkpt lat="47.25841" lon="4.9581">
        <ele>445</ele>
        <time>2012-12-11T14:46:54.1Z</time>
      </trkpt>
      <trkpt lat="47.25838" lon="4.9581">
        <ele>445</ele>
        <time>2012-12-11T14:46:56.1Z</time>
      </trkpt>
      <trkpt lat="47.25836" lon="4.9581">
        <ele>445</ele>
        <time>2012-12-11T14:46:58.1Z</time>
      </trkpt>
      <trkpt lat="47.25833" lon="4.95809">
        <ele>445</ele>
        <time>2012-12-11T14:47:00.1Z</time>
      </trkpt>
      <trkpt lat="47.25831" lon="4.95809">
        <ele>444</ele>
        <time>2012-12-11T14:47:02.1Z</time>
      </trkpt>
      <trkpt lat="47.25829" lon="4.95809">
        <ele>444</ele>
        <time>2012-12-11T14:47:04.1Z</time>
      </trkpt>
      <trkpt lat="47.25827" lon="4.95808">
        <ele>444</ele>
        <time>2012-12-11T14:47:07.1Z</time>
      </trkpt>
      <trkpt lat="47.25825" lon="4.95809">
        <ele>444</ele>
        <time>2012-12-11T14:47:09.1Z</time>
      </trkpt>
      <trkpt lat="47.25823" lon="4.95809">
        <ele>444</ele>
        <time>2012-12-11T14:47:11.1Z</time>
      </trkpt>
      <trkpt lat="47.2582" lon="4.9581">
        <ele>444</ele>
        <time>2012-12-11T14:47:13.1Z</time>
      </trkpt>
      <trkpt lat="47.25818" lon="4.9581">
        <ele>444</ele>
        <time>2012-12-11T14:47:15.1Z</time>
      </trkpt>
      <trkpt lat="47.25815" lon="4.9581">
        <ele>443</ele>
        <time>2012-12-11T14:47:17.1Z</time>
      </trkpt>
      <trkpt lat="47.25812" lon="4.95811">
        <ele>443</ele>
        <time>2012-12-11T14:47:19.1Z</time>
      </trkpt>
      <trkpt lat="47.2581" lon="4.95811">
        <ele>443</ele>
        <time>2012-12-11T14:47:22.1Z</time>
      </trkpt>
      <trkpt lat="47.25807" lon="4.95811">
        <ele>443</ele>
        <time>2012-12-11T14:47:24.1Z</time>
      </trkpt>
      <trkpt lat="47.25805" lon="4.95812">
        <ele>443</ele>
        <time>2012-12-11T14:47:26.1Z</time>
      </trkpt>
      <trkpt lat="47.25803" lon="4.95813">
        <ele>443</ele>
        <time>2012-12-11T14:47:28.1Z</time>
      </trkpt>
      <trkpt lat="47.258" lon="4.95813">
        <ele>443</ele>
        <time>2012-12-11T14:47:30.1Z</time>
      </trkpt>
      <trkpt lat="47.25796" lon="4.95814">
        <ele>442</ele>
        <time>2012-12-11T14:47:32.1Z</time>
      </trkpt>
      <trkpt lat="47.25794" lon="4.95815">
        <ele>442</ele>
        <time>2012-12-11T14:47:34.1Z</time>
      </trkpt>
      <trkpt lat="47.25792" lon="4.95816">
        <ele>442</ele>
        <time>2012-12-11T14:47:36.1Z</time>
      </trkpt>
      <trkpt lat="47.25789" lon="4.95817">
        <ele>442</ele>
        <time>2012-12-11T14:47:39.1Z</time>
      </trkpt>
      <trkpt lat="47.25787" lon="4.95818">
        <ele>443</ele>
        <time>2012-12-11T14:47:41.1Z</time>
      </trkpt>
      <trkpt lat="47.25785" lon="4.95819">
        <ele>442</ele>
        <time>2012-12-11T14:47:43.1Z</time>
      </trkpt>
      <trkpt lat="47.25782" lon="4.9582">
        <ele>442</ele>
        <time>2012-12-11T14:47:45.1Z</time>
      </trkpt>
      <trkpt lat="47.2578" lon="4.9582">
        <ele>442</ele>
        <time>2012-12-11T14:47:47.1Z</time>
      </trkpt>
      <trkpt lat="47.25778" lon="4.95818">
        <ele>442</ele>
        <time>2012-12-11T14:47:49.1Z</time>
      </trkpt>
      <trkpt lat="47.25776" lon="4.95817">
        <ele>442</ele>
        <time>2012-12-11T14:47:51.1Z</time>
      </trkpt>
      <trkpt lat="47.25774" lon="4.95816">
        <ele>442</ele>
        <time>2012-12-11T14:47:54.1Z</time>
      </trkpt>
      <trkpt lat="47.25772" lon="4.95815">
        <ele>442</ele>
        <time>2012-12-11T14:47:56.1Z</time>
      </trkpt>
      <trkpt lat="47.2577" lon="4.95815">
        <ele>442</ele>
        <time>2012-12-11T14:47:58.1Z</time>
      </trkpt>
      <trkpt lat="47.25769" lon="4.95814">
        <ele>441</ele>
        <time>2012-12-11T14:48:00.1Z</time>
      </trkpt>
      <trkpt lat="47.25766" lon="4.95814">
        <ele>441</ele>
        <time>2012-12-11T14:48:02.1Z</time>
      </trkpt>
      <trkpt lat="47.25764" lon="4.95814">
        <ele>441</ele>
        <time>2012-12-11T14:48:04.1Z</time>
      </trkpt>
      <trkpt lat="47.25762" lon="4.95814">
        <ele>441</ele>
        <time>2012-12-11T14:48:06.1Z</time>
      </trkpt>
      <trkpt lat="47.2576" lon="4.95814">
        <ele>441</ele>
        <time>2012-12-11T14:48:08.1Z</time>
      </trkpt>
      <trkpt lat="47.25758" lon="4.95813">
        <ele>441</ele>
        <time>2012-12-11T14:48:10.1Z</time>
      </trkpt>
      <trkpt lat="47.25756" lon="4.95813">
        <ele>441</ele>
        <time>2012-12-11T14:48:12.1Z</time>
      </trkpt>
      <trkpt lat="47.25754" lon="4.95813">
        <ele>441</ele>
        <time>2012-12-11T14:48:15.1Z</time>
      </trkpt>
      <trkpt lat="47.25752" lon="4.95813">
        <ele>440</ele>
        <time>2012-12-11T14:48:17.1Z</time>
      </trkpt>
      <trkpt lat="47.2575" lon="4.95813">
        <ele>440</ele>
        <time>2012-12-11T14:48:19.1Z</time>
      </trkpt>
      <trkpt lat="47.25748" lon="4.95813">
        <ele>440</ele>
        <time>2012-12-11T14:48:21.1Z</time>
      </trkpt>
      <trkpt lat="47.25745" lon="4.95814">
        <ele>440</ele>
        <time>2012-12-11T14:48:23.1Z</time>
      </trkpt>
      <trkpt lat="47.25743" lon="4.95815">
        <ele>439</ele>
        <time>2012-12-11T14:48:25.1Z</time>
      </trkpt>
      <trkpt lat="47.2574" lon="4.95816">
        <ele>439</ele>
        <time>2012-12-11T14:48:27.1Z</time>
      </trkpt>
      <trkpt lat="47.25738" lon="4.95817">
        <ele>439</ele>
        <time>2012-12-11T14:48:29.1Z</time>
      </trkpt>
      <trkpt lat="47.25736" lon="4.95817">
        <ele>439</ele>
        <time>2012-12-11T14:48:31.1Z</time>
      </trkpt>
      <trkpt lat="47.25732" lon="4.95818">
        <ele>439</ele>
        <time>2012-12-11T14:48:33.1Z</time>
      </trkpt>
      <trkpt lat="47.2573" lon="4.95819">
        <ele>439</ele>
        <time>2012-12-11T14:48:35.1Z</time>
      </trkpt>
      <trkpt lat="47.25728" lon="4.9582">
        <ele>439</ele>
        <time>2012-12-11T14:48:37.1Z</time>
      </trkpt>
      <trkpt lat="47.25726" lon="4.9582">
        <ele>439</ele>
        <time>2012-12-11T14:48:40.1Z</time>
      </trkpt>
      <trkpt lat="47.25724" lon="4.9582">
        <ele>438</ele>
        <time>2012-12-11T14:48:42.1Z</time>
      </trkpt>
      <trkpt lat="47.25721" lon="4.95821">
        <ele>438</ele>
        <time>2012-12-11T14:48:44.1Z</time>
      </trkpt>
      <trkpt lat="47.25718" lon="4.9582">
        <ele>438</ele>
        <time>2012-12-11T14:48:46.1Z</time>
      </trkpt>
      <trkpt lat="47.25716" lon="4.9582">
        <ele>438</ele>
        <time>2012-12-11T14:48:48.1Z</time>
      </trkpt>
      <trkpt lat="47.25714" lon="4.9582">
        <ele>438</ele>
        <time>2012-12-11T14:48:50.1Z</time>
      </trkpt>
      <trkpt lat="47.25712" lon="4.95819">
        <ele>437</ele>
        <time>2012-12-11T14:48:52.1Z</time>
      </trkpt>
      <trkpt lat="47.2571" lon="4.95819">
        <ele>437</ele>
        <time>2012-12-11T14:48:54.1Z</time>
      </trkpt>
      <trkpt lat="47.25708" lon="4.95819">
        <ele>437</ele>
        <time>2012-12-11T14:48:56.1Z</time>
      </trkpt>
      <trkpt lat="47.25706" lon="4.95819">
        <ele>436</ele>
        <time>2012-12-11T14:48:59.1Z</time>
      </trkpt>
      <trkpt lat="47.25704" lon="4.95819">
        <ele>436</ele>
        <time>2012-12-11T14:49:01.1Z</time>
      </trkpt>
      <trkpt lat="47.25702" lon="4.95819">
        <ele>436</ele>
        <time>2012-12-11T14:49:03.1Z</time>
      </trkpt>
      <trkpt lat="47.257" lon="4.9582">
        <ele>436</ele>
        <time>2012-12-11T14:49:05.1Z</time>
      </trkpt>
      <trkpt lat="47.25698" lon="4.9582">
        <ele>436</ele>
        <time>2012-12-11T14:49:07.1Z</time>
      </trkpt>
      <trkpt lat="47.25696" lon="4.9582">
        <ele>435</ele>
        <time>2012-12-11T14:49:09.1Z</time>
      </trkpt>
      <trkpt lat="47.25695" lon="4.95821">
        <ele>435</ele>
        <time>2012-12-11T14:49:11.1Z</time>
      </trkpt>
      <trkpt lat="47.25694" lon="4.95821">
        <ele>435</ele>
        <time>2012-12-11T14:49:13.1Z</time>
      </trkpt>
      <trkpt lat="47.25692" lon="4.95821">
        <ele>435</ele>
        <time>2012-12-11T14:49:15.1Z</time>
      </trkpt>
      <trkpt lat="47.25691" lon="4.95821">
        <ele>435</ele>
        <time>2012-12-11T14:49:17.1Z</time>
      </trkpt>
      <trkpt lat="47.2569" lon="4.95821">
        <ele>435</ele>
        <time>2012-12-11T14:49:19.1Z</time>
      </trkpt>
      <trkpt lat="47.25689" lon="4.95821">
        <ele>435</ele>
        <time>2012-12-11T14:49:22.1Z</time>
      </trkpt>
      <trkpt lat="47.25688" lon="4.95821">
        <ele>435</ele>
        <time>2012-12-11T14:49:24.1Z</time>
      </trkpt>
      <trkpt lat="47.25687" lon="4.95821">
        <ele>434</ele>
        <time>2012-12-11T14:49:26.1Z</time>
      </trkpt>
      <trkpt lat="47.25686" lon="4.9582">
        <ele>434</ele>
        <time>2012-12-11T14:49:28.1Z</time>
      </trkpt>
      <trkpt lat="47.25684" lon="4.95821">
        <ele>434</ele>
        <time>2012-12-11T14:49:30.1Z</time>
      </trkpt>
      <trkpt lat="47.25683" lon="4.95822">
        <ele>434</ele>
        <time>2012-12-11T14:49:32.1Z</time>
      </trkpt>
      <trkpt lat="47.25682" lon="4.95824">
        <ele>434</ele>
        <time>2012-12-11T14:49:34.1Z</time>
      </trkpt>
      <trkpt lat="47.2568" lon="4.95826">
        <ele>434</ele>
        <time>2012-12-11T14:49:36.1Z</time>
      </trkpt>
      <trkpt lat="47.2568" lon="4.95826">
        <ele>434</ele>
        <time>2012-12-11T14:49:38.1Z</time>
      </trkpt>
      <trkpt lat="47.25679" lon="4.95827">
        <ele>434</ele>
        <time>2012-12-11T14:49:40.1Z</time>
      </trkpt>
      <trkpt lat="47.25678" lon="4.95828">
        <ele>434</ele>
        <time>2012-12-11T14:49:43.1Z</time>
      </trkpt>
      <trkpt lat="47.25678" lon="4.95829">
        <ele>434</ele>
        <time>2012-12-11T14:49:45.1Z</time>
      </trkpt>
      <trkpt lat="47.25677" lon="4.95831">
        <ele>434</ele>
        <time>2012-12-11T14:49:47.1Z</time>
      </trkpt>
      <trkpt lat="47.25676" lon="4.95833">
        <ele>434</ele>
        <time>2012-12-11T14:49:49.1Z</time>
      </trkpt>
      <trkpt lat="47.25675" lon="4.95835">
        <ele>434</ele>
        <time>2012-12-11T14:49:51.1Z</time>
      </trkpt>
      <trkpt lat="47.25673" lon="4.95836">
        <ele>434</ele>
        <time>2012-12-11T14:49:53.1Z</time>
      </trkpt>
      <trkpt lat="47.25671" lon="4.95838">
        <ele>434</ele>
        <time>2012-12-11T14:49:55.1Z</time>
      </trkpt>
      <trkpt lat="47.25669" lon="4.95839">
        <ele>434</ele>
        <time>2012-12-11T14:49:57.1Z</time>
      </trkpt>
      <trkpt lat="47.25668" lon="4.95841">
        <ele>434</ele>
        <time>2012-12-11T14:49:59.1Z</time>
      </trkpt>
      <trkpt lat="47.25666" lon="4.95843">
        <ele>434</ele>
        <time>2012-12-11T14:50:01.1Z</time>
      </trkpt>
      <trkpt lat="47.25664" lon="4.95845">
        <ele>434</ele>
        <time>2012-12-11T14:50:03.1Z</time>
      </trkpt>
      <trkpt lat="47.25662" lon="4.95846">
        <ele>434</ele>
        <time>2012-12-11T14:50:06.1Z</time>
      </trkpt>
      <trkpt lat="47.25661" lon="4.95847">
        <ele>434</ele>
        <time>2012-12-11T14:50:08.1Z</time>
      </trkpt>
      <trkpt lat="47.25659" lon="4.95849">
        <ele>434</ele>
        <time>2012-12-11T14:50:10.1Z</time>
      </trkpt>
      <trkpt lat="47.25657" lon="4.95852">
        <ele>434</ele>
        <time>2012-12-11T14:50:12.1Z</time>
      </trkpt>
      <trkpt lat="47.25656" lon="4.95855">
        <ele>434</ele>
        <time>2012-12-11T14:50:14.1Z</time>
      </trkpt>
      <trkpt lat="47.25655" lon="4.95857">
        <ele>434</ele>
        <time>2012-12-11T14:50:16.1Z</time>
      </trkpt>
      <trkpt lat="47.25653" lon="4.95859">
        <ele>434</ele>
        <time>2012-12-11T14:50:18.1Z</time>
      </trkpt>
      <trkpt lat="47.25652" lon="4.95861">
        <ele>434</ele>
        <time>2012-12-11T14:50:21.1Z</time>
      </trkpt>
      <trkpt lat="47.25652" lon="4.95864">
        <ele>434</ele>
        <time>2012-12-11T14:50:23.1Z</time>
      </trkpt>
      <trkpt lat="47.2565" lon="4.95866">
        <ele>434</ele>
        <time>2012-12-11T14:50:25.1Z</time>
      </trkpt>
      <trkpt lat="47.2565" lon="4.95869">
        <ele>434</ele>
        <time>2012-12-11T14:50:27.1Z</time>
      </trkpt>
      <trkpt lat="47.25648" lon="4.95872">
        <ele>434</ele>
        <time>2012-12-11T14:50:29.1Z</time>
      </trkpt>
      <trkpt lat="47.25648" lon="4.95873">
        <ele>433</ele>
        <time>2012-12-11T14:50:31.1Z</time>
      </trkpt>
      <trkpt lat="47.25648" lon="4.95874">
        <ele>433</ele>
        <time>2012-12-11T14:50:33.1Z</time>
      </trkpt>
      <trkpt lat="47.25648" lon="4.95875">
        <ele>433</ele>
        <time>2012-12-11T14:50:36.1Z</time>
      </trkpt>
      <trkpt lat="47.25648" lon="4.95877">
        <ele>433</ele>
        <time>2012-12-11T14:50:38.1Z</time>
      </trkpt>
      <trkpt lat="47.25649" lon="4.95879">
        <ele>433</ele>
        <time>2012-12-11T14:50:40.1Z</time>
      </trkpt>
      <trkpt lat="47.2565" lon="4.95881">
        <ele>434</ele>
        <time>2012-12-11T14:50:42.1Z</time>
      </trkpt>
      <trkpt lat="47.25652" lon="4.95884">
        <ele>434</ele>
        <time>2012-12-11T14:50:44.1Z</time>
      </trkpt>
      <trkpt lat="47.25652" lon="4.95887">
        <ele>434</ele>
        <time>2012-12-11T14:50:46.1Z</time>
      </trkpt>
      <trkpt lat="47.25653" lon="4.95889">
        <ele>434</ele>
        <time>2012-12-11T14:50:48.1Z</time>
      </trkpt>
      <trkpt lat="47.25655" lon="4.95892">
        <ele>434</ele>
        <time>2012-12-11T14:50:50.1Z</time>
      </trkpt>
      <trkpt lat="47.25655" lon="4.95894">
        <ele>434</ele>
        <time>2012-12-11T14:50:52.1Z</time>
      </trkpt>
      <trkpt lat="47.25656" lon="4.95897">
        <ele>434</ele>
        <time>2012-12-11T14:50:54.1Z</time>
      </trkpt>
      <trkpt lat="47.25657" lon="4.95902">
        <ele>434</ele>
        <time>2012-12-11T14:50:56.1Z</time>
      </trkpt>
      <trkpt lat="47.25658" lon="4.95905">
        <ele>434</ele>
        <time>2012-12-11T14:50:58.1Z</time>
      </trkpt>
      <trkpt lat="47.25659" lon="4.95908">
        <ele>434</ele>
        <time>2012-12-11T14:51:00.1Z</time>
      </trkpt>
      <trkpt lat="47.25659" lon="4.95911">
        <ele>434</ele>
        <time>2012-12-11T14:51:02.1Z</time>
      </trkpt>
      <trkpt lat="47.25659" lon="4.95914">
        <ele>434</ele>
        <time>2012-12-11T14:51:05.1Z</time>
      </trkpt>
      <trkpt lat="47.2566" lon="4.95917">
        <ele>434</ele>
        <time>2012-12-11T14:51:07.1Z</time>
      </trkpt>
      <trkpt lat="47.25661" lon="4.9592">
        <ele>434</ele>
        <time>2012-12-11T14:51:09.1Z</time>
      </trkpt>
      <trkpt lat="47.25662" lon="4.95923">
        <ele>434</ele>
        <time>2012-12-11T14:51:11.1Z</time>
      </trkpt>
      <trkpt lat="47.25663" lon="4.95926">
        <ele>434</ele>
        <time>2012-12-11T14:51:13.1Z</time>
      </trkpt>
      <trkpt lat="47.25663" lon="4.95929">
        <ele>434</ele>
        <time>2012-12-11T14:51:15.1Z</time>
      </trkpt>
      <trkpt lat="47.25663" lon="4.95934">
        <ele>434</ele>
        <time>2012-12-11T14:51:17.1Z</time>
      </trkpt>
      <trkpt lat="47.25663" lon="4.95937">
        <ele>434</ele>
        <time>2012-12-11T14:51:19.1Z</time>
      </trkpt>
      <trkpt lat="47.25662" lon="4.9594">
        <ele>434</ele>
        <time>2012-12-11T14:51:21.1Z</time>
      </trkpt>
      <trkpt lat="47.25661" lon="4.95943">
        <ele>434</ele>
        <time>2012-12-11T14:51:23.1Z</time>
      </trkpt>
      <trkpt lat="47.25661" lon="4.95947">
        <ele>434</ele>
        <time>2012-12-11T14:51:25.1Z</time>
      </trkpt>
      <trkpt lat="47.25661" lon="4.9595">
        <ele>434</ele>
        <time>2012-12-11T14:51:28.1Z</time>
      </trkpt>
      <trkpt lat="47.2566" lon="4.95953">
        <ele>434</ele>
        <time>2012-12-11T14:51:30.1Z</time>
      </trkpt>
      <trkpt lat="47.2566" lon="4.95957">
        <ele>434</ele>
        <time>2012-12-11T14:51:32.1Z</time>
      </trkpt>
      <trkpt lat="47.25659" lon="4.95961">
        <ele>434</ele>
        <time>2012-12-11T14:51:34.1Z</time>
      </trkpt>
      <trkpt lat="47.25658" lon="4.95964">
        <ele>434</ele>
        <time>2012-12-11T14:51:36.1Z</time>
      </trkpt>
      <trkpt lat="47.25657" lon="4.95966">
        <ele>434</ele>
        <time>2012-12-11T14:51:38.1Z</time>
      </trkpt>
      <trkpt lat="47.25655" lon="4.95968">
        <ele>434</ele>
        <time>2012-12-11T14:51:40.1Z</time>
      </trkpt>
      <trkpt lat="47.25652" lon="4.95972">
        <ele>433</ele>
        <time>2012-12-11T14:51:42.1Z</time>
      </trkpt>
      <trkpt lat="47.2565" lon="4.95974">
        <ele>433</ele>
        <time>2012-12-11T14:51:44.1Z</time>
      </trkpt>
      <trkpt lat="47.25649" lon="4.95976">
        <ele>433</ele>
        <time>2012-12-11T14:51:46.1Z</time>
      </trkpt>
      <trkpt lat="47.25647" lon="4.95979">
        <ele>433</ele>
        <time>2012-12-11T14:51:48.1Z</time>
      </trkpt>
      <trkpt lat="47.25646" lon="4.95982">
        <ele>433</ele>
        <time>2012-12-11T14:51:51.1Z</time>
      </trkpt>
      <trkpt lat="47.25645" lon="4.95985">
        <ele>433</ele>
        <time>2012-12-11T14:51:53.1Z</time>
      </trkpt>
      <trkpt lat="47.25644" lon="4.95987">
        <ele>433</ele>
        <time>2012-12-11T14:51:55.1Z</time>
      </trkpt>
      <trkpt lat="47.25642" lon="4.9599">
        <ele>433</ele>
        <time>2012-12-11T14:51:57.1Z</time>
      </trkpt>
      <trkpt lat="47.2564" lon="4.95992">
        <ele>433</ele>
        <time>2012-12-11T14:51:59.1Z</time>
      </trkpt>
      <trkpt lat="47.25638" lon="4.95993">
        <ele>433</ele>
        <time>2012-12-11T14:52:01.1Z</time>
      </trkpt>
      <trkpt lat="47.25636" lon="4.95995">
        <ele>433</ele>
        <time>2012-12-11T14:52:04.1Z</time>
      </trkpt>
      <trkpt lat="47.25635" lon="4.95996">
        <ele>432</ele>
        <time>2012-12-11T14:52:06.1Z</time>
      </trkpt>
      <trkpt lat="47.25633" lon="4.95998">
        <ele>432</ele>
        <time>2012-12-11T14:52:08.1Z</time>
      </trkpt>
      <trkpt lat="47.25632" lon="4.96">
        <ele>432</ele>
        <time>2012-12-11T14:52:10.1Z</time>
      </trkpt>
      <trkpt lat="47.25631" lon="4.96004">
        <ele>432</ele>
        <time>2012-12-11T14:52:12.1Z</time>
      </trkpt>
      <trkpt lat="47.2563" lon="4.96005">
        <ele>432</ele>
        <time>2012-12-11T14:52:14.1Z</time>
      </trkpt>
      <trkpt lat="47.2563" lon="4.96004">
        <ele>432</ele>
        <time>2012-12-11T14:52:16.1Z</time>
      </trkpt>
      <trkpt lat="47.2563" lon="4.96005">
        <ele>432</ele>
        <time>2012-12-11T14:52:18.1Z</time>
      </trkpt>
      <trkpt lat="47.25629" lon="4.96005">
        <ele>432</ele>
        <time>2012-12-11T14:52:20.1Z</time>
      </trkpt>
      <trkpt lat="47.25629" lon="4.96005">
        <ele>432</ele>
        <time>2012-12-11T14:52:22.1Z</time>
      </trkpt>
      <trkpt lat="47.25629" lon="4.96006">
        <ele>432</ele>
        <time>2012-12-11T14:52:24.1Z</time>
      </trkpt>
      <trkpt lat="47.25629" lon="4.96007">
        <ele>432</ele>
        <time>2012-12-11T14:52:27.1Z</time>
      </trkpt>
      <trkpt lat="47.25628" lon="4.96008">
        <ele>432</ele>
        <time>2012-12-11T14:52:29.1Z</time>
      </trkpt>
      <trkpt lat="47.25627" lon="4.96008">
        <ele>432</ele>
        <time>2012-12-11T14:52:31.1Z</time>
      </trkpt>
      <trkpt lat="47.25626" lon="4.96008">
        <ele>432</ele>
        <time>2012-12-11T14:52:33.1Z</time>
      </trkpt>
      <trkpt lat="47.25625" lon="4.9601">
        <ele>431</ele>
        <time>2012-12-11T14:52:35.1Z</time>
      </trkpt>
      <trkpt lat="47.25624" lon="4.96013">
        <ele>431</ele>
        <time>2012-12-11T14:52:37.1Z</time>
      </trkpt>
      <trkpt lat="47.25623" lon="4.96015">
        <ele>431</ele>
        <time>2012-12-11T14:52:39.1Z</time>
      </trkpt>
      <trkpt lat="47.25622" lon="4.96018">
        <ele>431</ele>
        <time>2012-12-11T14:52:41.1Z</time>
      </trkpt>
      <trkpt lat="47.25621" lon="4.9602">
        <ele>430</ele>
        <time>2012-12-11T14:52:44.1Z</time>
      </trkpt>
      <trkpt lat="47.2562" lon="4.96023">
        <ele>430</ele>
        <time>2012-12-11T14:52:46.1Z</time>
      </trkpt>
      <trkpt lat="47.25618" lon="4.96024">
        <ele>430</ele>
        <time>2012-12-11T14:52:48.1Z</time>
      </trkpt>
      <trkpt lat="47.25617" lon="4.96026">
        <ele>430</ele>
        <time>2012-12-11T14:52:50.1Z</time>
      </trkpt>
      <trkpt lat="47.25615" lon="4.96028">
        <ele>429</ele>
        <time>2012-12-11T14:52:52.1Z</time>
      </trkpt>
      <trkpt lat="47.25614" lon="4.9603">
        <ele>429</ele>
        <time>2012-12-11T14:52:54.1Z</time>
      </trkpt>
      <trkpt lat="47.25612" lon="4.96031">
        <ele>429</ele>
        <time>2012-12-11T14:52:56.1Z</time>
      </trkpt>
      <trkpt lat="47.25611" lon="4.96032">
        <ele>429</ele>
        <time>2012-12-11T14:52:58.1Z</time>
      </trkpt>
      <trkpt lat="47.2561" lon="4.96033">
        <ele>428</ele>
        <time>2012-12-11T14:53:00.1Z</time>
      </trkpt>
      <trkpt lat="47.2561" lon="4.96034">
        <ele>428</ele>
        <time>2012-12-11T14:53:02.1Z</time>
      </trkpt>
      <trkpt lat="47.25609" lon="4.96036">
        <ele>428</ele>
        <time>2012-12-11T14:53:04.1Z</time>
      </trkpt>
      <trkpt lat="47.25608" lon="4.96038">
        <ele>428</ele>
        <time>2012-12-11T14:53:07.1Z</time>
      </trkpt>
      <trkpt lat="47.25607" lon="4.96039">
        <ele>427</ele>
        <time>2012-12-11T14:53:09.1Z</time>
      </trkpt>
      <trkpt lat="47.25605" lon="4.96041">
        <ele>427</ele>
        <time>2012-12-11T14:53:11.1Z</time>
      </trkpt>
      <trkpt lat="47.25604" lon="4.96043">
        <ele>426</ele>
        <time>2012-12-11T14:53:13.1Z</time>
      </trkpt>
      <trkpt lat="47.25603" lon="4.96044">
        <ele>426</ele>
        <time>2012-12-11T14:53:15.1Z</time>
      </trkpt>
      <trkpt lat="47.25603" lon="4.96046">
        <ele>426</ele>
        <time>2012-12-11T14:53:17.1Z</time>
      </trkpt>
      <trkpt lat="47.25602" lon="4.96048">
        <ele>426</ele>
        <time>2012-12-11T14:53:19.1Z</time>
      </trkpt>
      <trkpt lat="47.25601" lon="4.96051">
        <ele>426</ele>
        <time>2012-12-11T14:53:21.1Z</time>
      </trkpt>
      <trkpt lat="47.256" lon="4.96052">
        <ele>425</ele>
        <time>2012-12-11T14:53:23.1Z</time>
      </trkpt>
      <trkpt lat="47.256" lon="4.96053">
        <ele>425</ele>
        <time>2012-12-11T14:53:26.1Z</time>
      </trkpt>
      <trkpt lat="47.256" lon="4.96055">
        <ele>425</ele>
        <time>2012-12-11T14:53:28.1Z</time>
      </trkpt>
      <trkpt lat="47.256" lon="4.96056">
        <ele>424</ele>
        <time>2012-12-11T14:53:30.1Z</time>
      </trkpt>
      <trkpt lat="47.256" lon="4.96057">
        <ele>424</ele>
        <time>2012-12-11T14:53:32.1Z</time>
      </trkpt>
      <trkpt lat="47.256" lon="4.96059">
        <ele>424</ele>
        <time>2012-12-11T14:53:34.1Z</time>
      </trkpt>
      <trkpt lat="47.256" lon="4.9606">
        <ele>424</ele>
        <time>2012-12-11T14:53:36.1Z</time>
      </trkpt>
      <trkpt lat="47.256" lon="4.96061">
        <ele>424</ele>
        <time>2012-12-11T14:53:38.1Z</time>
      </trkpt>
      <trkpt lat="47.25599" lon="4.96062">
        <ele>424</ele>
        <time>2012-12-11T14:53:41.1Z</time>
      </trkpt>
      <trkpt lat="47.25599" lon="4.96062">
        <ele>424</ele>
        <time>2012-12-11T14:53:43.1Z</time>
      </trkpt>
      <trkpt lat="47.25599" lon="4.96062">
        <ele>424</ele>
        <time>2012-12-11T14:53:45.1Z</time>
      </trkpt>
      <trkpt lat="47.256" lon="4.96062">
        <ele>423</ele>
        <time>2012-12-11T14:53:47.1Z</time>
      </trkpt>
      <trkpt lat="47.256" lon="4.96063">
        <ele>423</ele>
        <time>2012-12-11T14:53:49.1Z</time>
      </trkpt>
      <trkpt lat="47.256" lon="4.96063">
        <ele>423</ele>
        <time>2012-12-11T14:53:51.1Z</time>
      </trkpt>
      <trkpt lat="47.256" lon="4.96064">
        <ele>423</ele>
        <time>2012-12-11T14:53:53.1Z</time>
      </trkpt>
      <trkpt lat="47.256" lon="4.96063">
        <ele>423</ele>
        <time>2012-12-11T14:53:55.1Z</time>
      </trkpt>
      <trkpt lat="47.256" lon="4.96063">
        <ele>423</ele>
        <time>2012-12-11T14:53:57.1Z</time>
      </trkpt>
      <trkpt lat="47.256" lon="4.96063">
        <ele>423</ele>
        <time>2012-12-11T14:54:00.1Z</time>
      </trkpt>
      <trkpt lat="47.25599" lon="4.96064">
        <ele>423</ele>
        <time>2012-12-11T14:54:02.1Z</time>
      </trkpt>
      <trkpt lat="47.256" lon="4.96064">
        <ele>423</ele>
        <time>2012-12-11T14:54:04.1Z</time>
      </trkpt>
      <trkpt lat="47.256" lon="4.96065">
        <ele>423</ele>
        <time>2012-12-11T14:54:06.1Z</time>
      </trkpt>
      <trkpt lat="47.256" lon="4.96065">
        <ele>423</ele>
        <time>2012-12-11T14:54:08.1Z</time>
      </trkpt>
      <trkpt lat="47.256" lon="4.96066">
        <ele>423</ele>
        <time>2012-12-11T14:54:10.1Z</time>
      </trkpt>
      <trkpt lat="47.256" lon="4.96067">
        <ele>423</ele>
        <time>2012-12-11T14:54:12.1Z</time>
      </trkpt>
      <trkpt lat="47.25601" lon="4.96068">
        <ele>423</ele>
        <time>2012-12-11T14:54:15.1Z</time>
      </trkpt>
      <trkpt lat="47.25602" lon="4.9607">
        <ele>423</ele>
        <time>2012-12-11T14:54:17.1Z</time>
      </trkpt>
      <trkpt lat="47.25602" lon="4.96072">
        <ele>423</ele>
        <time>2012-12-11T14:54:19.1Z</time>
      </trkpt>
      <trkpt lat="47.25603" lon="4.96073">
        <ele>423</ele>
        <time>2012-12-11T14:54:21.1Z</time>
      </trkpt>
      <trkpt lat="47.25604" lon="4.96076">
        <ele>423</ele>
        <time>2012-12-11T14:54:23.1Z</time>
      </trkpt>
      <trkpt lat="47.25605" lon="4.96078">
        <ele>423</ele>
        <time>2012-12-11T14:54:25.1Z</time>
      </trkpt>
      <trkpt lat="47.25606" lon="4.9608">
        <ele>423</ele>
        <time>2012-12-11T14:54:27.1Z</time>
      </trkpt>
      <trkpt lat="47.25607" lon="4.96082">
        <ele>422</ele>
        <time>2012-12-11T14:54:29.1Z</time>
      </trkpt>
      <trkpt lat="47.25608" lon="4.96084">
        <ele>422</ele>
        <time>2012-12-11T14:54:31.1Z</time>
      </trkpt>
      <trkpt lat="47.25608" lon="4.96087">
        <ele>422</ele>
        <time>2012-12-11T14:54:33.1Z</time>
      </trkpt>
      <trkpt lat="47.25609" lon="4.96087">
        <ele>422</ele>
        <time>2012-12-11T14:54:35.1Z</time>
      </trkpt>
      <trkpt lat="47.2561" lon="4.9609">
        <ele>422</ele>
        <time>2012-12-11T14:54:37.1Z</time>
      </trkpt>
      <trkpt lat="47.25611" lon="4.96092">
        <ele>422</ele>
        <time>2012-12-11T14:54:39.1Z</time>
      </trkpt>
      <trkpt lat="47.25613" lon="4.96093">
        <ele>422</ele>
        <time>2012-12-11T14:54:41.1Z</time>
      </trkpt>
      <trkpt lat="47.25614" lon="4.96094">
        <ele>423</ele>
        <time>2012-12-11T14:54:43.1Z</time>
      </trkpt>
      <trkpt lat="47.25615" lon="4.96095">
        <ele>423</ele>
        <time>2012-12-11T14:54:46.1Z</time>
      </trkpt>
      <trkpt lat="47.25617" lon="4.96095">
        <ele>423</ele>
        <time>2012-12-11T14:54:48.1Z</time>
      </trkpt>
      <trkpt lat="47.25618" lon="4.96095">
        <ele>423</ele>
        <time>2012-12-11T14:54:50.1Z</time>
      </trkpt>
      <trkpt lat="47.25619" lon="4.96095">
        <ele>423</ele>
        <time>2012-12-11T14:54:52.1Z</time>
      </trkpt>
      <trkpt lat="47.25621" lon="4.96094">
        <ele>424</ele>
        <time>2012-12-11T14:54:54.1Z</time>
      </trkpt>
      <trkpt lat="47.25621" lon="4.96093">
        <ele>424</ele>
        <time>2012-12-11T14:54:56.1Z</time>
      </trkpt>
      <trkpt lat="47.25623" lon="4.96093">
        <ele>424</ele>
        <time>2012-12-11T14:54:58.1Z</time>
      </trkpt>
      <trkpt lat="47.25624" lon="4.96093">
        <ele>425</ele>
        <time>2012-12-11T14:55:00.1Z</time>
      </trkpt>
      <trkpt lat="47.25626" lon="4.96094">
        <ele>425</ele>
        <time>2012-12-11T14:55:02.1Z</time>
      </trkpt>
      <trkpt lat="47.25627" lon="4.96095">
        <ele>425</ele>
        <time>2012-12-11T14:55:04.1Z</time>
      </trkpt>
      <trkpt lat="47.25628" lon="4.96094">
        <ele>426</ele>
        <time>2012-12-11T14:55:06.1Z</time>
      </trkpt>
      <trkpt lat="47.25629" lon="4.96094">
        <ele>426</ele>
        <time>2012-12-11T14:55:08.1Z</time>
      </trkpt>
      <trkpt lat="47.2563" lon="4.96095">
        <ele>426</ele>
        <time>2012-12-11T14:55:10.1Z</time>
      </trkpt>
      <trkpt lat="47.25631" lon="4.96096">
        <ele>426</ele>
        <time>2012-12-11T14:55:12.1Z</time>
      </trkpt>
      <trkpt lat="47.25633" lon="4.96098">
        <ele>426</ele>
        <time>2012-12-11T14:55:14.1Z</time>
      </trkpt>
      <trkpt lat="47.25635" lon="4.96099">
        <ele>427</ele>
        <time>2012-12-11T14:55:16.1Z</time>
      </trkpt>
      <trkpt lat="47.25636" lon="4.96101">
        <ele>427</ele>
        <time>2012-12-11T14:55:18.1Z</time>
      </trkpt>
      <trkpt lat="47.25638" lon="4.96102">
        <ele>427</ele>
        <time>2012-12-11T14:55:21.1Z</time>
      </trkpt>
      <trkpt lat="47.25639" lon="4.96102">
        <ele>427</ele>
        <time>2012-12-11T14:55:23.1Z</time>
      </trkpt>
      <trkpt lat="47.25641" lon="4.96102">
        <ele>428</ele>
        <time>2012-12-11T14:55:25.1Z</time>
      </trkpt>
      <trkpt lat="47.25643" lon="4.96103">
        <ele>428</ele>
        <time>2012-12-11T14:55:27.1Z</time>
      </trkpt>
      <trkpt lat="47.25644" lon="4.96104">
        <ele>428</ele>
        <time>2012-12-11T14:55:29.1Z</time>
      </trkpt>
      <trkpt lat="47.25646" lon="4.96106">
        <ele>428</ele>
        <time>2012-12-11T14:55:31.1Z</time>
      </trkpt>
      <trkpt lat="47.25648" lon="4.96107">
        <ele>429</ele>
        <time>2012-12-11T14:55:33.1Z</time>
      </trkpt>
      <trkpt lat="47.2565" lon="4.96108">
        <ele>429</ele>
        <time>2012-12-11T14:55:35.1Z</time>
      </trkpt>
      <trkpt lat="47.25652" lon="4.96111">
        <ele>429</ele>
        <time>2012-12-11T14:55:37.1Z</time>
      </trkpt>
      <trkpt lat="47.25653" lon="4.96114">
        <ele>430</ele>
        <time>2012-12-11T14:55:39.1Z</time>
      </trkpt>
      <trkpt lat="47.25655" lon="4.96117">
        <ele>430</ele>
        <time>2012-12-11T14:55:41.1Z</time>
      </trkpt>
      <trkpt lat="47.25656" lon="4.9612">
        <ele>430</ele>
        <time>2012-12-11T14:55:43.1Z</time>
      </trkpt>
      <trkpt lat="47.25657" lon="4.96122">
        <ele>430</ele>
        <time>2012-12-11T14:55:45.1Z</time>
      </trkpt>
      <trkpt lat="47.25658" lon="4.96124">
        <ele>429</ele>
        <time>2012-12-11T14:55:47.1Z</time>
      </trkpt>
      <trkpt lat="47.25659" lon="4.96126">
        <ele>429</ele>
        <time>2012-12-11T14:55:49.1Z</time>
      </trkpt>
      <trkpt lat="47.2566" lon="4.96129">
        <ele>429</ele>
        <time>2012-12-11T14:55:51.1Z</time>
      </trkpt>
      <trkpt lat="47.25661" lon="4.96131">
        <ele>429</ele>
        <time>2012-12-11T14:55:54.1Z</time>
      </trkpt>
      <trkpt lat="47.25662" lon="4.96134">
        <ele>429</ele>
        <time>2012-12-11T14:55:56.1Z</time>
      </trkpt>
      <trkpt lat="47.25663" lon="4.96136">
        <ele>430</ele>
        <time>2012-12-11T14:55:58.1Z</time>
      </trkpt>
      <trkpt lat="47.25665" lon="4.96138">
        <ele>429</ele>
        <time>2012-12-11T14:56:00.1Z</time>
      </trkpt>
      <trkpt lat="47.25666" lon="4.9614">
        <ele>429</ele>
        <time>2012-12-11T14:56:02.1Z</time>
      </trkpt>
      <trkpt lat="47.25668" lon="4.96142">
        <ele>429</ele>
        <time>2012-12-11T14:56:04.1Z</time>
      </trkpt>
      <trkpt lat="47.25669" lon="4.96145">
        <ele>429</ele>
        <time>2012-12-11T14:56:06.1Z</time>
      </trkpt>
      <trkpt lat="47.25671" lon="4.96148">
        <ele>430</ele>
        <time>2012-12-11T14:56:08.1Z</time>
      </trkpt>
      <trkpt lat="47.25672" lon="4.96151">
        <ele>430</ele>
        <time>2012-12-11T14:56:10.1Z</time>
      </trkpt>
      <trkpt lat="47.25675" lon="4.96155">
        <ele>430</ele>
        <time>2012-12-11T14:56:12.1Z</time>
      </trkpt>
      <trkpt lat="47.25676" lon="4.96157">
        <ele>430</ele>
        <time>2012-12-11T14:56:14.1Z</time>
      </trkpt>
      <trkpt lat="47.25678" lon="4.96158">
        <ele>430</ele>
        <time>2012-12-11T14:56:16.1Z</time>
      </trkpt>
      <trkpt lat="47.2568" lon="4.96159">
        <ele>430</ele>
        <time>2012-12-11T14:56:18.1Z</time>
      </trkpt>
      <trkpt lat="47.25682" lon="4.9616">
        <ele>430</ele>
        <time>2012-12-11T14:56:20.1Z</time>
      </trkpt>
      <trkpt lat="47.25684" lon="4.96161">
        <ele>430</ele>
        <time>2012-12-11T14:56:22.1Z</time>
      </trkpt>
      <trkpt lat="47.25685" lon="4.96162">
        <ele>430</ele>
        <time>2012-12-11T14:56:24.1Z</time>
      </trkpt>
      <trkpt lat="47.25687" lon="4.96164">
        <ele>431</ele>
        <time>2012-12-11T14:56:26.1Z</time>
      </trkpt>
      <trkpt lat="47.25689" lon="4.96167">
        <ele>431</ele>
        <time>2012-12-11T14:56:29.1Z</time>
      </trkpt>
      <trkpt lat="47.2569" lon="4.9617">
        <ele>431</ele>
        <time>2012-12-11T14:56:31.1Z</time>
      </trkpt>
      <trkpt lat="47.25691" lon="4.96174">
        <ele>431</ele>
        <time>2012-12-11T14:56:33.1Z</time>
      </trkpt>
      <trkpt lat="47.25693" lon="4.96177">
        <ele>431</ele>
        <time>2012-12-11T14:56:35.1Z</time>
      </trkpt>
      <trkpt lat="47.25695" lon="4.96179">
        <ele>431</ele>
        <time>2012-12-11T14:56:37.1Z</time>
      </trkpt>
      <trkpt lat="47.25697" lon="4.96181">
        <ele>432</ele>
        <time>2012-12-11T14:56:39.1Z</time>
      </trkpt>
      <trkpt lat="47.25698" lon="4.96182">
        <ele>432</ele>
        <time>2012-12-11T14:56:41.1Z</time>
      </trkpt>
      <trkpt lat="47.25701" lon="4.96183">
        <ele>432</ele>
        <time>2012-12-11T14:56:43.1Z</time>
      </trkpt>
      <trkpt lat="47.25703" lon="4.96184">
        <ele>432</ele>
        <time>2012-12-11T14:56:45.1Z</time>
      </trkpt>
      <trkpt lat="47.25705" lon="4.96186">
        <ele>432</ele>
        <time>2012-12-11T14:56:47.1Z</time>
      </trkpt>
      <trkpt lat="47.25707" lon="4.96187">
        <ele>432</ele>
        <time>2012-12-11T14:56:49.1Z</time>
      </trkpt>
      <trkpt lat="47.2571" lon="4.96189">
        <ele>432</ele>
        <time>2012-12-11T14:56:51.1Z</time>
      </trkpt>
      <trkpt lat="47.25712" lon="4.96192">
        <ele>433</ele>
        <time>2012-12-11T14:56:53.1Z</time>
      </trkpt>
      <trkpt lat="47.25714" lon="4.96194">
        <ele>433</ele>
        <time>2012-12-11T14:56:55.1Z</time>
      </trkpt>
      <trkpt lat="47.25716" lon="4.96197">
        <ele>433</ele>
        <time>2012-12-11T14:56:57.1Z</time>
      </trkpt>
      <trkpt lat="47.25718" lon="4.96199">
        <ele>433</ele>
        <time>2012-12-11T14:56:59.1Z</time>
      </trkpt>
      <trkpt lat="47.25719" lon="4.96202">
        <ele>433</ele>
        <time>2012-12-11T14:57:01.1Z</time>
      </trkpt>
      <trkpt lat="47.25721" lon="4.96205">
        <ele>433</ele>
        <time>2012-12-11T14:57:03.1Z</time>
      </trkpt>
      <trkpt lat="47.25723" lon="4.96207">
        <ele>433</ele>
        <time>2012-12-11T14:57:05.1Z</time>
      </trkpt>
      <trkpt lat="47.25724" lon="4.96209">
        <ele>433</ele>
        <time>2012-12-11T14:57:07.1Z</time>
      </trkpt>
      <trkpt lat="47.25726" lon="4.96211">
        <ele>433</ele>
        <time>2012-12-11T14:57:09.1Z</time>
      </trkpt>
      <trkpt lat="47.25727" lon="4.96215">
        <ele>433</ele>
        <time>2012-12-11T14:57:12.1Z</time>
      </trkpt>
      <trkpt lat="47.25728" lon="4.96218">
        <ele>433</ele>
        <time>2012-12-11T14:57:14.1Z</time>
      </trkpt>
      <trkpt lat="47.25729" lon="4.96221">
        <ele>433</ele>
        <time>2012-12-11T14:57:16.1Z</time>
      </trkpt>
      <trkpt lat="47.25731" lon="4.96223">
        <ele>433</ele>
        <time>2012-12-11T14:57:18.1Z</time>
      </trkpt>
      <trkpt lat="47.25732" lon="4.96228">
        <ele>433</ele>
        <time>2012-12-11T14:57:20.1Z</time>
      </trkpt>
      <trkpt lat="47.25732" lon="4.96231">
        <ele>433</ele>
        <time>2012-12-11T14:57:22.1Z</time>
      </trkpt>
      <trkpt lat="47.25732" lon="4.96235">
        <ele>433</ele>
        <time>2012-12-11T14:57:24.1Z</time>
      </trkpt>
      <trkpt lat="47.25732" lon="4.96238">
        <ele>433</ele>
        <time>2012-12-11T14:57:26.1Z</time>
      </trkpt>
      <trkpt lat="47.25732" lon="4.96241">
        <ele>433</ele>
        <time>2012-12-11T14:57:29.1Z</time>
      </trkpt>
      <trkpt lat="47.25732" lon="4.96244">
        <ele>433</ele>
        <time>2012-12-11T14:57:31.1Z</time>
      </trkpt>
      <trkpt lat="47.25733" lon="4.96248">
        <ele>433</ele>
        <time>2012-12-11T14:57:33.1Z</time>
      </trkpt>
      <trkpt lat="47.25734" lon="4.96253">
        <ele>433</ele>
        <time>2012-12-11T14:57:35.1Z</time>
      </trkpt>
      <trkpt lat="47.25734" lon="4.96257">
        <ele>433</ele>
        <time>2012-12-11T14:57:37.1Z</time>
      </trkpt>
      <trkpt lat="47.25734" lon="4.9626">
        <ele>433</ele>
        <time>2012-12-11T14:57:39.1Z</time>
      </trkpt>
      <trkpt lat="47.25735" lon="4.96264">
        <ele>433</ele>
        <time>2012-12-11T14:57:41.1Z</time>
      </trkpt>
      <trkpt lat="47.25735" lon="4.96268">
        <ele>433</ele>
        <time>2012-12-11T14:57:43.1Z</time>
      </trkpt>
      <trkpt lat="47.25735" lon="4.96272">
        <ele>433</ele>
        <time>2012-12-11T14:57:46.1Z</time>
      </trkpt>
      <trkpt lat="47.25735" lon="4.96275">
        <ele>434</ele>
        <time>2012-12-11T14:57:48.1Z</time>
      </trkpt>
      <trkpt lat="47.25735" lon="4.96279">
        <ele>433</ele>
        <time>2012-12-11T14:57:50.1Z</time>
      </trkpt>
      <trkpt lat="47.25735" lon="4.96284">
        <ele>433</ele>
        <time>2012-12-11T14:57:52.1Z</time>
      </trkpt>
      <trkpt lat="47.25736" lon="4.96288">
        <ele>434</ele>
        <time>2012-12-11T14:57:54.1Z</time>
      </trkpt>
      <trkpt lat="47.25737" lon="4.96291">
        <ele>434</ele>
        <time>2012-12-11T14:57:56.1Z</time>
      </trkpt>
      <trkpt lat="47.25738" lon="4.96295">
        <ele>434</ele>
        <time>2012-12-11T14:57:58.1Z</time>
      </trkpt>
      <trkpt lat="47.25738" lon="4.96299">
        <ele>434</ele>
        <time>2012-12-11T14:58:00.1Z</time>
      </trkpt>
      <trkpt lat="47.25738" lon="4.96303">
        <ele>434</ele>
        <time>2012-12-11T14:58:03.1Z</time>
      </trkpt>
      <trkpt lat="47.25737" lon="4.96306">
        <ele>434</ele>
        <time>2012-12-11T14:58:05.1Z</time>
      </trkpt>
      <trkpt lat="47.25737" lon="4.9631">
        <ele>434</ele>
        <time>2012-12-11T14:58:07.1Z</time>
      </trkpt>
      <trkpt lat="47.25737" lon="4.96314">
        <ele>434</ele>
        <time>2012-12-11T14:58:09.1Z</time>
      </trkpt>
      <trkpt lat="47.25737" lon="4.96317">
        <ele>434</ele>
        <time>2012-12-11T14:58:11.1Z</time>
      </trkpt>
      <trkpt lat="47.25737" lon="4.96324">
        <ele>434</ele>
        <time>2012-12-11T14:58:13.1Z</time>
      </trkpt>
      <trkpt lat="47.25737" lon="4.96328">
        <ele>434</ele>
        <time>2012-12-11T14:58:15.1Z</time>
      </trkpt>
      <trkpt lat="47.25738" lon="4.96332">
        <ele>434</ele>
        <time>2012-12-11T14:58:17.1Z</time>
      </trkpt>
      <trkpt lat="47.25739" lon="4.96336">
        <ele>434</ele>
        <time>2012-12-11T14:58:20.1Z</time>
      </trkpt>
      <trkpt lat="47.2574" lon="4.9634">
        <ele>434</ele>
        <time>2012-12-11T14:58:22.1Z</time>
      </trkpt>
      <trkpt lat="47.25741" lon="4.96343">
        <ele>434</ele>
        <time>2012-12-11T14:58:24.1Z</time>
      </trkpt>
      <trkpt lat="47.25742" lon="4.96349">
        <ele>434</ele>
        <time>2012-12-11T14:58:26.1Z</time>
      </trkpt>
      <trkpt lat="47.25743" lon="4.96353">
        <ele>434</ele>
        <time>2012-12-11T14:58:28.1Z</time>
      </trkpt>
      <trkpt lat="47.25744" lon="4.96357">
        <ele>435</ele>
        <time>2012-12-11T14:58:30.1Z</time>
      </trkpt>
      <trkpt lat="47.25745" lon="4.9636">
        <ele>434</ele>
        <time>2012-12-11T14:58:32.1Z</time>
      </trkpt>
      <trkpt lat="47.25746" lon="4.96363">
        <ele>434</ele>
        <time>2012-12-11T14:58:34.1Z</time>
      </trkpt>
      <trkpt lat="47.25747" lon="4.96367">
        <ele>434</ele>
        <time>2012-12-11T14:58:36.1Z</time>
      </trkpt>
      <trkpt lat="47.25748" lon="4.9637">
        <ele>434</ele>
        <time>2012-12-11T14:58:38.1Z</time>
      </trkpt>
      <trkpt lat="47.25748" lon="4.96373">
        <ele>434</ele>
        <time>2012-12-11T14:58:40.1Z</time>
      </trkpt>
      <trkpt lat="47.25749" lon="4.96377">
        <ele>434</ele>
        <time>2012-12-11T14:58:42.1Z</time>
      </trkpt>
      <trkpt lat="47.25749" lon="4.9638">
        <ele>434</ele>
        <time>2012-12-11T14:58:45.1Z</time>
      </trkpt>
      <trkpt lat="47.2575" lon="4.96383">
        <ele>433</ele>
        <time>2012-12-11T14:58:47.1Z</time>
      </trkpt>
      <trkpt lat="47.2575" lon="4.96388">
        <ele>433</ele>
        <time>2012-12-11T14:58:49.1Z</time>
      </trkpt>
      <trkpt lat="47.25751" lon="4.96391">
        <ele>433</ele>
        <time>2012-12-11T14:58:51.1Z</time>
      </trkpt>
      <trkpt lat="47.25751" lon="4.96395">
        <ele>434</ele>
        <time>2012-12-11T14:58:53.1Z</time>
      </trkpt>
      <trkpt lat="47.25751" lon="4.96398">
        <ele>434</ele>
        <time>2012-12-11T14:58:55.1Z</time>
      </trkpt>
      <trkpt lat="47.25752" lon="4.96401">
        <ele>433</ele>
        <time>2012-12-11T14:58:57.1Z</time>
      </trkpt>
      <trkpt lat="47.25753" lon="4.96404">
        <ele>433</ele>
        <time>2012-12-11T14:58:59.1Z</time>
      </trkpt>
      <trkpt lat="47.25754" lon="4.96406">
        <ele>433</ele>
        <time>2012-12-11T14:59:01.1Z</time>
      </trkpt>
      <trkpt lat="47.25755" lon="4.96409">
        <ele>433</ele>
        <time>2012-12-11T14:59:03.1Z</time>
      </trkpt>
      <trkpt lat="47.25756" lon="4.96412">
        <ele>434</ele>
        <time>2012-12-11T14:59:05.1Z</time>
      </trkpt>
      <trkpt lat="47.25757" lon="4.96416">
        <ele>434</ele>
        <time>2012-12-11T14:59:07.1Z</time>
      </trkpt>
      <trkpt lat="47.25757" lon="4.96419">
        <ele>434</ele>
        <time>2012-12-11T14:59:09.1Z</time>
      </trkpt>
      <trkpt lat="47.25758" lon="4.96422">
        <ele>434</ele>
        <time>2012-12-11T14:59:12.1Z</time>
      </trkpt>
      <trkpt lat="47.25758" lon="4.96426">
        <ele>434</ele>
        <time>2012-12-11T14:59:14.1Z</time>
      </trkpt>
      <trkpt lat="47.25757" lon="4.96429">
        <ele>434</ele>
        <time>2012-12-11T14:59:16.1Z</time>
      </trkpt>
      <trkpt lat="47.25756" lon="4.96432">
        <ele>434</ele>
        <time>2012-12-11T14:59:18.1Z</time>
      </trkpt>
      <trkpt lat="47.25756" lon="4.96435">
        <ele>434</ele>
        <time>2012-12-11T14:59:20.1Z</time>
      </trkpt>
      <trkpt lat="47.25755" lon="4.96438">
        <ele>434</ele>
        <time>2012-12-11T14:59:22.1Z</time>
      </trkpt>
      <trkpt lat="47.25753" lon="4.96441">
        <ele>434</ele>
        <time>2012-12-11T14:59:24.1Z</time>
      </trkpt>
      <trkpt lat="47.25751" lon="4.96445">
        <ele>434</ele>
        <time>2012-12-11T14:59:26.1Z</time>
      </trkpt>
      <trkpt lat="47.25749" lon="4.96447">
        <ele>434</ele>
        <time>2012-12-11T14:59:28.1Z</time>
      </trkpt>
      <trkpt lat="47.25747" lon="4.96448">
        <ele>434</ele>
        <time>2012-12-11T14:59:30.1Z</time>
      </trkpt>
      <trkpt lat="47.25746" lon="4.9645">
        <ele>434</ele>
        <time>2012-12-11T14:59:32.1Z</time>
      </trkpt>
      <trkpt lat="47.25745" lon="4.96453">
        <ele>434</ele>
        <time>2012-12-11T14:59:34.1Z</time>
      </trkpt>
      <trkpt lat="47.25744" lon="4.96455">
        <ele>434</ele>
        <time>2012-12-11T14:59:37.1Z</time>
      </trkpt>
      <trkpt lat="47.25743" lon="4.96458">
        <ele>434</ele>
        <time>2012-12-11T14:59:39.1Z</time>
      </trkpt>
      <trkpt lat="47.25743" lon="4.96461">
        <ele>434</ele>
        <time>2012-12-11T14:59:41.1Z</time>
      </trkpt>
      <trkpt lat="47.25743" lon="4.96464">
        <ele>434</ele>
        <time>2012-12-11T14:59:43.1Z</time>
      </trkpt>
      <trkpt lat="47.25744" lon="4.96467">
        <ele>434</ele>
        <time>2012-12-11T14:59:45.1Z</time>
      </trkpt>
      <trkpt lat="47.25745" lon="4.9647">
        <ele>433</ele>
        <time>2012-12-11T14:59:47.1Z</time>
      </trkpt>
      <trkpt lat="47.25745" lon="4.96473">
        <ele>433</ele>
        <time>2012-12-11T14:59:49.1Z</time>
      </trkpt>
      <trkpt lat="47.25745" lon="4.96477">
        <ele>433</ele>
        <time>2012-12-11T14:59:51.1Z</time>
      </trkpt>
      <trkpt lat="47.25746" lon="4.9648">
        <ele>433</ele>
        <time>2012-12-11T14:59:53.1Z</time>
      </trkpt>
      <trkpt lat="47.25746" lon="4.96483">
        <ele>433</ele>
        <time>2012-12-11T14:59:55.1Z</time>
      </trkpt>
      <trkpt lat="47.25747" lon="4.96487">
        <ele>433</ele>
        <time>2012-12-11T14:59:57.1Z</time>
      </trkpt>
      <trkpt lat="47.25747" lon="4.9649">
        <ele>433</ele>
        <time>2012-12-11T14:59:59.1Z</time>
      </trkpt>
      <trkpt lat="47.25747" lon="4.96493">
        <ele>433</ele>
        <time>2012-12-11T15:00:01.1Z</time>
      </trkpt>
      <trkpt lat="47.25748" lon="4.96496">
        <ele>432</ele>
        <time>2012-12-11T15:00:03.1Z</time>
      </trkpt>
      <trkpt lat="47.25748" lon="4.96499">
        <ele>432</ele>
        <time>2012-12-11T15:00:05.1Z</time>
      </trkpt>
      <trkpt lat="47.25748" lon="4.96502">
        <ele>432</ele>
        <time>2012-12-11T15:00:07.1Z</time>
      </trkpt>
      <trkpt lat="47.25748" lon="4.96506">
        <ele>432</ele>
        <time>2012-12-11T15:00:09.1Z</time>
      </trkpt>
      <trkpt lat="47.25748" lon="4.96509">
        <ele>432</ele>
        <time>2012-12-11T15:00:11.1Z</time>
      </trkpt>
      <trkpt lat="47.25748" lon="4.96511">
        <ele>432</ele>
        <time>2012-12-11T15:00:14.1Z</time>
      </trkpt>
      <trkpt lat="47.25748" lon="4.96514">
        <ele>432</ele>
        <time>2012-12-11T15:00:16.1Z</time>
      </trkpt>
      <trkpt lat="47.25748" lon="4.96517">
        <ele>432</ele>
        <time>2012-12-11T15:00:18.1Z</time>
      </trkpt>
      <trkpt lat="47.25748" lon="4.9652">
        <ele>432</ele>
        <time>2012-12-11T15:00:20.1Z</time>
      </trkpt>
      <trkpt lat="47.25748" lon="4.96522">
        <ele>432</ele>
        <time>2012-12-11T15:00:22.1Z</time>
      </trkpt>
      <trkpt lat="47.25748" lon="4.96525">
        <ele>432</ele>
        <time>2012-12-11T15:00:24.1Z</time>
      </trkpt>
      <trkpt lat="47.25749" lon="4.96528">
        <ele>431</ele>
        <time>2012-12-11T15:00:26.1Z</time>
      </trkpt>
      <trkpt lat="47.25749" lon="4.96531">
        <ele>431</ele>
        <time>2012-12-11T15:00:28.1Z</time>
      </trkpt>
      <trkpt lat="47.25749" lon="4.96535">
        <ele>431</ele>
        <time>2012-12-11T15:00:30.1Z</time>
      </trkpt>
      <trkpt lat="47.2575" lon="4.96538">
        <ele>431</ele>
        <time>2012-12-11T15:00:32.1Z</time>
      </trkpt>
      <trkpt lat="47.25751" lon="4.9654">
        <ele>431</ele>
        <time>2012-12-11T15:00:34.1Z</time>
      </trkpt>
      <trkpt lat="47.25753" lon="4.96543">
        <ele>430</ele>
        <time>2012-12-11T15:00:36.1Z</time>
      </trkpt>
      <trkpt lat="47.25753" lon="4.96545">
        <ele>431</ele>
        <time>2012-12-11T15:00:38.1Z</time>
      </trkpt>
      <trkpt lat="47.25754" lon="4.96547">
        <ele>430</ele>
        <time>2012-12-11T15:00:40.1Z</time>
      </trkpt>
      <trkpt lat="47.25755" lon="4.96549">
        <ele>430</ele>
        <time>2012-12-11T15:00:43.1Z</time>
      </trkpt>
      <trkpt lat="47.25756" lon="4.96552">
        <ele>431</ele>
        <time>2012-12-11T15:00:45.1Z</time>
      </trkpt>
      <trkpt lat="47.25757" lon="4.96554">
        <ele>430</ele>
        <time>2012-12-11T15:00:47.1Z</time>
      </trkpt>
      <trkpt lat="47.25757" lon="4.96558">
        <ele>431</ele>
        <time>2012-12-11T15:00:49.1Z</time>
      </trkpt>
      <trkpt lat="47.25758" lon="4.9656">
        <ele>430</ele>
        <time>2012-12-11T15:00:51.1Z</time>
      </trkpt>
      <trkpt lat="47.25759" lon="4.96561">
        <ele>430</ele>
        <time>2012-12-11T15:00:53.1Z</time>
      </trkpt>
      <trkpt lat="47.25759" lon="4.96564">
        <ele>430</ele>
        <time>2012-12-11T15:00:55.1Z</time>
      </trkpt>
      <trkpt lat="47.25759" lon="4.96566">
        <ele>430</ele>
        <time>2012-12-11T15:00:57.1Z</time>
      </trkpt>
      <trkpt lat="47.25759" lon="4.96568">
        <ele>429</ele>
        <time>2012-12-11T15:00:59.1Z</time>
      </trkpt>
      <trkpt lat="47.25759" lon="4.96571">
        <ele>429</ele>
        <time>2012-12-11T15:01:02.1Z</time>
      </trkpt>
      <trkpt lat="47.25759" lon="4.96573">
        <ele>429</ele>
        <time>2012-12-11T15:01:04.1Z</time>
      </trkpt>
      <trkpt lat="47.25759" lon="4.96576">
        <ele>428</ele>
        <time>2012-12-11T15:01:06.1Z</time>
      </trkpt>
      <trkpt lat="47.25758" lon="4.96579">
        <ele>428</ele>
        <time>2012-12-11T15:01:08.1Z</time>
      </trkpt>
      <trkpt lat="47.25758" lon="4.96581">
        <ele>428</ele>
        <time>2012-12-11T15:01:10.1Z</time>
      </trkpt>
      <trkpt lat="47.25756" lon="4.96584">
        <ele>428</ele>
        <time>2012-12-11T15:01:12.1Z</time>
      </trkpt>
      <trkpt lat="47.25756" lon="4.96587">
        <ele>428</ele>
        <time>2012-12-11T15:01:14.1Z</time>
      </trkpt>
      <trkpt lat="47.25755" lon="4.96591">
        <ele>428</ele>
        <time>2012-12-11T15:01:16.1Z</time>
      </trkpt>
      <trkpt lat="47.25755" lon="4.96594">
        <ele>427</ele>
        <time>2012-12-11T15:01:18.1Z</time>
      </trkpt>
      <trkpt lat="47.25754" lon="4.96597">
        <ele>427</ele>
        <time>2012-12-11T15:01:20.1Z</time>
      </trkpt>
      <trkpt lat="47.25753" lon="4.966">
        <ele>427</ele>
        <time>2012-12-11T15:01:22.1Z</time>
      </trkpt>
      <trkpt lat="47.25752" lon="4.96603">
        <ele>426</ele>
        <time>2012-12-11T15:01:24.1Z</time>
      </trkpt>
      <trkpt lat="47.25751" lon="4.96606">
        <ele>426</ele>
        <time>2012-12-11T15:01:26.1Z</time>
      </trkpt>
      <trkpt lat="47.2575" lon="4.9661">
        <ele>426</ele>
        <time>2012-12-11T15:01:28.1Z</time>
      </trkpt>
      <trkpt lat="47.25749" lon="4.96613">
        <ele>425</ele>
        <time>2012-12-11T15:01:30.1Z</time>
      </trkpt>
      <trkpt lat="47.25748" lon="4.96616">
        <ele>425</ele>
        <time>2012-12-11T15:01:32.1Z</time>
      </trkpt>
      <trkpt lat="47.25747" lon="4.96619">
        <ele>425</ele>
        <time>2012-12-11T15:01:34.1Z</time>
      </trkpt>
      <trkpt lat="47.25746" lon="4.96622">
        <ele>425</ele>
        <time>2012-12-11T15:01:37.1Z</time>
      </trkpt>
      <trkpt lat="47.25745" lon="4.96624">
        <ele>425</ele>
        <time>2012-12-11T15:01:39.1Z</time>
      </trkpt>
      <trkpt lat="47.25745" lon="4.96627">
        <ele>425</ele>
        <time>2012-12-11T15:01:41.1Z</time>
      </trkpt>
      <trkpt lat="47.25744" lon="4.96632">
        <ele>425</ele>
        <time>2012-12-11T15:01:43.1Z</time>
      </trkpt>
      <trkpt lat="47.25744" lon="4.96636">
        <ele>424</ele>
        <time>2012-12-11T15:01:45.1Z</time>
      </trkpt>
      <trkpt lat="47.25744" lon="4.96639">
        <ele>424</ele>
        <time>2012-12-11T15:01:47.1Z</time>
      </trkpt>
      <trkpt lat="47.25744" lon="4.96643">
        <ele>424</ele>
        <time>2012-12-11T15:01:50.1Z</time>
      </trkpt>
      <trkpt lat="47.25743" lon="4.96646">
        <ele>424</ele>
        <time>2012-12-11T15:01:52.1Z</time>
      </trkpt>
      <trkpt lat="47.25742" lon="4.96651">
        <ele>423</ele>
        <time>2012-12-11T15:01:54.1Z</time>
      </trkpt>
      <trkpt lat="47.25742" lon="4.96654">
        <ele>423</ele>
        <time>2012-12-11T15:01:56.1Z</time>
      </trkpt>
      <trkpt lat="47.25742" lon="4.96657">
        <ele>423</ele>
        <time>2012-12-11T15:01:58.1Z</time>
      </trkpt>
      <trkpt lat="47.25741" lon="4.9666">
        <ele>423</ele>
        <time>2012-12-11T15:02:00.1Z</time>
      </trkpt>
      <trkpt lat="47.25741" lon="4.96663">
        <ele>422</ele>
        <time>2012-12-11T15:02:02.1Z</time>
      </trkpt>
      <trkpt lat="47.25741" lon="4.96666">
        <ele>422</ele>
        <time>2012-12-11T15:02:04.1Z</time>
      </trkpt>
      <trkpt lat="47.25741" lon="4.96668">
        <ele>421</ele>
        <time>2012-12-11T15:02:07.1Z</time>
      </trkpt>
      <trkpt lat="47.2574" lon="4.96671">
        <ele>421</ele>
        <time>2012-12-11T15:02:09.1Z</time>
      </trkpt>
      <trkpt lat="47.2574" lon="4.96675">
        <ele>421</ele>
        <time>2012-12-11T15:02:11.1Z</time>
      </trkpt>
      <trkpt lat="47.2574" lon="4.96677">
        <ele>421</ele>
        <time>2012-12-11T15:02:13.1Z</time>
      </trkpt>
      <trkpt lat="47.2574" lon="4.9668">
        <ele>420</ele>
        <time>2012-12-11T15:02:15.1Z</time>
      </trkpt>
      <trkpt lat="47.2574" lon="4.96682">
        <ele>420</ele>
        <time>2012-12-11T15:02:17.1Z</time>
      </trkpt>
      <trkpt lat="47.2574" lon="4.96685">
        <ele>419</ele>
        <time>2012-12-11T15:02:19.1Z</time>
      </trkpt>
      <trkpt lat="47.2574" lon="4.96687">
        <ele>419</ele>
        <time>2012-12-11T15:02:21.1Z</time>
      </trkpt>
      <trkpt lat="47.2574" lon="4.9669">
        <ele>419</ele>
        <time>2012-12-11T15:02:23.1Z</time>
      </trkpt>
      <trkpt lat="47.2574" lon="4.96692">
        <ele>418</ele>
        <time>2012-12-11T15:02:25.1Z</time>
      </trkpt>
      <trkpt lat="47.25739" lon="4.96694">
        <ele>418</ele>
        <time>2012-12-11T15:02:27.1Z</time>
      </trkpt>
      <trkpt lat="47.25738" lon="4.96697">
        <ele>417</ele>
        <time>2012-12-11T15:02:29.1Z</time>
      </trkpt>
      <trkpt lat="47.25737" lon="4.96699">
        <ele>417</ele>
        <time>2012-12-11T15:02:31.1Z</time>
      </trkpt>
      <trkpt lat="47.25736" lon="4.96702">
        <ele>417</ele>
        <time>2012-12-11T15:02:33.1Z</time>
      </trkpt>
      <trkpt lat="47.25735" lon="4.96704">
        <ele>416</ele>
        <time>2012-12-11T15:02:36.1Z</time>
      </trkpt>
      <trkpt lat="47.25735" lon="4.96706">
        <ele>416</ele>
        <time>2012-12-11T15:02:38.1Z</time>
      </trkpt>
      <trkpt lat="47.25734" lon="4.96709">
        <ele>416</ele>
        <time>2012-12-11T15:02:40.1Z</time>
      </trkpt>
      <trkpt lat="47.25734" lon="4.96712">
        <ele>415</ele>
        <time>2012-12-11T15:02:42.1Z</time>
      </trkpt>
      <trkpt lat="47.25733" lon="4.96714">
        <ele>415</ele>
        <time>2012-12-11T15:02:44.1Z</time>
      </trkpt>
      <trkpt lat="47.25733" lon="4.96716">
        <ele>414</ele>
        <time>2012-12-11T15:02:46.1Z</time>
      </trkpt>
      <trkpt lat="47.25732" lon="4.96718">
        <ele>414</ele>
        <time>2012-12-11T15:02:48.1Z</time>
      </trkpt>
      <trkpt lat="47.25732" lon="4.9672">
        <ele>413</ele>
        <time>2012-12-11T15:02:51.1Z</time>
      </trkpt>
      <trkpt lat="47.25731" lon="4.96722">
        <ele>413</ele>
        <time>2012-12-11T15:02:53.1Z</time>
      </trkpt>
      <trkpt lat="47.25731" lon="4.96726">
        <ele>412</ele>
        <time>2012-12-11T15:02:55.1Z</time>
      </trkpt>
      <trkpt lat="47.25731" lon="4.96729">
        <ele>412</ele>
        <time>2012-12-11T15:02:57.1Z</time>
      </trkpt>
      <trkpt lat="47.25731" lon="4.96731">
        <ele>411</ele>
        <time>2012-12-11T15:02:59.1Z</time>
      </trkpt>
      <trkpt lat="47.25731" lon="4.96733">
        <ele>411</ele>
        <time>2012-12-11T15:03:01.1Z</time>
      </trkpt>
      <trkpt lat="47.25732" lon="4.96735">
        <ele>411</ele>
        <time>2012-12-11T15:03:03.1Z</time>
      </trkpt>
      <trkpt lat="47.25733" lon="4.96737">
        <ele>411</ele>
        <time>2012-12-11T15:03:06.1Z</time>
      </trkpt>
      <trkpt lat="47.25734" lon="4.96739">
        <ele>411</ele>
        <time>2012-12-11T15:03:08.1Z</time>
      </trkpt>
      <trkpt lat="47.25735" lon="4.96742">
        <ele>410</ele>
        <time>2012-12-11T15:03:10.1Z</time>
      </trkpt>
      <trkpt lat="47.25735" lon="4.96744">
        <ele>410</ele>
        <time>2012-12-11T15:03:12.1Z</time>
      </trkpt>
      <trkpt lat="47.25734" lon="4.96747">
        <ele>410</ele>
        <time>2012-12-11T15:03:14.1Z</time>
      </trkpt>
      <trkpt lat="47.25733" lon="4.96749">
        <ele>409</ele>
        <time>2012-12-11T15:03:16.1Z</time>
      </trkpt>
      <trkpt lat="47.25733" lon="4.96751">
        <ele>408</ele>
        <time>2012-12-11T15:03:18.1Z</time>
      </trkpt>
      <trkpt lat="47.25733" lon="4.96754">
        <ele>408</ele>
        <time>2012-12-11T15:03:21.1Z</time>
      </trkpt>
      <trkpt lat="47.25733" lon="4.96756">
        <ele>408</ele>
        <time>2012-12-11T15:03:23.1Z</time>
      </trkpt>
      <trkpt lat="47.25733" lon="4.96758">
        <ele>407</ele>
        <time>2012-12-11T15:03:25.1Z</time>
      </trkpt>
      <trkpt lat="47.25734" lon="4.96762">
        <ele>407</ele>
        <time>2012-12-11T15:03:27.1Z</time>
      </trkpt>
      <trkpt lat="47.25734" lon="4.96764">
        <ele>406</ele>
        <time>2012-12-11T15:03:29.1Z</time>
      </trkpt>
      <trkpt lat="47.25733" lon="4.96767">
        <ele>406</ele>
        <time>2012-12-11T15:03:31.1Z</time>
      </trkpt>
      <trkpt lat="47.25734" lon="4.9677">
        <ele>405</ele>
        <time>2012-12-11T15:03:33.1Z</time>
      </trkpt>
      <trkpt lat="47.25734" lon="4.96773">
        <ele>405</ele>
        <time>2012-12-11T15:03:36.1Z</time>
      </trkpt>
      <trkpt lat="47.25734" lon="4.96775">
        <ele>404</ele>
        <time>2012-12-11T15:03:38.1Z</time>
      </trkpt>
      <trkpt lat="47.25733" lon="4.96779">
        <ele>403</ele>
        <time>2012-12-11T15:03:40.1Z</time>
      </trkpt>
      <trkpt lat="47.25732" lon="4.96782">
        <ele>403</ele>
        <time>2012-12-11T15:03:42.1Z</time>
      </trkpt>
      <trkpt lat="47.25731" lon="4.96785">
        <ele>402</ele>
        <time>2012-12-11T15:03:44.1Z</time>
      </trkpt>
      <trkpt lat="47.25731" lon="4.96788">
        <ele>402</ele>
        <time>2012-12-11T15:03:46.1Z</time>
      </trkpt>
      <trkpt lat="47.25732" lon="4.96792">
        <ele>402</ele>
        <time>2012-12-11T15:03:49.1Z</time>
      </trkpt>
      <trkpt lat="47.25732" lon="4.96796">
        <ele>401</ele>
        <time>2012-12-11T15:03:51.1Z</time>
      </trkpt>
      <trkpt lat="47.25732" lon="4.96799">
        <ele>401</ele>
        <time>2012-12-11T15:03:53.1Z</time>
      </trkpt>
      <trkpt lat="47.25733" lon="4.96805">
        <ele>400</ele>
        <time>2012-12-11T15:03:55.1Z</time>
      </trkpt>
      <trkpt lat="47.25733" lon="4.96808">
        <ele>400</ele>
        <time>2012-12-11T15:03:57.1Z</time>
      </trkpt>
      <trkpt lat="47.25734" lon="4.96811">
        <ele>399</ele>
        <time>2012-12-11T15:03:59.1Z</time>
      </trkpt>
      <trkpt lat="47.25734" lon="4.96814">
        <ele>399</ele>
        <time>2012-12-11T15:04:01.1Z</time>
      </trkpt>
      <trkpt lat="47.25734" lon="4.96817">
        <ele>398</ele>
        <time>2012-12-11T15:04:04.1Z</time>
      </trkpt>
      <trkpt lat="47.25734" lon="4.9682">
        <ele>398</ele>
        <time>2012-12-11T15:04:06.1Z</time>
      </trkpt>
      <trkpt lat="47.25734" lon="4.96823">
        <ele>397</ele>
        <time>2012-12-11T15:04:08.1Z</time>
      </trkpt>
      <trkpt lat="47.25735" lon="4.96825">
        <ele>397</ele>
        <time>2012-12-11T15:04:10.1Z</time>
      </trkpt>
      <trkpt lat="47.25735" lon="4.96827">
        <ele>396</ele>
        <time>2012-12-11T15:04:12.1Z</time>
      </trkpt>
      <trkpt lat="47.25735" lon="4.96829">
        <ele>396</ele>
        <time>2012-12-11T15:04:14.1Z</time>
      </trkpt>
      <trkpt lat="47.25735" lon="4.96831">
        <ele>396</ele>
        <time>2012-12-11T15:04:16.1Z</time>
      </trkpt>
      <trkpt lat="47.25736" lon="4.96833">
        <ele>396</ele>
        <time>2012-12-11T15:04:18.1Z</time>
      </trkpt>
      <trkpt lat="47.25737" lon="4.96835">
        <ele>395</ele>
        <time>2012-12-11T15:04:21.1Z</time>
      </trkpt>
      <trkpt lat="47.25737" lon="4.96837">
        <ele>395</ele>
        <time>2012-12-11T15:04:23.1Z</time>
      </trkpt>
      <trkpt lat="47.25738" lon="4.96838">
        <ele>395</ele>
        <time>2012-12-11T15:04:25.1Z</time>
      </trkpt>
      <trkpt lat="47.25738" lon="4.9684">
        <ele>394</ele>
        <time>2012-12-11T15:04:27.1Z</time>
      </trkpt>
      <trkpt lat="47.25738" lon="4.96841">
        <ele>393</ele>
        <time>2012-12-11T15:04:29.1Z</time>
      </trkpt>
      <trkpt lat="47.25739" lon="4.96842">
        <ele>393</ele>
        <time>2012-12-11T15:04:31.1Z</time>
      </trkpt>
      <trkpt lat="47.2574" lon="4.96844">
        <ele>393</ele>
        <time>2012-12-11T15:04:33.1Z</time>
      </trkpt>
      <trkpt lat="47.25741" lon="4.96845">
        <ele>393</ele>
        <time>2012-12-11T15:04:35.1Z</time>
      </trkpt>
      <trkpt lat="47.25742" lon="4.96847">
        <ele>393</ele>
        <time>2012-12-11T15:04:37.1Z</time>
      </trkpt>
      <trkpt lat="47.25742" lon="4.96847">
        <ele>392</ele>
        <time>2012-12-11T15:04:39.1Z</time>
      </trkpt>
      <trkpt lat="47.25743" lon="4.96848">
        <ele>393</ele>
        <time>2012-12-11T15:04:41.1Z</time>
      </trkpt>
      <trkpt lat="47.25744" lon="4.96849">
        <ele>392</ele>
        <time>2012-12-11T15:04:43.1Z</time>
      </trkpt>
      <trkpt lat="47.25745" lon="4.9685">
        <ele>392</ele>
        <time>2012-12-11T15:04:45.1Z</time>
      </trkpt>
      <trkpt lat="47.25747" lon="4.96851">
        <ele>392</ele>
        <time>2012-12-11T15:04:47.1Z</time>
      </trkpt>
      <trkpt lat="47.25748" lon="4.96852">
        <ele>392</ele>
        <time>2012-12-11T15:04:50.1Z</time>
      </trkpt>
      <trkpt lat="47.2575" lon="4.96854">
        <ele>392</ele>
        <time>2012-12-11T15:04:52.1Z</time>
      </trkpt>
      <trkpt lat="47.25751" lon="4.96855">
        <ele>391</ele>
        <time>2012-12-11T15:04:54.1Z</time>
      </trkpt>
      <trkpt lat="47.25753" lon="4.96857">
        <ele>391</ele>
        <time>2012-12-11T15:04:56.1Z</time>
      </trkpt>
      <trkpt lat="47.25755" lon="4.9686">
        <ele>391</ele>
        <time>2012-12-11T15:04:58.1Z</time>
      </trkpt>
      <trkpt lat="47.25757" lon="4.96862">
        <ele>390</ele>
        <time>2012-12-11T15:05:00.1Z</time>
      </trkpt>
      <trkpt lat="47.25759" lon="4.96866">
        <ele>390</ele>
        <time>2012-12-11T15:05:02.1Z</time>
      </trkpt>
      <trkpt lat="47.25761" lon="4.96868">
        <ele>390</ele>
        <time>2012-12-11T15:05:04.1Z</time>
      </trkpt>
      <trkpt lat="47.25762" lon="4.96871">
        <ele>389</ele>
        <time>2012-12-11T15:05:06.1Z</time>
      </trkpt>
      <trkpt lat="47.25763" lon="4.96874">
        <ele>389</ele>
        <time>2012-12-11T15:05:08.1Z</time>
      </trkpt>
      <trkpt lat="47.25764" lon="4.96875">
        <ele>389</ele>
        <time>2012-12-11T15:05:10.1Z</time>
      </trkpt>
      <trkpt lat="47.25765" lon="4.96877">
        <ele>388</ele>
        <time>2012-12-11T15:05:12.1Z</time>
      </trkpt>
      <trkpt lat="47.25766" lon="4.96879">
        <ele>388</ele>
        <time>2012-12-11T15:05:14.1Z</time>
      </trkpt>
      <trkpt lat="47.25767" lon="4.96881">
        <ele>387</ele>
        <time>2012-12-11T15:05:16.1Z</time>
      </trkpt>
      <trkpt lat="47.25767" lon="4.96881">
        <ele>386</ele>
        <time>2012-12-11T15:05:18.1Z</time>
      </trkpt>
      <trkpt lat="47.25768" lon="4.96882">
        <ele>386</ele>
        <time>2012-12-11T15:05:20.1Z</time>
      </trkpt>
      <trkpt lat="47.25768" lon="4.96883">
        <ele>386</ele>
        <time>2012-12-11T15:05:22.1Z</time>
      </trkpt>
      <trkpt lat="47.25768" lon="4.96883">
        <ele>386</ele>
        <time>2012-12-11T15:05:25.1Z</time>
      </trkpt>
      <trkpt lat="47.25768" lon="4.96884">
        <ele>386</ele>
        <time>2012-12-11T15:05:27.1Z</time>
      </trkpt>
      <trkpt lat="47.25769" lon="4.96885">
        <ele>387</ele>
        <time>2012-12-11T15:05:29.1Z</time>
      </trkpt>
      <trkpt lat="47.25769" lon="4.96886">
        <ele>386</ele>
        <time>2012-12-11T15:05:31.1Z</time>
      </trkpt>
      <trkpt lat="47.25769" lon="4.96887">
        <ele>387</ele>
        <time>2012-12-11T15:05:33.1Z</time>
      </trkpt>
      <trkpt lat="47.25769" lon="4.96887">
        <ele>387</ele>
        <time>2012-12-11T15:05:35.1Z</time>
      </trkpt>
      <trkpt lat="47.25769" lon="4.96888">
        <ele>387</ele>
        <time>2012-12-11T15:05:38.1Z</time>
      </trkpt>
      <trkpt lat="47.25769" lon="4.96889">
        <ele>387</ele>
        <time>2012-12-11T15:05:40.1Z</time>
      </trkpt>
      <trkpt lat="47.25769" lon="4.96889">
        <ele>387</ele>
        <time>2012-12-11T15:05:42.1Z</time>
      </trkpt>
      <trkpt lat="47.25769" lon="4.9689">
        <ele>386</ele>
        <time>2012-12-11T15:05:44.1Z</time>
      </trkpt>
      <trkpt lat="47.25769" lon="4.96891">
        <ele>386</ele>
        <time>2012-12-11T15:05:46.1Z</time>
      </trkpt>
      <trkpt lat="47.25769" lon="4.96891">
        <ele>386</ele>
        <time>2012-12-11T15:05:49.1Z</time>
      </trkpt>
      <trkpt lat="47.25769" lon="4.96891">
        <ele>387</ele>
        <time>2012-12-11T15:05:51.1Z</time>
      </trkpt>
      <trkpt lat="47.25769" lon="4.96891">
        <ele>387</ele>
        <time>2012-12-11T15:05:53.1Z</time>
      </trkpt>
      <trkpt lat="47.2577" lon="4.96892">
        <ele>387</ele>
        <time>2012-12-11T15:05:55.1Z</time>
      </trkpt>
      <trkpt lat="47.2577" lon="4.96891">
        <ele>386</ele>
        <time>2012-12-11T15:05:57.1Z</time>
      </trkpt>
      <trkpt lat="47.2577" lon="4.96891">
        <ele>386</ele>
        <time>2012-12-11T15:05:59.1Z</time>
      </trkpt>
      <trkpt lat="47.2577" lon="4.96891">
        <ele>386</ele>
        <time>2012-12-11T15:06:01.1Z</time>
      </trkpt>
      <trkpt lat="47.25769" lon="4.96891">
        <ele>386</ele>
        <time>2012-12-11T15:06:03.1Z</time>
      </trkpt>
      <trkpt lat="47.25769" lon="4.9689">
        <ele>386</ele>
        <time>2012-12-11T15:06:05.1Z</time>
      </trkpt>
      <trkpt lat="47.25769" lon="4.96891">
        <ele>386</ele>
        <time>2012-12-11T15:06:07.1Z</time>
      </trkpt>
      <trkpt lat="47.25769" lon="4.96891">
        <ele>386</ele>
        <time>2012-12-11T15:06:09.1Z</time>
      </trkpt>
      <trkpt lat="47.25769" lon="4.9689">
        <ele>387</ele>
        <time>2012-12-11T15:06:11.1Z</time>
      </trkpt>
      <trkpt lat="47.25768" lon="4.9689">
        <ele>386</ele>
        <time>2012-12-11T15:06:14.1Z</time>
      </trkpt>
      <trkpt lat="47.25767" lon="4.9689">
        <ele>387</ele>
        <time>2012-12-11T15:06:16.1Z</time>
      </trkpt>
      <trkpt lat="47.25766" lon="4.9689">
        <ele>387</ele>
        <time>2012-12-11T15:06:18.1Z</time>
      </trkpt>
      <trkpt lat="47.25766" lon="4.9689">
        <ele>386</ele>
        <time>2012-12-11T15:06:20.1Z</time>
      </trkpt>
      <trkpt lat="47.25766" lon="4.96891">
        <ele>386</ele>
        <time>2012-12-11T15:06:22.1Z</time>
      </trkpt>
      <trkpt lat="47.25766" lon="4.96891">
        <ele>386</ele>
        <time>2012-12-11T15:06:24.1Z</time>
      </trkpt>
      <trkpt lat="47.25766" lon="4.96892">
        <ele>386</ele>
        <time>2012-12-11T15:06:26.1Z</time>
      </trkpt>
      <trkpt lat="47.25767" lon="4.96893">
        <ele>387</ele>
        <time>2012-12-11T15:06:28.1Z</time>
      </trkpt>
      <trkpt lat="47.25767" lon="4.96893">
        <ele>387</ele>
        <time>2012-12-11T15:06:30.1Z</time>
      </trkpt>
      <trkpt lat="47.25767" lon="4.96893">
        <ele>386</ele>
        <time>2012-12-11T15:06:32.1Z</time>
      </trkpt>
      <trkpt lat="47.25768" lon="4.96894">
        <ele>386</ele>
        <time>2012-12-11T15:06:34.1Z</time>
      </trkpt>
      <trkpt lat="47.25768" lon="4.96894">
        <ele>386</ele>
        <time>2012-12-11T15:06:36.1Z</time>
      </trkpt>
      <trkpt lat="47.25769" lon="4.96895">
        <ele>385</ele>
        <time>2012-12-11T15:06:38.1Z</time>
      </trkpt>
      <trkpt lat="47.2577" lon="4.96897">
        <ele>385</ele>
        <time>2012-12-11T15:06:41.1Z</time>
      </trkpt>
      <trkpt lat="47.25772" lon="4.96898">
        <ele>385</ele>
        <time>2012-12-11T15:06:43.1Z</time>
      </trkpt>
      <trkpt lat="47.25774" lon="4.969">
        <ele>385</ele>
        <time>2012-12-11T15:06:45.1Z</time>
      </trkpt>
      <trkpt lat="47.25775" lon="4.96902">
        <ele>385</ele>
        <time>2012-12-11T15:06:47.1Z</time>
      </trkpt>
      <trkpt lat="47.25777" lon="4.96903">
        <ele>384</ele>
        <time>2012-12-11T15:06:49.1Z</time>
      </trkpt>
      <trkpt lat="47.25779" lon="4.96904">
        <ele>384</ele>
        <time>2012-12-11T15:06:51.1Z</time>
      </trkpt>
      <trkpt lat="47.25781" lon="4.96906">
        <ele>384</ele>
        <time>2012-12-11T15:06:53.1Z</time>
      </trkpt>
      <trkpt lat="47.25783" lon="4.96907">
        <ele>384</ele>
        <time>2012-12-11T15:06:55.1Z</time>
      </trkpt>
      <trkpt lat="47.25784" lon="4.96909">
        <ele>384</ele>
        <time>2012-12-11T15:06:57.1Z</time>
      </trkpt>
      <trkpt lat="47.25786" lon="4.96911">
        <ele>383</ele>
        <time>2012-12-11T15:06:59.1Z</time>
      </trkpt>
      <trkpt lat="47.25787" lon="4.96913">
        <ele>383</ele>
        <time>2012-12-11T15:07:02.1Z</time>
      </trkpt>
      <trkpt lat="47.25788" lon="4.96915">
        <ele>383</ele>
        <time>2012-12-11T15:07:04.1Z</time>
      </trkpt>
      <trkpt lat="47.2579" lon="4.96919">
        <ele>382</ele>
        <time>2012-12-11T15:07:06.1Z</time>
      </trkpt>
      <trkpt lat="47.25791" lon="4.96922">
        <ele>382</ele>
        <time>2012-12-11T15:07:08.1Z</time>
      </trkpt>
      <trkpt lat="47.25793" lon="4.96923">
        <ele>382</ele>
        <time>2012-12-11T15:07:10.1Z</time>
      </trkpt>
      <trkpt lat="47.25794" lon="4.96925">
        <ele>381</ele>
        <time>2012-12-11T15:07:12.1Z</time>
      </trkpt>
      <trkpt lat="47.25795" lon="4.96927">
        <ele>380</ele>
        <time>2012-12-11T15:07:15.1Z</time>
      </trkpt>
      <trkpt lat="47.25795" lon="4.96928">
        <ele>380</ele>
        <time>2012-12-11T15:07:17.1Z</time>
      </trkpt>
      <trkpt lat="47.25797" lon="4.9693">
        <ele>379</ele>
        <time>2012-12-11T15:07:19.1Z</time>
      </trkpt>
      <trkpt lat="47.25799" lon="4.96932">
        <ele>378</ele>
        <time>2012-12-11T15:07:21.1Z</time>
      </trkpt>
      <trkpt lat="47.258" lon="4.96933">
        <ele>378</ele>
        <time>2012-12-11T15:07:23.1Z</time>
      </trkpt>
      <trkpt lat="47.258" lon="4.96933">
        <ele>378</ele>
        <time>2012-12-11T15:07:25.1Z</time>
      </trkpt>
      <trkpt lat="47.25802" lon="4.96935">
        <ele>378</ele>
        <time>2012-12-11T15:07:28.1Z</time>
      </trkpt>
      <trkpt lat="47.25803" lon="4.96937">
        <ele>378</ele>
        <time>2012-12-11T15:07:30.1Z</time>
      </trkpt>
      <trkpt lat="47.25804" lon="4.96939">
        <ele>378</ele>
        <time>2012-12-11T15:07:32.1Z</time>
      </trkpt>
      <trkpt lat="47.25805" lon="4.96942">
        <ele>377</ele>
        <time>2012-12-11T15:07:34.1Z</time>
      </trkpt>
      <trkpt lat="47.25807" lon="4.96943">
        <ele>377</ele>
        <time>2012-12-11T15:07:36.1Z</time>
      </trkpt>
      <trkpt lat="47.25808" lon="4.96944">
        <ele>377</ele>
        <time>2012-12-11T15:07:38.1Z</time>
      </trkpt>
      <trkpt lat="47.2581" lon="4.96943">
        <ele>377</ele>
        <time>2012-12-11T15:07:40.1Z</time>
      </trkpt>
      <trkpt lat="47.25812" lon="4.96945">
        <ele>377</ele>
        <time>2012-12-11T15:07:42.1Z</time>
      </trkpt>
      <trkpt lat="47.25814" lon="4.96947">
        <ele>377</ele>
        <time>2012-12-11T15:07:44.1Z</time>
      </trkpt>
      <trkpt lat="47.25815" lon="4.96949">
        <ele>377</ele>
        <time>2012-12-11T15:07:46.1Z</time>
      </trkpt>
      <trkpt lat="47.25815" lon="4.96952">
        <ele>376</ele>
        <time>2012-12-11T15:07:49.1Z</time>
      </trkpt>
      <trkpt lat="47.25816" lon="4.96955">
        <ele>376</ele>
        <time>2012-12-11T15:07:51.1Z</time>
      </trkpt>
      <trkpt lat="47.25816" lon="4.96958">
        <ele>375</ele>
        <time>2012-12-11T15:07:53.1Z</time>
      </trkpt>
      <trkpt lat="47.25816" lon="4.96961">
        <ele>375</ele>
        <time>2012-12-11T15:07:55.1Z</time>
      </trkpt>
      <trkpt lat="47.25816" lon="4.96963">
        <ele>374</ele>
        <time>2012-12-11T15:07:57.1Z</time>
      </trkpt>
      <trkpt lat="47.25816" lon="4.96965">
        <ele>374</ele>
        <time>2012-12-11T15:07:59.1Z</time>
      </trkpt>
      <trkpt lat="47.25817" lon="4.96969">
        <ele>374</ele>
        <time>2012-12-11T15:08:01.1Z</time>
      </trkpt>
      <trkpt lat="47.25817" lon="4.96971">
        <ele>373</ele>
        <time>2012-12-11T15:08:03.1Z</time>
      </trkpt>
      <trkpt lat="47.25816" lon="4.96973">
        <ele>372</ele>
        <time>2012-12-11T15:08:05.1Z</time>
      </trkpt>
      <trkpt lat="47.25816" lon="4.96976">
        <ele>372</ele>
        <time>2012-12-11T15:08:07.1Z</time>
      </trkpt>
      <trkpt lat="47.25816" lon="4.96979">
        <ele>371</ele>
        <time>2012-12-11T15:08:09.1Z</time>
      </trkpt>
      <trkpt lat="47.25816" lon="4.96981">
        <ele>370</ele>
        <time>2012-12-11T15:08:11.1Z</time>
      </trkpt>
      <trkpt lat="47.25816" lon="4.96984">
        <ele>370</ele>
        <time>2012-12-11T15:08:13.1Z</time>
      </trkpt>
      <trkpt lat="47.25817" lon="4.96988">
        <ele>370</ele>
        <time>2012-12-11T15:08:15.1Z</time>
      </trkpt>
      <trkpt lat="47.25817" lon="4.9699">
        <ele>369</ele>
        <time>2012-12-11T15:08:17.1Z</time>
      </trkpt>
      <trkpt lat="47.25816" lon="4.96992">
        <ele>368</ele>
        <time>2012-12-11T15:08:19.1Z</time>
      </trkpt>
      <trkpt lat="47.25815" lon="4.96995">
        <ele>368</ele>
        <time>2012-12-11T15:08:21.1Z</time>
      </trkpt>
      <trkpt lat="47.25813" lon="4.96997">
        <ele>367</ele>
        <time>2012-12-11T15:08:23.1Z</time>
      </trkpt>
      <trkpt lat="47.25813" lon="4.97">
        <ele>367</ele>
        <time>2012-12-11T15:08:25.1Z</time>
      </trkpt>
      <trkpt lat="47.25813" lon="4.97004">
        <ele>366</ele>
        <time>2012-12-11T15:08:28.1Z</time>
      </trkpt>
      <trkpt lat="47.25813" lon="4.97007">
        <ele>366</ele>
        <time>2012-12-11T15:08:30.1Z</time>
      </trkpt>
      <trkpt lat="47.25813" lon="4.9701">
        <ele>365</ele>
        <time>2012-12-11T15:08:32.1Z</time>
      </trkpt>
      <trkpt lat="47.25814" lon="4.97014">
        <ele>365</ele>
        <time>2012-12-11T15:08:34.1Z</time>
      </trkpt>
      <trkpt lat="47.25813" lon="4.97017">
        <ele>364</ele>
        <time>2012-12-11T15:08:36.1Z</time>
      </trkpt>
      <trkpt lat="47.25812" lon="4.97021">
        <ele>364</ele>
        <time>2012-12-11T15:08:38.1Z</time>
      </trkpt>
      <trkpt lat="47.25811" lon="4.97025">
        <ele>363</ele>
        <time>2012-12-11T15:08:40.1Z</time>
      </trkpt>
      <trkpt lat="47.25812" lon="4.97029">
        <ele>362</ele>
        <time>2012-12-11T15:08:42.1Z</time>
      </trkpt>
      <trkpt lat="47.25813" lon="4.97032">
        <ele>362</ele>
        <time>2012-12-11T15:08:44.1Z</time>
      </trkpt>
      <trkpt lat="47.25813" lon="4.97036">
        <ele>361</ele>
        <time>2012-12-11T15:08:46.1Z</time>
      </trkpt>
      <trkpt lat="47.25813" lon="4.9704">
        <ele>360</ele>
        <time>2012-12-11T15:08:49.1Z</time>
      </trkpt>
      <trkpt lat="47.25813" lon="4.97044">
        <ele>359</ele>
        <time>2012-12-11T15:08:51.1Z</time>
      </trkpt>
      <trkpt lat="47.25813" lon="4.97046">
        <ele>359</ele>
        <time>2012-12-11T15:08:53.1Z</time>
      </trkpt>
      <trkpt lat="47.25813" lon="4.97048">
        <ele>358</ele>
        <time>2012-12-11T15:08:55.1Z</time>
      </trkpt>
      <trkpt lat="47.25814" lon="4.97051">
        <ele>358</ele>
        <time>2012-12-11T15:08:57.1Z</time>
      </trkpt>
      <trkpt lat="47.25813" lon="4.97054">
        <ele>357</ele>
        <time>2012-12-11T15:08:59.1Z</time>
      </trkpt>
      <trkpt lat="47.25812" lon="4.97057">
        <ele>357</ele>
        <time>2012-12-11T15:09:02.1Z</time>
      </trkpt>
      <trkpt lat="47.25811" lon="4.97059">
        <ele>355</ele>
        <time>2012-12-11T15:09:04.1Z</time>
      </trkpt>
      <trkpt lat="47.25811" lon="4.97062">
        <ele>355</ele>
        <time>2012-12-11T15:09:06.1Z</time>
      </trkpt>
      <trkpt lat="47.25809" lon="4.97066">
        <ele>355</ele>
        <time>2012-12-11T15:09:08.1Z</time>
      </trkpt>
      <trkpt lat="47.25807" lon="4.97069">
        <ele>354</ele>
        <time>2012-12-11T15:09:10.1Z</time>
      </trkpt>
      <trkpt lat="47.25806" lon="4.97072">
        <ele>354</ele>
        <time>2012-12-11T15:09:12.1Z</time>
      </trkpt>
      <trkpt lat="47.25804" lon="4.97074">
        <ele>354</ele>
        <time>2012-12-11T15:09:14.1Z</time>
      </trkpt>
      <trkpt lat="47.25803" lon="4.97077">
        <ele>354</ele>
        <time>2012-12-11T15:09:16.1Z</time>
      </trkpt>
      <trkpt lat="47.25803" lon="4.9708">
        <ele>353</ele>
        <time>2012-12-11T15:09:18.1Z</time>
      </trkpt>
      <trkpt lat="47.25802" lon="4.97082">
        <ele>353</ele>
        <time>2012-12-11T15:09:20.1Z</time>
      </trkpt>
      <trkpt lat="47.25801" lon="4.97084">
        <ele>352</ele>
        <time>2012-12-11T15:09:22.1Z</time>
      </trkpt>
      <trkpt lat="47.258" lon="4.97086">
        <ele>352</ele>
        <time>2012-12-11T15:09:24.1Z</time>
      </trkpt>
      <trkpt lat="47.25798" lon="4.97088">
        <ele>351</ele>
        <time>2012-12-11T15:09:26.1Z</time>
      </trkpt>
      <trkpt lat="47.25798" lon="4.9709">
        <ele>350</ele>
        <time>2012-12-11T15:09:28.1Z</time>
      </trkpt>
      <trkpt lat="47.25797" lon="4.97093">
        <ele>350</ele>
        <time>2012-12-11T15:09:30.1Z</time>
      </trkpt>
      <trkpt lat="47.25796" lon="4.97095">
        <ele>350</ele>
        <time>2012-12-11T15:09:33.1Z</time>
      </trkpt>
      <trkpt lat="47.25796" lon="4.97097">
        <ele>349</ele>
        <time>2012-12-11T15:09:35.1Z</time>
      </trkpt>
      <trkpt lat="47.25796" lon="4.97099">
        <ele>349</ele>
        <time>2012-12-11T15:09:37.1Z</time>
      </trkpt>
      <trkpt lat="47.25796" lon="4.97103">
        <ele>348</ele>
        <time>2012-12-11T15:09:39.1Z</time>
      </trkpt>
      <trkpt lat="47.25795" lon="4.97106">
        <ele>348</ele>
        <time>2012-12-11T15:09:41.1Z</time>
      </trkpt>
      <trkpt lat="47.25795" lon="4.97108">
        <ele>347</ele>
        <time>2012-12-11T15:09:43.1Z</time>
      </trkpt>
      <trkpt lat="47.25795" lon="4.97112">
        <ele>347</ele>
        <time>2012-12-11T15:09:45.1Z</time>
      </trkpt>
      <trkpt lat="47.25795" lon="4.97115">
        <ele>346</ele>
        <time>2012-12-11T15:09:48.1Z</time>
      </trkpt>
      <trkpt lat="47.25795" lon="4.97117">
        <ele>346</ele>
        <time>2012-12-11T15:09:50.1Z</time>
      </trkpt>
      <trkpt lat="47.25796" lon="4.97119">
        <ele>346</ele>
        <time>2012-12-11T15:09:52.1Z</time>
      </trkpt>
      <trkpt lat="47.25798" lon="4.9712">
        <ele>346</ele>
        <time>2012-12-11T15:09:54.1Z</time>
      </trkpt>
      <trkpt lat="47.258" lon="4.97122">
        <ele>346</ele>
        <time>2012-12-11T15:09:56.1Z</time>
      </trkpt>
      <trkpt lat="47.25802" lon="4.97122">
        <ele>346</ele>
        <time>2012-12-11T15:09:58.1Z</time>
      </trkpt>
      <trkpt lat="47.25804" lon="4.97123">
        <ele>346</ele>
        <time>2012-12-11T15:10:00.1Z</time>
      </trkpt>
      <trkpt lat="47.25806" lon="4.97123">
        <ele>346</ele>
        <time>2012-12-11T15:10:02.1Z</time>
      </trkpt>
      <trkpt lat="47.25808" lon="4.97124">
        <ele>346</ele>
        <time>2012-12-11T15:10:04.1Z</time>
      </trkpt>
      <trkpt lat="47.2581" lon="4.97124">
        <ele>346</ele>
        <time>2012-12-11T15:10:06.1Z</time>
      </trkpt>
      <trkpt lat="47.25812" lon="4.97125">
        <ele>346</ele>
        <time>2012-12-11T15:10:08.1Z</time>
      </trkpt>
      <trkpt lat="47.25814" lon="4.97125">
        <ele>346</ele>
        <time>2012-12-11T15:10:10.1Z</time>
      </trkpt>
      <trkpt lat="47.25815" lon="4.97126">
        <ele>346</ele>
        <time>2012-12-11T15:10:13.1Z</time>
      </trkpt>
      <trkpt lat="47.25817" lon="4.97128">
        <ele>346</ele>
        <time>2012-12-11T15:10:15.1Z</time>
      </trkpt>
      <trkpt lat="47.25818" lon="4.97131">
        <ele>346</ele>
        <time>2012-12-11T15:10:17.1Z</time>
      </trkpt>
      <trkpt lat="47.25819" lon="4.97134">
        <ele>346</ele>
        <time>2012-12-11T15:10:19.1Z</time>
      </trkpt>
      <trkpt lat="47.25821" lon="4.97136">
        <ele>345</ele>
        <time>2012-12-11T15:10:21.1Z</time>
      </trkpt>
      <trkpt lat="47.25822" lon="4.97137">
        <ele>345</ele>
        <time>2012-12-11T15:10:23.1Z</time>
      </trkpt>
      <trkpt lat="47.25822" lon="4.97137">
        <ele>345</ele>
        <time>2012-12-11T15:10:25.1Z</time>
      </trkpt>
      <trkpt lat="47.25822" lon="4.97138">
        <ele>345</ele>
        <time>2012-12-11T15:10:27.1Z</time>
      </trkpt>
      <trkpt lat="47.25823" lon="4.97138">
        <ele>345</ele>
        <time>2012-12-11T15:10:29.1Z</time>
      </trkpt>
      <trkpt lat="47.25823" lon="4.97139">
        <ele>345</ele>
        <time>2012-12-11T15:10:31.1Z</time>
      </trkpt>
      <trkpt lat="47.25823" lon="4.97139">
        <ele>345</ele>
        <time>2012-12-11T15:10:33.1Z</time>
      </trkpt>
      <trkpt lat="47.25824" lon="4.97139">
        <ele>346</ele>
        <time>2012-12-11T15:10:35.1Z</time>
      </trkpt>
      <trkpt lat="47.25824" lon="4.97139">
        <ele>345</ele>
        <time>2012-12-11T15:10:37.1Z</time>
      </trkpt>
      <trkpt lat="47.25824" lon="4.9714">
        <ele>345</ele>
        <time>2012-12-11T15:10:39.1Z</time>
      </trkpt>
      <trkpt lat="47.25824" lon="4.9714">
        <ele>345</ele>
        <time>2012-12-11T15:10:42.1Z</time>
      </trkpt>
      <trkpt lat="47.25824" lon="4.9714">
        <ele>345</ele>
        <time>2012-12-11T15:10:44.1Z</time>
      </trkpt>
      <trkpt lat="47.25824" lon="4.9714">
        <ele>345</ele>
        <time>2012-12-11T15:10:46.1Z</time>
      </trkpt>
      <trkpt lat="47.25824" lon="4.9714">
        <ele>345</ele>
        <time>2012-12-11T15:10:48.1Z</time>
      </trkpt>
      <trkpt lat="47.25824" lon="4.9714">
        <ele>345</ele>
        <time>2012-12-11T15:10:50.1Z</time>
      </trkpt>
      <trkpt lat="47.25824" lon="4.97141">
        <ele>345</ele>
        <time>2012-12-11T15:10:52.1Z</time>
      </trkpt>
      <trkpt lat="47.25824" lon="4.97141">
        <ele>345</ele>
        <time>2012-12-11T15:10:54.1Z</time>
      </trkpt>
      <trkpt lat="47.25824" lon="4.97141">
        <ele>346</ele>
        <time>2012-12-11T15:10:56.1Z</time>
      </trkpt>
      <trkpt lat="47.25824" lon="4.97141">
        <ele>346</ele>
        <time>2012-12-11T15:10:58.1Z</time>
      </trkpt>
      <trkpt lat="47.25824" lon="4.97141">
        <ele>346</ele>
        <time>2012-12-11T15:11:00.1Z</time>
      </trkpt>
      <trkpt lat="47.25824" lon="4.97141">
        <ele>346</ele>
        <time>2012-12-11T15:11:02.1Z</time>
      </trkpt>
      <trkpt lat="47.25824" lon="4.97141">
        <ele>346</ele>
        <time>2012-12-11T15:11:04.1Z</time>
      </trkpt>
      <trkpt lat="47.25823" lon="4.97142">
        <ele>346</ele>
        <time>2012-12-11T15:11:06.1Z</time>
      </trkpt>
      <trkpt lat="47.25823" lon="4.97142">
        <ele>345</ele>
        <time>2012-12-11T15:11:08.1Z</time>
      </trkpt>
      <trkpt lat="47.25823" lon="4.97143">
        <ele>346</ele>
        <time>2012-12-11T15:11:10.1Z</time>
      </trkpt>
      <trkpt lat="47.25823" lon="4.97144">
        <ele>346</ele>
        <time>2012-12-11T15:11:13.1Z</time>
      </trkpt>
      <trkpt lat="47.25823" lon="4.97142">
        <ele>346</ele>
        <time>2012-12-11T15:11:15.1Z</time>
      </trkpt>
      <trkpt lat="47.25824" lon="4.97141">
        <ele>346</ele>
        <time>2012-12-11T15:11:17.1Z</time>
      </trkpt>
      <trkpt lat="47.25826" lon="4.97139">
        <ele>346</ele>
        <time>2012-12-11T15:11:19.1Z</time>
      </trkpt>
      <trkpt lat="47.25827" lon="4.97138">
        <ele>346</ele>
        <time>2012-12-11T15:11:21.1Z</time>
      </trkpt>
      <trkpt lat="47.25827" lon="4.97137">
        <ele>346</ele>
        <time>2012-12-11T15:11:23.1Z</time>
      </trkpt>
      <trkpt lat="47.25827" lon="4.97137">
        <ele>346</ele>
        <time>2012-12-11T15:11:25.1Z</time>
      </trkpt>
      <trkpt lat="47.25827" lon="4.97136">
        <ele>346</ele>
        <time>2012-12-11T15:11:27.1Z</time>
      </trkpt>
      <trkpt lat="47.25827" lon="4.97135">
        <ele>346</ele>
        <time>2012-12-11T15:11:29.1Z</time>
      </trkpt>
      <trkpt lat="47.25827" lon="4.97134">
        <ele>346</ele>
        <time>2012-12-11T15:11:31.1Z</time>
      </trkpt>
      <trkpt lat="47.25827" lon="4.97134">
        <ele>346</ele>
        <time>2012-12-11T15:11:33.1Z</time>
      </trkpt>
      <trkpt lat="47.25827" lon="4.97133">
        <ele>346</ele>
        <time>2012-12-11T15:11:35.1Z</time>
      </trkpt>
      <trkpt lat="47.25827" lon="4.97133">
        <ele>346</ele>
        <time>2012-12-11T15:11:37.1Z</time>
      </trkpt>
      <trkpt lat="47.25827" lon="4.97132">
        <ele>345</ele>
        <time>2012-12-11T15:11:39.1Z</time>
      </trkpt>
      <trkpt lat="47.25828" lon="4.97132">
        <ele>346</ele>
        <time>2012-12-11T15:11:42.1Z</time>
      </trkpt>
      <trkpt lat="47.25828" lon="4.97132">
        <ele>346</ele>
        <time>2012-12-11T15:11:44.1Z</time>
      </trkpt>
      <trkpt lat="47.25828" lon="4.97132">
        <ele>346</ele>
        <time>2012-12-11T15:11:46.1Z</time>
      </trkpt>
      <trkpt lat="47.25828" lon="4.97131">
        <ele>346</ele>
        <time>2012-12-11T15:11:48.1Z</time>
      </trkpt>
      <trkpt lat="47.25829" lon="4.97132">
        <ele>346</ele>
        <time>2012-12-11T15:11:50.1Z</time>
      </trkpt>
      <trkpt lat="47.25829" lon="4.97131">
        <ele>346</ele>
        <time>2012-12-11T15:11:52.1Z</time>
      </trkpt>
      <trkpt lat="47.2583" lon="4.9713">
        <ele>346</ele>
        <time>2012-12-11T15:11:54.1Z</time>
      </trkpt>
      <trkpt lat="47.25832" lon="4.9713">
        <ele>346</ele>
        <time>2012-12-11T15:11:56.1Z</time>
      </trkpt>
      <trkpt lat="47.25836" lon="4.9713">
        <ele>346</ele>
        <time>2012-12-11T15:11:58.1Z</time>
      </trkpt>
      <trkpt lat="47.25839" lon="4.97131">
        <ele>346</ele>
        <time>2012-12-11T15:12:00.1Z</time>
      </trkpt>
      <trkpt lat="47.25843" lon="4.97131">
        <ele>345</ele>
        <time>2012-12-11T15:12:02.1Z</time>
      </trkpt>
      <trkpt lat="47.25846" lon="4.97131">
        <ele>345</ele>
        <time>2012-12-11T15:12:04.1Z</time>
      </trkpt>
      <trkpt lat="47.2585" lon="4.97132">
        <ele>345</ele>
        <time>2012-12-11T15:12:06.1Z</time>
      </trkpt>
      <trkpt lat="47.25853" lon="4.97132">
        <ele>345</ele>
        <time>2012-12-11T15:12:08.1Z</time>
      </trkpt>
      <trkpt lat="47.25855" lon="4.97132">
        <ele>345</ele>
        <time>2012-12-11T15:12:11.1Z</time>
      </trkpt>
      <trkpt lat="47.25859" lon="4.97133">
        <ele>345</ele>
        <time>2012-12-11T15:12:13.1Z</time>
      </trkpt>
      <trkpt lat="47.25861" lon="4.97134">
        <ele>345</ele>
        <time>2012-12-11T15:12:15.1Z</time>
      </trkpt>
      <trkpt lat="47.25863" lon="4.97134">
        <ele>345</ele>
        <time>2012-12-11T15:12:17.1Z</time>
      </trkpt>
      <trkpt lat="47.25864" lon="4.97134">
        <ele>344</ele>
        <time>2012-12-11T15:12:19.1Z</time>
      </trkpt>
      <trkpt lat="47.25865" lon="4.97134">
        <ele>344</ele>
        <time>2012-12-11T15:12:21.1Z</time>
      </trkpt>
      <trkpt lat="47.25865" lon="4.97134">
        <ele>344</ele>
        <time>2012-12-11T15:12:23.1Z</time>
      </trkpt>
      <trkpt lat="47.25866" lon="4.97135">
        <ele>344</ele>
        <time>2012-12-11T15:12:25.1Z</time>
      </trkpt>
      <trkpt lat="47.25866" lon="4.97135">
        <ele>344</ele>
        <time>2012-12-11T15:12:27.1Z</time>
      </trkpt>
      <trkpt lat="47.25866" lon="4.97136">
        <ele>344</ele>
        <time>2012-12-11T15:12:29.1Z</time>
      </trkpt>
      <trkpt lat="47.25867" lon="4.97136">
        <ele>344</ele>
        <time>2012-12-11T15:12:31.1Z</time>
      </trkpt>
      <trkpt lat="47.25868" lon="4.97137">
        <ele>344</ele>
        <time>2012-12-11T15:12:34.1Z</time>
      </trkpt>
      <trkpt lat="47.25868" lon="4.97137">
        <ele>344</ele>
        <time>2012-12-11T15:12:36.1Z</time>
      </trkpt>
      <trkpt lat="47.25869" lon="4.97138">
        <ele>344</ele>
        <time>2012-12-11T15:12:38.1Z</time>
      </trkpt>
      <trkpt lat="47.25869" lon="4.97139">
        <ele>344</ele>
        <time>2012-12-11T15:12:40.1Z</time>
      </trkpt>
      <trkpt lat="47.25869" lon="4.9714">
        <ele>344</ele>
        <time>2012-12-11T15:12:42.1Z</time>
      </trkpt>
      <trkpt lat="47.2587" lon="4.9714">
        <ele>345</ele>
        <time>2012-12-11T15:12:44.1Z</time>
      </trkpt>
      <trkpt lat="47.2587" lon="4.9714">
        <ele>345</ele>
        <time>2012-12-11T15:12:46.1Z</time>
      </trkpt>
      <trkpt lat="47.2587" lon="4.9714">
        <ele>345</ele>
        <time>2012-12-11T15:12:48.1Z</time>
      </trkpt>
      <trkpt lat="47.25871" lon="4.9714">
        <ele>344</ele>
        <time>2012-12-11T15:12:50.1Z</time>
      </trkpt>
      <trkpt lat="47.25871" lon="4.97141">
        <ele>344</ele>
        <time>2012-12-11T15:12:52.1Z</time>
      </trkpt>
      <trkpt lat="47.25872" lon="4.97141">
        <ele>345</ele>
        <time>2012-12-11T15:12:54.1Z</time>
      </trkpt>
      <trkpt lat="47.25872" lon="4.9714">
        <ele>345</ele>
        <time>2012-12-11T15:12:56.1Z</time>
      </trkpt>
      <trkpt lat="47.25872" lon="4.9714">
        <ele>345</ele>
        <time>2012-12-11T15:12:59.1Z</time>
      </trkpt>
      <trkpt lat="47.25872" lon="4.9714">
        <ele>345</ele>
        <time>2012-12-11T15:13:01.1Z</time>
      </trkpt>
      <trkpt lat="47.25873" lon="4.97139">
        <ele>345</ele>
        <time>2012-12-11T15:13:03.1Z</time>
      </trkpt>
      <trkpt lat="47.25874" lon="4.97139">
        <ele>345</ele>
        <time>2012-12-11T15:13:05.1Z</time>
      </trkpt>
      <trkpt lat="47.25877" lon="4.9714">
        <ele>345</ele>
        <time>2012-12-11T15:13:07.1Z</time>
      </trkpt>
      <trkpt lat="47.25878" lon="4.9714">
        <ele>344</ele>
        <time>2012-12-11T15:13:09.1Z</time>
      </trkpt>
      <trkpt lat="47.2588" lon="4.9714">
        <ele>345</ele>
        <time>2012-12-11T15:13:11.1Z</time>
      </trkpt>
      <trkpt lat="47.25882" lon="4.9714">
        <ele>345</ele>
        <time>2012-12-11T15:13:13.1Z</time>
      </trkpt>
      <trkpt lat="47.25884" lon="4.9714">
        <ele>345</ele>
        <time>2012-12-11T15:13:15.1Z</time>
      </trkpt>
      <trkpt lat="47.25886" lon="4.97139">
        <ele>345</ele>
        <time>2012-12-11T15:13:17.1Z</time>
      </trkpt>
      <trkpt lat="47.25888" lon="4.97139">
        <ele>345</ele>
        <time>2012-12-11T15:13:19.1Z</time>
      </trkpt>
      <trkpt lat="47.25889" lon="4.97139">
        <ele>345</ele>
        <time>2012-12-11T15:13:22.1Z</time>
      </trkpt>
      <trkpt lat="47.25891" lon="4.97139">
        <ele>344</ele>
        <time>2012-12-11T15:13:24.1Z</time>
      </trkpt>
      <trkpt lat="47.25895" lon="4.97139">
        <ele>344</ele>
        <time>2012-12-11T15:13:26.1Z</time>
      </trkpt>
      <trkpt lat="47.25896" lon="4.9714">
        <ele>344</ele>
        <time>2012-12-11T15:13:28.1Z</time>
      </trkpt>
      <trkpt lat="47.25898" lon="4.9714">
        <ele>344</ele>
        <time>2012-12-11T15:13:30.1Z</time>
      </trkpt>
      <trkpt lat="47.25899" lon="4.9714">
        <ele>344</ele>
        <time>2012-12-11T15:13:32.1Z</time>
      </trkpt>
      <trkpt lat="47.25901" lon="4.9714">
        <ele>344</ele>
        <time>2012-12-11T15:13:34.1Z</time>
      </trkpt>
      <trkpt lat="47.25903" lon="4.97141">
        <ele>344</ele>
        <time>2012-12-11T15:13:36.1Z</time>
      </trkpt>
      <trkpt lat="47.25904" lon="4.97141">
        <ele>344</ele>
        <time>2012-12-11T15:13:38.1Z</time>
      </trkpt>
      <trkpt lat="47.25907" lon="4.97141">
        <ele>344</ele>
        <time>2012-12-11T15:13:40.1Z</time>
      </trkpt>
      <trkpt lat="47.25909" lon="4.97142">
        <ele>344</ele>
        <time>2012-12-11T15:13:42.1Z</time>
      </trkpt>
      <trkpt lat="47.25911" lon="4.97144">
        <ele>344</ele>
        <time>2012-12-11T15:13:44.1Z</time>
      </trkpt>
      <trkpt lat="47.25913" lon="4.97145">
        <ele>344</ele>
        <time>2012-12-11T15:13:46.1Z</time>
      </trkpt>
      <trkpt lat="47.25914" lon="4.97146">
        <ele>343</ele>
        <time>2012-12-11T15:13:48.1Z</time>
      </trkpt>
      <trkpt lat="47.25916" lon="4.97147">
        <ele>343</ele>
        <time>2012-12-11T15:13:50.1Z</time>
      </trkpt>
      <trkpt lat="47.25918" lon="4.97149">
        <ele>343</ele>
        <time>2012-12-11T15:13:52.1Z</time>
      </trkpt>
      <trkpt lat="47.2592" lon="4.97151">
        <ele>342</ele>
        <time>2012-12-11T15:13:54.1Z</time>
      </trkpt>
      <trkpt lat="47.25922" lon="4.97153">
        <ele>342</ele>
        <time>2012-12-11T15:13:57.1Z</time>
      </trkpt>
      <trkpt lat="47.25925" lon="4.97156">
        <ele>342</ele>
        <time>2012-12-11T15:13:59.1Z</time>
      </trkpt>
      <trkpt lat="47.25926" lon="4.97158">
        <ele>341</ele>
        <time>2012-12-11T15:14:01.1Z</time>
      </trkpt>
      <trkpt lat="47.25928" lon="4.97162">
        <ele>341</ele>
        <time>2012-12-11T15:14:03.1Z</time>
      </trkpt>
      <trkpt lat="47.25929" lon="4.97165">
        <ele>340</ele>
        <time>2012-12-11T15:14:05.1Z</time>
      </trkpt>
      <trkpt lat="47.2593" lon="4.9717">
        <ele>340</ele>
        <time>2012-12-11T15:14:07.1Z</time>
      </trkpt>
      <trkpt lat="47.2593" lon="4.97173">
        <ele>340</ele>
        <time>2012-12-11T15:14:09.1Z</time>
      </trkpt>
      <trkpt lat="47.25931" lon="4.97176">
        <ele>339</ele>
        <time>2012-12-11T15:14:11.1Z</time>
      </trkpt>
      <trkpt lat="47.25932" lon="4.97179">
        <ele>339</ele>
        <time>2012-12-11T15:14:13.1Z</time>
      </trkpt>
      <trkpt lat="47.25932" lon="4.97183">
        <ele>338</ele>
        <time>2012-12-11T15:14:15.1Z</time>
      </trkpt>
      <trkpt lat="47.25932" lon="4.97186">
        <ele>338</ele>
        <time>2012-12-11T15:14:17.1Z</time>
      </trkpt>
      <trkpt lat="47.25932" lon="4.9719">
        <ele>337</ele>
        <time>2012-12-11T15:14:19.1Z</time>
      </trkpt>
      <trkpt lat="47.25932" lon="4.97193">
        <ele>337</ele>
        <time>2012-12-11T15:14:21.1Z</time>
      </trkpt>
      <trkpt lat="47.25933" lon="4.97197">
        <ele>336</ele>
        <time>2012-12-11T15:14:23.1Z</time>
      </trkpt>
      <trkpt lat="47.25933" lon="4.97201">
        <ele>336</ele>
        <time>2012-12-11T15:14:25.1Z</time>
      </trkpt>
      <trkpt lat="47.25933" lon="4.97204">
        <ele>336</ele>
        <time>2012-12-11T15:14:27.1Z</time>
      </trkpt>
      <trkpt lat="47.25933" lon="4.97208">
        <ele>335</ele>
        <time>2012-12-11T15:14:29.1Z</time>
      </trkpt>
      <trkpt lat="47.25933" lon="4.97212">
        <ele>334</ele>
        <time>2012-12-11T15:14:32.1Z</time>
      </trkpt>
      <trkpt lat="47.25933" lon="4.97215">
        <ele>333</ele>
        <time>2012-12-11T15:14:34.1Z</time>
      </trkpt>
      <trkpt lat="47.25933" lon="4.97219">
        <ele>333</ele>
        <time>2012-12-11T15:14:36.1Z</time>
      </trkpt>
      <trkpt lat="47.25933" lon="4.97225">
        <ele>332</ele>
        <time>2012-12-11T15:14:38.1Z</time>
      </trkpt>
      <trkpt lat="47.25933" lon="4.97228">
        <ele>332</ele>
        <time>2012-12-11T15:14:40.1Z</time>
      </trkpt>
      <trkpt lat="47.25933" lon="4.97232">
        <ele>332</ele>
        <time>2012-12-11T15:14:42.1Z</time>
      </trkpt>
      <trkpt lat="47.25933" lon="4.97235">
        <ele>331</ele>
        <time>2012-12-11T15:14:44.1Z</time>
      </trkpt>
      <trkpt lat="47.25933" lon="4.97238">
        <ele>331</ele>
        <time>2012-12-11T15:14:46.1Z</time>
      </trkpt>
      <trkpt lat="47.25933" lon="4.97242">
        <ele>331</ele>
        <time>2012-12-11T15:14:48.1Z</time>
      </trkpt>
      <trkpt lat="47.25933" lon="4.97245">
        <ele>331</ele>
        <time>2012-12-11T15:14:50.1Z</time>
      </trkpt>
      <trkpt lat="47.25933" lon="4.97249">
        <ele>330</ele>
        <time>2012-12-11T15:14:52.1Z</time>
      </trkpt>
      <trkpt lat="47.25933" lon="4.97252">
        <ele>329</ele>
        <time>2012-12-11T15:14:54.1Z</time>
      </trkpt>
      <trkpt lat="47.25933" lon="4.97256">
        <ele>329</ele>
        <time>2012-12-11T15:14:56.1Z</time>
      </trkpt>
      <trkpt lat="47.25932" lon="4.9726">
        <ele>328</ele>
        <time>2012-12-11T15:14:58.1Z</time>
      </trkpt>
      <trkpt lat="47.25932" lon="4.97263">
        <ele>328</ele>
        <time>2012-12-11T15:15:00.1Z</time>
      </trkpt>
      <trkpt lat="47.25932" lon="4.97266">
        <ele>328</ele>
        <time>2012-12-11T15:15:03.1Z</time>
      </trkpt>
      <trkpt lat="47.25932" lon="4.97269">
        <ele>327</ele>
        <time>2012-12-11T15:15:05.1Z</time>
      </trkpt>
      <trkpt lat="47.25931" lon="4.97275">
        <ele>327</ele>
        <time>2012-12-11T15:15:07.1Z</time>
      </trkpt>
      <trkpt lat="47.2593" lon="4.97278">
        <ele>326</ele>
        <time>2012-12-11T15:15:09.1Z</time>
      </trkpt>
      <trkpt lat="47.2593" lon="4.97281">
        <ele>326</ele>
        <time>2012-12-11T15:15:11.1Z</time>
      </trkpt>
      <trkpt lat="47.2593" lon="4.97284">
        <ele>326</ele>
        <time>2012-12-11T15:15:13.1Z</time>
      </trkpt>
      <trkpt lat="47.2593" lon="4.97288">
        <ele>326</ele>
        <time>2012-12-11T15:15:15.1Z</time>
      </trkpt>
      <trkpt lat="47.2593" lon="4.97291">
        <ele>325</ele>
        <time>2012-12-11T15:15:17.1Z</time>
      </trkpt>
      <trkpt lat="47.25929" lon="4.97294">
        <ele>325</ele>
        <time>2012-12-11T15:15:19.1Z</time>
      </trkpt>
      <trkpt lat="47.25928" lon="4.97296">
        <ele>325</ele>
        <time>2012-12-11T15:15:21.1Z</time>
      </trkpt>
      <trkpt lat="47.25928" lon="4.97299">
        <ele>324</ele>
        <time>2012-12-11T15:15:23.1Z</time>
      </trkpt>
      <trkpt lat="47.25928" lon="4.97302">
        <ele>324</ele>
        <time>2012-12-11T15:15:25.1Z</time>
      </trkpt>
      <trkpt lat="47.25928" lon="4.97305">
        <ele>323</ele>
        <time>2012-12-11T15:15:27.1Z</time>
      </trkpt>
      <trkpt lat="47.25928" lon="4.97308">
        <ele>323</ele>
        <time>2012-12-11T15:15:29.1Z</time>
      </trkpt>
      <trkpt lat="47.25928" lon="4.97311">
        <ele>322</ele>
        <time>2012-12-11T15:15:31.1Z</time>
      </trkpt>
      <trkpt lat="47.25928" lon="4.97313">
        <ele>322</ele>
        <time>2012-12-11T15:15:33.1Z</time>
      </trkpt>
      <trkpt lat="47.25928" lon="4.97317">
        <ele>322</ele>
        <time>2012-12-11T15:15:35.1Z</time>
      </trkpt>
      <trkpt lat="47.25928" lon="4.9732">
        <ele>321</ele>
        <time>2012-12-11T15:15:37.1Z</time>
      </trkpt>
      <trkpt lat="47.25928" lon="4.97323">
        <ele>321</ele>
        <time>2012-12-11T15:15:40.1Z</time>
      </trkpt>
      <trkpt lat="47.25928" lon="4.97326">
        <ele>320</ele>
        <time>2012-12-11T15:15:42.1Z</time>
      </trkpt>
      <trkpt lat="47.25929" lon="4.9733">
        <ele>320</ele>
        <time>2012-12-11T15:15:44.1Z</time>
      </trkpt>
      <trkpt lat="47.25929" lon="4.97333">
        <ele>319</ele>
        <time>2012-12-11T15:15:46.1Z</time>
      </trkpt>
      <trkpt lat="47.25929" lon="4.97338">
        <ele>319</ele>
        <time>2012-12-11T15:15:48.1Z</time>
      </trkpt>
      <trkpt lat="47.2593" lon="4.97342">
        <ele>318</ele>
        <time>2012-12-11T15:15:50.1Z</time>
      </trkpt>
      <trkpt lat="47.2593" lon="4.97345">
        <ele>318</ele>
        <time>2012-12-11T15:15:52.1Z</time>
      </trkpt>
      <trkpt lat="47.2593" lon="4.97349">
        <ele>318</ele>
        <time>2012-12-11T15:15:54.1Z</time>
      </trkpt>
      <trkpt lat="47.2593" lon="4.97353">
        <ele>318</ele>
        <time>2012-12-11T15:15:56.1Z</time>
      </trkpt>
      <trkpt lat="47.2593" lon="4.97357">
        <ele>318</ele>
        <time>2012-12-11T15:15:58.1Z</time>
      </trkpt>
      <trkpt lat="47.2593" lon="4.9736">
        <ele>317</ele>
        <time>2012-12-11T15:16:01.1Z</time>
      </trkpt>
      <trkpt lat="47.2593" lon="4.97364">
        <ele>317</ele>
        <time>2012-12-11T15:16:03.1Z</time>
      </trkpt>
      <trkpt lat="47.2593" lon="4.97369">
        <ele>317</ele>
        <time>2012-12-11T15:16:05.1Z</time>
      </trkpt>
      <trkpt lat="47.25929" lon="4.97373">
        <ele>317</ele>
        <time>2012-12-11T15:16:07.1Z</time>
      </trkpt>
      <trkpt lat="47.25929" lon="4.97377">
        <ele>316</ele>
        <time>2012-12-11T15:16:09.1Z</time>
      </trkpt>
      <trkpt lat="47.25929" lon="4.9738">
        <ele>316</ele>
        <time>2012-12-11T15:16:11.1Z</time>
      </trkpt>
      <trkpt lat="47.25929" lon="4.97384">
        <ele>315</ele>
        <time>2012-12-11T15:16:14.1Z</time>
      </trkpt>
      <trkpt lat="47.2593" lon="4.97389">
        <ele>315</ele>
        <time>2012-12-11T15:16:16.1Z</time>
      </trkpt>
      <trkpt lat="47.2593" lon="4.97393">
        <ele>315</ele>
        <time>2012-12-11T15:16:18.1Z</time>
      </trkpt>
      <trkpt lat="47.2593" lon="4.97396">
        <ele>315</ele>
        <time>2012-12-11T15:16:20.1Z</time>
      </trkpt>
      <trkpt lat="47.2593" lon="4.974">
        <ele>314</ele>
        <time>2012-12-11T15:16:22.1Z</time>
      </trkpt>
      <trkpt lat="47.25931" lon="4.97403">
        <ele>314</ele>
        <time>2012-12-11T15:16:24.1Z</time>
      </trkpt>
      <trkpt lat="47.25931" lon="4.97407">
        <ele>313</ele>
        <time>2012-12-11T15:16:26.1Z</time>
      </trkpt>
      <trkpt lat="47.25931" lon="4.97411">
        <ele>313</ele>
        <time>2012-12-11T15:16:28.1Z</time>
      </trkpt>
      <trkpt lat="47.25931" lon="4.97414">
        <ele>312</ele>
        <time>2012-12-11T15:16:30.1Z</time>
      </trkpt>
      <trkpt lat="47.25931" lon="4.97418">
        <ele>312</ele>
        <time>2012-12-11T15:16:32.1Z</time>
      </trkpt>
      <trkpt lat="47.25931" lon="4.97422">
        <ele>312</ele>
        <time>2012-12-11T15:16:34.1Z</time>
      </trkpt>
      <trkpt lat="47.25932" lon="4.97425">
        <ele>312</ele>
        <time>2012-12-11T15:16:36.1Z</time>
      </trkpt>
      <trkpt lat="47.25932" lon="4.97429">
        <ele>312</ele>
        <time>2012-12-11T15:16:38.1Z</time>
      </trkpt>
      <trkpt lat="47.25932" lon="4.97433">
        <ele>311</ele>
        <time>2012-12-11T15:16:41.1Z</time>
      </trkpt>
      <trkpt lat="47.25932" lon="4.97436">
        <ele>311</ele>
        <time>2012-12-11T15:16:43.1Z</time>
      </trkpt>
      <trkpt lat="47.25932" lon="4.97442">
        <ele>311</ele>
        <time>2012-12-11T15:16:45.1Z</time>
      </trkpt>
      <trkpt lat="47.25932" lon="4.97445">
        <ele>310</ele>
        <time>2012-12-11T15:16:47.1Z</time>
      </trkpt>
      <trkpt lat="47.25932" lon="4.97449">
        <ele>310</ele>
        <time>2012-12-11T15:16:49.1Z</time>
      </trkpt>
      <trkpt lat="47.25932" lon="4.97452">
        <ele>310</ele>
        <time>2012-12-11T15:16:51.1Z</time>
      </trkpt>
      <trkpt lat="47.25932" lon="4.97456">
        <ele>310</ele>
        <time>2012-12-11T15:16:54.1Z</time>
      </trkpt>
      <trkpt lat="47.25932" lon="4.9746">
        <ele>310</ele>
        <time>2012-12-11T15:16:56.1Z</time>
      </trkpt>
      <trkpt lat="47.25933" lon="4.97465">
        <ele>310</ele>
        <time>2012-12-11T15:16:58.1Z</time>
      </trkpt>
      <trkpt lat="47.25933" lon="4.97469">
        <ele>309</ele>
        <time>2012-12-11T15:17:00.1Z</time>
      </trkpt>
      <trkpt lat="47.25932" lon="4.97472">
        <ele>309</ele>
        <time>2012-12-11T15:17:02.1Z</time>
      </trkpt>
      <trkpt lat="47.25933" lon="4.97475">
        <ele>308</ele>
        <time>2012-12-11T15:17:04.1Z</time>
      </trkpt>
      <trkpt lat="47.25933" lon="4.97478">
        <ele>308</ele>
        <time>2012-12-11T15:17:06.1Z</time>
      </trkpt>
      <trkpt lat="47.25933" lon="4.97481">
        <ele>308</ele>
        <time>2012-12-11T15:17:08.1Z</time>
      </trkpt>
      <trkpt lat="47.25933" lon="4.97485">
        <ele>308</ele>
        <time>2012-12-11T15:17:11.1Z</time>
      </trkpt>
      <trkpt lat="47.25933" lon="4.97491">
        <ele>307</ele>
        <time>2012-12-11T15:17:13.1Z</time>
      </trkpt>
      <trkpt lat="47.25933" lon="4.97494">
        <ele>307</ele>
        <time>2012-12-11T15:17:15.1Z</time>
      </trkpt>
      <trkpt lat="47.25933" lon="4.97498">
        <ele>307</ele>
        <time>2012-12-11T15:17:17.1Z</time>
      </trkpt>
      <trkpt lat="47.25933" lon="4.97502">
        <ele>307</ele>
        <time>2012-12-11T15:17:19.1Z</time>
      </trkpt>
      <trkpt lat="47.25933" lon="4.97506">
        <ele>306</ele>
        <time>2012-12-11T15:17:21.1Z</time>
      </trkpt>
      <trkpt lat="47.25933" lon="4.97509">
        <ele>306</ele>
        <time>2012-12-11T15:17:23.1Z</time>
      </trkpt>
      <trkpt lat="47.25933" lon="4.97512">
        <ele>306</ele>
        <time>2012-12-11T15:17:25.1Z</time>
      </trkpt>
      <trkpt lat="47.25933" lon="4.97516">
        <ele>306</ele>
        <time>2012-12-11T15:17:27.1Z</time>
      </trkpt>
      <trkpt lat="47.25933" lon="4.97519">
        <ele>306</ele>
        <time>2012-12-11T15:17:30.1Z</time>
      </trkpt>
      <trkpt lat="47.25933" lon="4.97523">
        <ele>305</ele>
        <time>2012-12-11T15:17:32.1Z</time>
      </trkpt>
      <trkpt lat="47.25933" lon="4.97526">
        <ele>305</ele>
        <time>2012-12-11T15:17:34.1Z</time>
      </trkpt>
      <trkpt lat="47.25933" lon="4.97531">
        <ele>305</ele>
        <time>2012-12-11T15:17:36.1Z</time>
      </trkpt>
      <trkpt lat="47.25933" lon="4.97534">
        <ele>304</ele>
        <time>2012-12-11T15:17:38.1Z</time>
      </trkpt>
      <trkpt lat="47.25932" lon="4.97538">
        <ele>304</ele>
        <time>2012-12-11T15:17:40.1Z</time>
      </trkpt>
      <trkpt lat="47.25932" lon="4.97541">
        <ele>304</ele>
        <time>2012-12-11T15:17:42.1Z</time>
      </trkpt>
      <trkpt lat="47.25932" lon="4.97545">
        <ele>303</ele>
        <time>2012-12-11T15:17:44.1Z</time>
      </trkpt>
      <trkpt lat="47.25932" lon="4.97548">
        <ele>303</ele>
        <time>2012-12-11T15:17:46.1Z</time>
      </trkpt>
      <trkpt lat="47.25932" lon="4.97552">
        <ele>303</ele>
        <time>2012-12-11T15:17:48.1Z</time>
      </trkpt>
      <trkpt lat="47.25932" lon="4.97555">
        <ele>303</ele>
        <time>2012-12-11T15:17:50.1Z</time>
      </trkpt>
      <trkpt lat="47.25932" lon="4.97558">
        <ele>303</ele>
        <time>2012-12-11T15:17:52.1Z</time>
      </trkpt>
      <trkpt lat="47.25932" lon="4.97562">
        <ele>303</ele>
        <time>2012-12-11T15:17:54.1Z</time>
      </trkpt>
      <trkpt lat="47.25931" lon="4.97566">
        <ele>303</ele>
        <time>2012-12-11T15:17:56.1Z</time>
      </trkpt>
      <trkpt lat="47.25931" lon="4.97569">
        <ele>303</ele>
        <time>2012-12-11T15:17:59.1Z</time>
      </trkpt>
      <trkpt lat="47.25931" lon="4.97574">
        <ele>303</ele>
        <time>2012-12-11T15:18:01.1Z</time>
      </trkpt>
      <trkpt lat="47.25931" lon="4.97578">
        <ele>302</ele>
        <time>2012-12-11T15:18:03.1Z</time>
      </trkpt>
      <trkpt lat="47.25931" lon="4.97581">
        <ele>302</ele>
        <time>2012-12-11T15:18:05.1Z</time>
      </trkpt>
      <trkpt lat="47.25931" lon="4.97584">
        <ele>302</ele>
        <time>2012-12-11T15:18:07.1Z</time>
      </trkpt>
      <trkpt lat="47.25932" lon="4.97587">
        <ele>301</ele>
        <time>2012-12-11T15:18:09.1Z</time>
      </trkpt>
      <trkpt lat="47.25933" lon="4.9759">
        <ele>301</ele>
        <time>2012-12-11T15:18:11.1Z</time>
      </trkpt>
      <trkpt lat="47.25935" lon="4.97593">
        <ele>301</ele>
        <time>2012-12-11T15:18:13.1Z</time>
      </trkpt>
      <trkpt lat="47.25936" lon="4.97594">
        <ele>301</ele>
        <time>2012-12-11T15:18:15.1Z</time>
      </trkpt>
      <trkpt lat="47.25938" lon="4.97597">
        <ele>301</ele>
        <time>2012-12-11T15:18:17.1Z</time>
      </trkpt>
      <trkpt lat="47.2594" lon="4.97598">
        <ele>301</ele>
        <time>2012-12-11T15:18:19.1Z</time>
      </trkpt>
      <trkpt lat="47.25941" lon="4.97599">
        <ele>301</ele>
        <time>2012-12-11T15:18:21.1Z</time>
      </trkpt>
      <trkpt lat="47.25944" lon="4.97599">
        <ele>300</ele>
        <time>2012-12-11T15:18:24.1Z</time>
      </trkpt>
      <trkpt lat="47.25946" lon="4.97599">
        <ele>300</ele>
        <time>2012-12-11T15:18:26.1Z</time>
      </trkpt>
      <trkpt lat="47.25948" lon="4.976">
        <ele>301</ele>
        <time>2012-12-11T15:18:28.1Z</time>
      </trkpt>
      <trkpt lat="47.25949" lon="4.976">
        <ele>301</ele>
        <time>2012-12-11T15:18:30.1Z</time>
      </trkpt>
      <trkpt lat="47.25951" lon="4.97601">
        <ele>301</ele>
        <time>2012-12-11T15:18:32.1Z</time>
      </trkpt>
      <trkpt lat="47.25951" lon="4.97601">
        <ele>300</ele>
        <time>2012-12-11T15:18:34.1Z</time>
      </trkpt>
      <trkpt lat="47.25951" lon="4.97601">
        <ele>300</ele>
        <time>2012-12-11T15:18:36.1Z</time>
      </trkpt>
      <trkpt lat="47.25952" lon="4.97601">
        <ele>300</ele>
        <time>2012-12-11T15:18:38.1Z</time>
      </trkpt>
      <trkpt lat="47.25953" lon="4.97601">
        <ele>300</ele>
        <time>2012-12-11T15:18:40.1Z</time>
      </trkpt>
      <trkpt lat="47.25953" lon="4.97601">
        <ele>300</ele>
        <time>2012-12-11T15:18:42.1Z</time>
      </trkpt>
      <trkpt lat="47.25953" lon="4.97602">
        <ele>301</ele>
        <time>2012-12-11T15:18:45.1Z</time>
      </trkpt>
      <trkpt lat="47.25953" lon="4.97602">
        <ele>301</ele>
        <time>2012-12-11T15:18:47.1Z</time>
      </trkpt>
      <trkpt lat="47.25953" lon="4.97602">
        <ele>301</ele>
        <time>2012-12-11T15:18:49.1Z</time>
      </trkpt>
      <trkpt lat="47.25954" lon="4.97602">
        <ele>301</ele>
        <time>2012-12-11T15:18:51.1Z</time>
      </trkpt>
      <trkpt lat="47.25954" lon="4.97602">
        <ele>300</ele>
        <time>2012-12-11T15:18:53.1Z</time>
      </trkpt>
      <trkpt lat="47.25954" lon="4.97602">
        <ele>300</ele>
        <time>2012-12-11T15:18:55.1Z</time>
      </trkpt>
      <trkpt lat="47.25954" lon="4.97602">
        <ele>300</ele>
        <time>2012-12-11T15:18:57.1Z</time>
      </trkpt>
      <trkpt lat="47.25954" lon="4.97602">
        <ele>300</ele>
        <time>2012-12-11T15:18:59.1Z</time>
      </trkpt>
      <trkpt lat="47.25954" lon="4.97602">
        <ele>300</ele>
        <time>2012-12-11T15:19:01.1Z</time>
      </trkpt>
      <trkpt lat="47.25954" lon="4.97602">
        <ele>300</ele>
        <time>2012-12-11T15:19:03.1Z</time>
      </trkpt>
      <trkpt lat="47.25954" lon="4.97603">
        <ele>300</ele>
        <time>2012-12-11T15:19:05.1Z</time>
      </trkpt>
      <trkpt lat="47.25954" lon="4.97603">
        <ele>301</ele>
        <time>2012-12-11T15:19:07.1Z</time>
      </trkpt>
      <trkpt lat="47.25954" lon="4.97603">
        <ele>301</ele>
        <time>2012-12-11T15:19:09.1Z</time>
      </trkpt>
      <trkpt lat="47.25954" lon="4.97602">
        <ele>301</ele>
        <time>2012-12-11T15:19:12.1Z</time>
      </trkpt>
      <trkpt lat="47.25954" lon="4.97602">
        <ele>301</ele>
        <time>2012-12-11T15:19:14.1Z</time>
      </trkpt>
      <trkpt lat="47.25954" lon="4.97602">
        <ele>301</ele>
        <time>2012-12-11T15:19:16.1Z</time>
      </trkpt>
      <trkpt lat="47.25955" lon="4.97602">
        <ele>301</ele>
        <time>2012-12-11T15:19:18.1Z</time>
      </trkpt>
      <trkpt lat="47.25956" lon="4.97603">
        <ele>301</ele>
        <time>2012-12-11T15:19:20.1Z</time>
      </trkpt>
      <trkpt lat="47.25957" lon="4.97603">
        <ele>301</ele>
        <time>2012-12-11T15:19:22.1Z</time>
      </trkpt>
      <trkpt lat="47.25959" lon="4.97603">
        <ele>300</ele>
        <time>2012-12-11T15:19:24.1Z</time>
      </trkpt>
      <trkpt lat="47.2596" lon="4.97604">
        <ele>300</ele>
        <time>2012-12-11T15:19:26.1Z</time>
      </trkpt>
      <trkpt lat="47.25962" lon="4.97604">
        <ele>301</ele>
        <time>2012-12-11T15:19:28.1Z</time>
      </trkpt>
      <trkpt lat="47.25964" lon="4.97604">
        <ele>300</ele>
        <time>2012-12-11T15:19:30.1Z</time>
      </trkpt>
      <trkpt lat="47.25966" lon="4.97604">
        <ele>301</ele>
        <time>2012-12-11T15:19:32.1Z</time>
      </trkpt>
      <trkpt lat="47.25968" lon="4.97604">
        <ele>301</ele>
        <time>2012-12-11T15:19:34.1Z</time>
      </trkpt>
      <trkpt lat="47.2597" lon="4.97604">
        <ele>301</ele>
        <time>2012-12-11T15:19:36.1Z</time>
      </trkpt>
      <trkpt lat="47.25972" lon="4.97605">
        <ele>301</ele>
        <time>2012-12-11T15:19:38.1Z</time>
      </trkpt>
      <trkpt lat="47.25974" lon="4.97605">
        <ele>301</ele>
        <time>2012-12-11T15:19:40.1Z</time>
      </trkpt>
      <trkpt lat="47.25976" lon="4.97605">
        <ele>301</ele>
        <time>2012-12-11T15:19:42.1Z</time>
      </trkpt>
      <trkpt lat="47.25978" lon="4.97605">
        <ele>301</ele>
        <time>2012-12-11T15:19:45.1Z</time>
      </trkpt>
      <trkpt lat="47.25981" lon="4.97606">
        <ele>300</ele>
        <time>2012-12-11T15:19:47.1Z</time>
      </trkpt>
      <trkpt lat="47.25984" lon="4.97606">
        <ele>300</ele>
        <time>2012-12-11T15:19:49.1Z</time>
      </trkpt>
      <trkpt lat="47.25986" lon="4.97606">
        <ele>301</ele>
        <time>2012-12-11T15:19:51.1Z</time>
      </trkpt>
      <trkpt lat="47.25989" lon="4.97607">
        <ele>301</ele>
        <time>2012-12-11T15:19:53.1Z</time>
      </trkpt>
      <trkpt lat="47.25991" lon="4.97607">
        <ele>301</ele>
        <time>2012-12-11T15:19:55.1Z</time>
      </trkpt>
      <trkpt lat="47.25994" lon="4.97608">
        <ele>301</ele>
        <time>2012-12-11T15:19:57.1Z</time>
      </trkpt>
      <trkpt lat="47.25996" lon="4.97608">
        <ele>300</ele>
        <time>2012-12-11T15:19:59.1Z</time>
      </trkpt>
      <trkpt lat="47.25998" lon="4.97608">
        <ele>300</ele>
        <time>2012-12-11T15:20:01.1Z</time>
      </trkpt>
      <trkpt lat="47.26001" lon="4.97609">
        <ele>300</ele>
        <time>2012-12-11T15:20:04.1Z</time>
      </trkpt>
      <trkpt lat="47.26004" lon="4.97609">
        <ele>301</ele>
        <time>2012-12-11T15:20:06.1Z</time>
      </trkpt>
      <trkpt lat="47.26007" lon="4.97609">
        <ele>301</ele>
        <time>2012-12-11T15:20:08.1Z</time>
      </trkpt>
      <trkpt lat="47.26009" lon="4.97609">
        <ele>301</ele>
        <time>2012-12-11T15:20:10.1Z</time>
      </trkpt>
      <trkpt lat="47.26012" lon="4.9761">
        <ele>301</ele>
        <time>2012-12-11T15:20:12.1Z</time>
      </trkpt>
      <trkpt lat="47.26014" lon="4.9761">
        <ele>301</ele>
        <time>2012-12-11T15:20:15.1Z</time>
      </trkpt>
      <trkpt lat="47.26017" lon="4.9761">
        <ele>301</ele>
        <time>2012-12-11T15:20:17.1Z</time>
      </trkpt>
      <trkpt lat="47.26019" lon="4.9761">
        <ele>300</ele>
        <time>2012-12-11T15:20:19.1Z</time>
      </trkpt>
      <trkpt lat="47.26022" lon="4.9761">
        <ele>301</ele>
        <time>2012-12-11T15:20:21.1Z</time>
      </trkpt>
      <trkpt lat="47.26025" lon="4.97611">
        <ele>301</ele>
        <time>2012-12-11T15:20:23.1Z</time>
      </trkpt>
      <trkpt lat="47.26027" lon="4.97611">
        <ele>301</ele>
        <time>2012-12-11T15:20:25.1Z</time>
      </trkpt>
      <trkpt lat="47.2603" lon="4.9761">
        <ele>301</ele>
        <time>2012-12-11T15:20:27.1Z</time>
      </trkpt>
      <trkpt lat="47.26032" lon="4.97611">
        <ele>301</ele>
        <time>2012-12-11T15:20:29.1Z</time>
      </trkpt>
      <trkpt lat="47.26035" lon="4.97611">
        <ele>301</ele>
        <time>2012-12-11T15:20:31.1Z</time>
      </trkpt>
      <trkpt lat="47.26037" lon="4.97611">
        <ele>301</ele>
        <time>2012-12-11T15:20:33.1Z</time>
      </trkpt>
      <trkpt lat="47.2604" lon="4.97612">
        <ele>301</ele>
        <time>2012-12-11T15:20:35.1Z</time>
      </trkpt>
      <trkpt lat="47.26043" lon="4.97613">
        <ele>301</ele>
        <time>2012-12-11T15:20:37.1Z</time>
      </trkpt>
      <trkpt lat="47.26045" lon="4.97613">
        <ele>301</ele>
        <time>2012-12-11T15:20:39.1Z</time>
      </trkpt>
      <trkpt lat="47.26048" lon="4.97614">
        <ele>301</ele>
        <time>2012-12-11T15:20:41.1Z</time>
      </trkpt>
      <trkpt lat="47.2605" lon="4.97616">
        <ele>301</ele>
        <time>2012-12-11T15:20:43.1Z</time>
      </trkpt>
      <trkpt lat="47.26051" lon="4.97616">
        <ele>301</ele>
        <time>2012-12-11T15:20:45.1Z</time>
      </trkpt>
      <trkpt lat="47.26052" lon="4.97616">
        <ele>301</ele>
        <time>2012-12-11T15:20:47.1Z</time>
      </trkpt>
      <trkpt lat="47.26054" lon="4.97616">
        <ele>301</ele>
        <time>2012-12-11T15:20:49.1Z</time>
      </trkpt>
      <trkpt lat="47.26056" lon="4.97617">
        <ele>300</ele>
        <time>2012-12-11T15:20:52.1Z</time>
      </trkpt>
      <trkpt lat="47.26058" lon="4.97618">
        <ele>301</ele>
        <time>2012-12-11T15:20:54.1Z</time>
      </trkpt>
      <trkpt lat="47.2606" lon="4.97619">
        <ele>300</ele>
        <time>2012-12-11T15:20:56.1Z</time>
      </trkpt>
      <trkpt lat="47.26062" lon="4.9762">
        <ele>300</ele>
        <time>2012-12-11T15:20:58.1Z</time>
      </trkpt>
      <trkpt lat="47.26064" lon="4.97621">
        <ele>300</ele>
        <time>2012-12-11T15:21:00.1Z</time>
      </trkpt>
      <trkpt lat="47.26067" lon="4.97623">
        <ele>300</ele>
        <time>2012-12-11T15:21:02.1Z</time>
      </trkpt>
      <trkpt lat="47.2607" lon="4.97624">
        <ele>300</ele>
        <time>2012-12-11T15:21:04.1Z</time>
      </trkpt>
      <trkpt lat="47.26072" lon="4.97625">
        <ele>300</ele>
        <time>2012-12-11T15:21:06.1Z</time>
      </trkpt>
      <trkpt lat="47.26074" lon="4.97627">
        <ele>299</ele>
        <time>2012-12-11T15:21:08.1Z</time>
      </trkpt>
      <trkpt lat="47.26075" lon="4.9763">
        <ele>299</ele>
        <time>2012-12-11T15:21:10.1Z</time>
      </trkpt>
      <trkpt lat="47.26076" lon="4.97633">
        <ele>299</ele>
        <time>2012-12-11T15:21:12.1Z</time>
      </trkpt>
      <trkpt lat="47.26076" lon="4.97637">
        <ele>299</ele>
        <time>2012-12-11T15:21:14.1Z</time>
      </trkpt>
      <trkpt lat="47.26075" lon="4.9764">
        <ele>299</ele>
        <time>2012-12-11T15:21:16.1Z</time>
      </trkpt>
      <trkpt lat="47.26074" lon="4.97643">
        <ele>299</ele>
        <time>2012-12-11T15:21:19.1Z</time>
      </trkpt>
      <trkpt lat="47.26073" lon="4.97647">
        <ele>299</ele>
        <time>2012-12-11T15:21:21.1Z</time>
      </trkpt>
      <trkpt lat="47.26072" lon="4.9765">
        <ele>299</ele>
        <time>2012-12-11T15:21:23.1Z</time>
      </trkpt>
      <trkpt lat="47.26071" lon="4.97653">
        <ele>299</ele>
        <time>2012-12-11T15:21:25.1Z</time>
      </trkpt>
      <trkpt lat="47.2607" lon="4.97656">
        <ele>299</ele>
        <time>2012-12-11T15:21:27.1Z</time>
      </trkpt>
      <trkpt lat="47.2607" lon="4.97659">
        <ele>298</ele>
        <time>2012-12-11T15:21:29.1Z</time>
      </trkpt>
      <trkpt lat="47.2607" lon="4.97663">
        <ele>298</ele>
        <time>2012-12-11T15:21:31.1Z</time>
      </trkpt>
      <trkpt lat="47.2607" lon="4.97667">
        <ele>298</ele>
        <time>2012-12-11T15:21:34.1Z</time>
      </trkpt>
      <trkpt lat="47.26068" lon="4.97672">
        <ele>298</ele>
        <time>2012-12-11T15:21:36.1Z</time>
      </trkpt>
      <trkpt lat="47.26067" lon="4.97676">
        <ele>298</ele>
        <time>2012-12-11T15:21:38.1Z</time>
      </trkpt>
      <trkpt lat="47.26066" lon="4.97679">
        <ele>297</ele>
        <time>2012-12-11T15:21:40.1Z</time>
      </trkpt>
      <trkpt lat="47.26065" lon="4.97682">
        <ele>297</ele>
        <time>2012-12-11T15:21:42.1Z</time>
      </trkpt>
      <trkpt lat="47.26064" lon="4.97685">
        <ele>297</ele>
        <time>2012-12-11T15:21:44.1Z</time>
      </trkpt>
      <trkpt lat="47.26063" lon="4.97688">
        <ele>296</ele>
        <time>2012-12-11T15:21:46.1Z</time>
      </trkpt>
      <trkpt lat="47.26064" lon="4.97691">
        <ele>296</ele>
        <time>2012-12-11T15:21:48.1Z</time>
      </trkpt>
      <trkpt lat="47.26065" lon="4.97694">
        <ele>296</ele>
        <time>2012-12-11T15:21:50.1Z</time>
      </trkpt>
      <trkpt lat="47.26066" lon="4.97697">
        <ele>296</ele>
        <time>2012-12-11T15:21:52.1Z</time>
      </trkpt>
      <trkpt lat="47.26068" lon="4.977">
        <ele>296</ele>
        <time>2012-12-11T15:21:54.1Z</time>
      </trkpt>
      <trkpt lat="47.26069" lon="4.97704">
        <ele>296</ele>
        <time>2012-12-11T15:21:56.1Z</time>
      </trkpt>
      <trkpt lat="47.26069" lon="4.97708">
        <ele>296</ele>
        <time>2012-12-11T15:21:58.1Z</time>
      </trkpt>
      <trkpt lat="47.26069" lon="4.97712">
        <ele>295</ele>
        <time>2012-12-11T15:22:00.1Z</time>
      </trkpt>
      <trkpt lat="47.26068" lon="4.97716">
        <ele>295</ele>
        <time>2012-12-11T15:22:02.1Z</time>
      </trkpt>
      <trkpt lat="47.26068" lon="4.9772">
        <ele>295</ele>
        <time>2012-12-11T15:22:04.1Z</time>
      </trkpt>
      <trkpt lat="47.26068" lon="4.97723">
        <ele>295</ele>
        <time>2012-12-11T15:22:07.1Z</time>
      </trkpt>
      <trkpt lat="47.26067" lon="4.97729">
        <ele>295</ele>
        <time>2012-12-11T15:22:09.1Z</time>
      </trkpt>
      <trkpt lat="47.26067" lon="4.97733">
        <ele>295</ele>
        <time>2012-12-11T15:22:11.1Z</time>
      </trkpt>
      <trkpt lat="47.26067" lon="4.97737">
        <ele>295</ele>
        <time>2012-12-11T15:22:13.1Z</time>
      </trkpt>
      <trkpt lat="47.26067" lon="4.97741">
        <ele>295</ele>
        <time>2012-12-11T15:22:15.1Z</time>
      </trkpt>
      <trkpt lat="47.26067" lon="4.97743">
        <ele>295</ele>
        <time>2012-12-11T15:22:17.1Z</time>
      </trkpt>
      <trkpt lat="47.26068" lon="4.97746">
        <ele>295</ele>
        <time>2012-12-11T15:22:19.1Z</time>
      </trkpt>
      <trkpt lat="47.26068" lon="4.97749">
        <ele>295</ele>
        <time>2012-12-11T15:22:22.1Z</time>
      </trkpt>
      <trkpt lat="47.26068" lon="4.97754">
        <ele>295</ele>
        <time>2012-12-11T15:22:24.1Z</time>
      </trkpt>
      <trkpt lat="47.26068" lon="4.97757">
        <ele>294</ele>
        <time>2012-12-11T15:22:26.1Z</time>
      </trkpt>
      <trkpt lat="47.26067" lon="4.9776">
        <ele>294</ele>
        <time>2012-12-11T15:22:28.1Z</time>
      </trkpt>
      <trkpt lat="47.26067" lon="4.97764">
        <ele>294</ele>
        <time>2012-12-11T15:22:30.1Z</time>
      </trkpt>
      <trkpt lat="47.26066" lon="4.97767">
        <ele>294</ele>
        <time>2012-12-11T15:22:32.1Z</time>
      </trkpt>
      <trkpt lat="47.26065" lon="4.9777">
        <ele>293</ele>
        <time>2012-12-11T15:22:35.1Z</time>
      </trkpt>
      <trkpt lat="47.26065" lon="4.97775">
        <ele>293</ele>
        <time>2012-12-11T15:22:37.1Z</time>
      </trkpt>
      <trkpt lat="47.26064" lon="4.97778">
        <ele>293</ele>
        <time>2012-12-11T15:22:39.1Z</time>
      </trkpt>
      <trkpt lat="47.26064" lon="4.97782">
        <ele>293</ele>
        <time>2012-12-11T15:22:41.1Z</time>
      </trkpt>
      <trkpt lat="47.26063" lon="4.97784">
        <ele>293</ele>
        <time>2012-12-11T15:22:43.1Z</time>
      </trkpt>
      <trkpt lat="47.26062" lon="4.97787">
        <ele>293</ele>
        <time>2012-12-11T15:22:45.1Z</time>
      </trkpt>
      <trkpt lat="47.26062" lon="4.9779">
        <ele>293</ele>
        <time>2012-12-11T15:22:47.1Z</time>
      </trkpt>
      <trkpt lat="47.26061" lon="4.97793">
        <ele>292</ele>
        <time>2012-12-11T15:22:49.1Z</time>
      </trkpt>
      <trkpt lat="47.2606" lon="4.97797">
        <ele>292</ele>
        <time>2012-12-11T15:22:51.1Z</time>
      </trkpt>
      <trkpt lat="47.2606" lon="4.978">
        <ele>292</ele>
        <time>2012-12-11T15:22:53.1Z</time>
      </trkpt>
      <trkpt lat="47.26061" lon="4.97803">
        <ele>291</ele>
        <time>2012-12-11T15:22:55.1Z</time>
      </trkpt>
      <trkpt lat="47.26062" lon="4.97806">
        <ele>291</ele>
        <time>2012-12-11T15:22:57.1Z</time>
      </trkpt>
      <trkpt lat="47.26064" lon="4.97808">
        <ele>291</ele>
        <time>2012-12-11T15:22:59.1Z</time>
      </trkpt>
      <trkpt lat="47.26066" lon="4.9781">
        <ele>291</ele>
        <time>2012-12-11T15:23:02.1Z</time>
      </trkpt>
      <trkpt lat="47.26068" lon="4.97812">
        <ele>291</ele>
        <time>2012-12-11T15:23:04.1Z</time>
      </trkpt>
      <trkpt lat="47.2607" lon="4.97813">
        <ele>291</ele>
        <time>2012-12-11T15:23:06.1Z</time>
      </trkpt>
      <trkpt lat="47.26071" lon="4.97816">
        <ele>290</ele>
        <time>2012-12-11T15:23:08.1Z</time>
      </trkpt>
      <trkpt lat="47.26072" lon="4.97821">
        <ele>290</ele>
        <time>2012-12-11T15:23:10.1Z</time>
      </trkpt>
      <trkpt lat="47.26071" lon="4.97825">
        <ele>290</ele>
        <time>2012-12-11T15:23:12.1Z</time>
      </trkpt>
      <trkpt lat="47.2607" lon="4.97828">
        <ele>290</ele>
        <time>2012-12-11T15:23:14.1Z</time>
      </trkpt>
      <trkpt lat="47.26068" lon="4.97832">
        <ele>290</ele>
        <time>2012-12-11T15:23:16.1Z</time>
      </trkpt>
      <trkpt lat="47.26067" lon="4.97835">
        <ele>289</ele>
        <time>2012-12-11T15:23:18.1Z</time>
      </trkpt>
      <trkpt lat="47.26066" lon="4.97838">
        <ele>289</ele>
        <time>2012-12-11T15:23:20.1Z</time>
      </trkpt>
      <trkpt lat="47.26064" lon="4.97841">
        <ele>289</ele>
        <time>2012-12-11T15:23:22.1Z</time>
      </trkpt>
      <trkpt lat="47.26062" lon="4.97843">
        <ele>289</ele>
        <time>2012-12-11T15:23:24.1Z</time>
      </trkpt>
      <trkpt lat="47.2606" lon="4.97845">
        <ele>289</ele>
        <time>2012-12-11T15:23:26.1Z</time>
      </trkpt>
      <trkpt lat="47.26057" lon="4.97848">
        <ele>289</ele>
        <time>2012-12-11T15:23:28.1Z</time>
      </trkpt>
      <trkpt lat="47.26055" lon="4.97849">
        <ele>288</ele>
        <time>2012-12-11T15:23:31.1Z</time>
      </trkpt>
      <trkpt lat="47.26052" lon="4.97853">
        <ele>288</ele>
        <time>2012-12-11T15:23:33.1Z</time>
      </trkpt>
      <trkpt lat="47.2605" lon="4.97855">
        <ele>288</ele>
        <time>2012-12-11T15:23:35.1Z</time>
      </trkpt>
      <trkpt lat="47.26048" lon="4.97858">
        <ele>288</ele>
        <time>2012-12-11T15:23:37.1Z</time>
      </trkpt>
      <trkpt lat="47.26046" lon="4.97861">
        <ele>288</ele>
        <time>2012-12-11T15:23:39.1Z</time>
      </trkpt>
      <trkpt lat="47.26044" lon="4.97862">
        <ele>287</ele>
        <time>2012-12-11T15:23:41.1Z</time>
      </trkpt>
      <trkpt lat="47.26042" lon="4.97864">
        <ele>287</ele>
        <time>2012-12-11T15:23:43.1Z</time>
      </trkpt>
      <trkpt lat="47.2604" lon="4.97865">
        <ele>287</ele>
        <time>2012-12-11T15:23:46.1Z</time>
      </trkpt>
      <trkpt lat="47.26037" lon="4.97865">
        <ele>287</ele>
        <time>2012-12-11T15:23:48.1Z</time>
      </trkpt>
      <trkpt lat="47.26035" lon="4.97865">
        <ele>287</ele>
        <time>2012-12-11T15:23:50.1Z</time>
      </trkpt>
      <trkpt lat="47.26033" lon="4.97865">
        <ele>287</ele>
        <time>2012-12-11T15:23:52.1Z</time>
      </trkpt>
      <trkpt lat="47.26032" lon="4.97867">
        <ele>287</ele>
        <time>2012-12-11T15:23:54.1Z</time>
      </trkpt>
      <trkpt lat="47.26031" lon="4.9787">
        <ele>287</ele>
        <time>2012-12-11T15:23:56.1Z</time>
      </trkpt>
      <trkpt lat="47.26029" lon="4.97874">
        <ele>287</ele>
        <time>2012-12-11T15:23:58.1Z</time>
      </trkpt>
      <trkpt lat="47.26027" lon="4.97877">
        <ele>287</ele>
        <time>2012-12-11T15:24:00.1Z</time>
      </trkpt>
      <trkpt lat="47.26024" lon="4.97877">
        <ele>287</ele>
        <time>2012-12-11T15:24:02.1Z</time>
      </trkpt>
      <trkpt lat="47.26023" lon="4.97877">
        <ele>287</ele>
        <time>2012-12-11T15:24:04.1Z</time>
      </trkpt>
      <trkpt lat="47.26021" lon="4.97877">
        <ele>287</ele>
        <time>2012-12-11T15:24:07.1Z</time>
      </trkpt>
      <trkpt lat="47.26018" lon="4.97878">
        <ele>287</ele>
        <time>2012-12-11T15:24:09.1Z</time>
      </trkpt>
      <trkpt lat="47.26017" lon="4.97879">
        <ele>286</ele>
        <time>2012-12-11T15:24:11.1Z</time>
      </trkpt>
      <trkpt lat="47.26017" lon="4.97879">
        <ele>286</ele>
        <time>2012-12-11T15:24:13.1Z</time>
      </trkpt>
      <trkpt lat="47.26017" lon="4.9788">
        <ele>286</ele>
        <time>2012-12-11T15:24:15.1Z</time>
      </trkpt>
      <trkpt lat="47.26017" lon="4.9788">
        <ele>286</ele>
        <time>2012-12-11T15:24:17.1Z</time>
      </trkpt>
      <trkpt lat="47.26017" lon="4.9788">
        <ele>286</ele>
        <time>2012-12-11T15:24:20.1Z</time>
      </trkpt>
      <trkpt lat="47.26016" lon="4.9788">
        <ele>286</ele>
        <time>2012-12-11T15:24:22.1Z</time>
      </trkpt>
      <trkpt lat="47.26016" lon="4.97881">
        <ele>286</ele>
        <time>2012-12-11T15:24:24.1Z</time>
      </trkpt>
      <trkpt lat="47.26016" lon="4.97881">
        <ele>286</ele>
        <time>2012-12-11T15:24:26.1Z</time>
      </trkpt>
      <trkpt lat="47.26016" lon="4.97881">
        <ele>286</ele>
        <time>2012-12-11T15:24:28.1Z</time>
      </trkpt>
      <trkpt lat="47.26016" lon="4.9788">
        <ele>286</ele>
        <time>2012-12-11T15:24:30.1Z</time>
      </trkpt>
      <trkpt lat="47.26016" lon="4.9788">
        <ele>287</ele>
        <time>2012-12-11T15:24:32.1Z</time>
      </trkpt>
      <trkpt lat="47.26016" lon="4.97879">
        <ele>286</ele>
        <time>2012-12-11T15:24:34.1Z</time>
      </trkpt>
      <trkpt lat="47.26016" lon="4.9788">
        <ele>286</ele>
        <time>2012-12-11T15:24:36.1Z</time>
      </trkpt>
      <trkpt lat="47.26015" lon="4.97881">
        <ele>286</ele>
        <time>2012-12-11T15:24:38.1Z</time>
      </trkpt>
      <trkpt lat="47.26014" lon="4.97881">
        <ele>286</ele>
        <time>2012-12-11T15:24:40.1Z</time>
      </trkpt>
      <trkpt lat="47.26013" lon="4.97883">
        <ele>286</ele>
        <time>2012-12-11T15:24:42.1Z</time>
      </trkpt>
      <trkpt lat="47.26012" lon="4.97884">
        <ele>286</ele>
        <time>2012-12-11T15:24:45.1Z</time>
      </trkpt>
      <trkpt lat="47.26012" lon="4.97884">
        <ele>287</ele>
        <time>2012-12-11T15:24:47.1Z</time>
      </trkpt>
      <trkpt lat="47.26012" lon="4.97884">
        <ele>287</ele>
        <time>2012-12-11T15:24:49.1Z</time>
      </trkpt>
      <trkpt lat="47.26011" lon="4.97884">
        <ele>287</ele>
        <time>2012-12-11T15:24:51.1Z</time>
      </trkpt>
      <trkpt lat="47.2601" lon="4.97885">
        <ele>287</ele>
        <time>2012-12-11T15:24:53.1Z</time>
      </trkpt>
      <trkpt lat="47.26009" lon="4.97886">
        <ele>287</ele>
        <time>2012-12-11T15:24:55.1Z</time>
      </trkpt>
      <trkpt lat="47.26009" lon="4.97886">
        <ele>287</ele>
        <time>2012-12-11T15:24:57.1Z</time>
      </trkpt>
      <trkpt lat="47.26009" lon="4.97886">
        <ele>287</ele>
        <time>2012-12-11T15:24:59.1Z</time>
      </trkpt>
      <trkpt lat="47.26009" lon="4.97886">
        <ele>286</ele>
        <time>2012-12-11T15:25:01.1Z</time>
      </trkpt>
      <trkpt lat="47.26009" lon="4.97886">
        <ele>286</ele>
        <time>2012-12-11T15:25:03.1Z</time>
      </trkpt>
      <trkpt lat="47.26008" lon="4.97887">
        <ele>286</ele>
        <time>2012-12-11T15:25:05.1Z</time>
      </trkpt>
      <trkpt lat="47.26008" lon="4.97889">
        <ele>286</ele>
        <time>2012-12-11T15:25:07.1Z</time>
      </trkpt>
      <trkpt lat="47.26008" lon="4.9789">
        <ele>286</ele>
        <time>2012-12-11T15:25:09.1Z</time>
      </trkpt>
      <trkpt lat="47.26009" lon="4.9789">
        <ele>286</ele>
        <time>2012-12-11T15:25:11.1Z</time>
      </trkpt>
      <trkpt lat="47.26009" lon="4.97891">
        <ele>286</ele>
        <time>2012-12-11T15:25:14.1Z</time>
      </trkpt>
      <trkpt lat="47.26009" lon="4.97893">
        <ele>286</ele>
        <time>2012-12-11T15:25:16.1Z</time>
      </trkpt>
      <trkpt lat="47.26009" lon="4.97893">
        <ele>286</ele>
        <time>2012-12-11T15:25:18.1Z</time>
      </trkpt>
      <trkpt lat="47.26007" lon="4.97892">
        <ele>286</ele>
        <time>2012-12-11T15:25:20.1Z</time>
      </trkpt>
      <trkpt lat="47.26006" lon="4.97891">
        <ele>286</ele>
        <time>2012-12-11T15:25:22.1Z</time>
      </trkpt>
      <trkpt lat="47.26005" lon="4.97892">
        <ele>286</ele>
        <time>2012-12-11T15:25:24.1Z</time>
      </trkpt>
      <trkpt lat="47.26004" lon="4.97894">
        <ele>286</ele>
        <time>2012-12-11T15:25:26.1Z</time>
      </trkpt>
      <trkpt lat="47.26004" lon="4.97895">
        <ele>286</ele>
        <time>2012-12-11T15:25:27.1Z</time>
      </trkpt>
    </trkseg>
  </trk>
</gpx>